<?xml version='1.0' encoding='UTF-8'?><gpx version="1.1" creator="JPX - https://github.com/jenetics/jpx" xmlns="http://www.topografix.com/GPX/1/1"><trk><trkseg><trkpt lat="38.026226523646095" lon="13.218481454472984"><ele>856.0000000000001</ele><time>2026-03-22T12:31:19.001Z</time></trkpt><trkpt lat="38.026159410630754" lon="13.21846254146856"><ele>856.0</ele><time>2026-03-22T12:31:25.001Z</time></trkpt><trkpt lat="38.02623220292262" lon="13.218458533232424"><ele>856.0</ele><time>2026-03-22T12:33:35Z</time></trkpt><trkpt lat="38.02628810583392" lon="13.218505414802006"><ele>856.0</ele><time>2026-03-22T12:50:35Z</time></trkpt><trkpt lat="38.02635145160464" lon="13.218531933986787"><ele>856.0</ele><time>2026-03-22T12:50:40Z</time></trkpt><trkpt lat="38.026422762228066" lon="13.21856597865319"><ele>856.0000000000001</ele><time>2026-03-22T12:50:43Z</time></trkpt><trkpt lat="38.02649009246109" lon="13.218600226253333"><ele>856.0</ele><time>2026-03-22T12:50:46Z</time></trkpt><trkpt lat="38.026550302303974" lon="13.218639993241666"><ele>855.9999999999999</ele><time>2026-03-22T12:50:49Z</time></trkpt><trkpt lat="38.02661683217981" lon="13.218702791897726"><ele>856.0</ele><time>2026-03-22T12:50:51Z</time></trkpt><trkpt lat="38.02668133109565" lon="13.218774078121026"><ele>856.0</ele><time>2026-03-22T12:50:53Z</time></trkpt><trkpt lat="38.0267311376302" lon="13.218838651603361"><ele>856.0</ele><time>2026-03-22T12:50:55Z</time></trkpt><trkpt lat="38.02680734737554" lon="13.218916498309605"><ele>855.9999999999999</ele><time>2026-03-22T12:50:57Z</time></trkpt><trkpt lat="38.02688544320373" lon="13.21898826789822"><ele>856.0</ele><time>2026-03-22T12:50:59Z</time></trkpt><trkpt lat="38.026962340333334" lon="13.219071230200285"><ele>854.5999999999999</ele><time>2026-03-22T12:51:01Z</time></trkpt><trkpt lat="38.02703751256038" lon="13.219173642465089"><ele>853.1999999999999</ele><time>2026-03-22T12:51:03Z</time></trkpt><trkpt lat="38.027115555124055" lon="13.219275055433556"><ele>851.8</ele><time>2026-03-22T12:51:05Z</time></trkpt><trkpt lat="38.02718499927887" lon="13.219333195359635"><ele>850.4000000000001</ele><time>2026-03-22T12:51:07Z</time></trkpt><trkpt lat="38.02725387414553" lon="13.219399042950437"><ele>849.0</ele><time>2026-03-22T12:51:09Z</time></trkpt><trkpt lat="38.027304380431914" lon="13.219332813959225"><ele>849.0</ele><time>2026-03-22T12:51:13.001Z</time></trkpt><trkpt lat="38.02729198998083" lon="13.21923502681349"><ele>849.0</ele><time>2026-03-22T12:51:15.001Z</time></trkpt><trkpt lat="38.02727259621854" lon="13.219110450190914"><ele>849.0</ele><time>2026-03-22T12:51:17.001Z</time></trkpt><trkpt lat="38.02731128339646" lon="13.218998543065153"><ele>849.0</ele><time>2026-03-22T12:51:19.001Z</time></trkpt><trkpt lat="38.02735917873386" lon="13.218905584462584"><ele>849.0</ele><time>2026-03-22T12:51:21.001Z</time></trkpt><trkpt lat="38.027425772448005" lon="13.218894522317385"><ele>849.0</ele><time>2026-03-22T12:51:24.001Z</time></trkpt><trkpt lat="38.0274739218908" lon="13.218971774275548"><ele>844.0</ele><time>2026-03-22T12:51:26.001Z</time></trkpt><trkpt lat="38.0275285337534" lon="13.219061816687965"><ele>839.0</ele><time>2026-03-22T12:51:28.001Z</time></trkpt><trkpt lat="38.027582527515975" lon="13.219155613848093"><ele>834.0</ele><time>2026-03-22T12:51:30.001Z</time></trkpt><trkpt lat="38.02763604477696" lon="13.219218313412098"><ele>829.0</ele><time>2026-03-22T12:51:31.999Z</time></trkpt><trkpt lat="38.027702969352454" lon="13.219277781731853"><ele>824.0</ele><time>2026-03-22T12:51:33.999Z</time></trkpt><trkpt lat="38.027761418137416" lon="13.219355634908284"><ele>819.0</ele><time>2026-03-22T12:51:35.999Z</time></trkpt><trkpt lat="38.02778602436418" lon="13.219501074271625"><ele>819.0</ele><time>2026-03-22T12:51:37.999Z</time></trkpt><trkpt lat="38.027811351252296" lon="13.219581732045672"><ele>819.0</ele><time>2026-03-22T12:51:38.999Z</time></trkpt><trkpt lat="38.02784941873482" lon="13.219657481493313"><ele>819.0</ele><time>2026-03-22T12:51:39.999Z</time></trkpt><trkpt lat="38.0278898554313" lon="13.219729489920567"><ele>819.0</ele><time>2026-03-22T12:51:40.999Z</time></trkpt><trkpt lat="38.02793710636727" lon="13.21979827568871"><ele>819.0</ele><time>2026-03-22T12:51:41.999Z</time></trkpt><trkpt lat="38.028007834388966" lon="13.21990121020638"><ele>819.0</ele><time>2026-03-22T12:51:43.999Z</time></trkpt><trkpt lat="38.02806485471562" lon="13.220034798247948"><ele>818.6666666666666</ele><time>2026-03-22T12:51:45.999Z</time></trkpt><trkpt lat="38.028073603665774" lon="13.220159059856494"><ele>818.3333333333333</ele><time>2026-03-22T12:51:47.999Z</time></trkpt><trkpt lat="38.02806919938562" lon="13.220277272295037"><ele>818.0</ele><time>2026-03-22T12:51:49.999Z</time></trkpt><trkpt lat="38.02806197885843" lon="13.220364618829894"><ele>817.6666666666666</ele><time>2026-03-22T12:51:50.999Z</time></trkpt><trkpt lat="38.02804321836407" lon="13.220452379283326"><ele>817.3333333333333</ele><time>2026-03-22T12:51:51.999Z</time></trkpt><trkpt lat="38.028013819270804" lon="13.22054520581599"><ele>817.0</ele><time>2026-03-22T12:51:52.999Z</time></trkpt><trkpt lat="38.027978948875266" lon="13.220621969905842"><ele>815.4285714285713</ele><time>2026-03-22T12:51:53.999Z</time></trkpt><trkpt lat="38.02796201278052" lon="13.220699513792729"><ele>813.8571428571429</ele><time>2026-03-22T12:51:54.999Z</time></trkpt><trkpt lat="38.02794732176581" lon="13.220800241050176"><ele>812.2857142857142</ele><time>2026-03-22T12:51:55.999Z</time></trkpt><trkpt lat="38.02793716699636" lon="13.220905176218459"><ele>810.7142857142857</ele><time>2026-03-22T12:51:56.999Z</time></trkpt><trkpt lat="38.02793833209419" lon="13.22098640291762"><ele>809.1428571428571</ele><time>2026-03-22T12:51:57.999Z</time></trkpt><trkpt lat="38.02795706243414" lon="13.221093722187348"><ele>807.5714285714286</ele><time>2026-03-22T12:51:58.999Z</time></trkpt><trkpt lat="38.02798173221042" lon="13.22117858737019"><ele>806.0</ele><time>2026-03-22T12:51:59.999Z</time></trkpt><trkpt lat="38.02801571830222" lon="13.22125741552147"><ele>806.0</ele><time>2026-03-22T12:52:00.999Z</time></trkpt><trkpt lat="38.02804349754467" lon="13.221338254590485"><ele>806.0</ele><time>2026-03-22T12:52:01.999Z</time></trkpt><trkpt lat="38.02807478751175" lon="13.221442764136489"><ele>806.0</ele><time>2026-03-22T12:52:02.999Z</time></trkpt><trkpt lat="38.02811251894744" lon="13.221534592115383"><ele>806.0</ele><time>2026-03-22T12:52:03.999Z</time></trkpt><trkpt lat="38.02815423672343" lon="13.221616770209723"><ele>806.0</ele><time>2026-03-22T12:52:04.999Z</time></trkpt><trkpt lat="38.02823130797972" lon="13.221760800276773"><ele>804.8333333333334</ele><time>2026-03-22T12:52:07Z</time></trkpt><trkpt lat="38.028266192176744" lon="13.22183056238977"><ele>803.6666666666667</ele><time>2026-03-22T12:52:08Z</time></trkpt><trkpt lat="38.02830422886329" lon="13.22191255951252"><ele>802.5</ele><time>2026-03-22T12:52:09Z</time></trkpt><trkpt lat="38.02833633962645" lon="13.222008768224814"><ele>801.3333333333333</ele><time>2026-03-22T12:52:10Z</time></trkpt><trkpt lat="38.02837125062636" lon="13.222100562771267"><ele>800.1666666666666</ele><time>2026-03-22T12:52:11Z</time></trkpt><trkpt lat="38.02840429421268" lon="13.222200057600647"><ele>799.0</ele><time>2026-03-22T12:52:12Z</time></trkpt><trkpt lat="38.02843861316329" lon="13.222284323218666"><ele>793.1666666666666</ele><time>2026-03-22T12:52:13Z</time></trkpt><trkpt lat="38.02848028758619" lon="13.222380847644974"><ele>787.3333333333333</ele><time>2026-03-22T12:52:14Z</time></trkpt><trkpt lat="38.02850892459854" lon="13.22246953915339"><ele>781.5</ele><time>2026-03-22T12:52:15Z</time></trkpt><trkpt lat="38.02854676347359" lon="13.222559165492001"><ele>775.6666666666666</ele><time>2026-03-22T12:52:16Z</time></trkpt><trkpt lat="38.02857765570294" lon="13.222635426825413"><ele>769.8333333333333</ele><time>2026-03-22T12:52:17Z</time></trkpt><trkpt lat="38.028614577880724" lon="13.222728915760516"><ele>764.0</ele><time>2026-03-22T12:52:18Z</time></trkpt><trkpt lat="38.028638408807076" lon="13.222818751122489"><ele>764.0</ele><time>2026-03-22T12:52:19Z</time></trkpt><trkpt lat="38.02866199305624" lon="13.222899932656336"><ele>764.0</ele><time>2026-03-22T12:52:20Z</time></trkpt><trkpt lat="38.0287058287788" lon="13.222972382810049"><ele>764.0</ele><time>2026-03-22T12:52:21Z</time></trkpt><trkpt lat="38.0287659927524" lon="13.223024024225907"><ele>764.0</ele><time>2026-03-22T12:52:22Z</time></trkpt><trkpt lat="38.028877917862495" lon="13.22308102272598"><ele>764.0</ele><time>2026-03-22T12:52:24Z</time></trkpt><trkpt lat="38.02894813126227" lon="13.223113422648463"><ele>764.0</ele><time>2026-03-22T12:52:26Z</time></trkpt><trkpt lat="38.02902325673099" lon="13.223156488026335"><ele>765.1666666666666</ele><time>2026-03-22T12:52:38Z</time></trkpt><trkpt lat="38.02907928768846" lon="13.223194526588705"><ele>766.3333333333333</ele><time>2026-03-22T12:52:40Z</time></trkpt><trkpt lat="38.02914190175383" lon="13.223265919586915"><ele>767.5</ele><time>2026-03-22T12:52:42Z</time></trkpt><trkpt lat="38.02920701039374" lon="13.22334083055534"><ele>768.6666666666666</ele><time>2026-03-22T12:52:44Z</time></trkpt><trkpt lat="38.02926696344494" lon="13.223417854399594"><ele>769.8333333333334</ele><time>2026-03-22T12:52:46Z</time></trkpt><trkpt lat="38.02933265943859" lon="13.223509353998002"><ele>771.0</ele><time>2026-03-22T12:52:48Z</time></trkpt><trkpt lat="38.02937955204001" lon="13.223641110749135"><ele>769.0</ele><time>2026-03-22T12:52:50Z</time></trkpt><trkpt lat="38.02941621035569" lon="13.223726277245625"><ele>767.0</ele><time>2026-03-22T12:52:51Z</time></trkpt><trkpt lat="38.02946909463319" lon="13.223860789648109"><ele>765.0</ele><time>2026-03-22T12:52:53Z</time></trkpt><trkpt lat="38.029543573434076" lon="13.22398231171428"><ele>763.0</ele><time>2026-03-22T12:52:55Z</time></trkpt><trkpt lat="38.029594124467536" lon="13.224044102261969"><ele>761.0</ele><time>2026-03-22T12:52:56Z</time></trkpt><trkpt lat="38.02964888554396" lon="13.22410301234226"><ele>761.0</ele><time>2026-03-22T12:52:57Z</time></trkpt><trkpt lat="38.0297476958453" lon="13.224190032997587"><ele>761.0</ele><time>2026-03-22T12:52:59Z</time></trkpt><trkpt lat="38.02984877818457" lon="13.224264768293247"><ele>761.0</ele><time>2026-03-22T12:53:01Z</time></trkpt><trkpt lat="38.02994146076435" lon="13.224309623494815"><ele>761.0</ele><time>2026-03-22T12:53:03Z</time></trkpt><trkpt lat="38.030014255687185" lon="13.22435949303709"><ele>761.0</ele><time>2026-03-22T12:53:05Z</time></trkpt><trkpt lat="38.03009530514287" lon="13.224423036029277"><ele>759.5714285714286</ele><time>2026-03-22T12:53:08Z</time></trkpt><trkpt lat="38.03015273044578" lon="13.224477581460697"><ele>758.1428571428571</ele><time>2026-03-22T12:53:10Z</time></trkpt><trkpt lat="38.030214090618166" lon="13.224517503211414"><ele>756.7142857142858</ele><time>2026-03-22T12:53:12Z</time></trkpt><trkpt lat="38.0302743780084" lon="13.224579316933264"><ele>755.2857142857142</ele><time>2026-03-22T12:53:14Z</time></trkpt><trkpt lat="38.03033607623402" lon="13.22464038266614"><ele>753.8571428571429</ele><time>2026-03-22T12:53:16Z</time></trkpt><trkpt lat="38.03037193596782" lon="13.224706979491675"><ele>752.4285714285714</ele><time>2026-03-22T12:53:18Z</time></trkpt><trkpt lat="38.03041733066047" lon="13.224770250410577"><ele>751.0</ele><time>2026-03-22T12:53:20Z</time></trkpt><trkpt lat="38.03051072894511" lon="13.224806215015866"><ele>751.3333333333334</ele><time>2026-03-22T12:53:23Z</time></trkpt><trkpt lat="38.03054308932835" lon="13.224895082334218"><ele>751.6666666666667</ele><time>2026-03-22T12:53:25Z</time></trkpt><trkpt lat="38.03058504382294" lon="13.224959858719613"><ele>752.0</ele><time>2026-03-22T12:53:26.001Z</time></trkpt><trkpt lat="38.03063821530397" lon="13.225034625066609"><ele>752.3333333333334</ele><time>2026-03-22T12:53:27.001Z</time></trkpt><trkpt lat="38.03070451082973" lon="13.225123827224028"><ele>752.6666666666666</ele><time>2026-03-22T12:53:29.001Z</time></trkpt><trkpt lat="38.03074889175654" lon="13.225228495180938"><ele>753.0</ele><time>2026-03-22T12:53:32.001Z</time></trkpt><trkpt lat="38.03080854257251" lon="13.225324790549"><ele>751.6666666666666</ele><time>2026-03-22T12:53:35.001Z</time></trkpt><trkpt lat="38.03084077319286" lon="13.225401957418395"><ele>750.3333333333334</ele><time>2026-03-22T12:53:41.998Z</time></trkpt><trkpt lat="38.030896612322515" lon="13.22549563202115"><ele>749.0</ele><time>2026-03-22T12:53:52.998Z</time></trkpt><trkpt lat="38.03093058983434" lon="13.22557242967426"><ele>747.6666666666667</ele><time>2026-03-22T12:53:54.999Z</time></trkpt><trkpt lat="38.030997055073904" lon="13.225652737859441"><ele>746.3333333333334</ele><time>2026-03-22T12:53:57.999Z</time></trkpt><trkpt lat="38.03104766706556" lon="13.225734162353458"><ele>745.0</ele><time>2026-03-22T12:53:59.999Z</time></trkpt><trkpt lat="38.03108964017416" lon="13.225803977179412"><ele>745.0</ele><time>2026-03-22T12:54:02.999Z</time></trkpt><trkpt lat="38.03115090249005" lon="13.225931624284875"><ele>745.0</ele><time>2026-03-22T12:54:05.999Z</time></trkpt><trkpt lat="38.031227466607646" lon="13.22606906511973"><ele>745.0</ele><time>2026-03-22T12:54:07.999Z</time></trkpt><trkpt lat="38.031311974581094" lon="13.226175463138688"><ele>745.0</ele><time>2026-03-22T12:54:09.999Z</time></trkpt><trkpt lat="38.031353133263956" lon="13.226270517764581"><ele>745.0</ele><time>2026-03-22T12:54:11.999Z</time></trkpt><trkpt lat="38.03139179924472" lon="13.226355403456703"><ele>745.0</ele><time>2026-03-22T12:54:14.999Z</time></trkpt><trkpt lat="38.03143738880276" lon="13.226431310595826"><ele>745.0</ele><time>2026-03-22T12:54:16.999Z</time></trkpt><trkpt lat="38.03149068342901" lon="13.226484448437336"><ele>745.0</ele><time>2026-03-22T12:54:18.999Z</time></trkpt><trkpt lat="38.03154414635573" lon="13.226546880967502"><ele>745.0</ele><time>2026-03-22T12:54:22Z</time></trkpt><trkpt lat="38.03161835914112" lon="13.226591131434036"><ele>745.0</ele><time>2026-03-22T12:54:26Z</time></trkpt><trkpt lat="38.031680391164656" lon="13.226614647681417"><ele>745.0</ele><time>2026-03-22T12:54:28Z</time></trkpt><trkpt lat="38.031776196192396" lon="13.226632154202655"><ele>743.2</ele><time>2026-03-22T12:54:30Z</time></trkpt><trkpt lat="38.031864021507076" lon="13.226633454317616"><ele>741.4</ele><time>2026-03-22T12:54:32Z</time></trkpt><trkpt lat="38.03197419253306" lon="13.226642936191345"><ele>739.5999999999999</ele><time>2026-03-22T12:54:34Z</time></trkpt><trkpt lat="38.03207040056662" lon="13.226699443889629"><ele>737.8</ele><time>2026-03-22T12:54:36Z</time></trkpt><trkpt lat="38.03215995909624" lon="13.226790060818827"><ele>736.0</ele><time>2026-03-22T12:54:38Z</time></trkpt><trkpt lat="38.03221620569491" lon="13.226854209501756"><ele>736.0</ele><time>2026-03-22T12:54:39Z</time></trkpt><trkpt lat="38.032326241682725" lon="13.226960412816743"><ele>736.0</ele><time>2026-03-22T12:54:41Z</time></trkpt><trkpt lat="38.03242756674718" lon="13.227043611615183"><ele>736.0</ele><time>2026-03-22T12:54:43Z</time></trkpt><trkpt lat="38.03251216945133" lon="13.227045462213802"><ele>736.0</ele><time>2026-03-22T12:54:45Z</time></trkpt><trkpt lat="38.03259985785685" lon="13.22706088444696"><ele>736.0</ele><time>2026-03-22T12:54:47Z</time></trkpt><trkpt lat="38.03266196649432" lon="13.227155436970225"><ele>733.5999999999999</ele><time>2026-03-22T12:54:49Z</time></trkpt><trkpt lat="38.03271025476391" lon="13.227269603022982"><ele>731.2</ele><time>2026-03-22T12:54:51Z</time></trkpt><trkpt lat="38.03277224440842" lon="13.227395127662165"><ele>728.8</ele><time>2026-03-22T12:54:53Z</time></trkpt><trkpt lat="38.03282963809699" lon="13.227501258640219"><ele>726.4000000000001</ele><time>2026-03-22T12:54:55Z</time></trkpt><trkpt lat="38.03289876376181" lon="13.227565524912157"><ele>724.0</ele><time>2026-03-22T12:54:58Z</time></trkpt><trkpt lat="38.03297790992775" lon="13.227592063672086"><ele>723.8333333333334</ele><time>2026-03-22T12:55:01Z</time></trkpt><trkpt lat="38.03302237914133" lon="13.227515939455891"><ele>723.6666666666667</ele><time>2026-03-22T12:58:11Z</time></trkpt><trkpt lat="38.03309291187823" lon="13.227448541401952"><ele>723.5</ele><time>2026-03-22T12:58:14Z</time></trkpt><trkpt lat="38.033129464711486" lon="13.227562042283806"><ele>723.3333333333334</ele><time>2026-03-22T12:58:17Z</time></trkpt><trkpt lat="38.03310198939507" lon="13.227647343738967"><ele>723.1666666666666</ele><time>2026-03-22T12:58:19Z</time></trkpt><trkpt lat="38.03308180616596" lon="13.227724780515151"><ele>723.0</ele><time>2026-03-22T12:58:21Z</time></trkpt><trkpt lat="38.033147282030896" lon="13.227768427216995"><ele>723.0</ele><time>2026-03-22T12:58:25Z</time></trkpt><trkpt lat="38.03322053506249" lon="13.22778327351005"><ele>723.0</ele><time>2026-03-22T12:58:28Z</time></trkpt><trkpt lat="38.03330114374876" lon="13.227798697612412"><ele>723.0</ele><time>2026-03-22T12:58:43.001Z</time></trkpt><trkpt lat="38.03337718528883" lon="13.227818697910296"><ele>723.0</ele><time>2026-03-22T12:58:46.001Z</time></trkpt><trkpt lat="38.033442650201344" lon="13.227833316348438"><ele>723.0</ele><time>2026-03-22T12:58:48.001Z</time></trkpt><trkpt lat="38.033554549028096" lon="13.22784395095742"><ele>723.0</ele><time>2026-03-22T12:58:50.001Z</time></trkpt><trkpt lat="38.03361598377182" lon="13.227863485129312"><ele>717.8</ele><time>2026-03-22T12:58:51.001Z</time></trkpt><trkpt lat="38.03372598168608" lon="13.22790483748035"><ele>712.5999999999999</ele><time>2026-03-22T12:58:53.001Z</time></trkpt><trkpt lat="38.0337962542585" lon="13.227917350263844"><ele>707.4000000000001</ele><time>2026-03-22T12:58:54.001Z</time></trkpt><trkpt lat="38.03385035992353" lon="13.227974943661943"><ele>702.2</ele><time>2026-03-22T12:58:55.001Z</time></trkpt><trkpt lat="38.033957261444044" lon="13.22804331830309"><ele>697.0</ele><time>2026-03-22T12:58:57.001Z</time></trkpt><trkpt lat="38.03404267150628" lon="13.228105338161317"><ele>696.0</ele><time>2026-03-22T12:58:59.001Z</time></trkpt><trkpt lat="38.03413139001208" lon="13.228174914191076"><ele>695.0</ele><time>2026-03-22T12:59:01.001Z</time></trkpt><trkpt lat="38.03420076227702" lon="13.228243338551968"><ele>694.0</ele><time>2026-03-22T12:59:02.001Z</time></trkpt><trkpt lat="38.03427171138546" lon="13.228282247673576"><ele>693.0</ele><time>2026-03-22T12:59:05.001Z</time></trkpt><trkpt lat="38.03433446719427" lon="13.22830473411716"><ele>692.0</ele><time>2026-03-22T12:59:41.002Z</time></trkpt><trkpt lat="38.034417799049805" lon="13.228308038959709"><ele>691.0</ele><time>2026-03-22T13:00:32Z</time></trkpt><trkpt lat="38.034506345416055" lon="13.228339832690644"><ele>687.4</ele><time>2026-03-22T13:00:35Z</time></trkpt><trkpt lat="38.034586380875155" lon="13.228371833833839"><ele>683.8</ele><time>2026-03-22T13:00:37Z</time></trkpt><trkpt lat="38.034672257939" lon="13.228419055833958"><ele>680.1999999999999</ele><time>2026-03-22T13:00:39.001Z</time></trkpt><trkpt lat="38.03476663289016" lon="13.228450706003155"><ele>676.5999999999999</ele><time>2026-03-22T13:00:42.001Z</time></trkpt><trkpt lat="38.034853868904584" lon="13.228475214120735"><ele>673.0</ele><time>2026-03-22T13:00:45.001Z</time></trkpt><trkpt lat="38.03493700198786" lon="13.22850811815803"><ele>669.4</ele><time>2026-03-22T13:00:47.001Z</time></trkpt><trkpt lat="38.035020188406136" lon="13.228586999496123"><ele>665.8</ele><time>2026-03-22T13:00:49.001Z</time></trkpt><trkpt lat="38.03507223858491" lon="13.228698542268818"><ele>662.2</ele><time>2026-03-22T13:00:51.001Z</time></trkpt><trkpt lat="38.03510312097902" lon="13.228844799436589"><ele>658.6</ele><time>2026-03-22T13:00:53.001Z</time></trkpt><trkpt lat="38.035048969133626" lon="13.22892057583842"><ele>655.0</ele><time>2026-03-22T13:00:54.001Z</time></trkpt><trkpt lat="38.035050393610845" lon="13.229042173178811"><ele>654.8333333333334</ele><time>2026-03-22T13:00:56.001Z</time></trkpt><trkpt lat="38.03508532599132" lon="13.229110828354946"><ele>654.6666666666667</ele><time>2026-03-22T13:00:57.001Z</time></trkpt><trkpt lat="38.03513388474305" lon="13.229177599139788"><ele>654.5</ele><time>2026-03-22T13:00:58.001Z</time></trkpt><trkpt lat="38.0352256410131" lon="13.229302284218308"><ele>654.3333333333334</ele><time>2026-03-22T13:01:00.001Z</time></trkpt><trkpt lat="38.03530166139054" lon="13.229374411755538"><ele>654.1666666666666</ele><time>2026-03-22T13:01:01.001Z</time></trkpt><trkpt lat="38.035339945796885" lon="13.22944327029628"><ele>654.0</ele><time>2026-03-22T13:01:02.001Z</time></trkpt><trkpt lat="38.035406454883045" lon="13.22950749949619"><ele>654.0</ele><time>2026-03-22T13:01:03.001Z</time></trkpt><trkpt lat="38.03546964434946" lon="13.229566928076007"><ele>654.0</ele><time>2026-03-22T13:01:04.001Z</time></trkpt><trkpt lat="38.035526659115284" lon="13.229630718770924"><ele>654.0</ele><time>2026-03-22T13:01:05.001Z</time></trkpt><trkpt lat="38.035619796649726" lon="13.22969979904359"><ele>654.0</ele><time>2026-03-22T13:01:07.001Z</time></trkpt><trkpt lat="38.035691620954" lon="13.22979798577616"><ele>654.0</ele><time>2026-03-22T13:01:09.001Z</time></trkpt><trkpt lat="38.03577843526149" lon="13.229860926945635"><ele>650.75</ele><time>2026-03-22T13:01:13.001Z</time></trkpt><trkpt lat="38.03590408441021" lon="13.229717573511364"><ele>647.5</ele><time>2026-03-22T13:01:14.001Z</time></trkpt><trkpt lat="38.035979810839045" lon="13.229638040093931"><ele>644.25</ele><time>2026-03-22T13:01:15.001Z</time></trkpt><trkpt lat="38.03606521379201" lon="13.229589949949212"><ele>641.0</ele><time>2026-03-22T13:01:16.001Z</time></trkpt><trkpt lat="38.03615915992108" lon="13.22952398598384"><ele>641.0</ele><time>2026-03-22T13:01:17.001Z</time></trkpt><trkpt lat="38.03624889645366" lon="13.229456960915504"><ele>641.0</ele><time>2026-03-22T13:01:18.001Z</time></trkpt><trkpt lat="38.03633853435421" lon="13.229373207908788"><ele>641.0</ele><time>2026-03-22T13:01:19.001Z</time></trkpt><trkpt lat="38.03640675900018" lon="13.22927334473897"><ele>641.0</ele><time>2026-03-22T13:01:20.001Z</time></trkpt><trkpt lat="38.03646089283352" lon="13.22916814329858"><ele>641.0</ele><time>2026-03-22T13:01:21.002Z</time></trkpt><trkpt lat="38.036495168272715" lon="13.229024605350451"><ele>640.5999999999999</ele><time>2026-03-22T13:01:22.002Z</time></trkpt><trkpt lat="38.036489096302695" lon="13.228884952952912"><ele>640.1999999999999</ele><time>2026-03-22T13:01:23.002Z</time></trkpt><trkpt lat="38.0364755649741" lon="13.228758006409926"><ele>639.8</ele><time>2026-03-22T13:01:24.002Z</time></trkpt><trkpt lat="38.03643758271723" lon="13.228633758424586"><ele>639.4</ele><time>2026-03-22T13:01:25.002Z</time></trkpt><trkpt lat="38.036405585662365" lon="13.22849646234372"><ele>639.0</ele><time>2026-03-22T13:01:26.002Z</time></trkpt><trkpt lat="38.03639109551346" lon="13.228363589191641"><ele>639.0</ele><time>2026-03-22T13:01:27.002Z</time></trkpt><trkpt lat="38.03638181580334" lon="13.228226969168114"><ele>639.0</ele><time>2026-03-22T13:01:28.002Z</time></trkpt><trkpt lat="38.03636865010777" lon="13.22807836584329"><ele>639.0</ele><time>2026-03-22T13:01:29.002Z</time></trkpt><trkpt lat="38.03636695106051" lon="13.227935718247846"><ele>639.0</ele><time>2026-03-22T13:01:30.002Z</time></trkpt><trkpt lat="38.03638389767819" lon="13.22778764259709"><ele>638.4</ele><time>2026-03-22T13:01:31.002Z</time></trkpt><trkpt lat="38.036408147867434" lon="13.227641284127436"><ele>637.8</ele><time>2026-03-22T13:01:32.002Z</time></trkpt><trkpt lat="38.03644348299771" lon="13.227507505951769"><ele>637.2</ele><time>2026-03-22T13:01:33.002Z</time></trkpt><trkpt lat="38.036456556262934" lon="13.227378608841494"><ele>636.6</ele><time>2026-03-22T13:01:34.002Z</time></trkpt><trkpt lat="38.03647931224818" lon="13.22724232650736"><ele>636.0</ele><time>2026-03-22T13:01:35.002Z</time></trkpt><trkpt lat="38.03649794639134" lon="13.227102155038907"><ele>635.75</ele><time>2026-03-22T13:01:36.002Z</time></trkpt><trkpt lat="38.03651399644592" lon="13.226954318889938"><ele>635.5</ele><time>2026-03-22T13:01:37.002Z</time></trkpt><trkpt lat="38.036535858279606" lon="13.226818393340318"><ele>635.25</ele><time>2026-03-22T13:01:38.002Z</time></trkpt><trkpt lat="38.036559304553236" lon="13.226676832820083"><ele>635.0</ele><time>2026-03-22T13:01:39.002Z</time></trkpt><trkpt lat="38.03656452096792" lon="13.226517517538923"><ele>634.75</ele><time>2026-03-22T13:01:40.002Z</time></trkpt><trkpt lat="38.03657643981217" lon="13.22637105811005"><ele>634.5</ele><time>2026-03-22T13:01:41.002Z</time></trkpt><trkpt lat="38.03657521728719" lon="13.226224596100424"><ele>634.25</ele><time>2026-03-22T13:01:42.002Z</time></trkpt><trkpt lat="38.03659267941946" lon="13.226075649561444"><ele>634.0</ele><time>2026-03-22T13:01:43.002Z</time></trkpt><trkpt lat="38.03661878635584" lon="13.225923634013705"><ele>630.5</ele><time>2026-03-22T13:01:44.002Z</time></trkpt><trkpt lat="38.03664848493178" lon="13.225784803965269"><ele>627.0</ele><time>2026-03-22T13:01:45.002Z</time></trkpt><trkpt lat="38.036671869876685" lon="13.22563724115622"><ele>623.5</ele><time>2026-03-22T13:01:46.002Z</time></trkpt><trkpt lat="38.036703048469455" lon="13.225490743062908"><ele>620.0</ele><time>2026-03-22T13:01:47.002Z</time></trkpt><trkpt lat="38.03672761073624" lon="13.225346278820512"><ele>620.0</ele><time>2026-03-22T13:01:48.002Z</time></trkpt><trkpt lat="38.03675580129644" lon="13.225184778379653"><ele>620.0</ele><time>2026-03-22T13:01:49.002Z</time></trkpt><trkpt lat="38.036789706919684" lon="13.22498861614831"><ele>620.0</ele><time>2026-03-22T13:01:50.002Z</time></trkpt><trkpt lat="38.03683550639503" lon="13.224748734555966"><ele>620.0</ele><time>2026-03-22T13:01:51.002Z</time></trkpt><trkpt lat="38.03689259997744" lon="13.224475592969677"><ele>620.0</ele><time>2026-03-22T13:01:52.002Z</time></trkpt><trkpt lat="38.0369102361646" lon="13.224193322580685"><ele>620.0</ele><time>2026-03-22T13:01:53.002Z</time></trkpt><trkpt lat="38.03693791619596" lon="13.22396024943304"><ele>620.0</ele><time>2026-03-22T13:01:54.002Z</time></trkpt><trkpt lat="38.03696834005409" lon="13.223765500767612"><ele>620.0</ele><time>2026-03-22T13:01:55.002Z</time></trkpt><trkpt lat="38.037004595955686" lon="13.223614200683999"><ele>620.0</ele><time>2026-03-22T13:01:56.002Z</time></trkpt><trkpt lat="38.03703037493874" lon="13.223504828556852"><ele>620.0</ele><time>2026-03-22T13:01:57.002Z</time></trkpt><trkpt lat="38.037066644259475" lon="13.223420459263336"><ele>620.0</ele><time>2026-03-22T13:01:58.002Z</time></trkpt><trkpt lat="38.03711106939609" lon="13.22336109361136"><ele>620.0</ele><time>2026-03-22T13:01:59.002Z</time></trkpt><trkpt lat="38.0372233972929" lon="13.22329573417184"><ele>620.0</ele><time>2026-03-22T13:02:01.002Z</time></trkpt><trkpt lat="38.03729733994724" lon="13.223274634658274"><ele>620.0</ele><time>2026-03-22T13:02:01.999Z</time></trkpt><trkpt lat="38.03737565370765" lon="13.223230269451145"><ele>620.0</ele><time>2026-03-22T13:02:02.999Z</time></trkpt><trkpt lat="38.03744487926253" lon="13.223159551761642"><ele>620.0</ele><time>2026-03-22T13:02:03.999Z</time></trkpt><trkpt lat="38.03750733599519" lon="13.223066284438259"><ele>618.8</ele><time>2026-03-22T13:02:04.999Z</time></trkpt><trkpt lat="38.037560678837266" lon="13.222956671470993"><ele>617.6</ele><time>2026-03-22T13:02:05.999Z</time></trkpt><trkpt lat="38.03759347486641" lon="13.222828760948628"><ele>616.4</ele><time>2026-03-22T13:02:06.999Z</time></trkpt><trkpt lat="38.037626179433566" lon="13.222695570064962"><ele>615.2</ele><time>2026-03-22T13:02:07.999Z</time></trkpt><trkpt lat="38.03766784670064" lon="13.222554365428831"><ele>614.0</ele><time>2026-03-22T13:02:08.999Z</time></trkpt><trkpt lat="38.03771580678038" lon="13.222404389532823"><ele>613.8</ele><time>2026-03-22T13:02:09.999Z</time></trkpt><trkpt lat="38.037755745546555" lon="13.22225851823644"><ele>613.5999999999999</ele><time>2026-03-22T13:02:10.999Z</time></trkpt><trkpt lat="38.03779835167196" lon="13.222136758317271"><ele>613.4</ele><time>2026-03-22T13:02:11.999Z</time></trkpt><trkpt lat="38.03784481727718" lon="13.222053066880612"><ele>613.1999999999999</ele><time>2026-03-22T13:02:12.999Z</time></trkpt><trkpt lat="38.03789655016549" lon="13.221956571084"><ele>613.0</ele><time>2026-03-22T13:02:14.999Z</time></trkpt><trkpt lat="38.03797342140743" lon="13.22200559706073"><ele>613.0</ele><time>2026-03-22T13:02:18.999Z</time></trkpt><trkpt lat="38.0380726542436" lon="13.221701227916373"><ele>613.0</ele><time>2026-03-22T13:02:38Z</time></trkpt><trkpt lat="38.03814543169989" lon="13.221625811567653"><ele>613.0</ele><time>2026-03-22T13:02:39Z</time></trkpt><trkpt lat="38.03822541116728" lon="13.221545530806033"><ele>611.0</ele><time>2026-03-22T13:02:40Z</time></trkpt><trkpt lat="38.03831504092732" lon="13.221468063505442"><ele>609.0</ele><time>2026-03-22T13:02:41Z</time></trkpt><trkpt lat="38.03839979800494" lon="13.22137823407422"><ele>607.0</ele><time>2026-03-22T13:02:42Z</time></trkpt><trkpt lat="38.038467736250084" lon="13.22128912410064"><ele>605.0</ele><time>2026-03-22T13:02:43Z</time></trkpt><trkpt lat="38.038524861295926" lon="13.221192305174823"><ele>603.0</ele><time>2026-03-22T13:02:44Z</time></trkpt><trkpt lat="38.03856865868437" lon="13.221080548018495"><ele>603.0</ele><time>2026-03-22T13:02:45Z</time></trkpt><trkpt lat="38.03860365817272" lon="13.220950102967118"><ele>603.0</ele><time>2026-03-22T13:02:46Z</time></trkpt><trkpt lat="38.03861937611195" lon="13.220839058328302"><ele>603.0</ele><time>2026-03-22T13:02:47Z</time></trkpt><trkpt lat="38.038611751469425" lon="13.220753953582658"><ele>603.0</ele><time>2026-03-22T13:02:48Z</time></trkpt><trkpt lat="38.038606436369825" lon="13.220595984062163"><ele>603.0</ele><time>2026-03-22T13:02:50Z</time></trkpt><trkpt lat="38.03847400790291" lon="13.220513478370558"><ele>602.6</ele><time>2026-03-22T13:02:51.001Z</time></trkpt><trkpt lat="38.03841458433455" lon="13.220428760121203"><ele>602.1999999999999</ele><time>2026-03-22T13:02:52.001Z</time></trkpt><trkpt lat="38.038349286951735" lon="13.220345575037438"><ele>601.8</ele><time>2026-03-22T13:02:53.001Z</time></trkpt><trkpt lat="38.038276466187696" lon="13.220269236475042"><ele>601.4</ele><time>2026-03-22T13:02:54.001Z</time></trkpt><trkpt lat="38.03820179335584" lon="13.220192926942355"><ele>601.0</ele><time>2026-03-22T13:02:55.001Z</time></trkpt><trkpt lat="38.0381297235365" lon="13.220114322796944"><ele>602.8</ele><time>2026-03-22T13:02:56.001Z</time></trkpt><trkpt lat="38.038056414272255" lon="13.22002947799584"><ele>604.6</ele><time>2026-03-22T13:02:57.001Z</time></trkpt><trkpt lat="38.03799425749764" lon="13.219932093981088"><ele>606.4</ele><time>2026-03-22T13:02:58.001Z</time></trkpt><trkpt lat="38.037911904836314" lon="13.21985262855847"><ele>608.2</ele><time>2026-03-22T13:02:59.001Z</time></trkpt><trkpt lat="38.037834715178505" lon="13.219765604078619"><ele>610.0</ele><time>2026-03-22T13:03:00.001Z</time></trkpt><trkpt lat="38.03774941520311" lon="13.219665664039333"><ele>610.0</ele><time>2026-03-22T13:03:01.001Z</time></trkpt><trkpt lat="38.037658686021146" lon="13.219557298544952"><ele>610.0</ele><time>2026-03-22T13:03:02.001Z</time></trkpt><trkpt lat="38.03753699695554" lon="13.219422899315497"><ele>610.0</ele><time>2026-03-22T13:03:03.001Z</time></trkpt><trkpt lat="38.03740580053679" lon="13.219273791605703"><ele>612.0</ele><time>2026-03-22T13:03:04.001Z</time></trkpt><trkpt lat="38.03726759814946" lon="13.219103596517371"><ele>614.0</ele><time>2026-03-22T13:03:05.001Z</time></trkpt><trkpt lat="38.03709964166857" lon="13.218974462042398"><ele>616.0</ele><time>2026-03-22T13:03:06.001Z</time></trkpt><trkpt lat="38.03695470148213" lon="13.218851746108763"><ele>616.0</ele><time>2026-03-22T13:03:07.001Z</time></trkpt><trkpt lat="38.03677530446178" lon="13.218778491517964"><ele>616.0</ele><time>2026-03-22T13:03:08.001Z</time></trkpt><trkpt lat="38.036604741224785" lon="13.218676750462619"><ele>616.0</ele><time>2026-03-22T13:03:09.001Z</time></trkpt><trkpt lat="38.0364371845151" lon="13.218597757552736"><ele>618.8</ele><time>2026-03-22T13:03:10.001Z</time></trkpt><trkpt lat="38.03631108511309" lon="13.218533657175989"><ele>621.6</ele><time>2026-03-22T13:03:11.001Z</time></trkpt><trkpt lat="38.036225909086745" lon="13.218489082814052"><ele>624.4</ele><time>2026-03-22T13:03:12.001Z</time></trkpt><trkpt lat="38.03619255887683" lon="13.218404930903525"><ele>627.2</ele><time>2026-03-22T13:03:13.001Z</time></trkpt><trkpt lat="38.03619228317306" lon="13.218314640100276"><ele>630.0</ele><time>2026-03-22T13:03:14.001Z</time></trkpt><trkpt lat="38.0362102465419" lon="13.218203053562325"><ele>633.25</ele><time>2026-03-22T13:03:15.001Z</time></trkpt><trkpt lat="38.03624302092873" lon="13.218078788452445"><ele>636.5</ele><time>2026-03-22T13:03:16.001Z</time></trkpt><trkpt lat="38.0363151709381" lon="13.217926560239187"><ele>639.75</ele><time>2026-03-22T13:03:17.001Z</time></trkpt><trkpt lat="38.03639226830005" lon="13.217771261022513"><ele>643.0</ele><time>2026-03-22T13:03:18.001Z</time></trkpt><trkpt lat="38.036496184230025" lon="13.217626517258992"><ele>643.0</ele><time>2026-03-22T13:03:19.001Z</time></trkpt><trkpt lat="38.036620091805744" lon="13.217511606443152"><ele>643.0</ele><time>2026-03-22T13:03:20.001Z</time></trkpt><trkpt lat="38.03675951099123" lon="13.217408429387026"><ele>643.0</ele><time>2026-03-22T13:03:21.001Z</time></trkpt><trkpt lat="38.03689026249261" lon="13.217347110598716"><ele>644.25</ele><time>2026-03-22T13:03:22.001Z</time></trkpt><trkpt lat="38.03701510468514" lon="13.217321206166599"><ele>645.5</ele><time>2026-03-22T13:03:23.001Z</time></trkpt><trkpt lat="38.03714817769018" lon="13.217334372442016"><ele>646.75</ele><time>2026-03-22T13:03:24.001Z</time></trkpt><trkpt lat="38.037282739498956" lon="13.217340634806469"><ele>648.0</ele><time>2026-03-22T13:03:25.001Z</time></trkpt><trkpt lat="38.037407660275974" lon="13.21727964037438"><ele>644.0</ele><time>2026-03-22T13:03:26.001Z</time></trkpt><trkpt lat="38.03751390088161" lon="13.217162985574134"><ele>640.0</ele><time>2026-03-22T13:03:27.001Z</time></trkpt><trkpt lat="38.03759606873986" lon="13.217011572422255"><ele>636.0</ele><time>2026-03-22T13:03:28.001Z</time></trkpt><trkpt lat="38.03763695198827" lon="13.216842734684269"><ele>632.0</ele><time>2026-03-22T13:03:29.002Z</time></trkpt><trkpt lat="38.037637095306636" lon="13.216680027483985"><ele>632.0</ele><time>2026-03-22T13:03:30.002Z</time></trkpt><trkpt lat="38.03759722788131" lon="13.216526290795729"><ele>632.0</ele><time>2026-03-22T13:03:31.002Z</time></trkpt><trkpt lat="38.03752657475295" lon="13.216388562642296"><ele>632.0</ele><time>2026-03-22T13:03:32.002Z</time></trkpt><trkpt lat="38.037448456040224" lon="13.216256961513487"><ele>632.0</ele><time>2026-03-22T13:03:33.002Z</time></trkpt><trkpt lat="38.0373642405148" lon="13.216110435794764"><ele>637.0</ele><time>2026-03-22T13:03:34.002Z</time></trkpt><trkpt lat="38.03730523662866" lon="13.215958844154551"><ele>642.0</ele><time>2026-03-22T13:03:35.002Z</time></trkpt><trkpt lat="38.03726229179073" lon="13.215802777736306"><ele>647.0</ele><time>2026-03-22T13:03:36.002Z</time></trkpt><trkpt lat="38.037242945254626" lon="13.215649788800542"><ele>652.0</ele><time>2026-03-22T13:03:37.002Z</time></trkpt><trkpt lat="38.037231497443756" lon="13.215497079339668"><ele>654.2</ele><time>2026-03-22T13:03:38.002Z</time></trkpt><trkpt lat="38.03722833514275" lon="13.215358469526725"><ele>656.4000000000001</ele><time>2026-03-22T13:03:39.002Z</time></trkpt><trkpt lat="38.0372612597141" lon="13.215249740787279"><ele>658.5999999999999</ele><time>2026-03-22T13:03:40.002Z</time></trkpt><trkpt lat="38.03732849167289" lon="13.21515157916955"><ele>660.8</ele><time>2026-03-22T13:03:41.002Z</time></trkpt><trkpt lat="38.03742245708629" lon="13.215068895559838"><ele>663.0</ele><time>2026-03-22T13:03:42.002Z</time></trkpt><trkpt lat="38.03750935833806" lon="13.214968488485338"><ele>660.25</ele><time>2026-03-22T13:03:43.002Z</time></trkpt><trkpt lat="38.037571428852985" lon="13.214845917801563"><ele>657.5</ele><time>2026-03-22T13:03:44.002Z</time></trkpt><trkpt lat="38.03759860541357" lon="13.21470527100518"><ele>654.75</ele><time>2026-03-22T13:03:45.002Z</time></trkpt><trkpt lat="38.03759315917684" lon="13.214560273885109"><ele>652.0</ele><time>2026-03-22T13:03:46.002Z</time></trkpt><trkpt lat="38.03756341265959" lon="13.214416682425233"><ele>652.0</ele><time>2026-03-22T13:03:47.002Z</time></trkpt><trkpt lat="38.037530657040264" lon="13.21426715881827"><ele>652.0</ele><time>2026-03-22T13:03:48.002Z</time></trkpt><trkpt lat="38.037495351589016" lon="13.214115166379996"><ele>652.0</ele><time>2026-03-22T13:03:49.002Z</time></trkpt><trkpt lat="38.0374636382233" lon="13.213942549647172"><ele>652.0</ele><time>2026-03-22T13:03:50.002Z</time></trkpt><trkpt lat="38.037435535593275" lon="13.21377383933056"><ele>656.0</ele><time>2026-03-22T13:03:51.002Z</time></trkpt><trkpt lat="38.037399782548825" lon="13.213613129927975"><ele>660.0</ele><time>2026-03-22T13:03:52.002Z</time></trkpt><trkpt lat="38.03735228688636" lon="13.213469589744154"><ele>664.0</ele><time>2026-03-22T13:03:53.002Z</time></trkpt><trkpt lat="38.03728351077097" lon="13.213328809913731"><ele>668.0</ele><time>2026-03-22T13:03:54.002Z</time></trkpt><trkpt lat="38.03721029135644" lon="13.213189738594922"><ele>666.25</ele><time>2026-03-22T13:03:55.002Z</time></trkpt><trkpt lat="38.03713481581762" lon="13.213049486637509"><ele>664.5</ele><time>2026-03-22T13:03:56.002Z</time></trkpt><trkpt lat="38.03705754606664" lon="13.212913322556668"><ele>662.75</ele><time>2026-03-22T13:03:57.002Z</time></trkpt><trkpt lat="38.036998431822354" lon="13.212785800169327"><ele>661.0</ele><time>2026-03-22T13:03:58.002Z</time></trkpt><trkpt lat="38.036968224122326" lon="13.212660600180536"><ele>661.0</ele><time>2026-03-22T13:03:59.002Z</time></trkpt><trkpt lat="38.036968181909344" lon="13.212521720362176"><ele>661.0</ele><time>2026-03-22T13:04:00.002Z</time></trkpt><trkpt lat="38.036991762205844" lon="13.212372256725724"><ele>661.0</ele><time>2026-03-22T13:04:01.002Z</time></trkpt><trkpt lat="38.037016930190475" lon="13.21221496339018"><ele>661.0</ele><time>2026-03-22T13:04:02.002Z</time></trkpt><trkpt lat="38.037034752663494" lon="13.2120458662793"><ele>660.6666666666667</ele><time>2026-03-22T13:04:03.002Z</time></trkpt><trkpt lat="38.037050266340316" lon="13.21186733898887"><ele>660.3333333333334</ele><time>2026-03-22T13:04:04.002Z</time></trkpt><trkpt lat="38.03706403472208" lon="13.211669905179834"><ele>660.0</ele><time>2026-03-22T13:04:05.002Z</time></trkpt><trkpt lat="38.03707823918998" lon="13.211469997761508"><ele>660.0</ele><time>2026-03-22T13:04:06.002Z</time></trkpt><trkpt lat="38.03710599722137" lon="13.211269608237725"><ele>660.0</ele><time>2026-03-22T13:04:07.002Z</time></trkpt><trkpt lat="38.03712117088064" lon="13.211049411146156"><ele>660.0</ele><time>2026-03-22T13:04:07.999Z</time></trkpt><trkpt lat="38.0371402335666" lon="13.210826833014856"><ele>660.3333333333334</ele><time>2026-03-22T13:04:08.999Z</time></trkpt><trkpt lat="38.037162047132796" lon="13.210605383048101"><ele>660.6666666666667</ele><time>2026-03-22T13:04:09.999Z</time></trkpt><trkpt lat="38.037184159997494" lon="13.210404785752301"><ele>661.0</ele><time>2026-03-22T13:04:10.999Z</time></trkpt><trkpt lat="38.03720385672509" lon="13.210202455608052"><ele>661.0</ele><time>2026-03-22T13:04:11.999Z</time></trkpt><trkpt lat="38.03722350851278" lon="13.2100190899358"><ele>661.0</ele><time>2026-03-22T13:04:12.999Z</time></trkpt><trkpt lat="38.03723897702779" lon="13.209832265811817"><ele>661.0</ele><time>2026-03-22T13:04:13.999Z</time></trkpt><trkpt lat="38.03726000697619" lon="13.209654106846616"><ele>661.0</ele><time>2026-03-22T13:04:14.999Z</time></trkpt><trkpt lat="38.03727666023871" lon="13.209477930285967"><ele>661.8333333333334</ele><time>2026-03-22T13:04:15.999Z</time></trkpt><trkpt lat="38.03729175454335" lon="13.209334289378408"><ele>662.6666666666667</ele><time>2026-03-22T13:04:16.999Z</time></trkpt><trkpt lat="38.03730179823212" lon="13.209214079698278"><ele>663.5</ele><time>2026-03-22T13:04:17.999Z</time></trkpt><trkpt lat="38.03731158661175" lon="13.209109900098685"><ele>664.3333333333334</ele><time>2026-03-22T13:04:18.999Z</time></trkpt><trkpt lat="38.0373194421307" lon="13.20902215212007"><ele>665.1666666666666</ele><time>2026-03-22T13:04:19.999Z</time></trkpt><trkpt lat="38.03732953263723" lon="13.208941573097853"><ele>666.0</ele><time>2026-03-22T13:04:22.999Z</time></trkpt><trkpt lat="38.03739034983991" lon="13.208979585506643"><ele>666.0</ele><time>2026-03-22T13:04:28Z</time></trkpt><trkpt lat="38.037364121408366" lon="13.209061961202313"><ele>666.0</ele><time>2026-03-22T13:04:30Z</time></trkpt><trkpt lat="38.03733888949209" lon="13.209140796072063"><ele>666.0</ele><time>2026-03-22T13:04:32Z</time></trkpt><trkpt lat="38.037331554527654" lon="13.20924041599707"><ele>666.0</ele><time>2026-03-22T13:04:35Z</time></trkpt><trkpt lat="38.037323834283384" lon="13.209323960056441"><ele>666.0</ele><time>2026-03-22T13:04:37Z</time></trkpt><trkpt lat="38.037319496872975" lon="13.209417339663982"><ele>666.0</ele><time>2026-03-22T13:04:39Z</time></trkpt><trkpt lat="38.03730589331" lon="13.209513641818427"><ele>666.0</ele><time>2026-03-22T13:04:41Z</time></trkpt><trkpt lat="38.037297708877176" lon="13.209603346797804"><ele>666.0</ele><time>2026-03-22T13:04:43Z</time></trkpt><trkpt lat="38.0372882785309" lon="13.209689417971289"><ele>666.0</ele><time>2026-03-22T13:04:45Z</time></trkpt><trkpt lat="38.03728327990859" lon="13.2097792126147"><ele>666.0</ele><time>2026-03-22T13:04:47Z</time></trkpt><trkpt lat="38.037319707586796" lon="13.209850723342212"><ele>666.0</ele><time>2026-03-22T13:04:49Z</time></trkpt><trkpt lat="38.03741451279339" lon="13.209873103487581"><ele>666.0</ele><time>2026-03-22T13:04:51Z</time></trkpt><trkpt lat="38.03748219721289" lon="13.209909449313868"><ele>666.0</ele><time>2026-03-22T13:04:52Z</time></trkpt><trkpt lat="38.0376050494521" lon="13.210000595990627"><ele>665.8333333333334</ele><time>2026-03-22T13:04:54Z</time></trkpt><trkpt lat="38.03766337602991" lon="13.21003316233374"><ele>665.6666666666666</ele><time>2026-03-22T13:04:55.001Z</time></trkpt><trkpt lat="38.03775250198519" lon="13.210008393829828"><ele>665.5</ele><time>2026-03-22T13:04:57.001Z</time></trkpt><trkpt lat="38.037833690545156" lon="13.209910087438171"><ele>665.3333333333333</ele><time>2026-03-22T13:04:59.001Z</time></trkpt><trkpt lat="38.03786745984736" lon="13.209818485889752"><ele>665.1666666666666</ele><time>2026-03-22T13:05:00.001Z</time></trkpt><trkpt lat="38.037902675033465" lon="13.209714694388355"><ele>665.0</ele><time>2026-03-22T13:05:01.001Z</time></trkpt><trkpt lat="38.037938483341996" lon="13.209596305650614"><ele>665.6</ele><time>2026-03-22T13:05:02.001Z</time></trkpt><trkpt lat="38.03797288445776" lon="13.20947476711791"><ele>666.2</ele><time>2026-03-22T13:05:03.001Z</time></trkpt><trkpt lat="38.038021769330406" lon="13.209333173670647"><ele>666.8</ele><time>2026-03-22T13:05:04.001Z</time></trkpt><trkpt lat="38.038067988225215" lon="13.209210111778447"><ele>667.4</ele><time>2026-03-22T13:05:05.001Z</time></trkpt><trkpt lat="38.03810762534048" lon="13.209112104925048"><ele>668.0</ele><time>2026-03-22T13:05:06.001Z</time></trkpt><trkpt lat="38.038155842663045" lon="13.208999482870048"><ele>668.2</ele><time>2026-03-22T13:05:07.001Z</time></trkpt><trkpt lat="38.03822281062643" lon="13.208895894743218"><ele>668.4</ele><time>2026-03-22T13:05:08.001Z</time></trkpt><trkpt lat="38.03829195555569" lon="13.208792356646663"><ele>668.6</ele><time>2026-03-22T13:05:09.001Z</time></trkpt><trkpt lat="38.03836702180281" lon="13.208692232707387"><ele>668.8000000000001</ele><time>2026-03-22T13:05:10.001Z</time></trkpt><trkpt lat="38.03844693218994" lon="13.208600896413843"><ele>669.0</ele><time>2026-03-22T13:05:11.001Z</time></trkpt><trkpt lat="38.03851475058509" lon="13.208502779102561"><ele>668.4000000000001</ele><time>2026-03-22T13:05:12.001Z</time></trkpt><trkpt lat="38.03858080034526" lon="13.208398144523093"><ele>667.8</ele><time>2026-03-22T13:05:13.001Z</time></trkpt><trkpt lat="38.038639863508266" lon="13.208348565805753"><ele>667.2</ele><time>2026-03-22T13:05:14.001Z</time></trkpt><trkpt lat="38.038730547594426" lon="13.208285993990184"><ele>666.5999999999999</ele><time>2026-03-22T13:05:15.001Z</time></trkpt><trkpt lat="38.03881660130244" lon="13.20824374704571"><ele>666.0</ele><time>2026-03-22T13:05:16.001Z</time></trkpt><trkpt lat="38.03891643036395" lon="13.208221147872017"><ele>666.0</ele><time>2026-03-22T13:05:17.001Z</time></trkpt><trkpt lat="38.039002393790945" lon="13.208188470319778"><ele>666.0</ele><time>2026-03-22T13:05:18.001Z</time></trkpt><trkpt lat="38.039099408806855" lon="13.208142075122256"><ele>666.0</ele><time>2026-03-22T13:05:19.001Z</time></trkpt><trkpt lat="38.039196777386145" lon="13.2081365293403"><ele>666.0</ele><time>2026-03-22T13:05:20.001Z</time></trkpt><trkpt lat="38.03926073325968" lon="13.208101032908157"><ele>666.0</ele><time>2026-03-22T13:05:21.001Z</time></trkpt><trkpt lat="38.03934069844338" lon="13.208050198340434"><ele>665.0</ele><time>2026-03-22T13:05:22.001Z</time></trkpt><trkpt lat="38.03942574761505" lon="13.20796415161505"><ele>664.0</ele><time>2026-03-22T13:05:23.001Z</time></trkpt><trkpt lat="38.03950214118455" lon="13.207895695937873"><ele>663.0</ele><time>2026-03-22T13:05:24.001Z</time></trkpt><trkpt lat="38.039575573837276" lon="13.207863217139456"><ele>662.0</ele><time>2026-03-22T13:05:25.001Z</time></trkpt><trkpt lat="38.03966372181597" lon="13.20777922132869"><ele>661.0</ele><time>2026-03-22T13:05:26.001Z</time></trkpt><trkpt lat="38.039760093330486" lon="13.207690834442035"><ele>661.0</ele><time>2026-03-22T13:05:27.001Z</time></trkpt><trkpt lat="38.03983438137675" lon="13.207618261712463"><ele>661.0</ele><time>2026-03-22T13:05:28.001Z</time></trkpt><trkpt lat="38.03992398960765" lon="13.207555134134305"><ele>661.0</ele><time>2026-03-22T13:05:29.001Z</time></trkpt><trkpt lat="38.039990347981465" lon="13.20751353360762"><ele>661.0</ele><time>2026-03-22T13:05:30.002Z</time></trkpt><trkpt lat="38.04006745110384" lon="13.207482232333808"><ele>661.0</ele><time>2026-03-22T13:05:31.002Z</time></trkpt><trkpt lat="38.04017834850234" lon="13.207464320069176"><ele>659.8</ele><time>2026-03-22T13:05:32.002Z</time></trkpt><trkpt lat="38.040271457224236" lon="13.207417082541825"><ele>658.5999999999999</ele><time>2026-03-22T13:05:33.002Z</time></trkpt><trkpt lat="38.04038537978455" lon="13.20737327855861"><ele>657.4</ele><time>2026-03-22T13:05:34.002Z</time></trkpt><trkpt lat="38.040477672829056" lon="13.207348877244321"><ele>656.2</ele><time>2026-03-22T13:05:35.002Z</time></trkpt><trkpt lat="38.04055733385761" lon="13.207325060104267"><ele>655.0</ele><time>2026-03-22T13:05:36.002Z</time></trkpt><trkpt lat="38.040639657969926" lon="13.20730812624782"><ele>657.5</ele><time>2026-03-22T13:05:37.002Z</time></trkpt><trkpt lat="38.04073124675696" lon="13.207332111155146"><ele>660.0</ele><time>2026-03-22T13:05:38.002Z</time></trkpt><trkpt lat="38.040785516534285" lon="13.207375741423157"><ele>662.5</ele><time>2026-03-22T13:05:39.002Z</time></trkpt><trkpt lat="38.04083175698618" lon="13.207437209560036"><ele>665.0</ele><time>2026-03-22T13:05:40.002Z</time></trkpt><trkpt lat="38.040867800418056" lon="13.20754918881372"><ele>667.5</ele><time>2026-03-22T13:05:41.002Z</time></trkpt><trkpt lat="38.04093995517426" lon="13.207635310944568"><ele>670.0</ele><time>2026-03-22T13:05:42.002Z</time></trkpt><trkpt lat="38.04099303649791" lon="13.207717719659762"><ele>670.2</ele><time>2026-03-22T13:05:43.002Z</time></trkpt><trkpt lat="38.04106902039663" lon="13.20779091337327"><ele>670.4</ele><time>2026-03-22T13:05:44.002Z</time></trkpt><trkpt lat="38.04116597290425" lon="13.207869565279964"><ele>670.5999999999999</ele><time>2026-03-22T13:05:45.002Z</time></trkpt><trkpt lat="38.041257834202796" lon="13.207931447737062"><ele>670.8</ele><time>2026-03-22T13:05:46.002Z</time></trkpt><trkpt lat="38.041338619727135" lon="13.207964992091647"><ele>671.0</ele><time>2026-03-22T13:05:47.002Z</time></trkpt><trkpt lat="38.04141952157931" lon="13.207969197169929"><ele>671.0</ele><time>2026-03-22T13:05:48.002Z</time></trkpt><trkpt lat="38.041490298421714" lon="13.207905966255845"><ele>671.0</ele><time>2026-03-22T13:05:49.002Z</time></trkpt><trkpt lat="38.04156172386182" lon="13.20788393489867"><ele>671.0</ele><time>2026-03-22T13:05:50.002Z</time></trkpt><trkpt lat="38.04162832759822" lon="13.20786898092427"><ele>671.0</ele><time>2026-03-22T13:05:51.002Z</time></trkpt><trkpt lat="38.041725018699715" lon="13.207859024419786"><ele>671.0</ele><time>2026-03-22T13:05:52.002Z</time></trkpt><trkpt lat="38.041813888052964" lon="13.207868557851837"><ele>671.0</ele><time>2026-03-22T13:05:53.002Z</time></trkpt><trkpt lat="38.041914686739304" lon="13.20786394019341"><ele>671.8</ele><time>2026-03-22T13:05:54.002Z</time></trkpt><trkpt lat="38.04202099632679" lon="13.20786206576562"><ele>672.5999999999999</ele><time>2026-03-22T13:05:55.002Z</time></trkpt><trkpt lat="38.04212382682433" lon="13.207858151312765"><ele>673.4</ele><time>2026-03-22T13:05:56.002Z</time></trkpt><trkpt lat="38.042231153418626" lon="13.207853855134038"><ele>674.2</ele><time>2026-03-22T13:05:57.002Z</time></trkpt><trkpt lat="38.04233207731938" lon="13.20785228019029"><ele>675.0</ele><time>2026-03-22T13:05:58.002Z</time></trkpt><trkpt lat="38.04243324486836" lon="13.207847242883872"><ele>675.0</ele><time>2026-03-22T13:05:59.002Z</time></trkpt><trkpt lat="38.04253541708331" lon="13.207857704032627"><ele>675.0</ele><time>2026-03-22T13:06:00.002Z</time></trkpt><trkpt lat="38.04262540853879" lon="13.207887914606179"><ele>675.0</ele><time>2026-03-22T13:06:01.002Z</time></trkpt><trkpt lat="38.04273104802407" lon="13.207903204067673"><ele>675.0</ele><time>2026-03-22T13:06:02.002Z</time></trkpt><trkpt lat="38.0428368448567" lon="13.207923305792738"><ele>675.0</ele><time>2026-03-22T13:06:03.002Z</time></trkpt><trkpt lat="38.04294140021256" lon="13.207939778039481"><ele>675.0</ele><time>2026-03-22T13:06:04.002Z</time></trkpt><trkpt lat="38.04304915423001" lon="13.207962532187276"><ele>675.0</ele><time>2026-03-22T13:06:05.002Z</time></trkpt><trkpt lat="38.043150991557226" lon="13.208003874802216"><ele>675.0</ele><time>2026-03-22T13:06:06.003Z</time></trkpt><trkpt lat="38.04322855938899" lon="13.208051488832748"><ele>675.0</ele><time>2026-03-22T13:06:07.003Z</time></trkpt><trkpt lat="38.043319139369125" lon="13.2081043882478"><ele>675.0</ele><time>2026-03-22T13:06:08.003Z</time></trkpt><trkpt lat="38.043411898255975" lon="13.208164330500326"><ele>676.8</ele><time>2026-03-22T13:06:09.003Z</time></trkpt><trkpt lat="38.043499779188046" lon="13.20823264064137"><ele>678.6</ele><time>2026-03-22T13:06:10.003Z</time></trkpt><trkpt lat="38.043575288229825" lon="13.208300298112928"><ele>680.4000000000001</ele><time>2026-03-22T13:06:11.003Z</time></trkpt><trkpt lat="38.04366896964433" lon="13.208385415514313"><ele>682.2</ele><time>2026-03-22T13:06:12.003Z</time></trkpt><trkpt lat="38.0437507153146" lon="13.208452675874529"><ele>684.0</ele><time>2026-03-22T13:06:13.003Z</time></trkpt><trkpt lat="38.0438314540384" lon="13.208521874799906"><ele>684.0</ele><time>2026-03-22T13:06:13.999Z</time></trkpt><trkpt lat="38.0439115985124" lon="13.208585864372333"><ele>684.0</ele><time>2026-03-22T13:06:14.999Z</time></trkpt><trkpt lat="38.0439879866207" lon="13.208647126460647"><ele>684.0</ele><time>2026-03-22T13:06:15.999Z</time></trkpt><trkpt lat="38.044074814404276" lon="13.20870875926026"><ele>684.0</ele><time>2026-03-22T13:06:16.999Z</time></trkpt><trkpt lat="38.04416147758996" lon="13.208772544782924"><ele>684.0</ele><time>2026-03-22T13:06:17.999Z</time></trkpt><trkpt lat="38.04422487790731" lon="13.208823923258187"><ele>685.0</ele><time>2026-03-22T13:06:18.999Z</time></trkpt><trkpt lat="38.04432016632171" lon="13.20889618089989"><ele>686.0</ele><time>2026-03-22T13:06:19.999Z</time></trkpt><trkpt lat="38.044407947056534" lon="13.20896854553356"><ele>687.0</ele><time>2026-03-22T13:06:20.999Z</time></trkpt><trkpt lat="38.04447854703582" lon="13.209037867046632"><ele>688.0</ele><time>2026-03-22T13:06:21.999Z</time></trkpt><trkpt lat="38.04455052634713" lon="13.209095418084177"><ele>689.0</ele><time>2026-03-22T13:06:22.999Z</time></trkpt><trkpt lat="38.044627038953955" lon="13.209161923249017"><ele>689.0</ele><time>2026-03-22T13:06:23.999Z</time></trkpt><trkpt lat="38.04468007963743" lon="13.209235953526502"><ele>689.0</ele><time>2026-03-22T13:06:25Z</time></trkpt><trkpt lat="38.04475095269018" lon="13.209307633654873"><ele>689.0</ele><time>2026-03-22T13:06:26Z</time></trkpt><trkpt lat="38.04479858186289" lon="13.209413451068599"><ele>689.0</ele><time>2026-03-22T13:06:27Z</time></trkpt><trkpt lat="38.044847149694796" lon="13.209470908086441"><ele>689.0</ele><time>2026-03-22T13:06:28Z</time></trkpt><trkpt lat="38.0448818498169" lon="13.209571959640046"><ele>689.0</ele><time>2026-03-22T13:06:29Z</time></trkpt><trkpt lat="38.044914105016666" lon="13.20966512978579"><ele>689.0</ele><time>2026-03-22T13:06:30Z</time></trkpt><trkpt lat="38.044947058934994" lon="13.20976645378632"><ele>689.0</ele><time>2026-03-22T13:06:31Z</time></trkpt><trkpt lat="38.04500001224982" lon="13.209894330781728"><ele>689.0</ele><time>2026-03-22T13:06:32Z</time></trkpt><trkpt lat="38.045058767210605" lon="13.209995136000478"><ele>689.0</ele><time>2026-03-22T13:06:33Z</time></trkpt><trkpt lat="38.04511553731727" lon="13.210115042918597"><ele>689.0</ele><time>2026-03-22T13:06:34Z</time></trkpt><trkpt lat="38.045167683869415" lon="13.210237977072556"><ele>689.0</ele><time>2026-03-22T13:06:35Z</time></trkpt><trkpt lat="38.04523471266731" lon="13.210339030044686"><ele>689.0</ele><time>2026-03-22T13:06:36Z</time></trkpt><trkpt lat="38.04529298116663" lon="13.21042471570133"><ele>689.0</ele><time>2026-03-22T13:06:37Z</time></trkpt><trkpt lat="38.045344273870334" lon="13.210520628132603"><ele>689.0</ele><time>2026-03-22T13:06:38Z</time></trkpt><trkpt lat="38.04540282840369" lon="13.210629978557767"><ele>689.0</ele><time>2026-03-22T13:06:39Z</time></trkpt><trkpt lat="38.04546121001743" lon="13.210732300392243"><ele>691.0</ele><time>2026-03-22T13:06:40Z</time></trkpt><trkpt lat="38.04551686077131" lon="13.210831539505897"><ele>693.0</ele><time>2026-03-22T13:06:41Z</time></trkpt><trkpt lat="38.045547057966225" lon="13.210950578121635"><ele>695.0</ele><time>2026-03-22T13:06:42Z</time></trkpt><trkpt lat="38.04558831001649" lon="13.211062409195222"><ele>697.0</ele><time>2026-03-22T13:06:43Z</time></trkpt><trkpt lat="38.04564956475997" lon="13.211173964817968"><ele>699.0</ele><time>2026-03-22T13:06:44Z</time></trkpt><trkpt lat="38.0456995771279" lon="13.211285232655031"><ele>699.0</ele><time>2026-03-22T13:06:45Z</time></trkpt><trkpt lat="38.04575414658813" lon="13.211392379541806"><ele>699.0</ele><time>2026-03-22T13:06:46Z</time></trkpt><trkpt lat="38.04580888010717" lon="13.211506478728655"><ele>699.0</ele><time>2026-03-22T13:06:47Z</time></trkpt><trkpt lat="38.04585295701205" lon="13.211629749967669"><ele>699.0</ele><time>2026-03-22T13:06:48Z</time></trkpt><trkpt lat="38.045903812604934" lon="13.211738447408226"><ele>699.0</ele><time>2026-03-22T13:06:49Z</time></trkpt><trkpt lat="38.045971222899816" lon="13.211821197321454"><ele>697.6</ele><time>2026-03-22T13:06:50Z</time></trkpt><trkpt lat="38.046046178143946" lon="13.211908645072475"><ele>696.2</ele><time>2026-03-22T13:06:51Z</time></trkpt><trkpt lat="38.046108858731834" lon="13.212001808487864"><ele>694.8000000000001</ele><time>2026-03-22T13:06:52Z</time></trkpt><trkpt lat="38.04616942128455" lon="13.212101052463506"><ele>693.4000000000001</ele><time>2026-03-22T13:06:53.001Z</time></trkpt><trkpt lat="38.04623452214716" lon="13.212199314067231"><ele>692.0</ele><time>2026-03-22T13:06:54.001Z</time></trkpt><trkpt lat="38.04628643675232" lon="13.212305736653642"><ele>693.8</ele><time>2026-03-22T13:06:55.001Z</time></trkpt><trkpt lat="38.04632993072146" lon="13.212384455928769"><ele>695.6</ele><time>2026-03-22T13:06:56.001Z</time></trkpt><trkpt lat="38.04633428385939" lon="13.212484981977388"><ele>697.4</ele><time>2026-03-22T13:06:57.001Z</time></trkpt><trkpt lat="38.04634792362363" lon="13.212598102959452"><ele>699.1999999999999</ele><time>2026-03-22T13:06:58.001Z</time></trkpt><trkpt lat="38.04635270124512" lon="13.212701314833968"><ele>701.0</ele><time>2026-03-22T13:07:00.001Z</time></trkpt><trkpt lat="38.04652034596529" lon="13.21257592313026"><ele>701.0</ele><time>2026-03-22T13:07:03.001Z</time></trkpt><trkpt lat="38.046560758684265" lon="13.21247883698771"><ele>701.0</ele><time>2026-03-22T13:07:04.001Z</time></trkpt><trkpt lat="38.04657555567375" lon="13.212397566723434"><ele>701.0</ele><time>2026-03-22T13:07:05.001Z</time></trkpt><trkpt lat="38.046540464937564" lon="13.212257512146394"><ele>701.0</ele><time>2026-03-22T13:07:07.001Z</time></trkpt><trkpt lat="38.04652502079115" lon="13.212151236188642"><ele>701.0</ele><time>2026-03-22T13:07:08.001Z</time></trkpt><trkpt lat="38.04652697909182" lon="13.21207081758394"><ele>701.0</ele><time>2026-03-22T13:07:09.001Z</time></trkpt><trkpt lat="38.046528096074205" lon="13.211985678392947"><ele>699.5</ele><time>2026-03-22T13:07:10.001Z</time></trkpt><trkpt lat="38.04651636662946" lon="13.211885794222345"><ele>698.0</ele><time>2026-03-22T13:07:11.001Z</time></trkpt><trkpt lat="38.046521942639174" lon="13.211721356615211"><ele>696.5</ele><time>2026-03-22T13:07:13.001Z</time></trkpt><trkpt lat="38.04652080318494" lon="13.21162733392314"><ele>695.0</ele><time>2026-03-22T13:07:14.001Z</time></trkpt><trkpt lat="38.046525793879795" lon="13.211535247681283"><ele>693.5</ele><time>2026-03-22T13:07:15.001Z</time></trkpt><trkpt lat="38.04652189406608" lon="13.211453470623132"><ele>692.0</ele><time>2026-03-22T13:07:16.001Z</time></trkpt><trkpt lat="38.04651499612584" lon="13.211308824262062"><ele>688.75</ele><time>2026-03-22T13:07:18.001Z</time></trkpt><trkpt lat="38.04640638051218" lon="13.211255172955461"><ele>685.5</ele><time>2026-03-22T13:07:19.001Z</time></trkpt><trkpt lat="38.04636485895432" lon="13.211117737725711"><ele>682.25</ele><time>2026-03-22T13:07:21.001Z</time></trkpt><trkpt lat="38.046339505328255" lon="13.210977263894167"><ele>679.0</ele><time>2026-03-22T13:07:23.001Z</time></trkpt><trkpt lat="38.046314767306704" lon="13.210844783078345"><ele>679.0</ele><time>2026-03-22T13:07:25.002Z</time></trkpt><trkpt lat="38.046300396550244" lon="13.210722097879202"><ele>679.0</ele><time>2026-03-22T13:07:27.002Z</time></trkpt><trkpt lat="38.04628248881361" lon="13.21059102302615"><ele>679.0</ele><time>2026-03-22T13:07:29.002Z</time></trkpt><trkpt lat="38.04624066002482" lon="13.210428138340777"><ele>679.0</ele><time>2026-03-22T13:07:31.002Z</time></trkpt><trkpt lat="38.04622114787542" lon="13.210343130315879"><ele>679.0</ele><time>2026-03-22T13:07:32.002Z</time></trkpt><trkpt lat="38.04619369560538" lon="13.210223780503224"><ele>676.0</ele><time>2026-03-22T13:07:34.002Z</time></trkpt><trkpt lat="38.04616854047155" lon="13.21014159841614"><ele>673.0</ele><time>2026-03-22T13:07:35.002Z</time></trkpt><trkpt lat="38.046115941392806" lon="13.210027011980124"><ele>670.0</ele><time>2026-03-22T13:07:37.002Z</time></trkpt><trkpt lat="38.04606499343236" lon="13.209877123991095"><ele>667.0</ele><time>2026-03-22T13:07:39.002Z</time></trkpt><trkpt lat="38.04602932335779" lon="13.209747124910217"><ele>664.0</ele><time>2026-03-22T13:07:41.002Z</time></trkpt><trkpt lat="38.04603951550715" lon="13.209624960884796"><ele>662.5</ele><time>2026-03-22T13:07:43.002Z</time></trkpt><trkpt lat="38.04607256514494" lon="13.209550659442538"><ele>661.0</ele><time>2026-03-22T13:07:44.002Z</time></trkpt><trkpt lat="38.04610866345708" lon="13.209465213608638"><ele>659.5</ele><time>2026-03-22T13:07:45.002Z</time></trkpt><trkpt lat="38.04612913336998" lon="13.209382946275326"><ele>658.0</ele><time>2026-03-22T13:07:46.002Z</time></trkpt><trkpt lat="38.04613493842448" lon="13.209283489519157"><ele>656.5</ele><time>2026-03-22T13:07:47.002Z</time></trkpt><trkpt lat="38.04616611178257" lon="13.209195931631262"><ele>655.0</ele><time>2026-03-22T13:07:48.002Z</time></trkpt><trkpt lat="38.046205782910924" lon="13.209051752968781"><ele>654.2</ele><time>2026-03-22T13:07:50.002Z</time></trkpt><trkpt lat="38.046226594153005" lon="13.20895649825184"><ele>653.4</ele><time>2026-03-22T13:07:51.002Z</time></trkpt><trkpt lat="38.046227505046225" lon="13.208752659213555"><ele>652.5999999999999</ele><time>2026-03-22T13:07:53.002Z</time></trkpt><trkpt lat="38.0462673803329" lon="13.208636556987795"><ele>651.8</ele><time>2026-03-22T13:07:55.002Z</time></trkpt><trkpt lat="38.0463206034979" lon="13.208591546055846"><ele>651.0</ele><time>2026-03-22T13:07:56.002Z</time></trkpt><trkpt lat="38.04637489414888" lon="13.208550892474982"><ele>651.0</ele><time>2026-03-22T13:07:57.002Z</time></trkpt><trkpt lat="38.04642105336846" lon="13.208478862562309"><ele>651.0</ele><time>2026-03-22T13:07:58.002Z</time></trkpt><trkpt lat="38.046456309242835" lon="13.208400718404219"><ele>651.0</ele><time>2026-03-22T13:07:59.002Z</time></trkpt><trkpt lat="38.0464704548347" lon="13.208295831268911"><ele>651.0</ele><time>2026-03-22T13:08:00.003Z</time></trkpt><trkpt lat="38.04648437645606" lon="13.2081853381859"><ele>651.0</ele><time>2026-03-22T13:08:01.003Z</time></trkpt><trkpt lat="38.04648249380664" lon="13.208097560863898"><ele>651.0</ele><time>2026-03-22T13:08:02.003Z</time></trkpt><trkpt lat="38.04647849437364" lon="13.207948508840857"><ele>650.4</ele><time>2026-03-22T13:08:04.003Z</time></trkpt><trkpt lat="38.0465153549519" lon="13.20781642138477"><ele>649.8</ele><time>2026-03-22T13:08:06.003Z</time></trkpt><trkpt lat="38.046590252935246" lon="13.20770135082894"><ele>649.1999999999999</ele><time>2026-03-22T13:08:08.003Z</time></trkpt><trkpt lat="38.04662745915653" lon="13.20758568447609"><ele>648.5999999999999</ele><time>2026-03-22T13:08:10.003Z</time></trkpt><trkpt lat="38.04663283228462" lon="13.207500121829696"><ele>648.0</ele><time>2026-03-22T13:08:12.003Z</time></trkpt><trkpt lat="38.04661079291997" lon="13.20735150404765"><ele>647.2</ele><time>2026-03-22T13:08:14.003Z</time></trkpt><trkpt lat="38.046560613953716" lon="13.207207449858924"><ele>646.4</ele><time>2026-03-22T13:08:16.003Z</time></trkpt><trkpt lat="38.046526488154306" lon="13.207139460891522"><ele>645.6</ele><time>2026-03-22T13:08:17.003Z</time></trkpt><trkpt lat="38.04645102681691" lon="13.207063106204739"><ele>644.8000000000001</ele><time>2026-03-22T13:08:19.003Z</time></trkpt><trkpt lat="38.04639630646034" lon="13.207010922867516"><ele>644.0</ele><time>2026-03-22T13:08:20Z</time></trkpt><trkpt lat="38.04630455756683" lon="13.206918755045292"><ele>644.0</ele><time>2026-03-22T13:08:22Z</time></trkpt><trkpt lat="38.0462460194186" lon="13.206790845694352"><ele>644.0</ele><time>2026-03-22T13:08:24Z</time></trkpt><trkpt lat="38.04622664892289" lon="13.206700546153112"><ele>644.0</ele><time>2026-03-22T13:08:25Z</time></trkpt><trkpt lat="38.04621254808749" lon="13.206597612638516"><ele>644.0</ele><time>2026-03-22T13:08:26Z</time></trkpt><trkpt lat="38.04618790946681" lon="13.206489495050011"><ele>644.0</ele><time>2026-03-22T13:08:27Z</time></trkpt><trkpt lat="38.046181033448015" lon="13.206407914368254"><ele>644.0</ele><time>2026-03-22T13:08:28Z</time></trkpt><trkpt lat="38.04617477798452" lon="13.206316204589676"><ele>642.8000000000001</ele><time>2026-03-22T13:08:29Z</time></trkpt><trkpt lat="38.04612688429487" lon="13.206207833341594"><ele>641.6</ele><time>2026-03-22T13:08:30Z</time></trkpt><trkpt lat="38.046070231518414" lon="13.206114966063831"><ele>640.4</ele><time>2026-03-22T13:08:31Z</time></trkpt><trkpt lat="38.04603319648777" lon="13.20599860761331"><ele>639.2</ele><time>2026-03-22T13:08:32Z</time></trkpt><trkpt lat="38.046040706152844" lon="13.205889996790384"><ele>638.0</ele><time>2026-03-22T13:08:33Z</time></trkpt><trkpt lat="38.04600787802834" lon="13.20579259072753"><ele>638.0</ele><time>2026-03-22T13:08:34Z</time></trkpt><trkpt lat="38.045930449891095" lon="13.205728622523436"><ele>638.0</ele><time>2026-03-22T13:08:35Z</time></trkpt><trkpt lat="38.045872605303195" lon="13.205668083069924"><ele>638.0</ele><time>2026-03-22T13:08:36Z</time></trkpt><trkpt lat="38.04585045217323" lon="13.20552835829443"><ele>638.0</ele><time>2026-03-22T13:08:38Z</time></trkpt><trkpt lat="38.04589164104515" lon="13.20536531909041"><ele>638.0</ele><time>2026-03-22T13:08:40Z</time></trkpt><trkpt lat="38.04593921416388" lon="13.205277377975573"><ele>637.6</ele><time>2026-03-22T13:08:41Z</time></trkpt><trkpt lat="38.045939980953364" lon="13.20510673486602"><ele>637.1999999999999</ele><time>2026-03-22T13:08:43Z</time></trkpt><trkpt lat="38.045940407819415" lon="13.205016322468218"><ele>636.8</ele><time>2026-03-22T13:08:44Z</time></trkpt><trkpt lat="38.04591906327052" lon="13.204937090287386"><ele>636.4</ele><time>2026-03-22T13:08:45Z</time></trkpt><trkpt lat="38.045896055601055" lon="13.20477722325095"><ele>636.0</ele><time>2026-03-22T13:08:47Z</time></trkpt><trkpt lat="38.04592943640471" lon="13.204688275228175"><ele>636.0</ele><time>2026-03-22T13:08:48Z</time></trkpt><trkpt lat="38.045980931155626" lon="13.20460298387258"><ele>636.0</ele><time>2026-03-22T13:08:49Z</time></trkpt><trkpt lat="38.04602877870562" lon="13.204498256593677"><ele>636.0</ele><time>2026-03-22T13:08:50Z</time></trkpt><trkpt lat="38.04604738981039" lon="13.20440898187127"><ele>636.0</ele><time>2026-03-22T13:08:51Z</time></trkpt><trkpt lat="38.04603793240427" lon="13.204300210307752"><ele>636.0</ele><time>2026-03-22T13:08:52Z</time></trkpt><trkpt lat="38.04603298206853" lon="13.204182543756183"><ele>636.0</ele><time>2026-03-22T13:08:53Z</time></trkpt><trkpt lat="38.04604345301422" lon="13.204067886310462"><ele>636.0</ele><time>2026-03-22T13:08:54Z</time></trkpt><trkpt lat="38.04605197208403" lon="13.203951308196892"><ele>636.0</ele><time>2026-03-22T13:08:55Z</time></trkpt><trkpt lat="38.04607473376519" lon="13.2038334527286"><ele>636.0</ele><time>2026-03-22T13:08:56.001Z</time></trkpt><trkpt lat="38.046132003063526" lon="13.203719734504427"><ele>636.0</ele><time>2026-03-22T13:08:57.001Z</time></trkpt><trkpt lat="38.046167032511356" lon="13.203589538954756"><ele>636.0</ele><time>2026-03-22T13:08:58.001Z</time></trkpt><trkpt lat="38.04618076057369" lon="13.203480891803908"><ele>636.0</ele><time>2026-03-22T13:08:59.001Z</time></trkpt><trkpt lat="38.046208641163524" lon="13.20336803235176"><ele>636.0</ele><time>2026-03-22T13:09:00.001Z</time></trkpt><trkpt lat="38.04623936126049" lon="13.203243632821394"><ele>636.0</ele><time>2026-03-22T13:09:01.001Z</time></trkpt><trkpt lat="38.04626572252838" lon="13.203119762490362"><ele>636.0</ele><time>2026-03-22T13:09:02.001Z</time></trkpt><trkpt lat="38.04629019585776" lon="13.202993535102308"><ele>636.0</ele><time>2026-03-22T13:09:03.001Z</time></trkpt><trkpt lat="38.046320752309924" lon="13.202890281656103"><ele>637.2</ele><time>2026-03-22T13:09:04.001Z</time></trkpt><trkpt lat="38.04634083344876" lon="13.202772673525354"><ele>638.4000000000001</ele><time>2026-03-22T13:09:05.001Z</time></trkpt><trkpt lat="38.04636184358261" lon="13.202656682596935"><ele>639.6</ele><time>2026-03-22T13:09:06.001Z</time></trkpt><trkpt lat="38.04638804081821" lon="13.20253959070079"><ele>640.8000000000001</ele><time>2026-03-22T13:09:07.001Z</time></trkpt><trkpt lat="38.046413756029075" lon="13.202421756122797"><ele>642.0</ele><time>2026-03-22T13:09:08.001Z</time></trkpt><trkpt lat="38.04644695226512" lon="13.202301542810172"><ele>643.2</ele><time>2026-03-22T13:09:09.001Z</time></trkpt><trkpt lat="38.04648743940865" lon="13.202184610947457"><ele>644.4000000000001</ele><time>2026-03-22T13:09:10.001Z</time></trkpt><trkpt lat="38.04654240083806" lon="13.202080382336124"><ele>645.5999999999999</ele><time>2026-03-22T13:09:11.001Z</time></trkpt><trkpt lat="38.04660419839356" lon="13.201971222188734"><ele>646.8</ele><time>2026-03-22T13:09:12.001Z</time></trkpt><trkpt lat="38.046643941423866" lon="13.20184677457381"><ele>648.0</ele><time>2026-03-22T13:09:13.001Z</time></trkpt><trkpt lat="38.04668772949965" lon="13.201720043588782"><ele>645.1999999999999</ele><time>2026-03-22T13:09:14.001Z</time></trkpt><trkpt lat="38.046728702916724" lon="13.201595443839116"><ele>642.4</ele><time>2026-03-22T13:09:15.001Z</time></trkpt><trkpt lat="38.046764458386775" lon="13.201466942821357"><ele>639.5999999999999</ele><time>2026-03-22T13:09:16.001Z</time></trkpt><trkpt lat="38.04679701788603" lon="13.201349455147557"><ele>636.8</ele><time>2026-03-22T13:09:17.001Z</time></trkpt><trkpt lat="38.046836967721326" lon="13.201230605467114"><ele>634.0</ele><time>2026-03-22T13:09:18.001Z</time></trkpt><trkpt lat="38.04689045016508" lon="13.20112376468443"><ele>634.0</ele><time>2026-03-22T13:09:19.001Z</time></trkpt><trkpt lat="38.04695457795926" lon="13.201028074115277"><ele>634.0</ele><time>2026-03-22T13:09:20.001Z</time></trkpt><trkpt lat="38.047033212405495" lon="13.200937866878334"><ele>634.0</ele><time>2026-03-22T13:09:21.001Z</time></trkpt><trkpt lat="38.0471146119042" lon="13.20084770699887"><ele>634.0</ele><time>2026-03-22T13:09:22.001Z</time></trkpt><trkpt lat="38.04717557974074" lon="13.200750717416485"><ele>634.0</ele><time>2026-03-22T13:09:23.001Z</time></trkpt><trkpt lat="38.047224366414625" lon="13.200650034383877"><ele>633.0</ele><time>2026-03-22T13:09:24.001Z</time></trkpt><trkpt lat="38.04729248179415" lon="13.200556753775533"><ele>632.0</ele><time>2026-03-22T13:09:25.001Z</time></trkpt><trkpt lat="38.04737658140653" lon="13.2005103868186"><ele>631.0</ele><time>2026-03-22T13:09:26.001Z</time></trkpt><trkpt lat="38.04747437628728" lon="13.200478553311346"><ele>630.0</ele><time>2026-03-22T13:09:27.001Z</time></trkpt><trkpt lat="38.04757795200386" lon="13.200452970344422"><ele>629.0</ele><time>2026-03-22T13:09:28.002Z</time></trkpt><trkpt lat="38.04768981038549" lon="13.200436440821612"><ele>629.0</ele><time>2026-03-22T13:09:29.002Z</time></trkpt><trkpt lat="38.04780753895935" lon="13.20042384075985"><ele>629.0</ele><time>2026-03-22T13:09:30.002Z</time></trkpt><trkpt lat="38.04791601943849" lon="13.200410884586354"><ele>629.0</ele><time>2026-03-22T13:09:31.002Z</time></trkpt><trkpt lat="38.04802815678802" lon="13.200383094649252"><ele>629.0</ele><time>2026-03-22T13:09:32.002Z</time></trkpt><trkpt lat="38.04812342475668" lon="13.200328158807217"><ele>629.0</ele><time>2026-03-22T13:09:33.002Z</time></trkpt><trkpt lat="38.04820806475877" lon="13.200264205348871"><ele>629.0</ele><time>2026-03-22T13:09:34.002Z</time></trkpt><trkpt lat="38.04829064141115" lon="13.200191254255019"><ele>629.0</ele><time>2026-03-22T13:09:35.002Z</time></trkpt><trkpt lat="38.04837800138283" lon="13.20012002249352"><ele>629.0</ele><time>2026-03-22T13:09:36.002Z</time></trkpt><trkpt lat="38.04845874328096" lon="13.200054791460728"><ele>629.0</ele><time>2026-03-22T13:09:37.002Z</time></trkpt><trkpt lat="38.04854367399904" lon="13.199991238959099"><ele>629.0</ele><time>2026-03-22T13:09:38.002Z</time></trkpt><trkpt lat="38.04860582834678" lon="13.199956650821369"><ele>626.6</ele><time>2026-03-22T13:09:39.002Z</time></trkpt><trkpt lat="38.04869525047382" lon="13.199859321303022"><ele>624.2</ele><time>2026-03-22T13:09:40.002Z</time></trkpt><trkpt lat="38.04876713012419" lon="13.199778921414385"><ele>621.8000000000001</ele><time>2026-03-22T13:09:41.002Z</time></trkpt><trkpt lat="38.048828908015935" lon="13.199678125051898"><ele>619.4</ele><time>2026-03-22T13:09:42.002Z</time></trkpt><trkpt lat="38.048877154149274" lon="13.1995670038811"><ele>617.0</ele><time>2026-03-22T13:09:43.002Z</time></trkpt><trkpt lat="38.04893956220909" lon="13.199476525279918"><ele>616.4</ele><time>2026-03-22T13:09:44.002Z</time></trkpt><trkpt lat="38.04898502267867" lon="13.199373118775082"><ele>615.8000000000001</ele><time>2026-03-22T13:09:45.002Z</time></trkpt><trkpt lat="38.04902074210924" lon="13.199272100677735"><ele>615.2</ele><time>2026-03-22T13:09:46.002Z</time></trkpt><trkpt lat="38.049030512431216" lon="13.199172524437339"><ele>614.6</ele><time>2026-03-22T13:09:47.002Z</time></trkpt><trkpt lat="38.04905055388855" lon="13.199048829397274"><ele>614.0</ele><time>2026-03-22T13:09:49.002Z</time></trkpt><trkpt lat="38.049125932823934" lon="13.19897696314885"><ele>612.0</ele><time>2026-03-22T13:09:51.002Z</time></trkpt><trkpt lat="38.04920544940295" lon="13.19893366974427"><ele>610.0</ele><time>2026-03-22T13:09:52.002Z</time></trkpt><trkpt lat="38.0493127186911" lon="13.19890031480294"><ele>608.0</ele><time>2026-03-22T13:09:53.002Z</time></trkpt><trkpt lat="38.04943162769332" lon="13.198867530232127"><ele>606.0</ele><time>2026-03-22T13:09:54.002Z</time></trkpt><trkpt lat="38.049556882294446" lon="13.198837520288796"><ele>604.0</ele><time>2026-03-22T13:09:55.002Z</time></trkpt><trkpt lat="38.04968962341982" lon="13.198808083971922"><ele>604.0</ele><time>2026-03-22T13:09:56.002Z</time></trkpt><trkpt lat="38.04982687839944" lon="13.198787698181313"><ele>604.0</ele><time>2026-03-22T13:09:57.002Z</time></trkpt><trkpt lat="38.04996895772752" lon="13.19878687709365"><ele>604.0</ele><time>2026-03-22T13:09:58.002Z</time></trkpt><trkpt lat="38.05011027425394" lon="13.19881170195791"><ele>604.0</ele><time>2026-03-22T13:09:59.002Z</time></trkpt><trkpt lat="38.050235286928526" lon="13.198851383199989"><ele>606.75</ele><time>2026-03-22T13:10:00.002Z</time></trkpt><trkpt lat="38.050351183329916" lon="13.198915418682848"><ele>609.5</ele><time>2026-03-22T13:10:01.003Z</time></trkpt><trkpt lat="38.05045500202896" lon="13.199003311959531"><ele>612.25</ele><time>2026-03-22T13:10:02.003Z</time></trkpt><trkpt lat="38.0505557717162" lon="13.199116045343228"><ele>615.0</ele><time>2026-03-22T13:10:03.003Z</time></trkpt><trkpt lat="38.05065363272127" lon="13.199227343978258"><ele>616.25</ele><time>2026-03-22T13:10:04.003Z</time></trkpt><trkpt lat="38.050755129546644" lon="13.199337650883423"><ele>617.5</ele><time>2026-03-22T13:10:05.003Z</time></trkpt><trkpt lat="38.0508586115042" lon="13.199472962744922"><ele>618.75</ele><time>2026-03-22T13:10:06.003Z</time></trkpt><trkpt lat="38.050951315853844" lon="13.199602120067283"><ele>620.0</ele><time>2026-03-22T13:10:07.003Z</time></trkpt><trkpt lat="38.051049026019804" lon="13.199717975140196"><ele>621.25</ele><time>2026-03-22T13:10:08.003Z</time></trkpt><trkpt lat="38.05117304284974" lon="13.199794724587077"><ele>622.5</ele><time>2026-03-22T13:10:09.003Z</time></trkpt><trkpt lat="38.05129225194951" lon="13.199880100468182"><ele>623.75</ele><time>2026-03-22T13:10:10.003Z</time></trkpt><trkpt lat="38.05143344664128" lon="13.199966852654407"><ele>625.0</ele><time>2026-03-22T13:10:11.003Z</time></trkpt><trkpt lat="38.05157344667228" lon="13.200020093519848"><ele>626.75</ele><time>2026-03-22T13:10:12.003Z</time></trkpt><trkpt lat="38.05171328979566" lon="13.200034664753577"><ele>628.5</ele><time>2026-03-22T13:10:13.003Z</time></trkpt><trkpt lat="38.05185473306298" lon="13.200021591832753"><ele>630.25</ele><time>2026-03-22T13:10:14.003Z</time></trkpt><trkpt lat="38.05199127024996" lon="13.200033989651576"><ele>632.0</ele><time>2026-03-22T13:10:15.003Z</time></trkpt><trkpt lat="38.05212630876157" lon="13.200045313103951"><ele>632.0</ele><time>2026-03-22T13:10:16.003Z</time></trkpt><trkpt lat="38.05225877387834" lon="13.20002651618582"><ele>632.0</ele><time>2026-03-22T13:10:17.003Z</time></trkpt><trkpt lat="38.05238194588275" lon="13.200071283015927"><ele>632.0</ele><time>2026-03-22T13:10:18.003Z</time></trkpt><trkpt lat="38.05250105018779" lon="13.20014413187593"><ele>632.0</ele><time>2026-03-22T13:10:19.003Z</time></trkpt><trkpt lat="38.05261647194615" lon="13.200227421058434"><ele>634.75</ele><time>2026-03-22T13:10:20.003Z</time></trkpt><trkpt lat="38.052734041934286" lon="13.200307144598145"><ele>637.5</ele><time>2026-03-22T13:10:21.003Z</time></trkpt><trkpt lat="38.05285349325356" lon="13.200361747095213"><ele>640.25</ele><time>2026-03-22T13:10:22.003Z</time></trkpt><trkpt lat="38.05298154475752" lon="13.20040348136391"><ele>643.0</ele><time>2026-03-22T13:10:23.003Z</time></trkpt><trkpt lat="38.05311290164641" lon="13.200438373499816"><ele>643.0</ele><time>2026-03-22T13:10:24.003Z</time></trkpt><trkpt lat="38.05324301634083" lon="13.200478808775483"><ele>643.0</ele><time>2026-03-22T13:10:25.003Z</time></trkpt><trkpt lat="38.05337385786577" lon="13.200519460566968"><ele>643.0</ele><time>2026-03-22T13:10:26Z</time></trkpt><trkpt lat="38.053508475174475" lon="13.200570055943196"><ele>643.0</ele><time>2026-03-22T13:10:27Z</time></trkpt><trkpt lat="38.05364726132701" lon="13.200615755928007"><ele>643.0</ele><time>2026-03-22T13:10:28Z</time></trkpt><trkpt lat="38.05377765905719" lon="13.200656178700422"><ele>643.0</ele><time>2026-03-22T13:10:29Z</time></trkpt><trkpt lat="38.05390661792164" lon="13.200712083488236"><ele>643.0</ele><time>2026-03-22T13:10:30Z</time></trkpt><trkpt lat="38.0540355761713" lon="13.200761042148452"><ele>643.0</ele><time>2026-03-22T13:10:31Z</time></trkpt><trkpt lat="38.05415575161928" lon="13.200807819623394"><ele>643.5999999999999</ele><time>2026-03-22T13:10:32Z</time></trkpt><trkpt lat="38.05426480586547" lon="13.200838695255907"><ele>644.1999999999999</ele><time>2026-03-22T13:10:33Z</time></trkpt><trkpt lat="38.054363484205055" lon="13.200840764443344"><ele>644.8</ele><time>2026-03-22T13:10:34Z</time></trkpt><trkpt lat="38.0544450570307" lon="13.200788055362553"><ele>645.4</ele><time>2026-03-22T13:10:35Z</time></trkpt><trkpt lat="38.05452663086414" lon="13.20071676658622"><ele>646.0</ele><time>2026-03-22T13:10:36Z</time></trkpt><trkpt lat="38.05461148234023" lon="13.200632812579318"><ele>647.25</ele><time>2026-03-22T13:10:37Z</time></trkpt><trkpt lat="38.05470127061239" lon="13.20055572116338"><ele>648.5</ele><time>2026-03-22T13:10:38Z</time></trkpt><trkpt lat="38.05479087132867" lon="13.20047736825136"><ele>649.75</ele><time>2026-03-22T13:10:39Z</time></trkpt><trkpt lat="38.05488698905754" lon="13.200393987263755"><ele>651.0</ele><time>2026-03-22T13:10:40Z</time></trkpt><trkpt lat="38.05498577682572" lon="13.200306516215608"><ele>651.0</ele><time>2026-03-22T13:10:41Z</time></trkpt><trkpt lat="38.05509081079148" lon="13.200224911870409"><ele>651.0</ele><time>2026-03-22T13:10:42Z</time></trkpt><trkpt lat="38.055172371854965" lon="13.200127539055348"><ele>651.0</ele><time>2026-03-22T13:10:43Z</time></trkpt><trkpt lat="38.0552396494599" lon="13.200025383722839"><ele>651.0</ele><time>2026-03-22T13:10:44Z</time></trkpt><trkpt lat="38.05529621842607" lon="13.199906182240783"><ele>653.0</ele><time>2026-03-22T13:10:45Z</time></trkpt><trkpt lat="38.05534412658024" lon="13.199785661449472"><ele>655.0</ele><time>2026-03-22T13:10:46Z</time></trkpt><trkpt lat="38.05539736589262" lon="13.199661479159255"><ele>657.0</ele><time>2026-03-22T13:10:47Z</time></trkpt><trkpt lat="38.055448663925716" lon="13.199538662964887"><ele>659.0</ele><time>2026-03-22T13:10:48Z</time></trkpt><trkpt lat="38.05549865165518" lon="13.19943363661017"><ele>661.0</ele><time>2026-03-22T13:10:49Z</time></trkpt><trkpt lat="38.055549189435425" lon="13.19934527450799"><ele>661.0</ele><time>2026-03-22T13:10:50Z</time></trkpt><trkpt lat="38.055612910703694" lon="13.19929914077401"><ele>661.0</ele><time>2026-03-22T13:10:51Z</time></trkpt><trkpt lat="38.055687088498615" lon="13.199266578187496"><ele>661.0</ele><time>2026-03-22T13:10:52Z</time></trkpt><trkpt lat="38.05578176104686" lon="13.199253745190724"><ele>661.0</ele><time>2026-03-22T13:10:53Z</time></trkpt><trkpt lat="38.05589219960977" lon="13.19924441692283"><ele>661.0</ele><time>2026-03-22T13:10:54Z</time></trkpt><trkpt lat="38.05601573165347" lon="13.199230797262585"><ele>657.25</ele><time>2026-03-22T13:10:55Z</time></trkpt><trkpt lat="38.056140341147774" lon="13.199229688413489"><ele>653.5</ele><time>2026-03-22T13:10:56.001Z</time></trkpt><trkpt lat="38.056264771394844" lon="13.199242478770435"><ele>649.75</ele><time>2026-03-22T13:10:57.001Z</time></trkpt><trkpt lat="38.056369886033735" lon="13.1992506154091"><ele>646.0</ele><time>2026-03-22T13:10:58.001Z</time></trkpt><trkpt lat="38.05645690171653" lon="13.199307617850737"><ele>646.0</ele><time>2026-03-22T13:10:59.001Z</time></trkpt><trkpt lat="38.0565371455537" lon="13.199379648525305"><ele>646.0</ele><time>2026-03-22T13:11:00.001Z</time></trkpt><trkpt lat="38.056623976335395" lon="13.199457355922767"><ele>646.0</ele><time>2026-03-22T13:11:01.001Z</time></trkpt><trkpt lat="38.056716919145586" lon="13.199531053111283"><ele>646.0</ele><time>2026-03-22T13:11:02.001Z</time></trkpt><trkpt lat="38.05679850965183" lon="13.199619681365666"><ele>646.0</ele><time>2026-03-22T13:11:03.001Z</time></trkpt><trkpt lat="38.056874571793166" lon="13.199704327534377"><ele>646.5</ele><time>2026-03-22T13:11:04.001Z</time></trkpt><trkpt lat="38.056916387189496" lon="13.199801566466371"><ele>647.0</ele><time>2026-03-22T13:11:05.001Z</time></trkpt><trkpt lat="38.05693930833737" lon="13.199896462565686"><ele>647.5</ele><time>2026-03-22T13:11:06.001Z</time></trkpt><trkpt lat="38.056967405226004" lon="13.199995275925732"><ele>648.0</ele><time>2026-03-22T13:11:07.001Z</time></trkpt><trkpt lat="38.05699575767628" lon="13.20010824471541"><ele>648.5</ele><time>2026-03-22T13:11:08.001Z</time></trkpt><trkpt lat="38.05703421509087" lon="13.200221856230645"><ele>649.0</ele><time>2026-03-22T13:11:09.001Z</time></trkpt><trkpt lat="38.0570652236724" lon="13.200342743110294"><ele>649.0</ele><time>2026-03-22T13:11:10.001Z</time></trkpt><trkpt lat="38.057091717457105" lon="13.20047020138459"><ele>649.0</ele><time>2026-03-22T13:11:11.001Z</time></trkpt><trkpt lat="38.05712247290827" lon="13.200604341487697"><ele>649.0</ele><time>2026-03-22T13:11:12.001Z</time></trkpt><trkpt lat="38.057157770046715" lon="13.200727783854491"><ele>649.0</ele><time>2026-03-22T13:11:13.001Z</time></trkpt><trkpt lat="38.05721236498176" lon="13.200845016851407"><ele>649.0</ele><time>2026-03-22T13:11:14.001Z</time></trkpt><trkpt lat="38.057286064840675" lon="13.200935755424542"><ele>647.2</ele><time>2026-03-22T13:11:15.001Z</time></trkpt><trkpt lat="38.05736796904839" lon="13.201003751684524"><ele>645.4000000000001</ele><time>2026-03-22T13:11:16.001Z</time></trkpt><trkpt lat="38.05745179390094" lon="13.201055306250224"><ele>643.6</ele><time>2026-03-22T13:11:17.001Z</time></trkpt><trkpt lat="38.0575298628765" lon="13.201112530470208"><ele>641.8</ele><time>2026-03-22T13:11:18.001Z</time></trkpt><trkpt lat="38.05760481156133" lon="13.20117405743315"><ele>640.0</ele><time>2026-03-22T13:11:19.001Z</time></trkpt><trkpt lat="38.05767839017382" lon="13.201237687408929"><ele>640.0</ele><time>2026-03-22T13:11:20.001Z</time></trkpt><trkpt lat="38.05775530263593" lon="13.201301226460597"><ele>640.0</ele><time>2026-03-22T13:11:21.001Z</time></trkpt><trkpt lat="38.057827336650085" lon="13.201358575445182"><ele>640.0</ele><time>2026-03-22T13:11:22.001Z</time></trkpt><trkpt lat="38.05790390512853" lon="13.201415594362118"><ele>640.0</ele><time>2026-03-22T13:11:23.001Z</time></trkpt><trkpt lat="38.05797694008516" lon="13.201475142014035"><ele>640.0</ele><time>2026-03-22T13:11:24.001Z</time></trkpt><trkpt lat="38.05805207154633" lon="13.201532294144238"><ele>640.0</ele><time>2026-03-22T13:11:25.001Z</time></trkpt><trkpt lat="38.058127362139125" lon="13.201587402974306"><ele>641.5</ele><time>2026-03-22T13:11:26.001Z</time></trkpt><trkpt lat="38.058213861341564" lon="13.201652638611776"><ele>643.0</ele><time>2026-03-22T13:11:27.002Z</time></trkpt><trkpt lat="38.05829046635644" lon="13.201713050735137"><ele>644.5</ele><time>2026-03-22T13:11:28.002Z</time></trkpt><trkpt lat="38.05834843255169" lon="13.201767592368734"><ele>646.0</ele><time>2026-03-22T13:11:29.002Z</time></trkpt><trkpt lat="38.05841524112934" lon="13.201835038850191"><ele>647.5</ele><time>2026-03-22T13:11:30.002Z</time></trkpt><trkpt lat="38.05850053688621" lon="13.201848065450699"><ele>649.0</ele><time>2026-03-22T13:11:31.002Z</time></trkpt><trkpt lat="38.05857109192375" lon="13.201838045243381"><ele>649.0</ele><time>2026-03-22T13:11:32.002Z</time></trkpt><trkpt lat="38.058632467216356" lon="13.20179945193522"><ele>649.0</ele><time>2026-03-22T13:11:33.002Z</time></trkpt><trkpt lat="38.05867978211347" lon="13.20174207311312"><ele>649.0</ele><time>2026-03-22T13:11:34.002Z</time></trkpt><trkpt lat="38.05872123241137" lon="13.20160320470864"><ele>649.0</ele><time>2026-03-22T13:11:36.002Z</time></trkpt><trkpt lat="38.0587225135948" lon="13.201515085831106"><ele>649.0</ele><time>2026-03-22T13:11:37.002Z</time></trkpt><trkpt lat="38.058719023303276" lon="13.201412315555416"><ele>649.0</ele><time>2026-03-22T13:11:38.002Z</time></trkpt><trkpt lat="38.05871721590263" lon="13.201292188800812"><ele>646.2</ele><time>2026-03-22T13:11:39.002Z</time></trkpt><trkpt lat="38.05871824235672" lon="13.201163777373763"><ele>643.4000000000001</ele><time>2026-03-22T13:11:40.002Z</time></trkpt><trkpt lat="38.05872001229291" lon="13.201031051008169"><ele>640.6</ele><time>2026-03-22T13:11:41.002Z</time></trkpt><trkpt lat="38.05872237647587" lon="13.200908119490157"><ele>637.8</ele><time>2026-03-22T13:11:42.002Z</time></trkpt><trkpt lat="38.05873165114332" lon="13.200792627577622"><ele>635.0</ele><time>2026-03-22T13:11:43.002Z</time></trkpt><trkpt lat="38.05875211400031" lon="13.200685189800613"><ele>635.4</ele><time>2026-03-22T13:11:44.002Z</time></trkpt><trkpt lat="38.05878743242304" lon="13.200587253915714"><ele>635.8</ele><time>2026-03-22T13:11:45.002Z</time></trkpt><trkpt lat="38.05884399352539" lon="13.200492124777304"><ele>636.2</ele><time>2026-03-22T13:11:46.002Z</time></trkpt><trkpt lat="38.05892585916112" lon="13.200386927219855"><ele>636.6</ele><time>2026-03-22T13:11:47.002Z</time></trkpt><trkpt lat="38.059020121159" lon="13.200271744867509"><ele>637.0</ele><time>2026-03-22T13:11:48.002Z</time></trkpt><trkpt lat="38.05912214887989" lon="13.200144966531035"><ele>637.0</ele><time>2026-03-22T13:11:49.002Z</time></trkpt><trkpt lat="38.05922353142556" lon="13.19999813776461"><ele>637.0</ele><time>2026-03-22T13:11:50.002Z</time></trkpt><trkpt lat="38.05933112703665" lon="13.199852848739816"><ele>637.0</ele><time>2026-03-22T13:11:51.002Z</time></trkpt><trkpt lat="38.05943037419444" lon="13.199728761898532"><ele>634.25</ele><time>2026-03-22T13:11:52.002Z</time></trkpt><trkpt lat="38.059525811883134" lon="13.199625639984621"><ele>631.5</ele><time>2026-03-22T13:11:53.002Z</time></trkpt><trkpt lat="38.05962756573345" lon="13.1995603828599"><ele>628.75</ele><time>2026-03-22T13:11:54.002Z</time></trkpt><trkpt lat="38.059740153062364" lon="13.199529259547486"><ele>626.0</ele><time>2026-03-22T13:11:55.002Z</time></trkpt><trkpt lat="38.059851723010425" lon="13.19948873524769"><ele>627.25</ele><time>2026-03-22T13:11:56.002Z</time></trkpt><trkpt lat="38.059979871597974" lon="13.199476497489384"><ele>628.5</ele><time>2026-03-22T13:11:57.002Z</time></trkpt><trkpt lat="38.06010151304448" lon="13.199436916229914"><ele>629.75</ele><time>2026-03-22T13:11:58.002Z</time></trkpt><trkpt lat="38.06020728683262" lon="13.199406314014198"><ele>631.0</ele><time>2026-03-22T13:11:59.002Z</time></trkpt><trkpt lat="38.060308281800395" lon="13.19937530274802"><ele>631.0</ele><time>2026-03-22T13:12:00.002Z</time></trkpt><trkpt lat="38.06039170692575" lon="13.199363696991856"><ele>631.0</ele><time>2026-03-22T13:12:01.003Z</time></trkpt><trkpt lat="38.060476709899476" lon="13.199343330085648"><ele>631.0</ele><time>2026-03-22T13:12:02.003Z</time></trkpt><trkpt lat="38.060562598979665" lon="13.19936850239879"><ele>631.0</ele><time>2026-03-22T13:12:03.003Z</time></trkpt><trkpt lat="38.060663341783304" lon="13.1993955292842"><ele>631.0</ele><time>2026-03-22T13:12:04.003Z</time></trkpt><trkpt lat="38.06076453915215" lon="13.199413608509875"><ele>630.3333333333334</ele><time>2026-03-22T13:12:05.003Z</time></trkpt><trkpt lat="38.06087195272063" lon="13.199450906266772"><ele>629.6666666666667</ele><time>2026-03-22T13:12:06.003Z</time></trkpt><trkpt lat="38.06096569714826" lon="13.199478174627128"><ele>629.0</ele><time>2026-03-22T13:12:07.003Z</time></trkpt><trkpt lat="38.061055405100674" lon="13.19949032781279"><ele>628.3333333333334</ele><time>2026-03-22T13:12:08.003Z</time></trkpt><trkpt lat="38.06113141550662" lon="13.199481576178796"><ele>627.6666666666666</ele><time>2026-03-22T13:12:09.003Z</time></trkpt><trkpt lat="38.06119909339612" lon="13.199442325491027"><ele>627.0</ele><time>2026-03-22T13:12:10.003Z</time></trkpt><trkpt lat="38.06124341432349" lon="13.199384345371076"><ele>627.0</ele><time>2026-03-22T13:12:11.003Z</time></trkpt><trkpt lat="38.06128043331348" lon="13.199291697291297"><ele>627.0</ele><time>2026-03-22T13:12:12.003Z</time></trkpt><trkpt lat="38.061325586706374" lon="13.199177735746241"><ele>627.0</ele><time>2026-03-22T13:12:13.003Z</time></trkpt><trkpt lat="38.06135742892916" lon="13.199030942422057"><ele>627.0</ele><time>2026-03-22T13:12:14.003Z</time></trkpt><trkpt lat="38.061376758866906" lon="13.198872106622288"><ele>627.0</ele><time>2026-03-22T13:12:15.003Z</time></trkpt><trkpt lat="38.06141595475095" lon="13.198710472876199"><ele>628.0</ele><time>2026-03-22T13:12:16.003Z</time></trkpt><trkpt lat="38.061462027335466" lon="13.198555355424647"><ele>629.0</ele><time>2026-03-22T13:12:17.003Z</time></trkpt><trkpt lat="38.06152158736227" lon="13.19842030499286"><ele>630.0</ele><time>2026-03-22T13:12:18.003Z</time></trkpt><trkpt lat="38.06159271281941" lon="13.198301483330916"><ele>631.0</ele><time>2026-03-22T13:12:19.003Z</time></trkpt><trkpt lat="38.06166726533578" lon="13.198188454432293"><ele>628.25</ele><time>2026-03-22T13:12:20.003Z</time></trkpt><trkpt lat="38.0617689016213" lon="13.19810610240047"><ele>625.5</ele><time>2026-03-22T13:12:21.003Z</time></trkpt><trkpt lat="38.061873332266025" lon="13.19802174602376"><ele>622.75</ele><time>2026-03-22T13:12:22.003Z</time></trkpt><trkpt lat="38.06199406096505" lon="13.197943319866116"><ele>620.0</ele><time>2026-03-22T13:12:23.003Z</time></trkpt><trkpt lat="38.06211739246168" lon="13.197859618136238"><ele>620.0</ele><time>2026-03-22T13:12:24.003Z</time></trkpt><trkpt lat="38.06224726966849" lon="13.19777128937019"><ele>620.0</ele><time>2026-03-22T13:12:25.003Z</time></trkpt><trkpt lat="38.06238282503322" lon="13.197685652965733"><ele>620.0</ele><time>2026-03-22T13:12:26.003Z</time></trkpt><trkpt lat="38.06250355555259" lon="13.19762251679712"><ele>620.0</ele><time>2026-03-22T13:12:27.003Z</time></trkpt><trkpt lat="38.062619306599125" lon="13.197588662104058"><ele>622.0</ele><time>2026-03-22T13:12:28.003Z</time></trkpt><trkpt lat="38.06274078636034" lon="13.19758887284804"><ele>624.0</ele><time>2026-03-22T13:12:29.003Z</time></trkpt><trkpt lat="38.06286621429984" lon="13.197609349956322"><ele>626.0</ele><time>2026-03-22T13:12:30.003Z</time></trkpt><trkpt lat="38.06300287104923" lon="13.197647255350997"><ele>628.0</ele><time>2026-03-22T13:12:31.003Z</time></trkpt><trkpt lat="38.0631467191639" lon="13.197673812898103"><ele>627.3333333333334</ele><time>2026-03-22T13:12:32Z</time></trkpt><trkpt lat="38.06329788273498" lon="13.19770586310277"><ele>626.6666666666666</ele><time>2026-03-22T13:12:33Z</time></trkpt><trkpt lat="38.063457906921194" lon="13.19773166233897"><ele>626.0</ele><time>2026-03-22T13:12:34Z</time></trkpt><trkpt lat="38.06361929225256" lon="13.197760125406626"><ele>626.0</ele><time>2026-03-22T13:12:35Z</time></trkpt><trkpt lat="38.063776333868745" lon="13.197791023551112"><ele>626.0</ele><time>2026-03-22T13:12:36Z</time></trkpt><trkpt lat="38.063935831030356" lon="13.197813472553136"><ele>626.0</ele><time>2026-03-22T13:12:37Z</time></trkpt><trkpt lat="38.064091121553005" lon="13.197838402754927"><ele>625.75</ele><time>2026-03-22T13:12:38Z</time></trkpt><trkpt lat="38.064243811039034" lon="13.19786421508786"><ele>625.5</ele><time>2026-03-22T13:12:39Z</time></trkpt><trkpt lat="38.06438420449842" lon="13.19788634605282"><ele>625.25</ele><time>2026-03-22T13:12:40Z</time></trkpt><trkpt lat="38.064507468577325" lon="13.197909708436013"><ele>625.0</ele><time>2026-03-22T13:12:41Z</time></trkpt><trkpt lat="38.064609263654646" lon="13.197949767459292"><ele>625.0</ele><time>2026-03-22T13:12:42Z</time></trkpt><trkpt lat="38.064704538749474" lon="13.198012414851812"><ele>625.0</ele><time>2026-03-22T13:12:43Z</time></trkpt><trkpt lat="38.06478444895673" lon="13.198118947211057"><ele>625.0</ele><time>2026-03-22T13:12:44Z</time></trkpt><trkpt lat="38.06487308700164" lon="13.198223638979254"><ele>625.0</ele><time>2026-03-22T13:12:45Z</time></trkpt><trkpt lat="38.06495783771934" lon="13.198348548753422"><ele>625.75</ele><time>2026-03-22T13:12:46Z</time></trkpt><trkpt lat="38.06505406132217" lon="13.19846698889058"><ele>626.5</ele><time>2026-03-22T13:12:47Z</time></trkpt><trkpt lat="38.065147819405404" lon="13.1985846239945"><ele>627.25</ele><time>2026-03-22T13:12:48Z</time></trkpt><trkpt lat="38.06522515431783" lon="13.198718567367065"><ele>628.0</ele><time>2026-03-22T13:12:49Z</time></trkpt><trkpt lat="38.06531251285509" lon="13.1988511046684"><ele>629.75</ele><time>2026-03-22T13:12:50Z</time></trkpt><trkpt lat="38.065381649744936" lon="13.199003655598899"><ele>631.5</ele><time>2026-03-22T13:12:51Z</time></trkpt><trkpt lat="38.06545594791567" lon="13.199161030020791"><ele>633.25</ele><time>2026-03-22T13:12:52Z</time></trkpt><trkpt lat="38.06554424432817" lon="13.199334854702848"><ele>635.0</ele><time>2026-03-22T13:12:53Z</time></trkpt><trkpt lat="38.065617489042744" lon="13.199483466010737"><ele>635.0</ele><time>2026-03-22T13:12:54Z</time></trkpt><trkpt lat="38.06569823916854" lon="13.19965316034437"><ele>635.0</ele><time>2026-03-22T13:12:55Z</time></trkpt><trkpt lat="38.06577378589008" lon="13.199827386071469"><ele>635.0</ele><time>2026-03-22T13:12:56Z</time></trkpt><trkpt lat="38.065859114182665" lon="13.199978445945323"><ele>633.0</ele><time>2026-03-22T13:12:57Z</time></trkpt><trkpt lat="38.0659232890136" lon="13.200104588715433"><ele>631.0</ele><time>2026-03-22T13:12:58Z</time></trkpt><trkpt lat="38.06600669473262" lon="13.200220159446802"><ele>629.0</ele><time>2026-03-22T13:12:59Z</time></trkpt><trkpt lat="38.06612015501314" lon="13.20028991396733"><ele>627.0</ele><time>2026-03-22T13:13:00.001Z</time></trkpt><trkpt lat="38.066245296602176" lon="13.200336700329105"><ele>627.0</ele><time>2026-03-22T13:13:01.001Z</time></trkpt><trkpt lat="38.06637914817322" lon="13.200359287457731"><ele>627.0</ele><time>2026-03-22T13:13:02.001Z</time></trkpt><trkpt lat="38.06652270421467" lon="13.200356091234005"><ele>627.0</ele><time>2026-03-22T13:13:03.001Z</time></trkpt><trkpt lat="38.066675285106015" lon="13.200345036296026"><ele>627.0</ele><time>2026-03-22T13:13:04.001Z</time></trkpt><trkpt lat="38.06681704294609" lon="13.200339211654999"><ele>623.6666666666666</ele><time>2026-03-22T13:13:05.001Z</time></trkpt><trkpt lat="38.066961360921084" lon="13.200338473096442"><ele>620.3333333333333</ele><time>2026-03-22T13:13:06.001Z</time></trkpt><trkpt lat="38.0671167397614" lon="13.20034185281821"><ele>617.0</ele><time>2026-03-22T13:13:07.001Z</time></trkpt><trkpt lat="38.06727012238889" lon="13.200338301397174"><ele>617.0</ele><time>2026-03-22T13:13:08.001Z</time></trkpt><trkpt lat="38.067417394504915" lon="13.200332560833047"><ele>617.0</ele><time>2026-03-22T13:13:09.001Z</time></trkpt><trkpt lat="38.06756352812039" lon="13.200315060776365"><ele>617.0</ele><time>2026-03-22T13:13:10.001Z</time></trkpt><trkpt lat="38.067703862659705" lon="13.200268621690391"><ele>617.0</ele><time>2026-03-22T13:13:11.001Z</time></trkpt><trkpt lat="38.06784160652755" lon="13.200194978483726"><ele>616.3333333333333</ele><time>2026-03-22T13:13:12.001Z</time></trkpt><trkpt lat="38.06797614400785" lon="13.200107716415785"><ele>615.6666666666666</ele><time>2026-03-22T13:13:13.001Z</time></trkpt><trkpt lat="38.06811886406221" lon="13.200016179972275"><ele>615.0</ele><time>2026-03-22T13:13:14.001Z</time></trkpt><trkpt lat="38.06825188188389" lon="13.199933675260967"><ele>617.25</ele><time>2026-03-22T13:13:15.001Z</time></trkpt><trkpt lat="38.06839070177127" lon="13.199854144770974"><ele>619.5</ele><time>2026-03-22T13:13:16.001Z</time></trkpt><trkpt lat="38.06852145305148" lon="13.19977272549512"><ele>621.75</ele><time>2026-03-22T13:13:17.001Z</time></trkpt><trkpt lat="38.0686585144378" lon="13.19969714853297"><ele>624.0</ele><time>2026-03-22T13:13:18.001Z</time></trkpt><trkpt lat="38.06879973096024" lon="13.199616576331895"><ele>620.0</ele><time>2026-03-22T13:13:19.001Z</time></trkpt><trkpt lat="38.06893014482673" lon="13.199537110957332"><ele>616.0</ele><time>2026-03-22T13:13:20.001Z</time></trkpt><trkpt lat="38.06906135931174" lon="13.199458542462969"><ele>612.0</ele><time>2026-03-22T13:13:21.001Z</time></trkpt><trkpt lat="38.0692005087548" lon="13.19938236139935"><ele>608.0</ele><time>2026-03-22T13:13:22.001Z</time></trkpt><trkpt lat="38.06933050537158" lon="13.19929630721555"><ele>608.0</ele><time>2026-03-22T13:13:23.001Z</time></trkpt><trkpt lat="38.06946236303407" lon="13.19921627667144"><ele>608.0</ele><time>2026-03-22T13:13:24.001Z</time></trkpt><trkpt lat="38.06958534713286" lon="13.199147095374489"><ele>608.0</ele><time>2026-03-22T13:13:25.001Z</time></trkpt><trkpt lat="38.06969700429474" lon="13.199094756668254"><ele>608.0</ele><time>2026-03-22T13:13:26.001Z</time></trkpt><trkpt lat="38.069806634985746" lon="13.199069901258405"><ele>608.0</ele><time>2026-03-22T13:13:27.001Z</time></trkpt><trkpt lat="38.06991406775387" lon="13.19906237546125"><ele>608.0</ele><time>2026-03-22T13:13:28.001Z</time></trkpt><trkpt lat="38.07001769725253" lon="13.199084555422782"><ele>608.0</ele><time>2026-03-22T13:13:29.001Z</time></trkpt><trkpt lat="38.07011921912942" lon="13.199141257326007"><ele>608.0</ele><time>2026-03-22T13:13:30.001Z</time></trkpt><trkpt lat="38.070226734191735" lon="13.199187388612012"><ele>608.0</ele><time>2026-03-22T13:13:31.001Z</time></trkpt><trkpt lat="38.07034551920899" lon="13.199201430752565"><ele>608.5</ele><time>2026-03-22T13:13:32.001Z</time></trkpt><trkpt lat="38.07046536760572" lon="13.199196411765573"><ele>609.0</ele><time>2026-03-22T13:13:33.001Z</time></trkpt><trkpt lat="38.07056245258276" lon="13.199108672705187"><ele>609.5</ele><time>2026-03-22T13:13:34.002Z</time></trkpt><trkpt lat="38.07071594680366" lon="13.199182158140792"><ele>610.0</ele><time>2026-03-22T13:13:35.002Z</time></trkpt><trkpt lat="38.0708355231229" lon="13.199200419015273"><ele>610.0</ele><time>2026-03-22T13:13:36.002Z</time></trkpt><trkpt lat="38.070953277728854" lon="13.19924936853252"><ele>610.0</ele><time>2026-03-22T13:13:37.002Z</time></trkpt><trkpt lat="38.07106939297159" lon="13.199314079553972"><ele>610.0</ele><time>2026-03-22T13:13:38.002Z</time></trkpt><trkpt lat="38.07120399734619" lon="13.199369818513047"><ele>610.0</ele><time>2026-03-22T13:13:39.002Z</time></trkpt><trkpt lat="38.07135612902255" lon="13.199394852590608"><ele>610.0</ele><time>2026-03-22T13:13:40.002Z</time></trkpt><trkpt lat="38.07145881471659" lon="13.199466771058509"><ele>610.0</ele><time>2026-03-22T13:13:41.002Z</time></trkpt><trkpt lat="38.071584482051094" lon="13.199536015174226"><ele>610.0</ele><time>2026-03-22T13:13:42.002Z</time></trkpt><trkpt lat="38.07169913939445" lon="13.19961559269488"><ele>610.0</ele><time>2026-03-22T13:13:43.002Z</time></trkpt><trkpt lat="38.07184149498386" lon="13.199703126784705"><ele>608.25</ele><time>2026-03-22T13:13:44.002Z</time></trkpt><trkpt lat="38.071970509804984" lon="13.199782881511206"><ele>606.5</ele><time>2026-03-22T13:13:45.002Z</time></trkpt><trkpt lat="38.07209338279412" lon="13.199857125390775"><ele>604.75</ele><time>2026-03-22T13:13:46.002Z</time></trkpt><trkpt lat="38.07219870907541" lon="13.199937117384811"><ele>603.0</ele><time>2026-03-22T13:13:47.002Z</time></trkpt><trkpt lat="38.072300894496976" lon="13.200040839870596"><ele>602.75</ele><time>2026-03-22T13:13:48.002Z</time></trkpt><trkpt lat="38.072379735494295" lon="13.200176221184927"><ele>602.5</ele><time>2026-03-22T13:13:49.002Z</time></trkpt><trkpt lat="38.072445474377616" lon="13.20032991452904"><ele>602.25</ele><time>2026-03-22T13:13:50.002Z</time></trkpt><trkpt lat="38.07252096836568" lon="13.20049195958643"><ele>602.0</ele><time>2026-03-22T13:13:51.002Z</time></trkpt><trkpt lat="38.07260291119887" lon="13.200658478786647"><ele>607.0</ele><time>2026-03-22T13:13:52.002Z</time></trkpt><trkpt lat="38.072682632358855" lon="13.200825385957174"><ele>612.0</ele><time>2026-03-22T13:13:53.002Z</time></trkpt><trkpt lat="38.07277070311349" lon="13.200998748288091"><ele>617.0</ele><time>2026-03-22T13:13:54.002Z</time></trkpt><trkpt lat="38.07285049267041" lon="13.201179057288376"><ele>617.0</ele><time>2026-03-22T13:13:55.002Z</time></trkpt><trkpt lat="38.07292925391753" lon="13.201348093661482"><ele>617.0</ele><time>2026-03-22T13:13:56.002Z</time></trkpt><trkpt lat="38.07300674107494" lon="13.201513082017382"><ele>617.0</ele><time>2026-03-22T13:13:57.002Z</time></trkpt><trkpt lat="38.073081995659926" lon="13.201674818554213"><ele>620.0</ele><time>2026-03-22T13:13:58.002Z</time></trkpt><trkpt lat="38.07315173824354" lon="13.201830948913884"><ele>623.0</ele><time>2026-03-22T13:13:59.002Z</time></trkpt><trkpt lat="38.07321916665393" lon="13.201993721680465"><ele>626.0</ele><time>2026-03-22T13:14:00.002Z</time></trkpt><trkpt lat="38.07325908311771" lon="13.202147981569697"><ele>629.0</ele><time>2026-03-22T13:14:01.002Z</time></trkpt><trkpt lat="38.073285523551675" lon="13.202301384976137"><ele>628.75</ele><time>2026-03-22T13:14:02.002Z</time></trkpt><trkpt lat="38.07326607547163" lon="13.202448930974402"><ele>628.5</ele><time>2026-03-22T13:14:03.002Z</time></trkpt><trkpt lat="38.07325907811163" lon="13.202610912413627"><ele>628.25</ele><time>2026-03-22T13:14:04.002Z</time></trkpt><trkpt lat="38.07324692627969" lon="13.202780692552691"><ele>628.0</ele><time>2026-03-22T13:14:05.002Z</time></trkpt><trkpt lat="38.0732536130098" lon="13.202959717577963"><ele>628.0</ele><time>2026-03-22T13:14:06.002Z</time></trkpt><trkpt lat="38.07326446724217" lon="13.203129407914467"><ele>628.0</ele><time>2026-03-22T13:14:07.002Z</time></trkpt><trkpt lat="38.073293624463275" lon="13.203300369429783"><ele>628.0</ele><time>2026-03-22T13:14:08.003Z</time></trkpt><trkpt lat="38.073370736683124" lon="13.203434728668096"><ele>628.0</ele><time>2026-03-22T13:14:09.003Z</time></trkpt><trkpt lat="38.073463355008954" lon="13.203571696699953"><ele>622.25</ele><time>2026-03-22T13:14:10.003Z</time></trkpt><trkpt lat="38.07356376111322" lon="13.203697343459156"><ele>616.5</ele><time>2026-03-22T13:14:11.003Z</time></trkpt><trkpt lat="38.07365702475533" lon="13.203839045758494"><ele>610.75</ele><time>2026-03-22T13:14:12.003Z</time></trkpt><trkpt lat="38.07373560900047" lon="13.203977734661358"><ele>605.0</ele><time>2026-03-22T13:14:13.003Z</time></trkpt><trkpt lat="38.073798270358544" lon="13.204120032108628"><ele>605.0</ele><time>2026-03-22T13:14:14.003Z</time></trkpt><trkpt lat="38.07381839733345" lon="13.204265236545108"><ele>605.0</ele><time>2026-03-22T13:14:15.003Z</time></trkpt><trkpt lat="38.073824131221414" lon="13.20440676796113"><ele>605.0</ele><time>2026-03-22T13:14:16.003Z</time></trkpt><trkpt lat="38.07382484337147" lon="13.204569869909188"><ele>605.0</ele><time>2026-03-22T13:14:17.003Z</time></trkpt><trkpt lat="38.07383689235667" lon="13.204748634263186"><ele>604.3333333333333</ele><time>2026-03-22T13:14:18.003Z</time></trkpt><trkpt lat="38.073833730175515" lon="13.204934504279766"><ele>603.6666666666666</ele><time>2026-03-22T13:14:19.003Z</time></trkpt><trkpt lat="38.07384349832527" lon="13.205127409861166"><ele>603.0</ele><time>2026-03-22T13:14:20.003Z</time></trkpt><trkpt lat="38.073865183732565" lon="13.205319192133356"><ele>603.0</ele><time>2026-03-22T13:14:21.003Z</time></trkpt><trkpt lat="38.073881288969226" lon="13.20551416983379"><ele>603.0</ele><time>2026-03-22T13:14:22.003Z</time></trkpt><trkpt lat="38.07390161163746" lon="13.205714877411319"><ele>603.0</ele><time>2026-03-22T13:14:23.003Z</time></trkpt><trkpt lat="38.0739213548604" lon="13.205922615873764"><ele>603.75</ele><time>2026-03-22T13:14:24.003Z</time></trkpt><trkpt lat="38.0739418579943" lon="13.206109647445555"><ele>604.5</ele><time>2026-03-22T13:14:25.003Z</time></trkpt><trkpt lat="38.07395208409103" lon="13.20627377958888"><ele>605.25</ele><time>2026-03-22T13:14:26.003Z</time></trkpt><trkpt lat="38.073966131241946" lon="13.206431644777233"><ele>606.0</ele><time>2026-03-22T13:14:27.003Z</time></trkpt><trkpt lat="38.07399775109956" lon="13.206562553429745"><ele>608.0</ele><time>2026-03-22T13:14:28.003Z</time></trkpt><trkpt lat="38.07404665106604" lon="13.206677523612244"><ele>610.0</ele><time>2026-03-22T13:14:29.003Z</time></trkpt><trkpt lat="38.07411462740823" lon="13.20678118900825"><ele>612.0</ele><time>2026-03-22T13:14:30.003Z</time></trkpt><trkpt lat="38.07420043072134" lon="13.206877447323391"><ele>614.0</ele><time>2026-03-22T13:14:31.003Z</time></trkpt><trkpt lat="38.07430055039733" lon="13.206968215952807"><ele>616.0</ele><time>2026-03-22T13:14:32.003Z</time></trkpt><trkpt lat="38.07440818147614" lon="13.20705143337664"><ele>611.0</ele><time>2026-03-22T13:14:33.003Z</time></trkpt><trkpt lat="38.07452962266403" lon="13.207122632604772"><ele>606.0</ele><time>2026-03-22T13:14:34.003Z</time></trkpt><trkpt lat="38.07466200891922" lon="13.207171181454244"><ele>601.0</ele><time>2026-03-22T13:14:35.003Z</time></trkpt><trkpt lat="38.07481741071417" lon="13.207216172570243"><ele>596.0</ele><time>2026-03-22T13:14:36.003Z</time></trkpt><trkpt lat="38.07496682059078" lon="13.207255632387897"><ele>594.0</ele><time>2026-03-22T13:14:37.003Z</time></trkpt><trkpt lat="38.07512907567612" lon="13.207314248937832"><ele>592.0</ele><time>2026-03-22T13:14:38Z</time></trkpt><trkpt lat="38.07527484063109" lon="13.207375737624583"><ele>590.0</ele><time>2026-03-22T13:14:39Z</time></trkpt><trkpt lat="38.075370842647544" lon="13.207438435030301"><ele>588.0</ele><time>2026-03-22T13:14:40Z</time></trkpt><trkpt lat="38.075446379310904" lon="13.207515762949532"><ele>591.1666666666666</ele><time>2026-03-22T13:14:41Z</time></trkpt><trkpt lat="38.07550927168578" lon="13.207602659532899"><ele>594.3333333333334</ele><time>2026-03-22T13:14:42Z</time></trkpt><trkpt lat="38.07551426129624" lon="13.207714907114608"><ele>597.5</ele><time>2026-03-22T13:14:43Z</time></trkpt><trkpt lat="38.07551364054497" lon="13.207812125728488"><ele>600.6666666666667</ele><time>2026-03-22T13:14:44Z</time></trkpt><trkpt lat="38.075468685591225" lon="13.20789835666776"><ele>603.8333333333334</ele><time>2026-03-22T13:14:45Z</time></trkpt><trkpt lat="38.07543109277362" lon="13.208020771327572"><ele>607.0</ele><time>2026-03-22T13:14:46Z</time></trkpt><trkpt lat="38.07538722960862" lon="13.208157606994675"><ele>609.0</ele><time>2026-03-22T13:14:47Z</time></trkpt><trkpt lat="38.075354450612565" lon="13.208309226861898"><ele>611.0</ele><time>2026-03-22T13:14:48Z</time></trkpt><trkpt lat="38.075310769598836" lon="13.208450748100965"><ele>613.0</ele><time>2026-03-22T13:14:49Z</time></trkpt><trkpt lat="38.0752706921822" lon="13.208578728429773"><ele>615.0</ele><time>2026-03-22T13:14:50Z</time></trkpt><trkpt lat="38.07532322653641" lon="13.208723996614543"><ele>615.0</ele><time>2026-03-22T13:14:51Z</time></trkpt><trkpt lat="38.07536452482252" lon="13.208862793064712"><ele>615.0</ele><time>2026-03-22T13:14:52Z</time></trkpt><trkpt lat="38.07541796726679" lon="13.20898500555363"><ele>615.0</ele><time>2026-03-22T13:14:53Z</time></trkpt><trkpt lat="38.07549542925069" lon="13.20905467358331"><ele>615.0</ele><time>2026-03-22T13:14:54Z</time></trkpt><trkpt lat="38.075589444301976" lon="13.209097457566106"><ele>615.0</ele><time>2026-03-22T13:14:55Z</time></trkpt><trkpt lat="38.0757072880024" lon="13.20908844347562"><ele>616.5</ele><time>2026-03-22T13:14:56Z</time></trkpt><trkpt lat="38.07582603680541" lon="13.209044868554326"><ele>618.0</ele><time>2026-03-22T13:14:57Z</time></trkpt><trkpt lat="38.07595167301587" lon="13.208971669683013"><ele>619.5</ele><time>2026-03-22T13:14:58Z</time></trkpt><trkpt lat="38.076086961479135" lon="13.208889948380731"><ele>621.0</ele><time>2026-03-22T13:14:59Z</time></trkpt><trkpt lat="38.07624223368764" lon="13.208809777711254"><ele>618.0</ele><time>2026-03-22T13:15:00Z</time></trkpt><trkpt lat="38.076396959831676" lon="13.208739088708176"><ele>615.0</ele><time>2026-03-22T13:15:01Z</time></trkpt><trkpt lat="38.07652587886245" lon="13.20868215730982"><ele>612.0</ele><time>2026-03-22T13:15:02Z</time></trkpt><trkpt lat="38.07663459711867" lon="13.208647061449325"><ele>609.0</ele><time>2026-03-22T13:15:03Z</time></trkpt><trkpt lat="38.07674617323982" lon="13.20863565195441"><ele>609.0</ele><time>2026-03-22T13:15:04Z</time></trkpt><trkpt lat="38.07686791780673" lon="13.208644831277702"><ele>609.0</ele><time>2026-03-22T13:15:05Z</time></trkpt><trkpt lat="38.076987734365325" lon="13.208666390795269"><ele>609.0</ele><time>2026-03-22T13:15:06Z</time></trkpt><trkpt lat="38.07710259327656" lon="13.208703584017664"><ele>609.0</ele><time>2026-03-22T13:15:07.001Z</time></trkpt><trkpt lat="38.07721930492403" lon="13.208770440889628"><ele>609.0</ele><time>2026-03-22T13:15:08.001Z</time></trkpt><trkpt lat="38.07732421529097" lon="13.208857651745877"><ele>609.0</ele><time>2026-03-22T13:15:09.001Z</time></trkpt><trkpt lat="38.07743176756811" lon="13.208955406181603"><ele>609.0</ele><time>2026-03-22T13:15:10.001Z</time></trkpt><trkpt lat="38.077531067413375" lon="13.209056100311358"><ele>609.0</ele><time>2026-03-22T13:15:11.001Z</time></trkpt><trkpt lat="38.07763527165755" lon="13.209187771281846"><ele>611.5</ele><time>2026-03-22T13:15:12.001Z</time></trkpt><trkpt lat="38.077743669889365" lon="13.20927717586603"><ele>614.0</ele><time>2026-03-22T13:15:13.001Z</time></trkpt><trkpt lat="38.07785020231327" lon="13.209392448581477"><ele>616.5</ele><time>2026-03-22T13:15:14.001Z</time></trkpt><trkpt lat="38.07793843684201" lon="13.209521922917657"><ele>619.0</ele><time>2026-03-22T13:15:15.001Z</time></trkpt><trkpt lat="38.07802535801494" lon="13.209668393275413"><ele>619.0</ele><time>2026-03-22T13:15:16.001Z</time></trkpt><trkpt lat="38.07810596583735" lon="13.209819671626144"><ele>619.0</ele><time>2026-03-22T13:15:17.001Z</time></trkpt><trkpt lat="38.07818842355031" lon="13.209958431167523"><ele>619.0</ele><time>2026-03-22T13:15:18.001Z</time></trkpt><trkpt lat="38.07826607567713" lon="13.210084347587841"><ele>619.0</ele><time>2026-03-22T13:15:19.001Z</time></trkpt><trkpt lat="38.07835974881804" lon="13.210184050702154"><ele>618.75</ele><time>2026-03-22T13:15:20.001Z</time></trkpt><trkpt lat="38.07847068715737" lon="13.210267226869608"><ele>618.5</ele><time>2026-03-22T13:15:21.001Z</time></trkpt><trkpt lat="38.07858612810883" lon="13.21033326029385"><ele>618.25</ele><time>2026-03-22T13:15:22.001Z</time></trkpt><trkpt lat="38.078709643133045" lon="13.210386202300965"><ele>618.0</ele><time>2026-03-22T13:15:23.001Z</time></trkpt><trkpt lat="38.078832947553835" lon="13.210441007616701"><ele>618.0</ele><time>2026-03-22T13:15:24.001Z</time></trkpt><trkpt lat="38.078960789723716" lon="13.210477636435877"><ele>618.0</ele><time>2026-03-22T13:15:25.001Z</time></trkpt><trkpt lat="38.079088328043184" lon="13.210484096717607"><ele>618.0</ele><time>2026-03-22T13:15:26.001Z</time></trkpt><trkpt lat="38.07921878660258" lon="13.210473673332679"><ele>618.0</ele><time>2026-03-22T13:15:27.001Z</time></trkpt><trkpt lat="38.079344157870715" lon="13.210450387746414"><ele>616.25</ele><time>2026-03-22T13:15:28.001Z</time></trkpt><trkpt lat="38.07946371746276" lon="13.210400387533106"><ele>614.5</ele><time>2026-03-22T13:15:29.001Z</time></trkpt><trkpt lat="38.07958290378423" lon="13.210313157675834"><ele>612.75</ele><time>2026-03-22T13:15:30.001Z</time></trkpt><trkpt lat="38.079665232373976" lon="13.210189659907552"><ele>611.0</ele><time>2026-03-22T13:15:31.001Z</time></trkpt><trkpt lat="38.07975882682692" lon="13.210069748347486"><ele>611.0</ele><time>2026-03-22T13:15:32.001Z</time></trkpt><trkpt lat="38.079857365976984" lon="13.209953529625365"><ele>611.0</ele><time>2026-03-22T13:15:33.001Z</time></trkpt><trkpt lat="38.079972250289224" lon="13.20984012841672"><ele>611.0</ele><time>2026-03-22T13:15:34.001Z</time></trkpt><trkpt lat="38.08009040687358" lon="13.209750158002626"><ele>611.0</ele><time>2026-03-22T13:15:35.001Z</time></trkpt><trkpt lat="38.0802098536632" lon="13.209680017938512"><ele>609.5</ele><time>2026-03-22T13:15:36.001Z</time></trkpt><trkpt lat="38.08032005270208" lon="13.209638174660014"><ele>608.0</ele><time>2026-03-22T13:15:37.001Z</time></trkpt><trkpt lat="38.0804319407836" lon="13.209612823110454"><ele>606.5</ele><time>2026-03-22T13:15:38.001Z</time></trkpt><trkpt lat="38.080555761015134" lon="13.209612137241265"><ele>605.0</ele><time>2026-03-22T13:15:39.001Z</time></trkpt><trkpt lat="38.080684049477625" lon="13.209628071369591"><ele>606.75</ele><time>2026-03-22T13:15:40.002Z</time></trkpt><trkpt lat="38.08080984304039" lon="13.20966231734972"><ele>608.5</ele><time>2026-03-22T13:15:41.002Z</time></trkpt><trkpt lat="38.08093131419188" lon="13.209727573633801"><ele>610.25</ele><time>2026-03-22T13:15:42.002Z</time></trkpt><trkpt lat="38.081048587385354" lon="13.209794328217832"><ele>612.0</ele><time>2026-03-22T13:15:43.002Z</time></trkpt><trkpt lat="38.081175942861535" lon="13.209832284118676"><ele>612.0</ele><time>2026-03-22T13:15:44.002Z</time></trkpt><trkpt lat="38.08129960865504" lon="13.20981184842405"><ele>612.0</ele><time>2026-03-22T13:15:45.002Z</time></trkpt><trkpt lat="38.08143053272599" lon="13.209766969209802"><ele>612.0</ele><time>2026-03-22T13:15:46.002Z</time></trkpt><trkpt lat="38.08156024145068" lon="13.20971035557892"><ele>612.0</ele><time>2026-03-22T13:15:47.002Z</time></trkpt><trkpt lat="38.08167329109448" lon="13.209648963491682"><ele>613.6</ele><time>2026-03-22T13:15:48.002Z</time></trkpt><trkpt lat="38.08175644022002" lon="13.209573658798995"><ele>615.2</ele><time>2026-03-22T13:15:49.002Z</time></trkpt><trkpt lat="38.08181231203973" lon="13.209468229662424"><ele>616.8</ele><time>2026-03-22T13:15:50.002Z</time></trkpt><trkpt lat="38.08183289833012" lon="13.209321121753291"><ele>618.4</ele><time>2026-03-22T13:15:51.002Z</time></trkpt><trkpt lat="38.08180819442425" lon="13.209168147996861"><ele>620.0</ele><time>2026-03-22T13:15:52.002Z</time></trkpt><trkpt lat="38.08177687703946" lon="13.209004602723754"><ele>620.75</ele><time>2026-03-22T13:15:53.002Z</time></trkpt><trkpt lat="38.08173422532403" lon="13.208830361750687"><ele>621.5</ele><time>2026-03-22T13:15:54.002Z</time></trkpt><trkpt lat="38.0816972687334" lon="13.208659918063477"><ele>622.25</ele><time>2026-03-22T13:15:55.002Z</time></trkpt><trkpt lat="38.08165619723684" lon="13.208483430814852"><ele>623.0</ele><time>2026-03-22T13:15:56.002Z</time></trkpt><trkpt lat="38.08162208458486" lon="13.208311813431532"><ele>624.25</ele><time>2026-03-22T13:15:57.002Z</time></trkpt><trkpt lat="38.081612179533465" lon="13.208139308497254"><ele>625.5</ele><time>2026-03-22T13:15:58.002Z</time></trkpt><trkpt lat="38.08157070466921" lon="13.207968747084134"><ele>626.75</ele><time>2026-03-22T13:15:59.002Z</time></trkpt><trkpt lat="38.08153165581717" lon="13.207797772635146"><ele>628.0</ele><time>2026-03-22T13:16:00.002Z</time></trkpt><trkpt lat="38.08150393433786" lon="13.207632229835793"><ele>626.0</ele><time>2026-03-22T13:16:01.002Z</time></trkpt><trkpt lat="38.08147111923147" lon="13.207472300135652"><ele>624.0</ele><time>2026-03-22T13:16:02.002Z</time></trkpt><trkpt lat="38.08144064240217" lon="13.20730840683497"><ele>622.0</ele><time>2026-03-22T13:16:03.002Z</time></trkpt><trkpt lat="38.08140869705143" lon="13.20714544150176"><ele>620.0</ele><time>2026-03-22T13:16:04.002Z</time></trkpt><trkpt lat="38.08137753661575" lon="13.20698174249004"><ele>620.0</ele><time>2026-03-22T13:16:05.002Z</time></trkpt><trkpt lat="38.08133804307744" lon="13.20681838066666"><ele>620.0</ele><time>2026-03-22T13:16:06.002Z</time></trkpt><trkpt lat="38.08130508742887" lon="13.206654261600281"><ele>620.0</ele><time>2026-03-22T13:16:07.002Z</time></trkpt><trkpt lat="38.08127119455333" lon="13.206484679710057"><ele>620.0</ele><time>2026-03-22T13:16:08.002Z</time></trkpt><trkpt lat="38.08124572125359" lon="13.206319913326"><ele>620.75</ele><time>2026-03-22T13:16:09.002Z</time></trkpt><trkpt lat="38.081242484693135" lon="13.206151557974263"><ele>621.5</ele><time>2026-03-22T13:16:10.002Z</time></trkpt><trkpt lat="38.08124046065346" lon="13.205994208492518"><ele>622.25</ele><time>2026-03-22T13:16:11.002Z</time></trkpt><trkpt lat="38.08123415176239" lon="13.205803840510049"><ele>623.0</ele><time>2026-03-22T13:16:12.002Z</time></trkpt><trkpt lat="38.0812277937422" lon="13.205617328212982"><ele>623.0</ele><time>2026-03-22T13:16:13.003Z</time></trkpt><trkpt lat="38.08121741086324" lon="13.205423364892427"><ele>623.0</ele><time>2026-03-22T13:16:14.003Z</time></trkpt><trkpt lat="38.08121046058383" lon="13.205242786788265"><ele>623.0</ele><time>2026-03-22T13:16:15.003Z</time></trkpt><trkpt lat="38.08121010024184" lon="13.205084548521732"><ele>623.0</ele><time>2026-03-22T13:16:16.003Z</time></trkpt><trkpt lat="38.081237140292274" lon="13.204934659814871"><ele>622.25</ele><time>2026-03-22T13:16:17.003Z</time></trkpt><trkpt lat="38.081285508391126" lon="13.204799142821376"><ele>621.5</ele><time>2026-03-22T13:16:18.003Z</time></trkpt><trkpt lat="38.0813525061559" lon="13.204663074608062"><ele>620.75</ele><time>2026-03-22T13:16:19.003Z</time></trkpt><trkpt lat="38.08143056792762" lon="13.204536177334763"><ele>620.0</ele><time>2026-03-22T13:16:20.003Z</time></trkpt><trkpt lat="38.081503343355195" lon="13.204394759240222"><ele>620.0</ele><time>2026-03-22T13:16:21.003Z</time></trkpt><trkpt lat="38.08152248809364" lon="13.2042279569479"><ele>620.0</ele><time>2026-03-22T13:16:22.003Z</time></trkpt><trkpt lat="38.08155696220851" lon="13.204064001673833"><ele>620.0</ele><time>2026-03-22T13:16:23.003Z</time></trkpt><trkpt lat="38.08156308877188" lon="13.203870821588291"><ele>620.0</ele><time>2026-03-22T13:16:24.003Z</time></trkpt><trkpt lat="38.08156782445753" lon="13.20367096429813"><ele>620.5</ele><time>2026-03-22T13:16:25.003Z</time></trkpt><trkpt lat="38.081583666790955" lon="13.203492602319438"><ele>621.0</ele><time>2026-03-22T13:16:26.003Z</time></trkpt><trkpt lat="38.081594898521544" lon="13.203298744099865"><ele>621.5</ele><time>2026-03-22T13:16:27.003Z</time></trkpt><trkpt lat="38.0816025992229" lon="13.203113912998633"><ele>622.0</ele><time>2026-03-22T13:16:28.003Z</time></trkpt><trkpt lat="38.081618532081116" lon="13.202925014575106"><ele>624.5</ele><time>2026-03-22T13:16:29.003Z</time></trkpt><trkpt lat="38.081634197544716" lon="13.202728275420723"><ele>627.0</ele><time>2026-03-22T13:16:30.003Z</time></trkpt><trkpt lat="38.08163316316952" lon="13.202560978553358"><ele>629.5</ele><time>2026-03-22T13:16:31.003Z</time></trkpt><trkpt lat="38.08164773398496" lon="13.20236312512191"><ele>632.0</ele><time>2026-03-22T13:16:32.003Z</time></trkpt><trkpt lat="38.08166452014316" lon="13.202171345977696"><ele>632.75</ele><time>2026-03-22T13:16:33.003Z</time></trkpt><trkpt lat="38.081674334032236" lon="13.201982002244396"><ele>633.5</ele><time>2026-03-22T13:16:34.003Z</time></trkpt><trkpt lat="38.081681790725746" lon="13.20179799530718"><ele>634.25</ele><time>2026-03-22T13:16:35.003Z</time></trkpt><trkpt lat="38.08168929239151" lon="13.201607278704603"><ele>635.0</ele><time>2026-03-22T13:16:36.003Z</time></trkpt><trkpt lat="38.08169437367461" lon="13.201420775588643"><ele>635.0</ele><time>2026-03-22T13:16:37.003Z</time></trkpt><trkpt lat="38.08169820213272" lon="13.20123695585091"><ele>635.0</ele><time>2026-03-22T13:16:38.003Z</time></trkpt><trkpt lat="38.08171424847818" lon="13.201080840072839"><ele>635.0</ele><time>2026-03-22T13:16:39.003Z</time></trkpt><trkpt lat="38.081741988868565" lon="13.200938973344988"><ele>635.0</ele><time>2026-03-22T13:16:40.003Z</time></trkpt><trkpt lat="38.081798789966" lon="13.200811227209673"><ele>634.0</ele><time>2026-03-22T13:16:41.003Z</time></trkpt><trkpt lat="38.08185854653683" lon="13.200644312836896"><ele>633.0</ele><time>2026-03-22T13:16:42.003Z</time></trkpt><trkpt lat="38.0819316215637" lon="13.200488823973389"><ele>632.0</ele><time>2026-03-22T13:16:43.003Z</time></trkpt><trkpt lat="38.08200273880156" lon="13.200324637905403"><ele>631.0</ele><time>2026-03-22T13:16:44Z</time></trkpt><trkpt lat="38.08207224430009" lon="13.20014329102311"><ele>631.0</ele><time>2026-03-22T13:16:45Z</time></trkpt><trkpt lat="38.08214215074596" lon="13.199968086454776"><ele>631.0</ele><time>2026-03-22T13:16:46Z</time></trkpt><trkpt lat="38.08221435005204" lon="13.199790811650129"><ele>631.0</ele><time>2026-03-22T13:16:47Z</time></trkpt><trkpt lat="38.08229788701945" lon="13.199612949126218"><ele>632.25</ele><time>2026-03-22T13:16:48Z</time></trkpt><trkpt lat="38.08236348137857" lon="13.199460939021108"><ele>633.5</ele><time>2026-03-22T13:16:49Z</time></trkpt><trkpt lat="38.082443412990216" lon="13.199321432241737"><ele>634.75</ele><time>2026-03-22T13:16:50Z</time></trkpt><trkpt lat="38.082535405586" lon="13.199193086838962"><ele>636.0</ele><time>2026-03-22T13:16:51Z</time></trkpt><trkpt lat="38.08264560728896" lon="13.19908844232861"><ele>635.25</ele><time>2026-03-22T13:16:52Z</time></trkpt><trkpt lat="38.08275444988504" lon="13.198970607535884"><ele>634.5</ele><time>2026-03-22T13:16:53Z</time></trkpt><trkpt lat="38.0828586612007" lon="13.198848289250785"><ele>633.75</ele><time>2026-03-22T13:16:54Z</time></trkpt><trkpt lat="38.08296898302524" lon="13.198714766099746"><ele>633.0</ele><time>2026-03-22T13:16:55Z</time></trkpt><trkpt lat="38.08306022224885" lon="13.198580880452031"><ele>633.0</ele><time>2026-03-22T13:16:56Z</time></trkpt><trkpt lat="38.08317525198497" lon="13.198464807077894"><ele>633.0</ele><time>2026-03-22T13:16:57Z</time></trkpt><trkpt lat="38.08327511142983" lon="13.19832778960135"><ele>633.0</ele><time>2026-03-22T13:16:58Z</time></trkpt><trkpt lat="38.0833610580652" lon="13.198220105256572"><ele>633.0</ele><time>2026-03-22T13:16:59Z</time></trkpt><trkpt lat="38.08340544052672" lon="13.198127082817528"><ele>632.4</ele><time>2026-03-22T13:17:00Z</time></trkpt><trkpt lat="38.08343951335547" lon="13.197999132572567"><ele>631.8</ele><time>2026-03-22T13:17:01Z</time></trkpt><trkpt lat="38.08344362211335" lon="13.197867073041074"><ele>631.2</ele><time>2026-03-22T13:17:02Z</time></trkpt><trkpt lat="38.08341275503202" lon="13.197727409646173"><ele>630.6</ele><time>2026-03-22T13:17:03Z</time></trkpt><trkpt lat="38.08335582522097" lon="13.197604751461908"><ele>630.0</ele><time>2026-03-22T13:17:04Z</time></trkpt><trkpt lat="38.08325018673167" lon="13.19752479036369"><ele>630.0</ele><time>2026-03-22T13:17:05Z</time></trkpt><trkpt lat="38.08315237183922" lon="13.197450728561588"><ele>630.0</ele><time>2026-03-22T13:17:06Z</time></trkpt><trkpt lat="38.08305882257009" lon="13.19734790815653"><ele>630.0</ele><time>2026-03-22T13:17:07Z</time></trkpt><trkpt lat="38.08294942773433" lon="13.19725668323855"><ele>630.0</ele><time>2026-03-22T13:17:08Z</time></trkpt><trkpt lat="38.08282818154531" lon="13.197154582059502"><ele>631.0</ele><time>2026-03-22T13:17:09Z</time></trkpt><trkpt lat="38.08270174099143" lon="13.19704905799331"><ele>632.0</ele><time>2026-03-22T13:17:10Z</time></trkpt><trkpt lat="38.08257065958397" lon="13.196944352703271"><ele>633.0</ele><time>2026-03-22T13:17:11Z</time></trkpt><trkpt lat="38.08243501128803" lon="13.196831889267443"><ele>629.6666666666666</ele><time>2026-03-22T13:17:12Z</time></trkpt><trkpt lat="38.08230916688437" lon="13.196723315852326"><ele>626.3333333333333</ele><time>2026-03-22T13:17:13Z</time></trkpt><trkpt lat="38.08218831188117" lon="13.196620035075613"><ele>623.0</ele><time>2026-03-22T13:17:14Z</time></trkpt><trkpt lat="38.08205651225021" lon="13.196510359875173"><ele>625.75</ele><time>2026-03-22T13:17:15Z</time></trkpt><trkpt lat="38.08192770035935" lon="13.196403170876158"><ele>628.5</ele><time>2026-03-22T13:17:16Z</time></trkpt><trkpt lat="38.081807155553996" lon="13.19629605374298"><ele>631.25</ele><time>2026-03-22T13:17:17Z</time></trkpt><trkpt lat="38.081699892211454" lon="13.196182439319555"><ele>634.0</ele><time>2026-03-22T13:17:18Z</time></trkpt><trkpt lat="38.08160461050576" lon="13.196055333740578"><ele>630.75</ele><time>2026-03-22T13:17:19.001Z</time></trkpt><trkpt lat="38.08150490509346" lon="13.195927061389101"><ele>627.5</ele><time>2026-03-22T13:17:20.001Z</time></trkpt><trkpt lat="38.08141038821828" lon="13.195774703875836"><ele>624.25</ele><time>2026-03-22T13:17:21.001Z</time></trkpt><trkpt lat="38.08132189479581" lon="13.195622446785325"><ele>621.0</ele><time>2026-03-22T13:17:22.001Z</time></trkpt><trkpt lat="38.08123693611626" lon="13.1954689038356"><ele>621.0</ele><time>2026-03-22T13:17:23.001Z</time></trkpt><trkpt lat="38.08115895965701" lon="13.19531173649561"><ele>621.0</ele><time>2026-03-22T13:17:24.001Z</time></trkpt><trkpt lat="38.081088241129564" lon="13.195172012622816"><ele>621.0</ele><time>2026-03-22T13:17:25.001Z</time></trkpt><trkpt lat="38.081009949837004" lon="13.195050260338965"><ele>621.0</ele><time>2026-03-22T13:17:26.001Z</time></trkpt><trkpt lat="38.08091507669709" lon="13.194952865615859"><ele>621.0</ele><time>2026-03-22T13:17:27.001Z</time></trkpt><trkpt lat="38.08080631800889" lon="13.194887452519762"><ele>621.0</ele><time>2026-03-22T13:17:28.001Z</time></trkpt><trkpt lat="38.08067984120965" lon="13.194862563126676"><ele>621.0</ele><time>2026-03-22T13:17:29.001Z</time></trkpt><trkpt lat="38.080539563583805" lon="13.194843367442262"><ele>621.0</ele><time>2026-03-22T13:17:30.001Z</time></trkpt><trkpt lat="38.08038284843055" lon="13.194826345508137"><ele>625.0</ele><time>2026-03-22T13:17:31.001Z</time></trkpt><trkpt lat="38.08023571974659" lon="13.194808350535794"><ele>629.0</ele><time>2026-03-22T13:17:32.001Z</time></trkpt><trkpt lat="38.080086264610145" lon="13.19478208215949"><ele>633.0</ele><time>2026-03-22T13:17:33.001Z</time></trkpt><trkpt lat="38.079940443868054" lon="13.194733067071539"><ele>628.0</ele><time>2026-03-22T13:17:34.001Z</time></trkpt><trkpt lat="38.07979197231122" lon="13.194701714943204"><ele>623.0</ele><time>2026-03-22T13:17:35.001Z</time></trkpt><trkpt lat="38.07964290411722" lon="13.194644631445561"><ele>618.0</ele><time>2026-03-22T13:17:36.001Z</time></trkpt><trkpt lat="38.079493521406164" lon="13.194564190255967"><ele>618.0</ele><time>2026-03-22T13:17:37.001Z</time></trkpt><trkpt lat="38.07933550253535" lon="13.194519426438081"><ele>618.0</ele><time>2026-03-22T13:17:38.001Z</time></trkpt><trkpt lat="38.079198282373575" lon="13.194460451499138"><ele>618.0</ele><time>2026-03-22T13:17:39.001Z</time></trkpt><trkpt lat="38.079082521739174" lon="13.194397318262142"><ele>618.0</ele><time>2026-03-22T13:17:40.001Z</time></trkpt><trkpt lat="38.078977302700956" lon="13.194310007213927"><ele>611.5</ele><time>2026-03-22T13:17:41.001Z</time></trkpt><trkpt lat="38.07888051397495" lon="13.194196876000742"><ele>605.0</ele><time>2026-03-22T13:17:42.001Z</time></trkpt><trkpt lat="38.07878597024741" lon="13.194066885132765"><ele>598.5</ele><time>2026-03-22T13:17:43.001Z</time></trkpt><trkpt lat="38.07870161966961" lon="13.193920956949865"><ele>592.0</ele><time>2026-03-22T13:17:44.001Z</time></trkpt><trkpt lat="38.07862541848781" lon="13.193767915807333"><ele>592.0</ele><time>2026-03-22T13:17:45.001Z</time></trkpt><trkpt lat="38.078575965936935" lon="13.193606406661132"><ele>592.0</ele><time>2026-03-22T13:17:46.001Z</time></trkpt><trkpt lat="38.0785283194366" lon="13.193434827401054"><ele>592.0</ele><time>2026-03-22T13:17:47.001Z</time></trkpt><trkpt lat="38.07848192597996" lon="13.193256098321214"><ele>592.0</ele><time>2026-03-22T13:17:48.001Z</time></trkpt><trkpt lat="38.07844612408857" lon="13.193057731008162"><ele>592.3333333333334</ele><time>2026-03-22T13:17:49.001Z</time></trkpt><trkpt lat="38.078427271869046" lon="13.192897273243288"><ele>592.6666666666666</ele><time>2026-03-22T13:17:50.001Z</time></trkpt><trkpt lat="38.07841664601456" lon="13.192709929515704"><ele>593.0</ele><time>2026-03-22T13:17:51.002Z</time></trkpt><trkpt lat="38.07836632712722" lon="13.192487792908796"><ele>593.0</ele><time>2026-03-22T13:17:52.002Z</time></trkpt><trkpt lat="38.07834449819823" lon="13.192283041449558"><ele>593.0</ele><time>2026-03-22T13:17:53.002Z</time></trkpt><trkpt lat="38.078325678042575" lon="13.192074230331775"><ele>593.0</ele><time>2026-03-22T13:17:54.002Z</time></trkpt><trkpt lat="38.078325071240016" lon="13.191886177867206"><ele>593.0</ele><time>2026-03-22T13:17:55.002Z</time></trkpt><trkpt lat="38.07833678457066" lon="13.191697803439826"><ele>593.0</ele><time>2026-03-22T13:17:56.002Z</time></trkpt><trkpt lat="38.078361826675426" lon="13.191507131467908"><ele>593.0</ele><time>2026-03-22T13:17:57.002Z</time></trkpt><trkpt lat="38.078399695094596" lon="13.191338263874337"><ele>593.0</ele><time>2026-03-22T13:17:58.002Z</time></trkpt><trkpt lat="38.07844905859157" lon="13.191178187221444"><ele>590.25</ele><time>2026-03-22T13:17:59.002Z</time></trkpt><trkpt lat="38.07851105327805" lon="13.191049928511218"><ele>587.5</ele><time>2026-03-22T13:18:00.002Z</time></trkpt><trkpt lat="38.07857012625079" lon="13.190940422458443"><ele>584.75</ele><time>2026-03-22T13:18:01.002Z</time></trkpt><trkpt lat="38.07865993532101" lon="13.19085240824199"><ele>582.0</ele><time>2026-03-22T13:18:02.002Z</time></trkpt><trkpt lat="38.078774465326156" lon="13.190773912812348"><ele>582.0</ele><time>2026-03-22T13:18:03.002Z</time></trkpt><trkpt lat="38.07889635923668" lon="13.190721585257835"><ele>582.0</ele><time>2026-03-22T13:18:04.002Z</time></trkpt><trkpt lat="38.07904134348681" lon="13.190694677577657"><ele>582.0</ele><time>2026-03-22T13:18:05.002Z</time></trkpt><trkpt lat="38.079188219409765" lon="13.190669834444456"><ele>582.0</ele><time>2026-03-22T13:18:06.002Z</time></trkpt><trkpt lat="38.079331331681985" lon="13.190647366119693"><ele>578.5</ele><time>2026-03-22T13:18:07.002Z</time></trkpt><trkpt lat="38.07945439623993" lon="13.190599393144506"><ele>575.0</ele><time>2026-03-22T13:18:08.002Z</time></trkpt><trkpt lat="38.0795566341193" lon="13.190509846938266"><ele>571.5</ele><time>2026-03-22T13:18:09.002Z</time></trkpt><trkpt lat="38.07965322274862" lon="13.190377628550532"><ele>568.0</ele><time>2026-03-22T13:18:10.002Z</time></trkpt><trkpt lat="38.079737167570876" lon="13.19022724645492"><ele>568.0</ele><time>2026-03-22T13:18:11.002Z</time></trkpt><trkpt lat="38.079832405392516" lon="13.190037802266954"><ele>568.0</ele><time>2026-03-22T13:18:12.002Z</time></trkpt><trkpt lat="38.07989208743835" lon="13.189884045002488"><ele>568.0</ele><time>2026-03-22T13:18:13.002Z</time></trkpt><trkpt lat="38.07996117462224" lon="13.189706358586843"><ele>567.0</ele><time>2026-03-22T13:18:14.002Z</time></trkpt><trkpt lat="38.080034618728035" lon="13.1895449749634"><ele>566.0</ele><time>2026-03-22T13:18:15.002Z</time></trkpt><trkpt lat="38.080123416641776" lon="13.18939169278053"><ele>565.0</ele><time>2026-03-22T13:18:16.002Z</time></trkpt><trkpt lat="38.0801947179114" lon="13.189213526974621"><ele>565.0</ele><time>2026-03-22T13:18:17.002Z</time></trkpt><trkpt lat="38.08028997196163" lon="13.189054483400433"><ele>565.0</ele><time>2026-03-22T13:18:18.002Z</time></trkpt><trkpt lat="38.08037182208563" lon="13.188898039958735"><ele>565.0</ele><time>2026-03-22T13:18:19.002Z</time></trkpt><trkpt lat="38.08045751434046" lon="13.188730650962885"><ele>562.3333333333334</ele><time>2026-03-22T13:18:20.002Z</time></trkpt><trkpt lat="38.08054641579605" lon="13.188569815799992"><ele>559.6666666666666</ele><time>2026-03-22T13:18:21.002Z</time></trkpt><trkpt lat="38.080627533647586" lon="13.188404978259847"><ele>557.0</ele><time>2026-03-22T13:18:22.002Z</time></trkpt><trkpt lat="38.0807169067839" lon="13.188245474071932"><ele>556.6666666666666</ele><time>2026-03-22T13:18:23.002Z</time></trkpt><trkpt lat="38.080805848261" lon="13.188094733045586"><ele>556.3333333333334</ele><time>2026-03-22T13:18:24.003Z</time></trkpt><trkpt lat="38.08089773225137" lon="13.187928093087251"><ele>556.0</ele><time>2026-03-22T13:18:25.003Z</time></trkpt><trkpt lat="38.080981333330946" lon="13.187766793797076"><ele>556.0</ele><time>2026-03-22T13:18:26.003Z</time></trkpt><trkpt lat="38.08105611396098" lon="13.18760086628476"><ele>556.0</ele><time>2026-03-22T13:18:27.003Z</time></trkpt><trkpt lat="38.081113736289545" lon="13.18742813970326"><ele>556.0</ele><time>2026-03-22T13:18:28.003Z</time></trkpt><trkpt lat="38.08118571169793" lon="13.187270538279545"><ele>556.0</ele><time>2026-03-22T13:18:29.003Z</time></trkpt><trkpt lat="38.08125852478949" lon="13.18712591307606"><ele>552.6666666666667</ele><time>2026-03-22T13:18:30.003Z</time></trkpt><trkpt lat="38.081345977104235" lon="13.186933632718825"><ele>549.3333333333334</ele><time>2026-03-22T13:18:31.003Z</time></trkpt><trkpt lat="38.08143663056568" lon="13.186771320017044"><ele>546.0</ele><time>2026-03-22T13:18:32.003Z</time></trkpt><trkpt lat="38.08153519146581" lon="13.186621779501454"><ele>547.6666666666666</ele><time>2026-03-22T13:18:33.003Z</time></trkpt><trkpt lat="38.08163898513313" lon="13.186480454539764"><ele>549.3333333333333</ele><time>2026-03-22T13:18:34.003Z</time></trkpt><trkpt lat="38.081749890022856" lon="13.186340481101212"><ele>551.0</ele><time>2026-03-22T13:18:35.003Z</time></trkpt><trkpt lat="38.08185527105093" lon="13.186209156803786"><ele>551.0</ele><time>2026-03-22T13:18:36.003Z</time></trkpt><trkpt lat="38.081951358137765" lon="13.186083679366297"><ele>551.0</ele><time>2026-03-22T13:18:37.003Z</time></trkpt><trkpt lat="38.08203975413109" lon="13.185965483327479"><ele>551.0</ele><time>2026-03-22T13:18:38.003Z</time></trkpt><trkpt lat="38.082120085767166" lon="13.185869066341267"><ele>551.0</ele><time>2026-03-22T13:18:39.003Z</time></trkpt><trkpt lat="38.08219546479374" lon="13.185782849150465"><ele>551.0</ele><time>2026-03-22T13:18:40.003Z</time></trkpt><trkpt lat="38.08227900530618" lon="13.185706155059517"><ele>551.0</ele><time>2026-03-22T13:18:41.003Z</time></trkpt><trkpt lat="38.08237933529356" lon="13.185649768157873"><ele>551.0</ele><time>2026-03-22T13:18:42.003Z</time></trkpt><trkpt lat="38.08249017012252" lon="13.185605978705581"><ele>551.0</ele><time>2026-03-22T13:18:43.003Z</time></trkpt><trkpt lat="38.08261905625243" lon="13.18559642132103"><ele>549.0</ele><time>2026-03-22T13:18:44.003Z</time></trkpt><trkpt lat="38.08274632151214" lon="13.185592781898842"><ele>547.0</ele><time>2026-03-22T13:18:45.003Z</time></trkpt><trkpt lat="38.082882476572806" lon="13.185601000725688"><ele>545.0</ele><time>2026-03-22T13:18:46.003Z</time></trkpt><trkpt lat="38.083026948994004" lon="13.185618551728982"><ele>543.0</ele><time>2026-03-22T13:18:47.003Z</time></trkpt><trkpt lat="38.083170925994416" lon="13.185641621590296"><ele>541.0</ele><time>2026-03-22T13:18:48.003Z</time></trkpt><trkpt lat="38.0833214006887" lon="13.185661469656663"><ele>539.0</ele><time>2026-03-22T13:18:49.003Z</time></trkpt><trkpt lat="38.08348173770397" lon="13.185674010354006"><ele>537.0</ele><time>2026-03-22T13:18:50Z</time></trkpt><trkpt lat="38.083637577125785" lon="13.185683972273122"><ele>540.75</ele><time>2026-03-22T13:18:51Z</time></trkpt><trkpt lat="38.0837769550724" lon="13.18569853942342"><ele>544.5</ele><time>2026-03-22T13:18:52Z</time></trkpt><trkpt lat="38.08392120025005" lon="13.185715740779461"><ele>548.25</ele><time>2026-03-22T13:18:53Z</time></trkpt><trkpt lat="38.08405213208294" lon="13.18573387613139"><ele>552.0</ele><time>2026-03-22T13:18:54Z</time></trkpt><trkpt lat="38.08417112983257" lon="13.185740405785086"><ele>552.0</ele><time>2026-03-22T13:18:55Z</time></trkpt><trkpt lat="38.0842569539144" lon="13.185787130965595"><ele>552.0</ele><time>2026-03-22T13:18:56Z</time></trkpt><trkpt lat="38.08435029007962" lon="13.185858267050966"><ele>552.0</ele><time>2026-03-22T13:18:57Z</time></trkpt><trkpt lat="38.08442835185272" lon="13.185978839515819"><ele>552.0</ele><time>2026-03-22T13:18:58Z</time></trkpt><trkpt lat="38.08450071128012" lon="13.186110547800109"><ele>552.0</ele><time>2026-03-22T13:18:59Z</time></trkpt><trkpt lat="38.084580497484374" lon="13.18625394189835"><ele>552.0</ele><time>2026-03-22T13:19:00Z</time></trkpt><trkpt lat="38.084669537564636" lon="13.186400111573802"><ele>552.0</ele><time>2026-03-22T13:19:01Z</time></trkpt><trkpt lat="38.08476682006284" lon="13.186551709952388"><ele>552.0</ele><time>2026-03-22T13:19:02Z</time></trkpt><trkpt lat="38.08487020591259" lon="13.186712691068537"><ele>550.3333333333334</ele><time>2026-03-22T13:19:03Z</time></trkpt><trkpt lat="38.084968534876815" lon="13.186861269599719"><ele>548.6666666666667</ele><time>2026-03-22T13:19:04Z</time></trkpt><trkpt lat="38.08507064093855" lon="13.187017627779404"><ele>547.0</ele><time>2026-03-22T13:19:05Z</time></trkpt><trkpt lat="38.085170931715545" lon="13.187167814575496"><ele>547.0</ele><time>2026-03-22T13:19:06Z</time></trkpt><trkpt lat="38.08526737485831" lon="13.18730918978708"><ele>547.0</ele><time>2026-03-22T13:19:07Z</time></trkpt><trkpt lat="38.0853595823384" lon="13.187457541801669"><ele>547.0</ele><time>2026-03-22T13:19:08Z</time></trkpt><trkpt lat="38.08543485067219" lon="13.187605539789844"><ele>547.0</ele><time>2026-03-22T13:19:09Z</time></trkpt><trkpt lat="38.08549240518953" lon="13.187766562954053"><ele>548.5</ele><time>2026-03-22T13:19:10Z</time></trkpt><trkpt lat="38.08554600957715" lon="13.187933658151865"><ele>550.0</ele><time>2026-03-22T13:19:11Z</time></trkpt><trkpt lat="38.08557514135301" lon="13.188116045946222"><ele>551.5</ele><time>2026-03-22T13:19:12Z</time></trkpt><trkpt lat="38.08562725054071" lon="13.188288355984517"><ele>553.0</ele><time>2026-03-22T13:19:13Z</time></trkpt><trkpt lat="38.08566572724286" lon="13.18847891500135"><ele>552.0</ele><time>2026-03-22T13:19:14Z</time></trkpt><trkpt lat="38.08570644181684" lon="13.188671051725496"><ele>551.0</ele><time>2026-03-22T13:19:15Z</time></trkpt><trkpt lat="38.08574433130002" lon="13.188854948099344"><ele>550.0</ele><time>2026-03-22T13:19:16Z</time></trkpt><trkpt lat="38.08578671329386" lon="13.18904286955688"><ele>550.0</ele><time>2026-03-22T13:19:17Z</time></trkpt><trkpt lat="38.08582244644942" lon="13.189236043062113"><ele>550.0</ele><time>2026-03-22T13:19:18Z</time></trkpt><trkpt lat="38.08585595614474" lon="13.189421034839599"><ele>550.0</ele><time>2026-03-22T13:19:19Z</time></trkpt><trkpt lat="38.08589538216309" lon="13.189603497584926"><ele>550.0</ele><time>2026-03-22T13:19:20Z</time></trkpt><trkpt lat="38.08595233008073" lon="13.189766869370372"><ele>550.0</ele><time>2026-03-22T13:19:21.001Z</time></trkpt><trkpt lat="38.08603185946116" lon="13.189904793794474"><ele>550.0</ele><time>2026-03-22T13:19:22.001Z</time></trkpt><trkpt lat="38.086127030733834" lon="13.190024628779835"><ele>550.0</ele><time>2026-03-22T13:19:23.001Z</time></trkpt><trkpt lat="38.086243817374196" lon="13.190130347951094"><ele>549.75</ele><time>2026-03-22T13:19:24.001Z</time></trkpt><trkpt lat="38.08636605399326" lon="13.190224515224893"><ele>549.5</ele><time>2026-03-22T13:19:25.001Z</time></trkpt><trkpt lat="38.08649273557044" lon="13.190314363672728"><ele>549.25</ele><time>2026-03-22T13:19:26.001Z</time></trkpt><trkpt lat="38.08662511875776" lon="13.190424005851623"><ele>549.0</ele><time>2026-03-22T13:19:27.001Z</time></trkpt><trkpt lat="38.08675757057423" lon="13.190532798586629"><ele>549.0</ele><time>2026-03-22T13:19:28.001Z</time></trkpt><trkpt lat="38.08688995348887" lon="13.190650018045456"><ele>549.0</ele><time>2026-03-22T13:19:29.001Z</time></trkpt><trkpt lat="38.08701865456829" lon="13.190754830032667"><ele>549.0</ele><time>2026-03-22T13:19:30.001Z</time></trkpt><trkpt lat="38.087157979479564" lon="13.190855909444004"><ele>549.0</ele><time>2026-03-22T13:19:31.001Z</time></trkpt><trkpt lat="38.0873000615794" lon="13.190956215498298"><ele>549.0</ele><time>2026-03-22T13:19:32.001Z</time></trkpt><trkpt lat="38.087434023666596" lon="13.191035649359712"><ele>549.0</ele><time>2026-03-22T13:19:33.001Z</time></trkpt><trkpt lat="38.08755123992764" lon="13.191091484582394"><ele>549.0</ele><time>2026-03-22T13:19:34.001Z</time></trkpt><trkpt lat="38.08767220036186" lon="13.191121394719554"><ele>549.0</ele><time>2026-03-22T13:19:35.001Z</time></trkpt><trkpt lat="38.08779918194848" lon="13.19111195218041"><ele>549.0</ele><time>2026-03-22T13:19:36.001Z</time></trkpt><trkpt lat="38.08793445440985" lon="13.191080752105961"><ele>549.0</ele><time>2026-03-22T13:19:37.001Z</time></trkpt><trkpt lat="38.08806278769762" lon="13.19101504178405"><ele>549.0</ele><time>2026-03-22T13:19:38.001Z</time></trkpt><trkpt lat="38.08820009020337" lon="13.190927471249614"><ele>549.0</ele><time>2026-03-22T13:19:39.001Z</time></trkpt><trkpt lat="38.08833919625007" lon="13.190826901820314"><ele>549.0</ele><time>2026-03-22T13:19:40.001Z</time></trkpt><trkpt lat="38.08848113917198" lon="13.190722002907526"><ele>549.0</ele><time>2026-03-22T13:19:41.001Z</time></trkpt><trkpt lat="38.08862043185295" lon="13.19061906694296"><ele>544.0</ele><time>2026-03-22T13:19:42.001Z</time></trkpt><trkpt lat="38.088763524281084" lon="13.190510365945897"><ele>539.0</ele><time>2026-03-22T13:19:43.001Z</time></trkpt><trkpt lat="38.088902449634155" lon="13.190411317221528"><ele>534.0</ele><time>2026-03-22T13:19:44.001Z</time></trkpt><trkpt lat="38.08904944808832" lon="13.190317966541539"><ele>536.3333333333334</ele><time>2026-03-22T13:19:45.001Z</time></trkpt><trkpt lat="38.08919833098181" lon="13.190234758867827"><ele>538.6666666666667</ele><time>2026-03-22T13:19:46.001Z</time></trkpt><trkpt lat="38.0893385019588" lon="13.190181758689139"><ele>541.0</ele><time>2026-03-22T13:19:47.001Z</time></trkpt><trkpt lat="38.08949338521083" lon="13.190140060486861"><ele>541.0</ele><time>2026-03-22T13:19:48.001Z</time></trkpt><trkpt lat="38.089657955761716" lon="13.190100004428038"><ele>541.0</ele><time>2026-03-22T13:19:49.001Z</time></trkpt><trkpt lat="38.0898180849793" lon="13.190054348269701"><ele>541.0</ele><time>2026-03-22T13:19:50.001Z</time></trkpt><trkpt lat="38.08996294625731" lon="13.189985829881211"><ele>542.0</ele><time>2026-03-22T13:19:51.001Z</time></trkpt><trkpt lat="38.09011044960716" lon="13.189878262197757"><ele>543.0</ele><time>2026-03-22T13:19:52.002Z</time></trkpt><trkpt lat="38.09023967037951" lon="13.189752990602644"><ele>544.0</ele><time>2026-03-22T13:19:53.002Z</time></trkpt><trkpt lat="38.09036327159072" lon="13.189617025048989"><ele>539.0</ele><time>2026-03-22T13:19:54.002Z</time></trkpt><trkpt lat="38.09049015931161" lon="13.18949690733999"><ele>534.0</ele><time>2026-03-22T13:19:55.002Z</time></trkpt><trkpt lat="38.09063334045251" lon="13.18938054870026"><ele>529.0</ele><time>2026-03-22T13:19:56.002Z</time></trkpt><trkpt lat="38.090767107982145" lon="13.189285934307946"><ele>529.0</ele><time>2026-03-22T13:19:57.002Z</time></trkpt><trkpt lat="38.090915945838695" lon="13.189185514683265"><ele>529.0</ele><time>2026-03-22T13:19:58.002Z</time></trkpt><trkpt lat="38.09106318935282" lon="13.189096850218455"><ele>529.0</ele><time>2026-03-22T13:19:59.002Z</time></trkpt><trkpt lat="38.0911993173098" lon="13.189023396259785"><ele>526.0</ele><time>2026-03-22T13:20:00.002Z</time></trkpt><trkpt lat="38.09133592765897" lon="13.188969514905121"><ele>523.0</ele><time>2026-03-22T13:20:01.002Z</time></trkpt><trkpt lat="38.091461695265245" lon="13.188947059261114"><ele>520.0</ele><time>2026-03-22T13:20:02.002Z</time></trkpt><trkpt lat="38.09155087180207" lon="13.188914446508665"><ele>517.0</ele><time>2026-03-22T13:20:03.002Z</time></trkpt><trkpt lat="38.09161164302645" lon="13.188851758161176"><ele>514.0</ele><time>2026-03-22T13:20:04.002Z</time></trkpt><trkpt lat="38.09162808879208" lon="13.188757784120561"><ele>514.0</ele><time>2026-03-22T13:20:05.002Z</time></trkpt><trkpt lat="38.09160858076684" lon="13.188668934524703"><ele>514.0</ele><time>2026-03-22T13:20:06.002Z</time></trkpt><trkpt lat="38.0915422459297" lon="13.188592712483661"><ele>514.0</ele><time>2026-03-22T13:20:07.002Z</time></trkpt><trkpt lat="38.091455988297355" lon="13.188541170166229"><ele>514.0</ele><time>2026-03-22T13:20:08.002Z</time></trkpt><trkpt lat="38.09133398891157" lon="13.1885612775052"><ele>514.0</ele><time>2026-03-22T13:20:09.002Z</time></trkpt><trkpt lat="38.09119861190648" lon="13.188674057585736"><ele>511.6666666666667</ele><time>2026-03-22T13:20:10.002Z</time></trkpt><trkpt lat="38.091056827365925" lon="13.18878941814828"><ele>509.33333333333337</ele><time>2026-03-22T13:20:11.002Z</time></trkpt><trkpt lat="38.09090897566811" lon="13.188881681976266"><ele>507.0</ele><time>2026-03-22T13:20:12.002Z</time></trkpt><trkpt lat="38.09073974306993" lon="13.188970647540806"><ele>512.0</ele><time>2026-03-22T13:20:13.002Z</time></trkpt><trkpt lat="38.090560005213746" lon="13.189053868224065"><ele>517.0</ele><time>2026-03-22T13:20:14.002Z</time></trkpt><trkpt lat="38.09040242237083" lon="13.189128017524219"><ele>522.0</ele><time>2026-03-22T13:20:15.002Z</time></trkpt><trkpt lat="38.09026611711147" lon="13.189190990322185"><ele>522.0</ele><time>2026-03-22T13:20:16.002Z</time></trkpt><trkpt lat="38.090155320120246" lon="13.189232106447571"><ele>522.0</ele><time>2026-03-22T13:20:17.002Z</time></trkpt><trkpt lat="38.090066071363836" lon="13.189246692698536"><ele>522.0</ele><time>2026-03-22T13:20:18.002Z</time></trkpt><trkpt lat="38.08999950495316" lon="13.189215143218943"><ele>522.0</ele><time>2026-03-22T13:20:19.002Z</time></trkpt><trkpt lat="38.08993790673794" lon="13.18914471254953"><ele>522.0</ele><time>2026-03-22T13:20:20.002Z</time></trkpt><trkpt lat="38.089852620134025" lon="13.189050151405931"><ele>519.4</ele><time>2026-03-22T13:20:21.002Z</time></trkpt><trkpt lat="38.08975502843342" lon="13.188940871736506"><ele>516.8000000000001</ele><time>2026-03-22T13:20:22.002Z</time></trkpt><trkpt lat="38.08966229383347" lon="13.188839894731691"><ele>514.2</ele><time>2026-03-22T13:20:23.002Z</time></trkpt><trkpt lat="38.0895938006585" lon="13.188756166811304"><ele>511.6</ele><time>2026-03-22T13:20:24.002Z</time></trkpt><trkpt lat="38.08953082859732" lon="13.188695153958587"><ele>509.0</ele><time>2026-03-22T13:20:25.003Z</time></trkpt><trkpt lat="38.089522108113016" lon="13.18860484761359"><ele>508.99999999999994</ele><time>2026-03-22T13:20:26.003Z</time></trkpt><trkpt lat="38.08953723614401" lon="13.188520712903973"><ele>509.0</ele><time>2026-03-22T13:20:27.003Z</time></trkpt><trkpt lat="38.089596661417715" lon="13.188469243327434"><ele>509.0</ele><time>2026-03-22T13:20:28.003Z</time></trkpt><trkpt lat="38.08967304618875" lon="13.188459234709567"><ele>509.0</ele><time>2026-03-22T13:20:29.003Z</time></trkpt><trkpt lat="38.089763306136604" lon="13.18851489332315"><ele>508.99999999999994</ele><time>2026-03-22T13:20:30.003Z</time></trkpt><trkpt lat="38.089855563025715" lon="13.188608432614785"><ele>509.0</ele><time>2026-03-22T13:20:31.003Z</time></trkpt><trkpt lat="38.089949243733635" lon="13.188704908711323"><ele>508.5</ele><time>2026-03-22T13:20:32.003Z</time></trkpt><trkpt lat="38.09005785088695" lon="13.188759319320843"><ele>508.0</ele><time>2026-03-22T13:20:33.003Z</time></trkpt><trkpt lat="38.09018653710993" lon="13.188758282371234"><ele>507.5</ele><time>2026-03-22T13:20:34.003Z</time></trkpt><trkpt lat="38.09032017626141" lon="13.188735508133691"><ele>507.0</ele><time>2026-03-22T13:20:35.003Z</time></trkpt><trkpt lat="38.09045434686016" lon="13.18869693199931"><ele>507.0</ele><time>2026-03-22T13:20:36.003Z</time></trkpt><trkpt lat="38.09057622674422" lon="13.188656925435897"><ele>507.0</ele><time>2026-03-22T13:20:37.003Z</time></trkpt><trkpt lat="38.09068144640765" lon="13.18860307046803"><ele>507.0</ele><time>2026-03-22T13:20:38.003Z</time></trkpt><trkpt lat="38.090781357762125" lon="13.188519403110057"><ele>507.0</ele><time>2026-03-22T13:20:39.003Z</time></trkpt><trkpt lat="38.09087114127085" lon="13.188406189463329"><ele>506.5</ele><time>2026-03-22T13:20:40.003Z</time></trkpt><trkpt lat="38.090945439051595" lon="13.18826558337875"><ele>506.0</ele><time>2026-03-22T13:20:41.003Z</time></trkpt><trkpt lat="38.09101543622271" lon="13.188137222393822"><ele>505.5</ele><time>2026-03-22T13:20:42.003Z</time></trkpt><trkpt lat="38.091099203503894" lon="13.188045866229416"><ele>505.0</ele><time>2026-03-22T13:20:43.003Z</time></trkpt><trkpt lat="38.09119583873026" lon="13.187998351182111"><ele>500.0</ele><time>2026-03-22T13:20:44.003Z</time></trkpt><trkpt lat="38.09130299608945" lon="13.187988129384035"><ele>495.0</ele><time>2026-03-22T13:20:45.003Z</time></trkpt><trkpt lat="38.09142437799194" lon="13.187998135792828"><ele>490.0</ele><time>2026-03-22T13:20:46.003Z</time></trkpt><trkpt lat="38.09155443880475" lon="13.188009695244247"><ele>485.0</ele><time>2026-03-22T13:20:47.003Z</time></trkpt><trkpt lat="38.09169034802084" lon="13.188000366257866"><ele>485.0</ele><time>2026-03-22T13:20:48.003Z</time></trkpt><trkpt lat="38.09183209632973" lon="13.187968247289719"><ele>485.0</ele><time>2026-03-22T13:20:49.003Z</time></trkpt><trkpt lat="38.09197476292928" lon="13.187918867280226"><ele>485.0</ele><time>2026-03-22T13:20:50.003Z</time></trkpt><trkpt lat="38.092118350551736" lon="13.187867311284242"><ele>485.0</ele><time>2026-03-22T13:20:51.003Z</time></trkpt><trkpt lat="38.09225983240945" lon="13.187818980470112"><ele>485.0</ele><time>2026-03-22T13:20:52.003Z</time></trkpt><trkpt lat="38.092398984352805" lon="13.187767050666704"><ele>485.0</ele><time>2026-03-22T13:20:53.003Z</time></trkpt><trkpt lat="38.09252639564707" lon="13.187698626776225"><ele>485.0</ele><time>2026-03-22T13:20:54.003Z</time></trkpt><trkpt lat="38.092634702344995" lon="13.187602570367957"><ele>485.0</ele><time>2026-03-22T13:20:55.003Z</time></trkpt><trkpt lat="38.092738369269206" lon="13.187480133729892"><ele>485.0</ele><time>2026-03-22T13:20:56Z</time></trkpt><trkpt lat="38.09283033209882" lon="13.187357944831561"><ele>485.0</ele><time>2026-03-22T13:20:57Z</time></trkpt><trkpt lat="38.092922362191906" lon="13.187275446644678"><ele>485.0</ele><time>2026-03-22T13:20:58Z</time></trkpt><trkpt lat="38.093029949200435" lon="13.187232115346687"><ele>485.0</ele><time>2026-03-22T13:20:59Z</time></trkpt><trkpt lat="38.093144787216374" lon="13.187214937384798"><ele>485.75</ele><time>2026-03-22T13:21:00Z</time></trkpt><trkpt lat="38.09326644215963" lon="13.187247687392782"><ele>486.5</ele><time>2026-03-22T13:21:01Z</time></trkpt><trkpt lat="38.09338801232834" lon="13.187300682063706"><ele>487.25</ele><time>2026-03-22T13:21:02Z</time></trkpt><trkpt lat="38.09351191992428" lon="13.187377964658737"><ele>488.0</ele><time>2026-03-22T13:21:03Z</time></trkpt><trkpt lat="38.093614503674004" lon="13.187452273785777"><ele>488.0</ele><time>2026-03-22T13:21:04Z</time></trkpt><trkpt lat="38.09370628202862" lon="13.187514733056704"><ele>487.99999999999994</ele><time>2026-03-22T13:21:05Z</time></trkpt><trkpt lat="38.09378631508304" lon="13.187549882651803"><ele>487.99999999999994</ele><time>2026-03-22T13:21:06Z</time></trkpt><trkpt lat="38.09387707131934" lon="13.18754394841736"><ele>488.0</ele><time>2026-03-22T13:21:07Z</time></trkpt><trkpt lat="38.09397092413481" lon="13.187513699644718"><ele>488.0</ele><time>2026-03-22T13:21:08Z</time></trkpt><trkpt lat="38.094071850318834" lon="13.1874774681322"><ele>488.0</ele><time>2026-03-22T13:21:09Z</time></trkpt><trkpt lat="38.09417204127043" lon="13.187436738018725"><ele>487.99999999999994</ele><time>2026-03-22T13:21:10Z</time></trkpt><trkpt lat="38.094272962119874" lon="13.187397320575785"><ele>487.99999999999994</ele><time>2026-03-22T13:21:11Z</time></trkpt><trkpt lat="38.094371796397496" lon="13.187356841934525"><ele>488.0</ele><time>2026-03-22T13:21:12Z</time></trkpt><trkpt lat="38.094458261157946" lon="13.187320731286666"><ele>488.0</ele><time>2026-03-22T13:21:13Z</time></trkpt><trkpt lat="38.0945195201443" lon="13.187293412239265"><ele>486.0</ele><time>2026-03-22T13:21:14Z</time></trkpt><trkpt lat="38.09457312737241" lon="13.187232591086376"><ele>483.99999999999994</ele><time>2026-03-22T13:21:17Z</time></trkpt><trkpt lat="38.094557358400785" lon="13.187113547888204"><ele>481.99999999999994</ele><time>2026-03-22T13:21:18Z</time></trkpt><trkpt lat="38.09452520782282" lon="13.18699364231402"><ele>480.0</ele><time>2026-03-22T13:21:19Z</time></trkpt><trkpt lat="38.09449596872785" lon="13.186866037096756"><ele>478.0</ele><time>2026-03-22T13:21:20Z</time></trkpt><trkpt lat="38.094466100077035" lon="13.186725356964494"><ele>478.0</ele><time>2026-03-22T13:21:21Z</time></trkpt><trkpt lat="38.094435977180865" lon="13.186580893436497"><ele>478.0</ele><time>2026-03-22T13:21:22Z</time></trkpt><trkpt lat="38.094403765628975" lon="13.186425059990837"><ele>478.0</ele><time>2026-03-22T13:21:23.001Z</time></trkpt><trkpt lat="38.09438094328113" lon="13.186262822649637"><ele>478.0</ele><time>2026-03-22T13:21:24.001Z</time></trkpt><trkpt lat="38.09436780862009" lon="13.186085987081507"><ele>475.5</ele><time>2026-03-22T13:21:25.001Z</time></trkpt><trkpt lat="38.09435112146522" lon="13.185908056357489"><ele>473.0</ele><time>2026-03-22T13:21:26.001Z</time></trkpt><trkpt lat="38.094338735917475" lon="13.185731675282717"><ele>470.5</ele><time>2026-03-22T13:21:27.001Z</time></trkpt><trkpt lat="38.09431524907532" lon="13.185569935257636"><ele>468.0</ele><time>2026-03-22T13:21:28.001Z</time></trkpt><trkpt lat="38.0942653210934" lon="13.185418780927257"><ele>468.75</ele><time>2026-03-22T13:21:29.001Z</time></trkpt><trkpt lat="38.09417806877451" lon="13.185283861016726"><ele>469.5</ele><time>2026-03-22T13:21:30.001Z</time></trkpt><trkpt lat="38.09407476265184" lon="13.185150308172544"><ele>470.25</ele><time>2026-03-22T13:21:31.001Z</time></trkpt><trkpt lat="38.09399367114484" lon="13.184996102286703"><ele>471.0</ele><time>2026-03-22T13:21:32.001Z</time></trkpt><trkpt lat="38.09395935453616" lon="13.184820522129055"><ele>468.75</ele><time>2026-03-22T13:21:33.001Z</time></trkpt><trkpt lat="38.09392742701546" lon="13.18464608531102"><ele>466.5</ele><time>2026-03-22T13:21:34.001Z</time></trkpt><trkpt lat="38.093877107688044" lon="13.18447478796825"><ele>464.25</ele><time>2026-03-22T13:21:35.001Z</time></trkpt><trkpt lat="38.09380823150814" lon="13.18430910551046"><ele>462.0</ele><time>2026-03-22T13:21:36.001Z</time></trkpt><trkpt lat="38.09370482143308" lon="13.184166563094745"><ele>462.0</ele><time>2026-03-22T13:21:37.001Z</time></trkpt><trkpt lat="38.09357649145187" lon="13.184043887149569"><ele>462.0</ele><time>2026-03-22T13:21:38.001Z</time></trkpt><trkpt lat="38.093455129808014" lon="13.183905674285276"><ele>462.0</ele><time>2026-03-22T13:21:39.001Z</time></trkpt><trkpt lat="38.09334867953559" lon="13.18374555488976"><ele>458.66666666666663</ele><time>2026-03-22T13:21:40.001Z</time></trkpt><trkpt lat="38.0932634453303" lon="13.183557761302907"><ele>455.3333333333333</ele><time>2026-03-22T13:21:41.001Z</time></trkpt><trkpt lat="38.093169610992625" lon="13.183403560124535"><ele>452.0</ele><time>2026-03-22T13:21:42.001Z</time></trkpt><trkpt lat="38.09304160525824" lon="13.183309294870737"><ele>452.0</ele><time>2026-03-22T13:21:43.001Z</time></trkpt><trkpt lat="38.09290358995664" lon="13.183229626633725"><ele>452.0</ele><time>2026-03-22T13:21:44.001Z</time></trkpt><trkpt lat="38.09276160605972" lon="13.183129352346057"><ele>452.0</ele><time>2026-03-22T13:21:45.001Z</time></trkpt><trkpt lat="38.09261747975422" lon="13.183053902653738"><ele>449.25</ele><time>2026-03-22T13:21:46.001Z</time></trkpt><trkpt lat="38.09247448449661" lon="13.183019009724505"><ele>446.5</ele><time>2026-03-22T13:21:47.001Z</time></trkpt><trkpt lat="38.0923406134103" lon="13.183032304911576"><ele>443.75</ele><time>2026-03-22T13:21:48.001Z</time></trkpt><trkpt lat="38.09221886536558" lon="13.183097137771155"><ele>441.0</ele><time>2026-03-22T13:21:49.001Z</time></trkpt><trkpt lat="38.092106455535514" lon="13.183198733205288"><ele>441.0</ele><time>2026-03-22T13:21:50.001Z</time></trkpt><trkpt lat="38.09202413653804" lon="13.183338464300773"><ele>441.0</ele><time>2026-03-22T13:21:51.001Z</time></trkpt><trkpt lat="38.0919326627619" lon="13.18348797245728"><ele>441.0</ele><time>2026-03-22T13:21:52.001Z</time></trkpt><trkpt lat="38.09184230198812" lon="13.183637291345327"><ele>441.0</ele><time>2026-03-22T13:21:53.001Z</time></trkpt><trkpt lat="38.091769237081294" lon="13.1837577164466"><ele>441.0</ele><time>2026-03-22T13:21:54.001Z</time></trkpt><trkpt lat="38.09170638831374" lon="13.183841441636432"><ele>441.0</ele><time>2026-03-22T13:21:55.001Z</time></trkpt><trkpt lat="38.091645602835996" lon="13.18391040448638"><ele>441.0</ele><time>2026-03-22T13:21:56.001Z</time></trkpt><trkpt lat="38.09156499596297" lon="13.183887981903693"><ele>441.0</ele><time>2026-03-22T13:21:57.001Z</time></trkpt><trkpt lat="38.09149787292758" lon="13.183891591408644"><ele>441.0</ele><time>2026-03-22T13:21:58.001Z</time></trkpt><trkpt lat="38.09144765842318" lon="13.183802105301913"><ele>441.0</ele><time>2026-03-22T13:21:59.001Z</time></trkpt><trkpt lat="38.091399427559146" lon="13.183720135285183"><ele>443.5</ele><time>2026-03-22T13:22:00.002Z</time></trkpt><trkpt lat="38.091385116208905" lon="13.18358940261081"><ele>446.0</ele><time>2026-03-22T13:22:01.002Z</time></trkpt><trkpt lat="38.09139851512762" lon="13.18344596013606"><ele>448.5</ele><time>2026-03-22T13:22:02.002Z</time></trkpt><trkpt lat="38.091429812447124" lon="13.183290264540615"><ele>451.0</ele><time>2026-03-22T13:22:03.002Z</time></trkpt><trkpt lat="38.0914710740686" lon="13.183114923120666"><ele>451.25</ele><time>2026-03-22T13:22:04.002Z</time></trkpt><trkpt lat="38.09150963720044" lon="13.182932343963207"><ele>451.5</ele><time>2026-03-22T13:22:05.002Z</time></trkpt><trkpt lat="38.091546709115434" lon="13.182767527283149"><ele>451.75</ele><time>2026-03-22T13:22:06.002Z</time></trkpt><trkpt lat="38.091584443114655" lon="13.182586208718517"><ele>452.0</ele><time>2026-03-22T13:22:07.002Z</time></trkpt><trkpt lat="38.09162088602155" lon="13.182403416594198"><ele>445.0</ele><time>2026-03-22T13:22:08.002Z</time></trkpt><trkpt lat="38.09164718625842" lon="13.182226969010681"><ele>438.0</ele><time>2026-03-22T13:22:09.002Z</time></trkpt><trkpt lat="38.09165247690453" lon="13.182029633218455"><ele>431.0</ele><time>2026-03-22T13:22:10.002Z</time></trkpt><trkpt lat="38.0916415673958" lon="13.181832099611997"><ele>431.0</ele><time>2026-03-22T13:22:11.002Z</time></trkpt><trkpt lat="38.09162070811855" lon="13.181619976100164"><ele>431.0</ele><time>2026-03-22T13:22:12.002Z</time></trkpt><trkpt lat="38.091604094766616" lon="13.18140775058279"><ele>431.0</ele><time>2026-03-22T13:22:13.002Z</time></trkpt><trkpt lat="38.09159268538276" lon="13.181204139628667"><ele>432.0</ele><time>2026-03-22T13:22:14.002Z</time></trkpt><trkpt lat="38.091584283281726" lon="13.181005132513198"><ele>433.0</ele><time>2026-03-22T13:22:15.002Z</time></trkpt><trkpt lat="38.09157528205752" lon="13.180813015769738"><ele>434.0</ele><time>2026-03-22T13:22:16.002Z</time></trkpt><trkpt lat="38.09154653864556" lon="13.180643212914752"><ele>435.0</ele><time>2026-03-22T13:22:17.002Z</time></trkpt><trkpt lat="38.09148086677612" lon="13.180493356100358"><ele>435.0</ele><time>2026-03-22T13:22:18.002Z</time></trkpt><trkpt lat="38.09139394450896" lon="13.180354882645942"><ele>435.0</ele><time>2026-03-22T13:22:19.002Z</time></trkpt><trkpt lat="38.0913163497353" lon="13.180230041193264"><ele>435.0</ele><time>2026-03-22T13:22:20.002Z</time></trkpt><trkpt lat="38.091263558781876" lon="13.180101816158825"><ele>435.0</ele><time>2026-03-22T13:22:21.002Z</time></trkpt><trkpt lat="38.09124540489711" lon="13.179965439751987"><ele>432.8</ele><time>2026-03-22T13:22:22.002Z</time></trkpt><trkpt lat="38.091253306354254" lon="13.179833298292081"><ele>430.6</ele><time>2026-03-22T13:22:23.002Z</time></trkpt><trkpt lat="38.0912756890567" lon="13.179712825857603"><ele>428.4</ele><time>2026-03-22T13:22:24.002Z</time></trkpt><trkpt lat="38.091309011804206" lon="13.17959245778276"><ele>426.2</ele><time>2026-03-22T13:22:25.002Z</time></trkpt><trkpt lat="38.091338376850715" lon="13.179469880013174"><ele>424.0</ele><time>2026-03-22T13:22:26.002Z</time></trkpt><trkpt lat="38.09122721315921" lon="13.179376736952063"><ele>424.0</ele><time>2026-03-22T13:22:27.002Z</time></trkpt><trkpt lat="38.091198899960986" lon="13.17921918613746"><ele>424.0</ele><time>2026-03-22T13:22:29.002Z</time></trkpt><trkpt lat="38.09118086176177" lon="13.179453229361778"><ele>424.0</ele><time>2026-03-22T13:25:21.001Z</time></trkpt><trkpt lat="38.091231177631485" lon="13.179529663360897"><ele>424.0</ele><time>2026-03-22T13:25:22.001Z</time></trkpt><trkpt lat="38.091243188313854" lon="13.179681306211345"><ele>424.00000000000006</ele><time>2026-03-22T13:25:24.001Z</time></trkpt><trkpt lat="38.09124381699757" lon="13.179768042921172"><ele>424.0</ele><time>2026-03-22T13:25:25.001Z</time></trkpt><trkpt lat="38.0912245791093" lon="13.179863533131659"><ele>424.0</ele><time>2026-03-22T13:25:26.001Z</time></trkpt><trkpt lat="38.09120277606613" lon="13.179975220041518"><ele>424.0</ele><time>2026-03-22T13:25:27.001Z</time></trkpt><trkpt lat="38.09120094021794" lon="13.180084642501761"><ele>424.00000000000006</ele><time>2026-03-22T13:25:28.001Z</time></trkpt><trkpt lat="38.09122855922986" lon="13.180203775635055"><ele>424.0</ele><time>2026-03-22T13:25:29.001Z</time></trkpt><trkpt lat="38.0912901231357" lon="13.180319822095656"><ele>426.75</ele><time>2026-03-22T13:25:30.001Z</time></trkpt><trkpt lat="38.09136328665355" lon="13.180436055606624"><ele>429.5</ele><time>2026-03-22T13:25:31.001Z</time></trkpt><trkpt lat="38.09143183330364" lon="13.180548028000137"><ele>432.25</ele><time>2026-03-22T13:25:32.001Z</time></trkpt><trkpt lat="38.09149507929668" lon="13.180671685729061"><ele>435.0</ele><time>2026-03-22T13:25:33.001Z</time></trkpt><trkpt lat="38.09153453603116" lon="13.180811060215367"><ele>437.25</ele><time>2026-03-22T13:25:34.001Z</time></trkpt><trkpt lat="38.09155906442463" lon="13.18096616060888"><ele>439.5</ele><time>2026-03-22T13:25:35.001Z</time></trkpt><trkpt lat="38.09155490074532" lon="13.18112938328132"><ele>441.75</ele><time>2026-03-22T13:25:36.001Z</time></trkpt><trkpt lat="38.091560237835836" lon="13.181295896767038"><ele>444.0</ele><time>2026-03-22T13:25:37.001Z</time></trkpt><trkpt lat="38.09156577173617" lon="13.181475172044632"><ele>445.5</ele><time>2026-03-22T13:25:38.001Z</time></trkpt><trkpt lat="38.09157650485375" lon="13.181657425568671"><ele>447.0</ele><time>2026-03-22T13:25:39.001Z</time></trkpt><trkpt lat="38.09158874791761" lon="13.18183465741711"><ele>448.5</ele><time>2026-03-22T13:25:40.001Z</time></trkpt><trkpt lat="38.091601744134756" lon="13.18200360613305"><ele>450.0</ele><time>2026-03-22T13:25:41.001Z</time></trkpt><trkpt lat="38.091606171294885" lon="13.182162668562862"><ele>450.5</ele><time>2026-03-22T13:25:42.001Z</time></trkpt><trkpt lat="38.09160075414744" lon="13.182317845777186"><ele>451.0</ele><time>2026-03-22T13:25:43.001Z</time></trkpt><trkpt lat="38.09156286377831" lon="13.18246859391415"><ele>451.5</ele><time>2026-03-22T13:25:44.001Z</time></trkpt><trkpt lat="38.09152903485185" lon="13.182619800498612"><ele>452.0</ele><time>2026-03-22T13:25:45.001Z</time></trkpt><trkpt lat="38.09149693702606" lon="13.182768985164998"><ele>452.0</ele><time>2026-03-22T13:25:46.001Z</time></trkpt><trkpt lat="38.091464383017026" lon="13.182924897584469"><ele>452.0</ele><time>2026-03-22T13:25:47.001Z</time></trkpt><trkpt lat="38.09143501699613" lon="13.183076121421426"><ele>452.0</ele><time>2026-03-22T13:25:48.001Z</time></trkpt><trkpt lat="38.091406995485045" lon="13.183230469984252"><ele>452.0</ele><time>2026-03-22T13:25:49.001Z</time></trkpt><trkpt lat="38.09138372822096" lon="13.183372736827378"><ele>451.8</ele><time>2026-03-22T13:25:50.001Z</time></trkpt><trkpt lat="38.09138034526376" lon="13.183516629820014"><ele>451.6</ele><time>2026-03-22T13:25:51.001Z</time></trkpt><trkpt lat="38.09135653326765" lon="13.183646450256076"><ele>451.40000000000003</ele><time>2026-03-22T13:25:52.001Z</time></trkpt><trkpt lat="38.09136353073919" lon="13.183752460205058"><ele>451.20000000000005</ele><time>2026-03-22T13:25:53.001Z</time></trkpt><trkpt lat="38.09139834868003" lon="13.183852724908"><ele>451.0</ele><time>2026-03-22T13:25:54.001Z</time></trkpt><trkpt lat="38.09146163675638" lon="13.183931951800796"><ele>451.0</ele><time>2026-03-22T13:25:55.001Z</time></trkpt><trkpt lat="38.091536212897275" lon="13.183980958183907"><ele>451.0</ele><time>2026-03-22T13:25:56.001Z</time></trkpt><trkpt lat="38.09162352580891" lon="13.183983899753189"><ele>451.0</ele><time>2026-03-22T13:25:57.001Z</time></trkpt><trkpt lat="38.09170949361446" lon="13.183940069204747"><ele>451.0</ele><time>2026-03-22T13:25:58.001Z</time></trkpt><trkpt lat="38.09178474462417" lon="13.183869138036934"><ele>451.0</ele><time>2026-03-22T13:25:59.001Z</time></trkpt><trkpt lat="38.09185048018854" lon="13.18376387530975"><ele>447.6666666666667</ele><time>2026-03-22T13:26:00.001Z</time></trkpt><trkpt lat="38.09191653425957" lon="13.183625726294137"><ele>444.33333333333337</ele><time>2026-03-22T13:26:01.001Z</time></trkpt><trkpt lat="38.09199778020028" lon="13.183468620092103"><ele>441.0</ele><time>2026-03-22T13:26:02.001Z</time></trkpt><trkpt lat="38.09210899874552" lon="13.183297835864163"><ele>440.25</ele><time>2026-03-22T13:26:03.001Z</time></trkpt><trkpt lat="38.09222085352942" lon="13.183175772022533"><ele>439.5</ele><time>2026-03-22T13:26:04.001Z</time></trkpt><trkpt lat="38.09233232666957" lon="13.183104458751801"><ele>438.75</ele><time>2026-03-22T13:26:05.001Z</time></trkpt><trkpt lat="38.09245280625636" lon="13.183071143553073"><ele>438.0</ele><time>2026-03-22T13:26:06.001Z</time></trkpt><trkpt lat="38.09256853474476" lon="13.183091532658654"><ele>436.5</ele><time>2026-03-22T13:26:07.001Z</time></trkpt><trkpt lat="38.09268403036582" lon="13.183138052223088"><ele>435.0</ele><time>2026-03-22T13:26:08.001Z</time></trkpt><trkpt lat="38.092797053607114" lon="13.183211809383142"><ele>433.5</ele><time>2026-03-22T13:26:09.002Z</time></trkpt><trkpt lat="38.09291091521402" lon="13.18330193178741"><ele>432.0</ele><time>2026-03-22T13:26:10.002Z</time></trkpt><trkpt lat="38.09303290412965" lon="13.18338513065296"><ele>435.0</ele><time>2026-03-22T13:26:11.002Z</time></trkpt><trkpt lat="38.093151333324556" lon="13.183472164352237"><ele>438.0</ele><time>2026-03-22T13:26:12.002Z</time></trkpt><trkpt lat="38.09324364405192" lon="13.183583512376478"><ele>441.0</ele><time>2026-03-22T13:26:13.002Z</time></trkpt><trkpt lat="38.093308473430774" lon="13.183731056950942"><ele>444.0</ele><time>2026-03-22T13:26:14.002Z</time></trkpt><trkpt lat="38.09337940805162" lon="13.183887953894725"><ele>450.0</ele><time>2026-03-22T13:26:15.002Z</time></trkpt><trkpt lat="38.09348757988559" lon="13.18404240078153"><ele>456.0</ele><time>2026-03-22T13:26:16.002Z</time></trkpt><trkpt lat="38.09361403394515" lon="13.18417985131888"><ele>462.0</ele><time>2026-03-22T13:26:17.002Z</time></trkpt><trkpt lat="38.09373822329357" lon="13.184300450882846"><ele>462.0</ele><time>2026-03-22T13:26:18.002Z</time></trkpt><trkpt lat="38.09381882445615" lon="13.184408065483197"><ele>462.00000000000006</ele><time>2026-03-22T13:26:19.002Z</time></trkpt><trkpt lat="38.093870088990535" lon="13.184523963479487"><ele>462.00000000000006</ele><time>2026-03-22T13:26:20.002Z</time></trkpt><trkpt lat="38.0938975620768" lon="13.184654698284527"><ele>462.0</ele><time>2026-03-22T13:26:21.002Z</time></trkpt><trkpt lat="38.09390793364576" lon="13.18480648103326"><ele>462.0</ele><time>2026-03-22T13:26:22.002Z</time></trkpt><trkpt lat="38.09395114426209" lon="13.184959189552506"><ele>460.5</ele><time>2026-03-22T13:26:23.002Z</time></trkpt><trkpt lat="38.094013058678954" lon="13.185108756441231"><ele>459.0</ele><time>2026-03-22T13:26:24.002Z</time></trkpt><trkpt lat="38.0940912862157" lon="13.185253236048581"><ele>457.5</ele><time>2026-03-22T13:26:25.002Z</time></trkpt><trkpt lat="38.09417922077452" lon="13.185392333857516"><ele>456.0</ele><time>2026-03-22T13:26:26.002Z</time></trkpt><trkpt lat="38.09426382983222" lon="13.185526444099443"><ele>456.0</ele><time>2026-03-22T13:26:27.002Z</time></trkpt><trkpt lat="38.09430754098152" lon="13.185648738542547"><ele>456.0</ele><time>2026-03-22T13:26:28.002Z</time></trkpt><trkpt lat="38.094327636427636" lon="13.185791405496094"><ele>456.0</ele><time>2026-03-22T13:26:29.002Z</time></trkpt><trkpt lat="38.09433187995214" lon="13.185948307186719"><ele>456.0</ele><time>2026-03-22T13:26:30.002Z</time></trkpt><trkpt lat="38.094325001790516" lon="13.186126594141415"><ele>460.0</ele><time>2026-03-22T13:26:31.002Z</time></trkpt><trkpt lat="38.094363524113206" lon="13.186310083132208"><ele>464.0</ele><time>2026-03-22T13:26:32.002Z</time></trkpt><trkpt lat="38.09438623273191" lon="13.186509805569555"><ele>468.0</ele><time>2026-03-22T13:26:33.002Z</time></trkpt><trkpt lat="38.094430835000665" lon="13.186711226865583"><ele>471.33333333333337</ele><time>2026-03-22T13:26:34.002Z</time></trkpt><trkpt lat="38.094481320652655" lon="13.186915163956874"><ele>474.6666666666667</ele><time>2026-03-22T13:26:35.002Z</time></trkpt><trkpt lat="38.09452253356415" lon="13.187114307168166"><ele>478.0</ele><time>2026-03-22T13:26:36.002Z</time></trkpt><trkpt lat="38.09457258759551" lon="13.187275897502056"><ele>478.0</ele><time>2026-03-22T13:26:37.002Z</time></trkpt><trkpt lat="38.09464489898288" lon="13.187440863477976"><ele>478.0</ele><time>2026-03-22T13:26:38.002Z</time></trkpt><trkpt lat="38.09473299317438" lon="13.18758803525453"><ele>478.0</ele><time>2026-03-22T13:26:39.002Z</time></trkpt><trkpt lat="38.09484186739092" lon="13.187724727650513"><ele>478.0</ele><time>2026-03-22T13:26:40.002Z</time></trkpt><trkpt lat="38.094955970521376" lon="13.187862139518467"><ele>478.0</ele><time>2026-03-22T13:26:41.002Z</time></trkpt><trkpt lat="38.0950517482917" lon="13.187998821821887"><ele>478.0</ele><time>2026-03-22T13:26:42.002Z</time></trkpt><trkpt lat="38.09512176224269" lon="13.188131549455845"><ele>478.0</ele><time>2026-03-22T13:26:43.002Z</time></trkpt><trkpt lat="38.095173684350605" lon="13.188260096002157"><ele>478.0</ele><time>2026-03-22T13:26:44.002Z</time></trkpt><trkpt lat="38.09521069106323" lon="13.1883955663847"><ele>480.75</ele><time>2026-03-22T13:26:45.002Z</time></trkpt><trkpt lat="38.095232026543634" lon="13.188546667102905"><ele>483.5</ele><time>2026-03-22T13:26:46.002Z</time></trkpt><trkpt lat="38.09525784619591" lon="13.188708754798375"><ele>486.25</ele><time>2026-03-22T13:26:47.002Z</time></trkpt><trkpt lat="38.09526801297463" lon="13.18890591419556"><ele>489.0</ele><time>2026-03-22T13:26:48.002Z</time></trkpt><trkpt lat="38.09531087726141" lon="13.189078485561257"><ele>491.33333333333337</ele><time>2026-03-22T13:26:49.002Z</time></trkpt><trkpt lat="38.09535936594162" lon="13.189271144156407"><ele>493.6666666666667</ele><time>2026-03-22T13:26:50.002Z</time></trkpt><trkpt lat="38.095415554322265" lon="13.189476769111518"><ele>496.0</ele><time>2026-03-22T13:26:51.002Z</time></trkpt><trkpt lat="38.095486377314856" lon="13.189677418798382"><ele>496.6666666666667</ele><time>2026-03-22T13:26:52.002Z</time></trkpt><trkpt lat="38.095575496529996" lon="13.18989664969617"><ele>497.33333333333337</ele><time>2026-03-22T13:26:53.003Z</time></trkpt><trkpt lat="38.09565368668825" lon="13.190101697778793"><ele>498.0</ele><time>2026-03-22T13:26:54.003Z</time></trkpt><trkpt lat="38.095730202323296" lon="13.19028995039449"><ele>497.66666666666663</ele><time>2026-03-22T13:26:55.003Z</time></trkpt><trkpt lat="38.095807433551535" lon="13.190478582367733"><ele>497.3333333333333</ele><time>2026-03-22T13:26:56.003Z</time></trkpt><trkpt lat="38.09588636929851" lon="13.190669135386399"><ele>497.0</ele><time>2026-03-22T13:26:57.003Z</time></trkpt><trkpt lat="38.095949994582575" lon="13.190860125832584"><ele>497.0</ele><time>2026-03-22T13:26:58.003Z</time></trkpt><trkpt lat="38.096007833235696" lon="13.19103995080828"><ele>497.0</ele><time>2026-03-22T13:26:59.003Z</time></trkpt><trkpt lat="38.09596553439189" lon="13.191260030926852"><ele>497.0</ele><time>2026-03-22T13:27:00.003Z</time></trkpt><trkpt lat="38.0959475617891" lon="13.191453319215388"><ele>499.3333333333333</ele><time>2026-03-22T13:27:01.003Z</time></trkpt><trkpt lat="38.09591980364398" lon="13.191657121345763"><ele>501.66666666666663</ele><time>2026-03-22T13:27:02.003Z</time></trkpt><trkpt lat="38.09588909363911" lon="13.191870096202278"><ele>504.0</ele><time>2026-03-22T13:27:03.003Z</time></trkpt><trkpt lat="38.09585639278045" lon="13.192077915437109"><ele>504.0</ele><time>2026-03-22T13:27:04.003Z</time></trkpt><trkpt lat="38.09582331388948" lon="13.192288137248038"><ele>504.0</ele><time>2026-03-22T13:27:05.003Z</time></trkpt><trkpt lat="38.09579127497145" lon="13.19249174962188"><ele>504.0</ele><time>2026-03-22T13:27:06.003Z</time></trkpt><trkpt lat="38.09575693075013" lon="13.1927104345149"><ele>509.66666666666663</ele><time>2026-03-22T13:27:07.003Z</time></trkpt><trkpt lat="38.09572349435394" lon="13.192924045504581"><ele>515.3333333333333</ele><time>2026-03-22T13:27:08.003Z</time></trkpt><trkpt lat="38.095691849148466" lon="13.193126575414194"><ele>521.0</ele><time>2026-03-22T13:27:09.003Z</time></trkpt><trkpt lat="38.09565973950232" lon="13.193333679542182"><ele>527.3333333333333</ele><time>2026-03-22T13:27:10.003Z</time></trkpt><trkpt lat="38.09562946332578" lon="13.19355722345949"><ele>533.6666666666666</ele><time>2026-03-22T13:27:11.003Z</time></trkpt><trkpt lat="38.09561258660353" lon="13.193770518421035"><ele>540.0</ele><time>2026-03-22T13:27:12.003Z</time></trkpt><trkpt lat="38.095608734445385" lon="13.193989687793206"><ele>544.3333333333334</ele><time>2026-03-22T13:27:13.003Z</time></trkpt><trkpt lat="38.0956087344513" lon="13.194210303717416"><ele>548.6666666666667</ele><time>2026-03-22T13:27:14.001Z</time></trkpt><trkpt lat="38.09560667507733" lon="13.19440629008181"><ele>553.0</ele><time>2026-03-22T13:27:15.001Z</time></trkpt><trkpt lat="38.09560410356087" lon="13.194627768007308"><ele>553.6666666666667</ele><time>2026-03-22T13:27:16.001Z</time></trkpt><trkpt lat="38.095602133478856" lon="13.194846258119753"><ele>554.3333333333334</ele><time>2026-03-22T13:27:17.001Z</time></trkpt><trkpt lat="38.09560024555231" lon="13.195055636694292"><ele>555.0</ele><time>2026-03-22T13:27:18.001Z</time></trkpt><trkpt lat="38.09559871836468" lon="13.195263420660654"><ele>555.0</ele><time>2026-03-22T13:27:19.001Z</time></trkpt><trkpt lat="38.09559823447047" lon="13.19546743988208"><ele>555.0</ele><time>2026-03-22T13:27:20.001Z</time></trkpt><trkpt lat="38.09560380955147" lon="13.195682272118383"><ele>555.0</ele><time>2026-03-22T13:27:21.001Z</time></trkpt><trkpt lat="38.09561654342601" lon="13.195891824410797"><ele>558.0</ele><time>2026-03-22T13:27:22.001Z</time></trkpt><trkpt lat="38.09563233537364" lon="13.196107590954163"><ele>561.0</ele><time>2026-03-22T13:27:23.001Z</time></trkpt><trkpt lat="38.09566645301257" lon="13.196311618860678"><ele>564.0</ele><time>2026-03-22T13:27:24.001Z</time></trkpt><trkpt lat="38.09569042670926" lon="13.196527839458993"><ele>568.6666666666666</ele><time>2026-03-22T13:27:25.001Z</time></trkpt><trkpt lat="38.09571561003488" lon="13.196730331283554"><ele>573.3333333333333</ele><time>2026-03-22T13:27:26.001Z</time></trkpt><trkpt lat="38.09574934631048" lon="13.196923478676846"><ele>578.0</ele><time>2026-03-22T13:27:27.001Z</time></trkpt><trkpt lat="38.09580102221241" lon="13.197133128188565"><ele>569.0</ele><time>2026-03-22T13:27:28.001Z</time></trkpt><trkpt lat="38.09585225562563" lon="13.197341686392194"><ele>560.0</ele><time>2026-03-22T13:27:29.001Z</time></trkpt><trkpt lat="38.09590838885037" lon="13.197535147042244"><ele>551.0</ele><time>2026-03-22T13:27:30.001Z</time></trkpt><trkpt lat="38.095967312304886" lon="13.197738183747134"><ele>551.0</ele><time>2026-03-22T13:27:31.001Z</time></trkpt><trkpt lat="38.096028749334955" lon="13.197937625835609"><ele>551.0</ele><time>2026-03-22T13:27:32.001Z</time></trkpt><trkpt lat="38.09609221875895" lon="13.198154262326716"><ele>551.0</ele><time>2026-03-22T13:27:33.001Z</time></trkpt><trkpt lat="38.096143617832944" lon="13.19834979726301"><ele>555.3333333333333</ele><time>2026-03-22T13:27:34.001Z</time></trkpt><trkpt lat="38.096192561422214" lon="13.198545921843861"><ele>559.6666666666666</ele><time>2026-03-22T13:27:35.001Z</time></trkpt><trkpt lat="38.09624687379559" lon="13.198743918964075"><ele>564.0</ele><time>2026-03-22T13:27:36.001Z</time></trkpt><trkpt lat="38.09630620386743" lon="13.198945842506141"><ele>569.0</ele><time>2026-03-22T13:27:37.001Z</time></trkpt><trkpt lat="38.09636714036573" lon="13.19914304470771"><ele>574.0</ele><time>2026-03-22T13:27:38.001Z</time></trkpt><trkpt lat="38.09643351454855" lon="13.199342912981031"><ele>579.0</ele><time>2026-03-22T13:27:39.001Z</time></trkpt><trkpt lat="38.09649426878914" lon="13.199531289257987"><ele>579.0</ele><time>2026-03-22T13:27:40.001Z</time></trkpt><trkpt lat="38.0965703176511" lon="13.199724342748764"><ele>579.0</ele><time>2026-03-22T13:27:41.001Z</time></trkpt><trkpt lat="38.09664418633641" lon="13.199919619627128"><ele>579.0</ele><time>2026-03-22T13:27:42.001Z</time></trkpt><trkpt lat="38.09671518060332" lon="13.200115859997048"><ele>576.3333333333334</ele><time>2026-03-22T13:27:43.001Z</time></trkpt><trkpt lat="38.09679385106075" lon="13.200313872385994"><ele>573.6666666666667</ele><time>2026-03-22T13:27:44.001Z</time></trkpt><trkpt lat="38.09686898253923" lon="13.200516168473388"><ele>571.0</ele><time>2026-03-22T13:27:45.001Z</time></trkpt><trkpt lat="38.09695480976494" lon="13.200711942305082"><ele>571.0</ele><time>2026-03-22T13:27:46.001Z</time></trkpt><trkpt lat="38.0970355389859" lon="13.200912341726891"><ele>571.0</ele><time>2026-03-22T13:27:47.001Z</time></trkpt><trkpt lat="38.097124211138535" lon="13.201102246832832"><ele>571.0</ele><time>2026-03-22T13:27:48.001Z</time></trkpt><trkpt lat="38.097217964821326" lon="13.20128923317244"><ele>571.0</ele><time>2026-03-22T13:27:49.001Z</time></trkpt><trkpt lat="38.097328988343286" lon="13.201471530133517"><ele>571.0</ele><time>2026-03-22T13:27:50.001Z</time></trkpt><trkpt lat="38.09745079415329" lon="13.20163182488288"><ele>571.0</ele><time>2026-03-22T13:27:51.001Z</time></trkpt><trkpt lat="38.097589494187446" lon="13.20178333150833"><ele>571.3333333333334</ele><time>2026-03-22T13:27:52.001Z</time></trkpt><trkpt lat="38.0977378579107" lon="13.201928093209043"><ele>571.6666666666666</ele><time>2026-03-22T13:27:53.001Z</time></trkpt><trkpt lat="38.097884460719115" lon="13.202070866470399"><ele>572.0</ele><time>2026-03-22T13:27:54.001Z</time></trkpt><trkpt lat="38.098024166023386" lon="13.20222007568624"><ele>572.3333333333333</ele><time>2026-03-22T13:27:55.001Z</time></trkpt><trkpt lat="38.09815518563624" lon="13.202364869954097"><ele>572.6666666666666</ele><time>2026-03-22T13:27:56.001Z</time></trkpt><trkpt lat="38.098278498585856" lon="13.202500038133609"><ele>573.0</ele><time>2026-03-22T13:27:57.001Z</time></trkpt><trkpt lat="38.09837475810717" lon="13.202629252011237"><ele>573.0</ele><time>2026-03-22T13:27:58.001Z</time></trkpt><trkpt lat="38.09842994688481" lon="13.202748350544566"><ele>573.0</ele><time>2026-03-22T13:27:59.001Z</time></trkpt><trkpt lat="38.09839911051902" lon="13.202883938439394"><ele>573.0</ele><time>2026-03-22T13:28:00.001Z</time></trkpt><trkpt lat="38.09837520389079" lon="13.203008637668638"><ele>573.0</ele><time>2026-03-22T13:28:01.001Z</time></trkpt><trkpt lat="38.09833052464101" lon="13.203132071774107"><ele>573.0</ele><time>2026-03-22T13:28:02.001Z</time></trkpt><trkpt lat="38.09827013176751" lon="13.203301499466429"><ele>577.6666666666666</ele><time>2026-03-22T13:28:03.001Z</time></trkpt><trkpt lat="38.098211471962024" lon="13.203481514947581"><ele>582.3333333333333</ele><time>2026-03-22T13:28:04.001Z</time></trkpt><trkpt lat="38.09816487528406" lon="13.203680536037297"><ele>587.0</ele><time>2026-03-22T13:28:05.001Z</time></trkpt><trkpt lat="38.09816770592746" lon="13.203917232472008"><ele>589.0</ele><time>2026-03-22T13:28:06.001Z</time></trkpt><trkpt lat="38.0982072215061" lon="13.20415151641416"><ele>591.0</ele><time>2026-03-22T13:28:07.001Z</time></trkpt><trkpt lat="38.0982587381446" lon="13.204400502530786"><ele>593.0</ele><time>2026-03-22T13:28:08.001Z</time></trkpt><trkpt lat="38.09830515662628" lon="13.204652890689523"><ele>593.75</ele><time>2026-03-22T13:28:09.001Z</time></trkpt><trkpt lat="38.098316234608234" lon="13.204840661144733"><ele>594.5</ele><time>2026-03-22T13:28:10.001Z</time></trkpt><trkpt lat="38.09829353587938" lon="13.205006174240987"><ele>595.25</ele><time>2026-03-22T13:28:11.001Z</time></trkpt><trkpt lat="38.098252839789616" lon="13.205182420342707"><ele>596.0</ele><time>2026-03-22T13:28:12.001Z</time></trkpt><trkpt lat="38.09820734119883" lon="13.205394490834632"><ele>596.0</ele><time>2026-03-22T13:28:13.001Z</time></trkpt><trkpt lat="38.09818019165934" lon="13.205603569919825"><ele>596.0</ele><time>2026-03-22T13:28:14.001Z</time></trkpt><trkpt lat="38.098197120234595" lon="13.205825543306238"><ele>596.0</ele><time>2026-03-22T13:28:15.001Z</time></trkpt><trkpt lat="38.09824847613488" lon="13.206044406560741"><ele>596.3333333333333</ele><time>2026-03-22T13:28:16.001Z</time></trkpt><trkpt lat="38.09834285097657" lon="13.206244974127575"><ele>596.6666666666666</ele><time>2026-03-22T13:28:17.001Z</time></trkpt><trkpt lat="38.09843870755046" lon="13.206463740834375"><ele>597.0</ele><time>2026-03-22T13:28:18.001Z</time></trkpt><trkpt lat="38.09855725735411" lon="13.206662621045627"><ele>597.0</ele><time>2026-03-22T13:28:19.001Z</time></trkpt><trkpt lat="38.0986789785084" lon="13.20687073793802"><ele>597.0</ele><time>2026-03-22T13:28:20.001Z</time></trkpt><trkpt lat="38.09879586627749" lon="13.207062058850067"><ele>597.0</ele><time>2026-03-22T13:28:21.001Z</time></trkpt><trkpt lat="38.09890506633359" lon="13.207253367523865"><ele>593.6666666666666</ele><time>2026-03-22T13:28:22.001Z</time></trkpt><trkpt lat="38.099017652645145" lon="13.207445122171247"><ele>590.3333333333333</ele><time>2026-03-22T13:28:23.001Z</time></trkpt><trkpt lat="38.09913308613374" lon="13.20763360821971"><ele>587.0</ele><time>2026-03-22T13:28:24.001Z</time></trkpt><trkpt lat="38.099243052261535" lon="13.207820138160136"><ele>587.0</ele><time>2026-03-22T13:28:25.002Z</time></trkpt><trkpt lat="38.09936073718459" lon="13.20801633146866"><ele>587.0</ele><time>2026-03-22T13:28:26.002Z</time></trkpt><trkpt lat="38.09946812479588" lon="13.208213142392244"><ele>587.0</ele><time>2026-03-22T13:28:27.002Z</time></trkpt><trkpt lat="38.0995677279721" lon="13.208389192988042"><ele>590.5</ele><time>2026-03-22T13:28:28.002Z</time></trkpt><trkpt lat="38.09965405038682" lon="13.208551219543217"><ele>594.0</ele><time>2026-03-22T13:28:29.002Z</time></trkpt><trkpt lat="38.09971044174763" lon="13.208701284355525"><ele>597.5</ele><time>2026-03-22T13:28:30.002Z</time></trkpt><trkpt lat="38.09973849850721" lon="13.208856413848842"><ele>601.0</ele><time>2026-03-22T13:28:31.002Z</time></trkpt><trkpt lat="38.09971014788849" lon="13.209010619901276"><ele>602.25</ele><time>2026-03-22T13:28:32.002Z</time></trkpt><trkpt lat="38.099663648883414" lon="13.209153032292255"><ele>603.5</ele><time>2026-03-22T13:28:33.002Z</time></trkpt><trkpt lat="38.09960489229124" lon="13.209302981780258"><ele>604.75</ele><time>2026-03-22T13:28:34.002Z</time></trkpt><trkpt lat="38.099536735186646" lon="13.209464166932438"><ele>606.0</ele><time>2026-03-22T13:28:35.002Z</time></trkpt><trkpt lat="38.09947599435526" lon="13.209629535361858"><ele>606.0</ele><time>2026-03-22T13:28:36.002Z</time></trkpt><trkpt lat="38.09945542208799" lon="13.209790589491428"><ele>606.0</ele><time>2026-03-22T13:28:37.002Z</time></trkpt><trkpt lat="38.099508989550785" lon="13.209954086897751"><ele>606.0</ele><time>2026-03-22T13:28:38.002Z</time></trkpt><trkpt lat="38.09956331627439" lon="13.210100543046098"><ele>606.0</ele><time>2026-03-22T13:28:39.002Z</time></trkpt><trkpt lat="38.09964641622216" lon="13.210239456700494"><ele>606.6666666666666</ele><time>2026-03-22T13:28:40.002Z</time></trkpt><trkpt lat="38.09975667218886" lon="13.210366294953522"><ele>607.3333333333333</ele><time>2026-03-22T13:28:41.002Z</time></trkpt><trkpt lat="38.09989284695535" lon="13.210485197023914"><ele>608.0</ele><time>2026-03-22T13:28:42.002Z</time></trkpt><trkpt lat="38.100038724051124" lon="13.21060361164793"><ele>607.6666666666666</ele><time>2026-03-22T13:28:43.002Z</time></trkpt><trkpt lat="38.10015370840552" lon="13.210734090673329"><ele>607.3333333333334</ele><time>2026-03-22T13:28:44.002Z</time></trkpt><trkpt lat="38.100239930848474" lon="13.21089346084175"><ele>607.0</ele><time>2026-03-22T13:28:45.002Z</time></trkpt><trkpt lat="38.10030955067142" lon="13.211066795939896"><ele>607.0</ele><time>2026-03-22T13:28:46.002Z</time></trkpt><trkpt lat="38.10035729786007" lon="13.211254197492607"><ele>607.0</ele><time>2026-03-22T13:28:47.002Z</time></trkpt><trkpt lat="38.10037109059757" lon="13.211465557058057"><ele>607.0</ele><time>2026-03-22T13:28:48.002Z</time></trkpt><trkpt lat="38.100371689547075" lon="13.21166880765426"><ele>611.6666666666667</ele><time>2026-03-22T13:28:49.002Z</time></trkpt><trkpt lat="38.10036258930646" lon="13.211909190787301"><ele>616.3333333333334</ele><time>2026-03-22T13:28:50.002Z</time></trkpt><trkpt lat="38.10036888407904" lon="13.212152655096904"><ele>621.0</ele><time>2026-03-22T13:28:51.002Z</time></trkpt><trkpt lat="38.10035229455532" lon="13.212411145719189"><ele>623.3333333333334</ele><time>2026-03-22T13:28:52.002Z</time></trkpt><trkpt lat="38.100347095949296" lon="13.212625716379513"><ele>625.6666666666667</ele><time>2026-03-22T13:28:53.002Z</time></trkpt><trkpt lat="38.10032780323288" lon="13.21287665846339"><ele>628.0</ele><time>2026-03-22T13:28:54.002Z</time></trkpt><trkpt lat="38.10031417342858" lon="13.213098353236514"><ele>628.0</ele><time>2026-03-22T13:28:55.002Z</time></trkpt><trkpt lat="38.100269670342485" lon="13.213293258783462"><ele>628.0</ele><time>2026-03-22T13:28:56.002Z</time></trkpt><trkpt lat="38.100203779480076" lon="13.213485866158088"><ele>628.0</ele><time>2026-03-22T13:28:57.002Z</time></trkpt><trkpt lat="38.10015704230821" lon="13.213685856616864"><ele>628.0</ele><time>2026-03-22T13:28:58.002Z</time></trkpt><trkpt lat="38.10012182209417" lon="13.213892136599986"><ele>628.0</ele><time>2026-03-22T13:28:59.002Z</time></trkpt><trkpt lat="38.10011693847485" lon="13.214118094357794"><ele>628.0</ele><time>2026-03-22T13:29:00.002Z</time></trkpt><trkpt lat="38.100106114407254" lon="13.214343781068575"><ele>626.0</ele><time>2026-03-22T13:29:01.002Z</time></trkpt><trkpt lat="38.10010025914291" lon="13.214571485352767"><ele>624.0</ele><time>2026-03-22T13:29:02.002Z</time></trkpt><trkpt lat="38.10009149661073" lon="13.214813071649557"><ele>622.0</ele><time>2026-03-22T13:29:03.002Z</time></trkpt><trkpt lat="38.100077680259965" lon="13.2150429750846"><ele>619.6666666666667</ele><time>2026-03-22T13:29:04.002Z</time></trkpt><trkpt lat="38.10007598944175" lon="13.215275173721142"><ele>617.3333333333334</ele><time>2026-03-22T13:29:05.002Z</time></trkpt><trkpt lat="38.10010814720445" lon="13.21553735275859"><ele>615.0</ele><time>2026-03-22T13:29:06.002Z</time></trkpt><trkpt lat="38.10012510382067" lon="13.215761292437325"><ele>613.6666666666666</ele><time>2026-03-22T13:29:07.002Z</time></trkpt><trkpt lat="38.100151111983784" lon="13.215994764129857"><ele>612.3333333333333</ele><time>2026-03-22T13:29:08.002Z</time></trkpt><trkpt lat="38.10018315626557" lon="13.216235027135658"><ele>611.0</ele><time>2026-03-22T13:29:09.002Z</time></trkpt><trkpt lat="38.100209566389736" lon="13.216459567621873"><ele>611.3333333333333</ele><time>2026-03-22T13:29:10.002Z</time></trkpt><trkpt lat="38.100242069517606" lon="13.216691169279933"><ele>611.6666666666666</ele><time>2026-03-22T13:29:11.002Z</time></trkpt><trkpt lat="38.10027631792993" lon="13.216910579903729"><ele>612.0</ele><time>2026-03-22T13:29:12.003Z</time></trkpt><trkpt lat="38.100329281436935" lon="13.21713261503294"><ele>612.0</ele><time>2026-03-22T13:29:13.003Z</time></trkpt><trkpt lat="38.10036744108047" lon="13.217350750794703"><ele>612.0</ele><time>2026-03-22T13:29:14.003Z</time></trkpt><trkpt lat="38.100427502021056" lon="13.217577260496652"><ele>612.0</ele><time>2026-03-22T13:29:15.003Z</time></trkpt><trkpt lat="38.100491788910254" lon="13.217785109479083"><ele>612.0</ele><time>2026-03-22T13:29:16.003Z</time></trkpt><trkpt lat="38.10055592199143" lon="13.217997240390794"><ele>612.0</ele><time>2026-03-22T13:29:17.003Z</time></trkpt><trkpt lat="38.10063286914883" lon="13.218208727863585"><ele>612.0</ele><time>2026-03-22T13:29:18.003Z</time></trkpt><trkpt lat="38.1006805173757" lon="13.218422162764712"><ele>613.0</ele><time>2026-03-22T13:29:19.003Z</time></trkpt><trkpt lat="38.100714000141615" lon="13.218629517375252"><ele>614.0</ele><time>2026-03-22T13:29:20Z</time></trkpt><trkpt lat="38.1007357357401" lon="13.218836032970803"><ele>615.0</ele><time>2026-03-22T13:29:21Z</time></trkpt><trkpt lat="38.100755821269786" lon="13.219054352648849"><ele>611.6666666666666</ele><time>2026-03-22T13:29:22Z</time></trkpt><trkpt lat="38.100779603862726" lon="13.21928264456542"><ele>608.3333333333333</ele><time>2026-03-22T13:29:23Z</time></trkpt><trkpt lat="38.10080093402859" lon="13.219506498251885"><ele>605.0</ele><time>2026-03-22T13:29:24Z</time></trkpt><trkpt lat="38.10082448309116" lon="13.21973856928714"><ele>604.6666666666666</ele><time>2026-03-22T13:29:25Z</time></trkpt><trkpt lat="38.10085028887963" lon="13.21997816616492"><ele>604.3333333333334</ele><time>2026-03-22T13:29:26Z</time></trkpt><trkpt lat="38.10087153745771" lon="13.220202153160418"><ele>604.0</ele><time>2026-03-22T13:29:27Z</time></trkpt><trkpt lat="38.100894230282236" lon="13.220436810380377"><ele>603.3333333333334</ele><time>2026-03-22T13:29:28Z</time></trkpt><trkpt lat="38.10091656160636" lon="13.220656887354414"><ele>602.6666666666666</ele><time>2026-03-22T13:29:29Z</time></trkpt><trkpt lat="38.10094170607884" lon="13.220876981792285"><ele>602.0</ele><time>2026-03-22T13:29:30Z</time></trkpt><trkpt lat="38.100964525032445" lon="13.221096504343517"><ele>602.0</ele><time>2026-03-22T13:29:31Z</time></trkpt><trkpt lat="38.10098469509939" lon="13.221315404853613"><ele>602.0</ele><time>2026-03-22T13:29:32Z</time></trkpt><trkpt lat="38.100997341689705" lon="13.221531843999747"><ele>602.0</ele><time>2026-03-22T13:29:33Z</time></trkpt><trkpt lat="38.100994637822716" lon="13.221756404757281"><ele>602.3333333333333</ele><time>2026-03-22T13:29:34Z</time></trkpt><trkpt lat="38.10098767178123" lon="13.22196628684776"><ele>602.6666666666666</ele><time>2026-03-22T13:29:35Z</time></trkpt><trkpt lat="38.1009776500561" lon="13.222195651916767"><ele>603.0</ele><time>2026-03-22T13:29:36Z</time></trkpt><trkpt lat="38.10096682429713" lon="13.222431112668152"><ele>602.0</ele><time>2026-03-22T13:29:37Z</time></trkpt><trkpt lat="38.100958525409744" lon="13.222650787072102"><ele>601.0</ele><time>2026-03-22T13:29:38Z</time></trkpt><trkpt lat="38.100951048216864" lon="13.222874630566244"><ele>600.0</ele><time>2026-03-22T13:29:39Z</time></trkpt><trkpt lat="38.10094240736242" lon="13.223110065608008"><ele>599.3333333333334</ele><time>2026-03-22T13:29:40Z</time></trkpt><trkpt lat="38.10093396698412" lon="13.223336028409712"><ele>598.6666666666667</ele><time>2026-03-22T13:29:41Z</time></trkpt><trkpt lat="38.10092548439297" lon="13.223563121397778"><ele>598.0</ele><time>2026-03-22T13:29:42Z</time></trkpt><trkpt lat="38.10091455912028" lon="13.223788603904381"><ele>597.6666666666667</ele><time>2026-03-22T13:29:43Z</time></trkpt><trkpt lat="38.10090330598612" lon="13.224012932151982"><ele>597.3333333333334</ele><time>2026-03-22T13:29:44Z</time></trkpt><trkpt lat="38.10089203427889" lon="13.224237630662596"><ele>597.0</ele><time>2026-03-22T13:29:45Z</time></trkpt><trkpt lat="38.100881060686596" lon="13.224456386295422"><ele>597.0</ele><time>2026-03-22T13:29:46Z</time></trkpt><trkpt lat="38.10087013116464" lon="13.22468004367448"><ele>597.0</ele><time>2026-03-22T13:29:47Z</time></trkpt><trkpt lat="38.10085903722589" lon="13.224910402518526"><ele>597.0</ele><time>2026-03-22T13:29:48Z</time></trkpt><trkpt lat="38.10085198500342" lon="13.225143567987303"><ele>596.3333333333334</ele><time>2026-03-22T13:29:49Z</time></trkpt><trkpt lat="38.10085811726623" lon="13.225370013043603"><ele>595.6666666666667</ele><time>2026-03-22T13:29:50Z</time></trkpt><trkpt lat="38.10089698010756" lon="13.225585999693559"><ele>595.0</ele><time>2026-03-22T13:29:51Z</time></trkpt><trkpt lat="38.100936958213524" lon="13.225808263638223"><ele>595.0</ele><time>2026-03-22T13:29:52Z</time></trkpt><trkpt lat="38.10098838458576" lon="13.226012403374078"><ele>595.0</ele><time>2026-03-22T13:29:53Z</time></trkpt><trkpt lat="38.10102985133259" lon="13.22623611010295"><ele>595.0</ele><time>2026-03-22T13:29:54.001Z</time></trkpt><trkpt lat="38.10102673464038" lon="13.226442307448101"><ele>595.75</ele><time>2026-03-22T13:29:55.001Z</time></trkpt><trkpt lat="38.101026734642375" lon="13.226644848292391"><ele>596.5</ele><time>2026-03-22T13:29:56.001Z</time></trkpt><trkpt lat="38.10100703885235" lon="13.226831093074178"><ele>597.25</ele><time>2026-03-22T13:29:57.001Z</time></trkpt><trkpt lat="38.10098521157842" lon="13.226987212305549"><ele>598.0</ele><time>2026-03-22T13:29:58.001Z</time></trkpt><trkpt lat="38.100908590444675" lon="13.227119580954328"><ele>598.0</ele><time>2026-03-22T13:29:59.001Z</time></trkpt><trkpt lat="38.10086363189188" lon="13.227290637748618"><ele>598.0</ele><time>2026-03-22T13:30:00.001Z</time></trkpt><trkpt lat="38.100858566420705" lon="13.22748959367139"><ele>598.0</ele><time>2026-03-22T13:30:01.001Z</time></trkpt><trkpt lat="38.10088520389575" lon="13.227670028663445"><ele>598.0</ele><time>2026-03-22T13:30:02.001Z</time></trkpt><trkpt lat="38.10092530399049" lon="13.227848937531608"><ele>597.75</ele><time>2026-03-22T13:30:03.001Z</time></trkpt><trkpt lat="38.10097902386477" lon="13.22800642774066"><ele>597.5</ele><time>2026-03-22T13:30:04.001Z</time></trkpt><trkpt lat="38.10105073044591" lon="13.228129721268855"><ele>597.25</ele><time>2026-03-22T13:30:05.001Z</time></trkpt><trkpt lat="38.10114144358975" lon="13.228217989308446"><ele>597.0</ele><time>2026-03-22T13:30:06.001Z</time></trkpt><trkpt lat="38.101215545344395" lon="13.22830810617695"><ele>597.5</ele><time>2026-03-22T13:30:07.001Z</time></trkpt><trkpt lat="38.101260087887844" lon="13.228428345203147"><ele>598.0</ele><time>2026-03-22T13:30:08.001Z</time></trkpt><trkpt lat="38.10125162733008" lon="13.228572477317051"><ele>598.5</ele><time>2026-03-22T13:30:09.001Z</time></trkpt><trkpt lat="38.10125290383498" lon="13.22871955915784"><ele>599.0</ele><time>2026-03-22T13:30:10.001Z</time></trkpt><trkpt lat="38.10124012446277" lon="13.22887037275822"><ele>598.5</ele><time>2026-03-22T13:30:11.001Z</time></trkpt><trkpt lat="38.10121560243021" lon="13.22902718456544"><ele>598.0</ele><time>2026-03-22T13:30:12.001Z</time></trkpt><trkpt lat="38.10116104648343" lon="13.229170990870944"><ele>597.5</ele><time>2026-03-22T13:30:13.001Z</time></trkpt><trkpt lat="38.101095681206886" lon="13.229329008724827"><ele>597.0</ele><time>2026-03-22T13:30:14.001Z</time></trkpt><trkpt lat="38.1010208554858" lon="13.229497269319344"><ele>597.0</ele><time>2026-03-22T13:30:15.001Z</time></trkpt><trkpt lat="38.10094263612652" lon="13.229675115406977"><ele>597.0</ele><time>2026-03-22T13:30:16.001Z</time></trkpt><trkpt lat="38.10086666041472" lon="13.22985884295818"><ele>597.0</ele><time>2026-03-22T13:30:17.001Z</time></trkpt><trkpt lat="38.10082683015868" lon="13.230041404264703"><ele>595.25</ele><time>2026-03-22T13:30:18.001Z</time></trkpt><trkpt lat="38.10080407288389" lon="13.23019960685249"><ele>593.5</ele><time>2026-03-22T13:30:19.001Z</time></trkpt><trkpt lat="38.100812503213106" lon="13.23035162115019"><ele>591.75</ele><time>2026-03-22T13:30:20.001Z</time></trkpt><trkpt lat="38.100857135875856" lon="13.230495443553215"><ele>590.0</ele><time>2026-03-22T13:30:21.001Z</time></trkpt><trkpt lat="38.10093534735712" lon="13.23061716519641"><ele>590.0</ele><time>2026-03-22T13:30:22.001Z</time></trkpt><trkpt lat="38.10103806796251" lon="13.230730185342633"><ele>590.0</ele><time>2026-03-22T13:30:23.001Z</time></trkpt><trkpt lat="38.101152101319016" lon="13.230829869492728"><ele>590.0</ele><time>2026-03-22T13:30:24.001Z</time></trkpt><trkpt lat="38.101277973975755" lon="13.230917914041441"><ele>590.0</ele><time>2026-03-22T13:30:25.001Z</time></trkpt><trkpt lat="38.10141069511556" lon="13.23101419169975"><ele>590.0</ele><time>2026-03-22T13:30:26.001Z</time></trkpt><trkpt lat="38.10154205490917" lon="13.231108693060655"><ele>590.0</ele><time>2026-03-22T13:30:27.001Z</time></trkpt><trkpt lat="38.10166876140414" lon="13.231220238546575"><ele>590.0</ele><time>2026-03-22T13:30:28.001Z</time></trkpt><trkpt lat="38.10178350971134" lon="13.231358474050282"><ele>590.5</ele><time>2026-03-22T13:30:29.001Z</time></trkpt><trkpt lat="38.101878126569304" lon="13.231508994534735"><ele>591.0</ele><time>2026-03-22T13:30:30.001Z</time></trkpt><trkpt lat="38.10196493976809" lon="13.231670842973568"><ele>591.5</ele><time>2026-03-22T13:30:31.001Z</time></trkpt><trkpt lat="38.10204660785266" lon="13.231791176888166"><ele>592.0</ele><time>2026-03-22T13:30:32.001Z</time></trkpt><trkpt lat="38.102147596549024" lon="13.231889448368856"><ele>592.0</ele><time>2026-03-22T13:30:33.001Z</time></trkpt><trkpt lat="38.102274311964315" lon="13.231970190661286"><ele>592.0</ele><time>2026-03-22T13:30:34.001Z</time></trkpt><trkpt lat="38.10239494260229" lon="13.232014691062513"><ele>592.0</ele><time>2026-03-22T13:30:35.001Z</time></trkpt><trkpt lat="38.10251008195959" lon="13.23203005654889"><ele>592.0</ele><time>2026-03-22T13:30:36.001Z</time></trkpt><trkpt lat="38.10262208933366" lon="13.232016076364783"><ele>589.75</ele><time>2026-03-22T13:30:37.001Z</time></trkpt><trkpt lat="38.1027366635283" lon="13.231983855318534"><ele>587.5</ele><time>2026-03-22T13:30:38.001Z</time></trkpt><trkpt lat="38.102850460601395" lon="13.231954886199542"><ele>585.25</ele><time>2026-03-22T13:30:39.001Z</time></trkpt><trkpt lat="38.10296767729022" lon="13.231953145739155"><ele>583.0</ele><time>2026-03-22T13:30:40.001Z</time></trkpt><trkpt lat="38.10308641677356" lon="13.231959629128104"><ele>583.0</ele><time>2026-03-22T13:30:41.001Z</time></trkpt><trkpt lat="38.1032006853258" lon="13.231961631314357"><ele>583.0</ele><time>2026-03-22T13:30:42.001Z</time></trkpt><trkpt lat="38.10329994974773" lon="13.231962626600966"><ele>583.0</ele><time>2026-03-22T13:30:43.001Z</time></trkpt><trkpt lat="38.10337933519852" lon="13.231979264592864"><ele>583.0</ele><time>2026-03-22T13:30:44.001Z</time></trkpt><trkpt lat="38.10345554951163" lon="13.231980359743943"><ele>583.0</ele><time>2026-03-22T13:30:45.002Z</time></trkpt><trkpt lat="38.10354446147203" lon="13.231985909304596"><ele>582.75</ele><time>2026-03-22T13:30:46.002Z</time></trkpt><trkpt lat="38.10364840333132" lon="13.232010175220244"><ele>582.5</ele><time>2026-03-22T13:30:47.002Z</time></trkpt><trkpt lat="38.103748611685596" lon="13.2320911348241"><ele>582.25</ele><time>2026-03-22T13:30:48.002Z</time></trkpt><trkpt lat="38.10383369344578" lon="13.23219413633046"><ele>582.0</ele><time>2026-03-22T13:30:49.002Z</time></trkpt><trkpt lat="38.103891644245365" lon="13.232315186226929"><ele>584.25</ele><time>2026-03-22T13:30:50.002Z</time></trkpt><trkpt lat="38.103929407897915" lon="13.232453293497148"><ele>586.5</ele><time>2026-03-22T13:30:51.002Z</time></trkpt><trkpt lat="38.103956473474526" lon="13.232600966563417"><ele>588.75</ele><time>2026-03-22T13:30:52.002Z</time></trkpt><trkpt lat="38.103988920435846" lon="13.232745699435972"><ele>591.0</ele><time>2026-03-22T13:30:53.002Z</time></trkpt><trkpt lat="38.10403052567619" lon="13.232888944687556"><ele>591.0</ele><time>2026-03-22T13:30:54.002Z</time></trkpt><trkpt lat="38.10407394069968" lon="13.23303504281159"><ele>591.0</ele><time>2026-03-22T13:30:55.002Z</time></trkpt><trkpt lat="38.10412707278705" lon="13.233174057676392"><ele>591.0</ele><time>2026-03-22T13:30:56.002Z</time></trkpt><trkpt lat="38.10420686379822" lon="13.233287534532996"><ele>591.0</ele><time>2026-03-22T13:30:57.002Z</time></trkpt><trkpt lat="38.10431415378826" lon="13.2333902634377"><ele>589.75</ele><time>2026-03-22T13:30:58.002Z</time></trkpt><trkpt lat="38.10443650523825" lon="13.233465346308678"><ele>588.5</ele><time>2026-03-22T13:30:59.002Z</time></trkpt><trkpt lat="38.104560986755615" lon="13.233530436351359"><ele>587.25</ele><time>2026-03-22T13:31:00.002Z</time></trkpt><trkpt lat="38.10469098728065" lon="13.23360286551155"><ele>586.0</ele><time>2026-03-22T13:31:01.002Z</time></trkpt><trkpt lat="38.104821759740645" lon="13.233677455324386"><ele>583.75</ele><time>2026-03-22T13:31:02.002Z</time></trkpt><trkpt lat="38.10495784135235" lon="13.233754051903151"><ele>581.5</ele><time>2026-03-22T13:31:03.002Z</time></trkpt><trkpt lat="38.10509198514446" lon="13.233828791948147"><ele>579.25</ele><time>2026-03-22T13:31:04.002Z</time></trkpt><trkpt lat="38.105232461062364" lon="13.233890013597087"><ele>577.0</ele><time>2026-03-22T13:31:05.002Z</time></trkpt><trkpt lat="38.10538065500795" lon="13.233932301111782"><ele>577.0</ele><time>2026-03-22T13:31:06.002Z</time></trkpt><trkpt lat="38.10552817316711" lon="13.233942073709834"><ele>577.0</ele><time>2026-03-22T13:31:07.002Z</time></trkpt><trkpt lat="38.105675709964935" lon="13.233971018973325"><ele>577.0</ele><time>2026-03-22T13:31:08.002Z</time></trkpt><trkpt lat="38.105823194562" lon="13.233990068607941"><ele>577.0</ele><time>2026-03-22T13:31:09.002Z</time></trkpt><trkpt lat="38.10596019331458" lon="13.234012749054207"><ele>579.0</ele><time>2026-03-22T13:31:10.002Z</time></trkpt><trkpt lat="38.106093048953014" lon="13.234027447935272"><ele>581.0</ele><time>2026-03-22T13:31:11.002Z</time></trkpt><trkpt lat="38.10622362903926" lon="13.234070559583015"><ele>583.0</ele><time>2026-03-22T13:31:12.002Z</time></trkpt><trkpt lat="38.106320194546015" lon="13.234126514861652"><ele>585.0</ele><time>2026-03-22T13:31:13.002Z</time></trkpt><trkpt lat="38.10644366914957" lon="13.234223043509243"><ele>585.0</ele><time>2026-03-22T13:31:14.002Z</time></trkpt><trkpt lat="38.10656628804415" lon="13.234311132318162"><ele>585.0</ele><time>2026-03-22T13:31:15.002Z</time></trkpt><trkpt lat="38.10667162321306" lon="13.23444184142376"><ele>585.0</ele><time>2026-03-22T13:31:16.002Z</time></trkpt><trkpt lat="38.1067894489258" lon="13.234568797199827"><ele>585.0</ele><time>2026-03-22T13:31:17.002Z</time></trkpt><trkpt lat="38.106910867441954" lon="13.234694984490275"><ele>586.3333333333334</ele><time>2026-03-22T13:31:18.002Z</time></trkpt><trkpt lat="38.107032717720735" lon="13.234819789561703"><ele>587.6666666666667</ele><time>2026-03-22T13:31:19.002Z</time></trkpt><trkpt lat="38.10715339585522" lon="13.234951065033158"><ele>589.0</ele><time>2026-03-22T13:31:20.002Z</time></trkpt><trkpt lat="38.10726534832241" lon="13.235095336653032"><ele>589.0</ele><time>2026-03-22T13:31:21.002Z</time></trkpt><trkpt lat="38.107371640652566" lon="13.23524273897859"><ele>589.0</ele><time>2026-03-22T13:31:22.002Z</time></trkpt><trkpt lat="38.10748814829525" lon="13.235370882760487"><ele>589.0</ele><time>2026-03-22T13:31:23.002Z</time></trkpt><trkpt lat="38.10761600145855" lon="13.235487622648872"><ele>588.3333333333334</ele><time>2026-03-22T13:31:24.002Z</time></trkpt><trkpt lat="38.10776656234669" lon="13.23558512154775"><ele>587.6666666666666</ele><time>2026-03-22T13:31:25.002Z</time></trkpt><trkpt lat="38.10787971934548" lon="13.23567171574316"><ele>587.0</ele><time>2026-03-22T13:31:26Z</time></trkpt><trkpt lat="38.108020946901156" lon="13.235750758954158"><ele>587.0</ele><time>2026-03-22T13:31:27Z</time></trkpt><trkpt lat="38.108163824069344" lon="13.235819755085918"><ele>587.0</ele><time>2026-03-22T13:31:28Z</time></trkpt><trkpt lat="38.10830713274297" lon="13.23589691264034"><ele>587.0</ele><time>2026-03-22T13:31:29Z</time></trkpt><trkpt lat="38.10844977231309" lon="13.235969380436195"><ele>585.0</ele><time>2026-03-22T13:31:30Z</time></trkpt><trkpt lat="38.1085810498771" lon="13.236051128608372"><ele>583.0</ele><time>2026-03-22T13:31:31Z</time></trkpt><trkpt lat="38.10871351500379" lon="13.23615697357015"><ele>581.0</ele><time>2026-03-22T13:31:32Z</time></trkpt><trkpt lat="38.10884329036705" lon="13.236265801687711"><ele>581.0</ele><time>2026-03-22T13:31:33Z</time></trkpt><trkpt lat="38.10897348158569" lon="13.23638942289024"><ele>581.0</ele><time>2026-03-22T13:31:34Z</time></trkpt><trkpt lat="38.10909582084011" lon="13.236505832303873"><ele>581.0</ele><time>2026-03-22T13:31:35Z</time></trkpt><trkpt lat="38.10922426783542" lon="13.236620364997496"><ele>581.0</ele><time>2026-03-22T13:31:36Z</time></trkpt><trkpt lat="38.109348043557894" lon="13.236727234089209"><ele>581.0</ele><time>2026-03-22T13:31:37Z</time></trkpt><trkpt lat="38.10945856742915" lon="13.236833401353516"><ele>581.0</ele><time>2026-03-22T13:31:38Z</time></trkpt><trkpt lat="38.10955165521508" lon="13.236944921822602"><ele>581.0</ele><time>2026-03-22T13:31:39Z</time></trkpt><trkpt lat="38.10963367707859" lon="13.237074983136488"><ele>581.0</ele><time>2026-03-22T13:31:40Z</time></trkpt><trkpt lat="38.1096939794206" lon="13.237229445815585"><ele>581.0</ele><time>2026-03-22T13:31:41Z</time></trkpt><trkpt lat="38.109743248056596" lon="13.237399269010787"><ele>581.0</ele><time>2026-03-22T13:31:42Z</time></trkpt><trkpt lat="38.109793500977574" lon="13.237574772424994"><ele>581.0</ele><time>2026-03-22T13:31:43Z</time></trkpt><trkpt lat="38.10985047866174" lon="13.237736821173604"><ele>581.5</ele><time>2026-03-22T13:31:44Z</time></trkpt><trkpt lat="38.10992414319519" lon="13.237897607276183"><ele>582.0</ele><time>2026-03-22T13:31:45Z</time></trkpt><trkpt lat="38.11001129772393" lon="13.238022118408711"><ele>582.5</ele><time>2026-03-22T13:31:46Z</time></trkpt><trkpt lat="38.11012071008903" lon="13.238123421617384"><ele>583.0</ele><time>2026-03-22T13:31:47Z</time></trkpt><trkpt lat="38.11024439391086" lon="13.23819983753051"><ele>583.0</ele><time>2026-03-22T13:31:48Z</time></trkpt><trkpt lat="38.11038487373696" lon="13.238257289302709"><ele>583.0</ele><time>2026-03-22T13:31:49Z</time></trkpt><trkpt lat="38.110529500223414" lon="13.238308156276283"><ele>583.0</ele><time>2026-03-22T13:31:50Z</time></trkpt><trkpt lat="38.11067658660283" lon="13.238361682015464"><ele>582.3333333333334</ele><time>2026-03-22T13:31:51Z</time></trkpt><trkpt lat="38.110832770316875" lon="13.238418851761447"><ele>581.6666666666666</ele><time>2026-03-22T13:31:52Z</time></trkpt><trkpt lat="38.110985176642004" lon="13.238481027930428"><ele>581.0</ele><time>2026-03-22T13:31:53Z</time></trkpt><trkpt lat="38.11113444855137" lon="13.238546247579363"><ele>581.0</ele><time>2026-03-22T13:31:54Z</time></trkpt><trkpt lat="38.11128440152925" lon="13.238620946285824"><ele>581.0</ele><time>2026-03-22T13:31:55Z</time></trkpt><trkpt lat="38.11142773854959" lon="13.238694871048923"><ele>581.0</ele><time>2026-03-22T13:31:56Z</time></trkpt><trkpt lat="38.111586065473325" lon="13.23877376601843"><ele>579.0</ele><time>2026-03-22T13:31:57Z</time></trkpt><trkpt lat="38.1117130922268" lon="13.238823869167764"><ele>577.0</ele><time>2026-03-22T13:31:58Z</time></trkpt><trkpt lat="38.1118274748069" lon="13.23889805778035"><ele>575.0</ele><time>2026-03-22T13:31:59Z</time></trkpt><trkpt lat="38.111932538642925" lon="13.238955185051092"><ele>573.0</ele><time>2026-03-22T13:32:00Z</time></trkpt><trkpt lat="38.11202589715517" lon="13.239000755962593"><ele>573.8333333333334</ele><time>2026-03-22T13:32:01Z</time></trkpt><trkpt lat="38.11211569441044" lon="13.239035487849906"><ele>574.6666666666666</ele><time>2026-03-22T13:32:02Z</time></trkpt><trkpt lat="38.11218979509336" lon="13.239066837794761"><ele>575.5</ele><time>2026-03-22T13:32:03.001Z</time></trkpt><trkpt lat="38.11224445085208" lon="13.239109146896036"><ele>576.3333333333333</ele><time>2026-03-22T13:32:04.001Z</time></trkpt><trkpt lat="38.112309007582624" lon="13.239146926376193"><ele>577.1666666666666</ele><time>2026-03-22T13:32:06.001Z</time></trkpt><trkpt lat="38.11238711673444" lon="13.239197782384672"><ele>578.0</ele><time>2026-03-22T13:32:23.001Z</time></trkpt><trkpt lat="38.11243796814499" lon="13.23925434533743"><ele>578.0</ele><time>2026-03-22T13:32:24.001Z</time></trkpt><trkpt lat="38.11249687515533" lon="13.239341493585089"><ele>578.0</ele><time>2026-03-22T13:32:25.001Z</time></trkpt><trkpt lat="38.11254044526586" lon="13.23944196618083"><ele>578.0</ele><time>2026-03-22T13:32:26.001Z</time></trkpt><trkpt lat="38.112572775744034" lon="13.239569484128024"><ele>578.0</ele><time>2026-03-22T13:32:27.001Z</time></trkpt><trkpt lat="38.11259772170979" lon="13.239708228537525"><ele>578.0</ele><time>2026-03-22T13:32:28.001Z</time></trkpt><trkpt lat="38.11262236511799" lon="13.239863404505595"><ele>582.0</ele><time>2026-03-22T13:32:29.001Z</time></trkpt><trkpt lat="38.11264593652103" lon="13.240011260778703"><ele>586.0</ele><time>2026-03-22T13:32:30.001Z</time></trkpt><trkpt lat="38.112668178221014" lon="13.240164273163854"><ele>590.0</ele><time>2026-03-22T13:32:31.001Z</time></trkpt><trkpt lat="38.112720860893766" lon="13.240327229050036"><ele>594.0</ele><time>2026-03-22T13:32:32.001Z</time></trkpt><trkpt lat="38.11280171179902" lon="13.240487618924528"><ele>601.6666666666666</ele><time>2026-03-22T13:32:33.001Z</time></trkpt><trkpt lat="38.112907101379" lon="13.240637509113954"><ele>609.3333333333333</ele><time>2026-03-22T13:32:34.001Z</time></trkpt><trkpt lat="38.11301550459787" lon="13.240784085985943"><ele>617.0</ele><time>2026-03-22T13:32:35.001Z</time></trkpt><trkpt lat="38.113126652652724" lon="13.240942693742332"><ele>603.0</ele><time>2026-03-22T13:32:36.001Z</time></trkpt><trkpt lat="38.113242728829945" lon="13.241104027512641"><ele>589.0</ele><time>2026-03-22T13:32:37.001Z</time></trkpt><trkpt lat="38.113363694248285" lon="13.241231910567327"><ele>575.0</ele><time>2026-03-22T13:32:38.001Z</time></trkpt><trkpt lat="38.11348138814832" lon="13.241364305461758"><ele>586.0</ele><time>2026-03-22T13:32:39.001Z</time></trkpt><trkpt lat="38.11360856502911" lon="13.241470837260236"><ele>597.0</ele><time>2026-03-22T13:32:40.001Z</time></trkpt><trkpt lat="38.11373805899291" lon="13.241546181819576"><ele>608.0</ele><time>2026-03-22T13:32:41.001Z</time></trkpt><trkpt lat="38.11392117863948" lon="13.241581276354268"><ele>601.0</ele><time>2026-03-22T13:32:42.001Z</time></trkpt><trkpt lat="38.11409322789723" lon="13.24163143354472"><ele>594.0</ele><time>2026-03-22T13:32:43.001Z</time></trkpt><trkpt lat="38.114290077241385" lon="13.241668546631749"><ele>587.0</ele><time>2026-03-22T13:32:44.001Z</time></trkpt><trkpt lat="38.11448691872052" lon="13.241707700031977"><ele>587.0</ele><time>2026-03-22T13:32:45.001Z</time></trkpt><trkpt lat="38.11465575260402" lon="13.2417493935357"><ele>587.0</ele><time>2026-03-22T13:32:46.001Z</time></trkpt><trkpt lat="38.11481347900448" lon="13.241804098999102"><ele>587.0</ele><time>2026-03-22T13:32:47.001Z</time></trkpt><trkpt lat="38.11493046236385" lon="13.24187126446202"><ele>581.3333333333333</ele><time>2026-03-22T13:32:48.001Z</time></trkpt><trkpt lat="38.115066007730434" lon="13.241975824776654"><ele>575.6666666666666</ele><time>2026-03-22T13:32:49.001Z</time></trkpt><trkpt lat="38.115218855266875" lon="13.242054904344107"><ele>570.0</ele><time>2026-03-22T13:32:50.001Z</time></trkpt><trkpt lat="38.115374096717645" lon="13.242109025343545"><ele>570.0</ele><time>2026-03-22T13:32:51.002Z</time></trkpt><trkpt lat="38.115530974535645" lon="13.242165964869907"><ele>570.0</ele><time>2026-03-22T13:32:52.002Z</time></trkpt><trkpt lat="38.11570252300048" lon="13.242209513482258"><ele>570.0</ele><time>2026-03-22T13:32:53.002Z</time></trkpt><trkpt lat="38.11588419570216" lon="13.242234828089991"><ele>565.0</ele><time>2026-03-22T13:32:54.002Z</time></trkpt><trkpt lat="38.11606631943136" lon="13.242239940218093"><ele>560.0</ele><time>2026-03-22T13:32:55.002Z</time></trkpt><trkpt lat="38.116225691963216" lon="13.242255633586527"><ele>555.0</ele><time>2026-03-22T13:32:56.002Z</time></trkpt><trkpt lat="38.116353842559064" lon="13.24226425659639"><ele>561.0</ele><time>2026-03-22T13:32:57.002Z</time></trkpt><trkpt lat="38.11646205679752" lon="13.242349584621518"><ele>567.0</ele><time>2026-03-22T13:32:58.002Z</time></trkpt><trkpt lat="38.1165619454135" lon="13.242453049956344"><ele>573.0</ele><time>2026-03-22T13:32:59.002Z</time></trkpt><trkpt lat="38.11666106349151" lon="13.24258246451534"><ele>579.0</ele><time>2026-03-22T13:33:00.002Z</time></trkpt><trkpt lat="38.11676742016724" lon="13.242739172396188"><ele>579.0</ele><time>2026-03-22T13:33:01.002Z</time></trkpt><trkpt lat="38.11688705065134" lon="13.24289073707937"><ele>579.0</ele><time>2026-03-22T13:33:02.002Z</time></trkpt><trkpt lat="38.11703606053121" lon="13.24303631880244"><ele>579.0</ele><time>2026-03-22T13:33:03.002Z</time></trkpt><trkpt lat="38.117206167346566" lon="13.24315324206793"><ele>583.6666666666666</ele><time>2026-03-22T13:33:04.002Z</time></trkpt><trkpt lat="38.11738036561767" lon="13.243245864521835"><ele>588.3333333333333</ele><time>2026-03-22T13:33:05.002Z</time></trkpt><trkpt lat="38.117540777262505" lon="13.243304810771601"><ele>593.0</ele><time>2026-03-22T13:33:06.002Z</time></trkpt><trkpt lat="38.11768738557063" lon="13.243346956359906"><ele>593.0</ele><time>2026-03-22T13:33:07.002Z</time></trkpt><trkpt lat="38.11782213308622" lon="13.243350449078134"><ele>593.0</ele><time>2026-03-22T13:33:08.002Z</time></trkpt><trkpt lat="38.11796952244248" lon="13.243300894826271"><ele>593.0</ele><time>2026-03-22T13:33:09.002Z</time></trkpt><trkpt lat="38.11810969307895" lon="13.24323151318116"><ele>593.0</ele><time>2026-03-22T13:33:10.002Z</time></trkpt><trkpt lat="38.11827857705093" lon="13.243108560383403"><ele>580.3333333333333</ele><time>2026-03-22T13:33:11.002Z</time></trkpt><trkpt lat="38.118437584791444" lon="13.242960984189128"><ele>567.6666666666666</ele><time>2026-03-22T13:33:12.002Z</time></trkpt><trkpt lat="38.11859558841522" lon="13.242800273217604"><ele>555.0</ele><time>2026-03-22T13:33:13.002Z</time></trkpt><trkpt lat="38.11873104459354" lon="13.242677156348503"><ele>555.0</ele><time>2026-03-22T13:33:14.002Z</time></trkpt><trkpt lat="38.11885719821861" lon="13.242609942863906"><ele>555.0</ele><time>2026-03-22T13:33:15.002Z</time></trkpt><trkpt lat="38.11898357230487" lon="13.242592880730076"><ele>555.0</ele><time>2026-03-22T13:33:16.002Z</time></trkpt><trkpt lat="38.119104733427875" lon="13.242581143874794"><ele>555.0</ele><time>2026-03-22T13:33:17.002Z</time></trkpt><trkpt lat="38.11924314354641" lon="13.242611018706963"><ele>558.5</ele><time>2026-03-22T13:33:18.002Z</time></trkpt><trkpt lat="38.11937766477477" lon="13.24267228338763"><ele>562.0</ele><time>2026-03-22T13:33:19.002Z</time></trkpt><trkpt lat="38.11949703406701" lon="13.242765061506462"><ele>565.5</ele><time>2026-03-22T13:33:20.002Z</time></trkpt><trkpt lat="38.11959705061325" lon="13.242904596865138"><ele>569.0</ele><time>2026-03-22T13:33:21.002Z</time></trkpt><trkpt lat="38.119695281534845" lon="13.243061371771011"><ele>571.0</ele><time>2026-03-22T13:33:22.002Z</time></trkpt><trkpt lat="38.119782950117454" lon="13.243233493476797"><ele>573.0</ele><time>2026-03-22T13:33:23.002Z</time></trkpt><trkpt lat="38.11987807056538" lon="13.243410471008463"><ele>575.0</ele><time>2026-03-22T13:33:24.002Z</time></trkpt><trkpt lat="38.11998263126894" lon="13.24358388545279"><ele>575.0</ele><time>2026-03-22T13:33:25.002Z</time></trkpt><trkpt lat="38.12009328945029" lon="13.243757914000504"><ele>575.0</ele><time>2026-03-22T13:33:26.002Z</time></trkpt><trkpt lat="38.120202931228576" lon="13.243947835418206"><ele>575.0</ele><time>2026-03-22T13:33:27.002Z</time></trkpt><trkpt lat="38.1203118020786" lon="13.244118635899648"><ele>585.0</ele><time>2026-03-22T13:33:28.002Z</time></trkpt><trkpt lat="38.12041950284269" lon="13.244296604787671"><ele>595.0</ele><time>2026-03-22T13:33:29.002Z</time></trkpt><trkpt lat="38.12052355999318" lon="13.24447418625366"><ele>605.0</ele><time>2026-03-22T13:33:30.002Z</time></trkpt><trkpt lat="38.12062578175591" lon="13.244636686282638"><ele>612.6666666666666</ele><time>2026-03-22T13:33:31.002Z</time></trkpt><trkpt lat="38.120714232960495" lon="13.244801446855467"><ele>620.3333333333334</ele><time>2026-03-22T13:33:32Z</time></trkpt><trkpt lat="38.120787550501184" lon="13.244998306932855"><ele>628.0</ele><time>2026-03-22T13:33:33Z</time></trkpt><trkpt lat="38.1208547544036" lon="13.2452147822139"><ele>621.0</ele><time>2026-03-22T13:33:34Z</time></trkpt><trkpt lat="38.12093028487282" lon="13.245413415989733"><ele>614.0</ele><time>2026-03-22T13:33:35Z</time></trkpt><trkpt lat="38.12100447251507" lon="13.24556959773933"><ele>607.0</ele><time>2026-03-22T13:33:36Z</time></trkpt><trkpt lat="38.12110878508948" lon="13.24568213453655"><ele>607.0</ele><time>2026-03-22T13:33:37Z</time></trkpt><trkpt lat="38.121239445532595" lon="13.24577726438572"><ele>607.0</ele><time>2026-03-22T13:33:38Z</time></trkpt><trkpt lat="38.12139592716377" lon="13.245853558479189"><ele>607.0</ele><time>2026-03-22T13:33:39Z</time></trkpt><trkpt lat="38.121556653247694" lon="13.245907894682956"><ele>597.6666666666667</ele><time>2026-03-22T13:33:40Z</time></trkpt><trkpt lat="38.1217193343696" lon="13.245959999133074"><ele>588.3333333333334</ele><time>2026-03-22T13:33:41Z</time></trkpt><trkpt lat="38.12188769289168" lon="13.24600933213989"><ele>579.0</ele><time>2026-03-22T13:33:42Z</time></trkpt><trkpt lat="38.122050939713766" lon="13.246062854693577"><ele>579.0</ele><time>2026-03-22T13:33:43Z</time></trkpt><trkpt lat="38.122212725620464" lon="13.246114139339284"><ele>579.0</ele><time>2026-03-22T13:33:44Z</time></trkpt><trkpt lat="38.12237700612205" lon="13.246166516360041"><ele>579.0</ele><time>2026-03-22T13:33:45Z</time></trkpt><trkpt lat="38.122535198201376" lon="13.2462363603649"><ele>574.0</ele><time>2026-03-22T13:33:46Z</time></trkpt><trkpt lat="38.12269616127141" lon="13.24628444005803"><ele>569.0</ele><time>2026-03-22T13:33:47Z</time></trkpt><trkpt lat="38.12285785154771" lon="13.24634397275425"><ele>564.0</ele><time>2026-03-22T13:33:48Z</time></trkpt><trkpt lat="38.123013294399904" lon="13.246413492745255"><ele>571.0</ele><time>2026-03-22T13:33:49Z</time></trkpt><trkpt lat="38.12317149004438" lon="13.246477074166316"><ele>578.0</ele><time>2026-03-22T13:33:50Z</time></trkpt><trkpt lat="38.123330769043015" lon="13.246547461662495"><ele>585.0</ele><time>2026-03-22T13:33:51Z</time></trkpt><trkpt lat="38.123481097803385" lon="13.246618877443716"><ele>585.0</ele><time>2026-03-22T13:33:52Z</time></trkpt><trkpt lat="38.12363807451607" lon="13.246701821893588"><ele>585.0</ele><time>2026-03-22T13:33:53Z</time></trkpt><trkpt lat="38.1238075212424" lon="13.246797038138773"><ele>585.0</ele><time>2026-03-22T13:33:54Z</time></trkpt><trkpt lat="38.12396943255146" lon="13.246878485921801"><ele>578.6666666666666</ele><time>2026-03-22T13:33:55Z</time></trkpt><trkpt lat="38.124134467555486" lon="13.24696555053936"><ele>572.3333333333333</ele><time>2026-03-22T13:33:56Z</time></trkpt><trkpt lat="38.124307467289846" lon="13.247047845993421"><ele>566.0</ele><time>2026-03-22T13:33:57Z</time></trkpt><trkpt lat="38.124468975617475" lon="13.247117861741161"><ele>566.0</ele><time>2026-03-22T13:33:58Z</time></trkpt><trkpt lat="38.124631258711574" lon="13.24716253587495"><ele>566.0</ele><time>2026-03-22T13:33:59Z</time></trkpt><trkpt lat="38.12480546109186" lon="13.24722114607848"><ele>566.0</ele><time>2026-03-22T13:34:00Z</time></trkpt><trkpt lat="38.12497024490402" lon="13.247270430157057"><ele>573.6666666666666</ele><time>2026-03-22T13:34:01Z</time></trkpt><trkpt lat="38.125129448980616" lon="13.247305988468753"><ele>581.3333333333334</ele><time>2026-03-22T13:34:02Z</time></trkpt><trkpt lat="38.125302209048606" lon="13.247340073110525"><ele>589.0</ele><time>2026-03-22T13:34:03Z</time></trkpt><trkpt lat="38.125474387605806" lon="13.247349214843883"><ele>589.0</ele><time>2026-03-22T13:34:04Z</time></trkpt><trkpt lat="38.12565241150067" lon="13.247359711212658"><ele>589.0</ele><time>2026-03-22T13:34:05Z</time></trkpt><trkpt lat="38.125820968132786" lon="13.247361343022092"><ele>589.0</ele><time>2026-03-22T13:34:06Z</time></trkpt><trkpt lat="38.125994220155455" lon="13.247360794145308"><ele>588.0</ele><time>2026-03-22T13:34:07Z</time></trkpt><trkpt lat="38.12617344928132" lon="13.247355069003133"><ele>587.0</ele><time>2026-03-22T13:34:08Z</time></trkpt><trkpt lat="38.126340873225395" lon="13.247347655778306"><ele>586.0</ele><time>2026-03-22T13:34:09Z</time></trkpt><trkpt lat="38.12651651664754" lon="13.247346761464724"><ele>583.6666666666667</ele><time>2026-03-22T13:34:10.001Z</time></trkpt><trkpt lat="38.12667887862676" lon="13.24734884695091"><ele>581.3333333333334</ele><time>2026-03-22T13:34:11.001Z</time></trkpt><trkpt lat="38.12684800545381" lon="13.247359542071628"><ele>579.0</ele><time>2026-03-22T13:34:12.001Z</time></trkpt><trkpt lat="38.127017220136686" lon="13.247377832737037"><ele>579.0</ele><time>2026-03-22T13:34:13.001Z</time></trkpt><trkpt lat="38.12716940047658" lon="13.247417631355441"><ele>579.0</ele><time>2026-03-22T13:34:14.001Z</time></trkpt><trkpt lat="38.127318161120854" lon="13.24749657841351"><ele>579.0</ele><time>2026-03-22T13:34:15.001Z</time></trkpt><trkpt lat="38.12748582653393" lon="13.247553215550072"><ele>573.0</ele><time>2026-03-22T13:34:16.001Z</time></trkpt><trkpt lat="38.12763318509457" lon="13.2476400646412"><ele>567.0</ele><time>2026-03-22T13:34:17.001Z</time></trkpt><trkpt lat="38.12779379266198" lon="13.247729452263929"><ele>561.0</ele><time>2026-03-22T13:34:18.001Z</time></trkpt><trkpt lat="38.12795135840153" lon="13.247829479048889"><ele>561.0</ele><time>2026-03-22T13:34:19.001Z</time></trkpt><trkpt lat="38.12809793541483" lon="13.247932897423533"><ele>561.0</ele><time>2026-03-22T13:34:20.001Z</time></trkpt><trkpt lat="38.1282415995287" lon="13.248047801191916"><ele>561.0</ele><time>2026-03-22T13:34:21.001Z</time></trkpt><trkpt lat="38.128382029190774" lon="13.24816332055661"><ele>566.6666666666666</ele><time>2026-03-22T13:34:22.001Z</time></trkpt><trkpt lat="38.128514970265336" lon="13.248301041312006"><ele>572.3333333333333</ele><time>2026-03-22T13:34:23.001Z</time></trkpt><trkpt lat="38.128644291162956" lon="13.248421253858307"><ele>578.0</ele><time>2026-03-22T13:34:24.001Z</time></trkpt><trkpt lat="38.128778151429216" lon="13.248535168781212"><ele>578.0</ele><time>2026-03-22T13:34:25.001Z</time></trkpt><trkpt lat="38.12888971598414" lon="13.248686780693077"><ele>578.0</ele><time>2026-03-22T13:34:26.001Z</time></trkpt><trkpt lat="38.12902131167295" lon="13.248854377247621"><ele>578.0</ele><time>2026-03-22T13:34:27.001Z</time></trkpt><trkpt lat="38.1291368645524" lon="13.24901674257603"><ele>576.3333333333333</ele><time>2026-03-22T13:34:28.001Z</time></trkpt><trkpt lat="38.12925202283989" lon="13.24919222852605"><ele>574.6666666666666</ele><time>2026-03-22T13:34:29.001Z</time></trkpt><trkpt lat="38.12936663993521" lon="13.249367519006443"><ele>573.0</ele><time>2026-03-22T13:34:30.001Z</time></trkpt><trkpt lat="38.129482555525676" lon="13.249532468148368"><ele>573.0</ele><time>2026-03-22T13:34:31.001Z</time></trkpt><trkpt lat="38.12959119203423" lon="13.249680725285522"><ele>573.0</ele><time>2026-03-22T13:34:32.001Z</time></trkpt><trkpt lat="38.12968190841419" lon="13.249830158673554"><ele>573.0</ele><time>2026-03-22T13:34:33.001Z</time></trkpt><trkpt lat="38.12975965170208" lon="13.24995982030026"><ele>573.0</ele><time>2026-03-22T13:34:34.001Z</time></trkpt><trkpt lat="38.129815330316475" lon="13.250019369507395"><ele>573.0</ele><time>2026-03-22T13:34:35.001Z</time></trkpt><trkpt lat="38.12988315641087" lon="13.25008687375016"><ele>573.0</ele><time>2026-03-22T13:34:37.001Z</time></trkpt><trkpt lat="38.12993606952233" lon="13.24985306143951"><ele>573.0</ele><time>2026-03-22T13:34:40.001Z</time></trkpt><trkpt lat="38.1298579269303" lon="13.24974766385688"><ele>573.0</ele><time>2026-03-22T13:34:41.001Z</time></trkpt><trkpt lat="38.12980490911802" lon="13.249653167971319"><ele>573.0</ele><time>2026-03-22T13:34:42.001Z</time></trkpt><trkpt lat="38.12973627765331" lon="13.249552269831424"><ele>573.0</ele><time>2026-03-22T13:34:43.001Z</time></trkpt><trkpt lat="38.129669195724176" lon="13.2494432335237"><ele>573.0</ele><time>2026-03-22T13:34:44.001Z</time></trkpt><trkpt lat="38.12960378458098" lon="13.249327738339115"><ele>573.0</ele><time>2026-03-22T13:34:45.001Z</time></trkpt><trkpt lat="38.12953865543584" lon="13.249208035873455"><ele>573.0</ele><time>2026-03-22T13:34:46.001Z</time></trkpt><trkpt lat="38.129469410797384" lon="13.249099551852972"><ele>573.0</ele><time>2026-03-22T13:34:47.001Z</time></trkpt><trkpt lat="38.12941376666885" lon="13.248985754739952"><ele>573.0</ele><time>2026-03-22T13:34:48.001Z</time></trkpt><trkpt lat="38.12937365814916" lon="13.248896964960702"><ele>573.0</ele><time>2026-03-22T13:34:49.001Z</time></trkpt><trkpt lat="38.12933133934064" lon="13.248828491557331"><ele>573.0</ele><time>2026-03-22T13:34:50.001Z</time></trkpt><trkpt lat="38.12935357559362" lon="13.248724591879315"><ele>573.0</ele><time>2026-03-22T13:34:52.001Z</time></trkpt><trkpt lat="38.12941970301964" lon="13.248693392208496"><ele>573.0</ele><time>2026-03-22T13:34:53.001Z</time></trkpt><trkpt lat="38.129509005988346" lon="13.248671085750537"><ele>570.1999999999999</ele><time>2026-03-22T13:34:54.001Z</time></trkpt><trkpt lat="38.12958818241018" lon="13.248617234487478"><ele>567.4</ele><time>2026-03-22T13:34:55.001Z</time></trkpt><trkpt lat="38.12966231766112" lon="13.248537443526143"><ele>564.5999999999999</ele><time>2026-03-22T13:34:56.001Z</time></trkpt><trkpt lat="38.12968587781886" lon="13.248407199339276"><ele>561.8</ele><time>2026-03-22T13:34:57.001Z</time></trkpt><trkpt lat="38.12972691266394" lon="13.248285346795994"><ele>559.0</ele><time>2026-03-22T13:34:58.001Z</time></trkpt><trkpt lat="38.12976636202858" lon="13.248137750110962"><ele>557.0</ele><time>2026-03-22T13:34:59.002Z</time></trkpt><trkpt lat="38.12978601316775" lon="13.247967817083104"><ele>555.0</ele><time>2026-03-22T13:35:00.002Z</time></trkpt><trkpt lat="38.12981536114852" lon="13.247810770457953"><ele>553.0</ele><time>2026-03-22T13:35:01.002Z</time></trkpt><trkpt lat="38.12985960362837" lon="13.247660630299992"><ele>551.0</ele><time>2026-03-22T13:35:02.002Z</time></trkpt><trkpt lat="38.129890954113435" lon="13.247488906792825"><ele>551.75</ele><time>2026-03-22T13:35:03.002Z</time></trkpt><trkpt lat="38.12990737479997" lon="13.247331172745117"><ele>552.5</ele><time>2026-03-22T13:35:04.002Z</time></trkpt><trkpt lat="38.12994142747509" lon="13.247188224771369"><ele>553.25</ele><time>2026-03-22T13:35:05.002Z</time></trkpt><trkpt lat="38.13000264841003" lon="13.247059064841544"><ele>554.0</ele><time>2026-03-22T13:35:06.002Z</time></trkpt><trkpt lat="38.13006945937083" lon="13.246939446903149"><ele>554.0</ele><time>2026-03-22T13:35:07.002Z</time></trkpt><trkpt lat="38.13014189150594" lon="13.246840582269574"><ele>554.0</ele><time>2026-03-22T13:35:08.002Z</time></trkpt><trkpt lat="38.1302250699555" lon="13.246759936506708"><ele>554.0</ele><time>2026-03-22T13:35:09.002Z</time></trkpt><trkpt lat="38.13031942199502" lon="13.246679038315724"><ele>554.0</ele><time>2026-03-22T13:35:10.002Z</time></trkpt><trkpt lat="38.13042705330092" lon="13.246594316583439"><ele>554.0</ele><time>2026-03-22T13:35:11.002Z</time></trkpt><trkpt lat="38.13056400249202" lon="13.246479511485246"><ele>554.0</ele><time>2026-03-22T13:35:12.002Z</time></trkpt><trkpt lat="38.130700728267534" lon="13.246398336666763"><ele>554.0</ele><time>2026-03-22T13:35:13.002Z</time></trkpt><trkpt lat="38.130820677369826" lon="13.246334088861042"><ele>554.0</ele><time>2026-03-22T13:35:14.002Z</time></trkpt><trkpt lat="38.13093488629851" lon="13.246262802985383"><ele>551.25</ele><time>2026-03-22T13:35:15.002Z</time></trkpt><trkpt lat="38.131061268267054" lon="13.246189185561096"><ele>548.5</ele><time>2026-03-22T13:35:16.002Z</time></trkpt><trkpt lat="38.131182605173045" lon="13.246146952728575"><ele>545.75</ele><time>2026-03-22T13:35:17.002Z</time></trkpt><trkpt lat="38.13131803399665" lon="13.246114154822665"><ele>543.0</ele><time>2026-03-22T13:35:18.002Z</time></trkpt><trkpt lat="38.13146346681198" lon="13.246079652983756"><ele>546.5</ele><time>2026-03-22T13:35:19.002Z</time></trkpt><trkpt lat="38.13159784133552" lon="13.24604927262469"><ele>550.0</ele><time>2026-03-22T13:35:20.002Z</time></trkpt><trkpt lat="38.131731760101175" lon="13.246007277230099"><ele>553.5</ele><time>2026-03-22T13:35:21.002Z</time></trkpt><trkpt lat="38.1318656756507" lon="13.245952831002672"><ele>557.0</ele><time>2026-03-22T13:35:22.002Z</time></trkpt><trkpt lat="38.13200561218341" lon="13.24590049456711"><ele>557.0</ele><time>2026-03-22T13:35:23.002Z</time></trkpt><trkpt lat="38.132129386968806" lon="13.245805403194378"><ele>557.0</ele><time>2026-03-22T13:35:24.002Z</time></trkpt><trkpt lat="38.13225922393824" lon="13.245750265955191"><ele>557.0</ele><time>2026-03-22T13:35:25.002Z</time></trkpt><trkpt lat="38.13236782536398" lon="13.245689485274426"><ele>557.0</ele><time>2026-03-22T13:35:26.002Z</time></trkpt><trkpt lat="38.13250207372533" lon="13.245594793765576"><ele>552.4</ele><time>2026-03-22T13:35:27.002Z</time></trkpt><trkpt lat="38.13263922278693" lon="13.245539536035613"><ele>547.8000000000001</ele><time>2026-03-22T13:35:28.002Z</time></trkpt><trkpt lat="38.132746491882294" lon="13.245531733057172"><ele>543.2</ele><time>2026-03-22T13:35:29.002Z</time></trkpt><trkpt lat="38.1328450939044" lon="13.245520390681811"><ele>538.6</ele><time>2026-03-22T13:35:30.002Z</time></trkpt><trkpt lat="38.13293687199868" lon="13.245530039015959"><ele>534.0</ele><time>2026-03-22T13:35:31.002Z</time></trkpt><trkpt lat="38.13303698302578" lon="13.245536811362967"><ele>534.0</ele><time>2026-03-22T13:35:32.002Z</time></trkpt><trkpt lat="38.13312978401836" lon="13.245574304957765"><ele>534.0</ele><time>2026-03-22T13:35:33.002Z</time></trkpt><trkpt lat="38.13324378426089" lon="13.245612602988807"><ele>534.0</ele><time>2026-03-22T13:35:34.002Z</time></trkpt><trkpt lat="38.133346817977014" lon="13.245644821132581"><ele>534.0</ele><time>2026-03-22T13:35:35.002Z</time></trkpt><trkpt lat="38.133462862501986" lon="13.24566259572497"><ele>534.0</ele><time>2026-03-22T13:35:36.002Z</time></trkpt><trkpt lat="38.13357945384517" lon="13.24568971866827"><ele>543.0</ele><time>2026-03-22T13:35:37.002Z</time></trkpt><trkpt lat="38.13370195602406" lon="13.245713595124371"><ele>552.0</ele><time>2026-03-22T13:35:38Z</time></trkpt><trkpt lat="38.13383137780855" lon="13.245717714906245"><ele>561.0</ele><time>2026-03-22T13:35:39Z</time></trkpt><trkpt lat="38.13395996623649" lon="13.24571861141106"><ele>570.0</ele><time>2026-03-22T13:35:40Z</time></trkpt><trkpt lat="38.13409402013682" lon="13.245716959698958"><ele>570.0</ele><time>2026-03-22T13:35:41Z</time></trkpt><trkpt lat="38.13422626344837" lon="13.245702505394599"><ele>570.0</ele><time>2026-03-22T13:35:42Z</time></trkpt><trkpt lat="38.134369394020226" lon="13.245679059583468"><ele>570.0</ele><time>2026-03-22T13:35:43Z</time></trkpt><trkpt lat="38.13450791499636" lon="13.245642326218606"><ele>570.0</ele><time>2026-03-22T13:35:44Z</time></trkpt><trkpt lat="38.13463545241916" lon="13.245632056492871"><ele>570.0</ele><time>2026-03-22T13:35:45Z</time></trkpt><trkpt lat="38.13478280948782" lon="13.24563653330724"><ele>570.0</ele><time>2026-03-22T13:35:46Z</time></trkpt><trkpt lat="38.134918045707316" lon="13.245626134194765"><ele>570.0</ele><time>2026-03-22T13:35:47Z</time></trkpt><trkpt lat="38.1350353454189" lon="13.245597716454759"><ele>570.0</ele><time>2026-03-22T13:35:48Z</time></trkpt><trkpt lat="38.13515689130628" lon="13.2455637361626"><ele>560.0</ele><time>2026-03-22T13:35:49Z</time></trkpt><trkpt lat="38.13528384306494" lon="13.245533996350773"><ele>550.0</ele><time>2026-03-22T13:35:50Z</time></trkpt><trkpt lat="38.13541571393968" lon="13.245510674069951"><ele>540.0</ele><time>2026-03-22T13:35:51Z</time></trkpt><trkpt lat="38.13554428695561" lon="13.245476474516076"><ele>530.0</ele><time>2026-03-22T13:35:52Z</time></trkpt><trkpt lat="38.135685854011484" lon="13.24545920090912"><ele>530.75</ele><time>2026-03-22T13:35:53Z</time></trkpt><trkpt lat="38.13580505415426" lon="13.245420492690856"><ele>531.5</ele><time>2026-03-22T13:35:54Z</time></trkpt><trkpt lat="38.13594966588535" lon="13.24540496093715"><ele>532.25</ele><time>2026-03-22T13:35:55Z</time></trkpt><trkpt lat="38.136087835956815" lon="13.245390956005645"><ele>533.0</ele><time>2026-03-22T13:35:56Z</time></trkpt><trkpt lat="38.13622176093051" lon="13.245380356249274"><ele>533.0</ele><time>2026-03-22T13:35:57Z</time></trkpt><trkpt lat="38.136344541721215" lon="13.245392146098546"><ele>533.0</ele><time>2026-03-22T13:35:58Z</time></trkpt><trkpt lat="38.136468424066734" lon="13.24543005685037"><ele>533.0</ele><time>2026-03-22T13:35:59Z</time></trkpt><trkpt lat="38.13658908913933" lon="13.245445792928301"><ele>533.0</ele><time>2026-03-22T13:36:00Z</time></trkpt><trkpt lat="38.136716407893026" lon="13.245505380442523"><ele>533.0</ele><time>2026-03-22T13:36:01Z</time></trkpt><trkpt lat="38.136858460908115" lon="13.245583230112299"><ele>533.0</ele><time>2026-03-22T13:36:02Z</time></trkpt><trkpt lat="38.13699680672049" lon="13.245674488046646"><ele>533.0</ele><time>2026-03-22T13:36:03Z</time></trkpt><trkpt lat="38.13713180385596" lon="13.24578563323388"><ele>539.0</ele><time>2026-03-22T13:36:04Z</time></trkpt><trkpt lat="38.137267167298155" lon="13.245900303395054"><ele>545.0</ele><time>2026-03-22T13:36:05Z</time></trkpt><trkpt lat="38.13740115646475" lon="13.245994790015319"><ele>551.0</ele><time>2026-03-22T13:36:06Z</time></trkpt><trkpt lat="38.13752972057046" lon="13.24612206307951"><ele>551.0</ele><time>2026-03-22T13:36:07Z</time></trkpt><trkpt lat="38.13765437376618" lon="13.246259295672532"><ele>551.0</ele><time>2026-03-22T13:36:08Z</time></trkpt><trkpt lat="38.137749817900826" lon="13.246400557458"><ele>551.0</ele><time>2026-03-22T13:36:09Z</time></trkpt><trkpt lat="38.137865433779496" lon="13.24654165973688"><ele>548.6666666666666</ele><time>2026-03-22T13:36:10Z</time></trkpt><trkpt lat="38.13799505999514" lon="13.246706081123298"><ele>546.3333333333334</ele><time>2026-03-22T13:36:11.001Z</time></trkpt><trkpt lat="38.13811897954703" lon="13.246862575050606"><ele>544.0</ele><time>2026-03-22T13:36:12.001Z</time></trkpt><trkpt lat="38.13822772964539" lon="13.247015013223436"><ele>544.0</ele><time>2026-03-22T13:36:13.001Z</time></trkpt><trkpt lat="38.13833978276173" lon="13.24718496362549"><ele>544.0</ele><time>2026-03-22T13:36:14.001Z</time></trkpt><trkpt lat="38.13845562126287" lon="13.247348207775515"><ele>544.0</ele><time>2026-03-22T13:36:15.001Z</time></trkpt><trkpt lat="38.13857419711" lon="13.247487693077415"><ele>553.6666666666667</ele><time>2026-03-22T13:36:16.001Z</time></trkpt><trkpt lat="38.13867648754867" lon="13.247637668428913"><ele>563.3333333333334</ele><time>2026-03-22T13:36:17.001Z</time></trkpt><trkpt lat="38.13875298722624" lon="13.247795637211777"><ele>573.0</ele><time>2026-03-22T13:36:18.001Z</time></trkpt><trkpt lat="38.13887856261978" lon="13.24795282257685"><ele>573.0</ele><time>2026-03-22T13:36:19.001Z</time></trkpt><trkpt lat="38.138983893377905" lon="13.248112126851904"><ele>573.0</ele><time>2026-03-22T13:36:20.001Z</time></trkpt><trkpt lat="38.13908169423124" lon="13.24825983887008"><ele>573.0</ele><time>2026-03-22T13:36:21.001Z</time></trkpt><trkpt lat="38.13918181357593" lon="13.248411587130382"><ele>568.6666666666666</ele><time>2026-03-22T13:36:22.001Z</time></trkpt><trkpt lat="38.139286689744736" lon="13.248564346243098"><ele>564.3333333333333</ele><time>2026-03-22T13:36:23.001Z</time></trkpt><trkpt lat="38.139381912962364" lon="13.248717542332717"><ele>560.0</ele><time>2026-03-22T13:36:24.001Z</time></trkpt><trkpt lat="38.13949141670806" lon="13.248865740221365"><ele>570.0</ele><time>2026-03-22T13:36:25.001Z</time></trkpt><trkpt lat="38.139593349839295" lon="13.249020685852368"><ele>580.0</ele><time>2026-03-22T13:36:26.001Z</time></trkpt><trkpt lat="38.13970288392452" lon="13.249180426217636"><ele>590.0</ele><time>2026-03-22T13:36:27.001Z</time></trkpt><trkpt lat="38.13980271934772" lon="13.249345630073435"><ele>587.0</ele><time>2026-03-22T13:36:28.001Z</time></trkpt><trkpt lat="38.13991301861126" lon="13.24951275003939"><ele>584.0</ele><time>2026-03-22T13:36:29.001Z</time></trkpt><trkpt lat="38.14000572302327" lon="13.249664409763003"><ele>581.0</ele><time>2026-03-22T13:36:30.001Z</time></trkpt><trkpt lat="38.14011015072898" lon="13.249834267036805"><ele>581.0</ele><time>2026-03-22T13:36:31.001Z</time></trkpt><trkpt lat="38.14021122366153" lon="13.249990379085338"><ele>581.0</ele><time>2026-03-22T13:36:32.001Z</time></trkpt><trkpt lat="38.140320928509134" lon="13.2501572977722"><ele>581.0</ele><time>2026-03-22T13:36:33.001Z</time></trkpt><trkpt lat="38.14041506349843" lon="13.2503169045166"><ele>581.0</ele><time>2026-03-22T13:36:34.001Z</time></trkpt><trkpt lat="38.140499966507356" lon="13.250463672482443"><ele>581.0</ele><time>2026-03-22T13:36:35.001Z</time></trkpt><trkpt lat="38.14058719078686" lon="13.250612244703744"><ele>581.0</ele><time>2026-03-22T13:36:36.001Z</time></trkpt><trkpt lat="38.14067870856022" lon="13.250770305813841"><ele>581.0</ele><time>2026-03-22T13:36:37.001Z</time></trkpt><trkpt lat="38.14075497467088" lon="13.250941900079729"><ele>584.3333333333333</ele><time>2026-03-22T13:36:38.001Z</time></trkpt><trkpt lat="38.14081954780701" lon="13.251127440164836"><ele>587.6666666666666</ele><time>2026-03-22T13:36:39.001Z</time></trkpt><trkpt lat="38.14090795100591" lon="13.251310710549829"><ele>591.0</ele><time>2026-03-22T13:36:40.001Z</time></trkpt><trkpt lat="38.14098092896407" lon="13.25150921779824"><ele>591.0</ele><time>2026-03-22T13:36:41.001Z</time></trkpt><trkpt lat="38.14107326186696" lon="13.251728994416874"><ele>591.0</ele><time>2026-03-22T13:36:42.001Z</time></trkpt><trkpt lat="38.14117563733482" lon="13.251975074717246"><ele>591.0</ele><time>2026-03-22T13:36:43.001Z</time></trkpt><trkpt lat="38.141294332309485" lon="13.252224694867124"><ele>607.5</ele><time>2026-03-22T13:36:44.001Z</time></trkpt><trkpt lat="38.141407869957405" lon="13.252505175506368"><ele>624.0</ele><time>2026-03-22T13:36:45.001Z</time></trkpt><trkpt lat="38.141513366267226" lon="13.25276222276947"><ele>612.3333333333334</ele><time>2026-03-22T13:36:46.001Z</time></trkpt><trkpt lat="38.141638351551215" lon="13.253001845423372"><ele>600.6666666666667</ele><time>2026-03-22T13:36:47.001Z</time></trkpt><trkpt lat="38.14173526052401" lon="13.253243505410428"><ele>589.0</ele><time>2026-03-22T13:36:48.001Z</time></trkpt><trkpt lat="38.14180001298425" lon="13.25343639540194"><ele>589.0</ele><time>2026-03-22T13:36:49.001Z</time></trkpt><trkpt lat="38.14187302840112" lon="13.25362690011163"><ele>589.0</ele><time>2026-03-22T13:36:50.001Z</time></trkpt><trkpt lat="38.141956094894" lon="13.253841101120846"><ele>589.0</ele><time>2026-03-22T13:36:51.001Z</time></trkpt><trkpt lat="38.14203354458615" lon="13.254038574820772"><ele>596.3333333333334</ele><time>2026-03-22T13:36:52.001Z</time></trkpt><trkpt lat="38.14212063596575" lon="13.254231646711276"><ele>603.6666666666666</ele><time>2026-03-22T13:36:53.001Z</time></trkpt><trkpt lat="38.142186516831366" lon="13.254416526347221"><ele>611.0</ele><time>2026-03-22T13:36:54.001Z</time></trkpt><trkpt lat="38.142251943049345" lon="13.254601832200018"><ele>619.0</ele><time>2026-03-22T13:36:55.001Z</time></trkpt><trkpt lat="38.14232772890484" lon="13.254790778252652"><ele>627.0</ele><time>2026-03-22T13:36:56.001Z</time></trkpt><trkpt lat="38.142391177915115" lon="13.254979439637532"><ele>635.0</ele><time>2026-03-22T13:36:57.001Z</time></trkpt><trkpt lat="38.142453306432664" lon="13.255152558224466"><ele>623.6666666666666</ele><time>2026-03-22T13:36:58.001Z</time></trkpt><trkpt lat="38.14251940800144" lon="13.25531860200072"><ele>612.3333333333334</ele><time>2026-03-22T13:36:59.001Z</time></trkpt><trkpt lat="38.14261265754262" lon="13.2554855161836"><ele>601.0</ele><time>2026-03-22T13:37:00.001Z</time></trkpt><trkpt lat="38.14270884089019" lon="13.255635651295037"><ele>601.0</ele><time>2026-03-22T13:37:01.002Z</time></trkpt><trkpt lat="38.142798947062914" lon="13.255790758785045"><ele>601.0</ele><time>2026-03-22T13:37:02.002Z</time></trkpt><trkpt lat="38.142883375161155" lon="13.25594961815976"><ele>601.0</ele><time>2026-03-22T13:37:03.002Z</time></trkpt><trkpt lat="38.14293444238464" lon="13.256098752802664"><ele>601.0</ele><time>2026-03-22T13:37:04.002Z</time></trkpt><trkpt lat="38.142997644112725" lon="13.256265218089649"><ele>601.0</ele><time>2026-03-22T13:37:05.002Z</time></trkpt><trkpt lat="38.14304075297941" lon="13.256417822363987"><ele>601.0</ele><time>2026-03-22T13:37:06.002Z</time></trkpt><trkpt lat="38.14308061446201" lon="13.256595342282166"><ele>601.0</ele><time>2026-03-22T13:37:07.002Z</time></trkpt><trkpt lat="38.14311757258428" lon="13.256776312627657"><ele>601.0</ele><time>2026-03-22T13:37:08.002Z</time></trkpt><trkpt lat="38.143173885446274" lon="13.256954111608064"><ele>597.3333333333334</ele><time>2026-03-22T13:37:09.002Z</time></trkpt><trkpt lat="38.14322847709296" lon="13.25712962646873"><ele>593.6666666666666</ele><time>2026-03-22T13:37:10.002Z</time></trkpt><trkpt lat="38.14330369926337" lon="13.257295622594839"><ele>590.0</ele><time>2026-03-22T13:37:11.002Z</time></trkpt><trkpt lat="38.14338642689644" lon="13.25747147251059"><ele>590.0</ele><time>2026-03-22T13:37:12.002Z</time></trkpt><trkpt lat="38.14347392826794" lon="13.25761525144471"><ele>590.0</ele><time>2026-03-22T13:37:13.002Z</time></trkpt><trkpt lat="38.143589772094195" lon="13.257726062029999"><ele>590.0</ele><time>2026-03-22T13:37:14.002Z</time></trkpt><trkpt lat="38.1437228094016" lon="13.257853411693596"><ele>590.0</ele><time>2026-03-22T13:37:15.002Z</time></trkpt><trkpt lat="38.143840736076605" lon="13.257988916629225"><ele>590.0</ele><time>2026-03-22T13:37:16.002Z</time></trkpt><trkpt lat="38.14395446796184" lon="13.258148613332807"><ele>590.0</ele><time>2026-03-22T13:37:17.002Z</time></trkpt><trkpt lat="38.14405492531414" lon="13.258303143726497"><ele>589.5</ele><time>2026-03-22T13:37:18.002Z</time></trkpt><trkpt lat="38.14415015085161" lon="13.258459700299595"><ele>589.0</ele><time>2026-03-22T13:37:19.002Z</time></trkpt><trkpt lat="38.14421467735779" lon="13.25862755044603"><ele>588.5</ele><time>2026-03-22T13:37:20.002Z</time></trkpt><trkpt lat="38.14426085819985" lon="13.25879739311639"><ele>588.0</ele><time>2026-03-22T13:37:21.002Z</time></trkpt><trkpt lat="38.14434842934242" lon="13.258960882499732"><ele>596.0</ele><time>2026-03-22T13:37:22.002Z</time></trkpt><trkpt lat="38.14443998925926" lon="13.259132296592789"><ele>604.0</ele><time>2026-03-22T13:37:23.002Z</time></trkpt><trkpt lat="38.1445530672408" lon="13.25929414095906"><ele>612.0</ele><time>2026-03-22T13:37:24.002Z</time></trkpt><trkpt lat="38.14466498627502" lon="13.259449910861225"><ele>612.0</ele><time>2026-03-22T13:37:25.002Z</time></trkpt><trkpt lat="38.14478223522842" lon="13.259635612625456"><ele>612.0</ele><time>2026-03-22T13:37:26.002Z</time></trkpt><trkpt lat="38.144885701191335" lon="13.259794479837543"><ele>612.0</ele><time>2026-03-22T13:37:27.002Z</time></trkpt><trkpt lat="38.145000076616064" lon="13.259952545491641"><ele>609.6666666666666</ele><time>2026-03-22T13:37:28.002Z</time></trkpt><trkpt lat="38.1451256383122" lon="13.260106057162357"><ele>607.3333333333333</ele><time>2026-03-22T13:37:29.002Z</time></trkpt><trkpt lat="38.145253988998" lon="13.260257662517857"><ele>605.0</ele><time>2026-03-22T13:37:30.002Z</time></trkpt><trkpt lat="38.145379527477225" lon="13.260401701613505"><ele>605.0</ele><time>2026-03-22T13:37:31.002Z</time></trkpt><trkpt lat="38.14552040467887" lon="13.260529995937654"><ele>605.0</ele><time>2026-03-22T13:37:32.002Z</time></trkpt><trkpt lat="38.145678493507646" lon="13.260651074093511"><ele>605.0</ele><time>2026-03-22T13:37:33.002Z</time></trkpt><trkpt lat="38.14578297803445" lon="13.26074968315612"><ele>605.5</ele><time>2026-03-22T13:37:34.002Z</time></trkpt><trkpt lat="38.1458735010641" lon="13.260847711566617"><ele>606.0</ele><time>2026-03-22T13:37:35.002Z</time></trkpt><trkpt lat="38.14593453779312" lon="13.260982229171475"><ele>606.5</ele><time>2026-03-22T13:37:36.002Z</time></trkpt><trkpt lat="38.146026307787515" lon="13.26107949362439"><ele>607.0</ele><time>2026-03-22T13:37:37.002Z</time></trkpt><trkpt lat="38.14612110239353" lon="13.261176784603316"><ele>607.0</ele><time>2026-03-22T13:37:38.002Z</time></trkpt><trkpt lat="38.14622905864263" lon="13.261264396708118"><ele>607.0</ele><time>2026-03-22T13:37:39.002Z</time></trkpt><trkpt lat="38.14634376449193" lon="13.261353549396457"><ele>607.0</ele><time>2026-03-22T13:37:40.002Z</time></trkpt><trkpt lat="38.14646558340425" lon="13.261428991417834"><ele>607.0</ele><time>2026-03-22T13:37:41.002Z</time></trkpt><trkpt lat="38.14657165126598" lon="13.261527252731252"><ele>607.75</ele><time>2026-03-22T13:37:42.002Z</time></trkpt><trkpt lat="38.146679428607165" lon="13.261614969618012"><ele>608.5</ele><time>2026-03-22T13:37:43.002Z</time></trkpt><trkpt lat="38.14679618491858" lon="13.261721531159512"><ele>609.25</ele><time>2026-03-22T13:37:44Z</time></trkpt><trkpt lat="38.1468909858704" lon="13.261823033992487"><ele>610.0</ele><time>2026-03-22T13:37:45Z</time></trkpt><trkpt lat="38.1469894156624" lon="13.261936172452842"><ele>610.0</ele><time>2026-03-22T13:37:46Z</time></trkpt><trkpt lat="38.14710807887945" lon="13.262054796489549"><ele>610.0</ele><time>2026-03-22T13:37:47Z</time></trkpt><trkpt lat="38.14721034510683" lon="13.262158713491768"><ele>610.0</ele><time>2026-03-22T13:37:48Z</time></trkpt><trkpt lat="38.14732288422075" lon="13.26227369401785"><ele>610.0</ele><time>2026-03-22T13:37:49Z</time></trkpt><trkpt lat="38.14744573884298" lon="13.262404823791899"><ele>609.0</ele><time>2026-03-22T13:37:50Z</time></trkpt><trkpt lat="38.14754140917476" lon="13.262506912673292"><ele>608.0</ele><time>2026-03-22T13:37:51Z</time></trkpt><trkpt lat="38.14765374724644" lon="13.262628530261647"><ele>607.0</ele><time>2026-03-22T13:37:52Z</time></trkpt><trkpt lat="38.14776251564677" lon="13.262741803007419"><ele>606.0</ele><time>2026-03-22T13:37:53Z</time></trkpt><trkpt lat="38.14787274184185" lon="13.262850944082745"><ele>606.0</ele><time>2026-03-22T13:37:54Z</time></trkpt><trkpt lat="38.14798832266799" lon="13.262969349474567"><ele>606.0</ele><time>2026-03-22T13:37:55Z</time></trkpt><trkpt lat="38.1480755065166" lon="13.26310680470818"><ele>606.0</ele><time>2026-03-22T13:37:56Z</time></trkpt><trkpt lat="38.14816776310277" lon="13.26323642239084"><ele>606.0</ele><time>2026-03-22T13:37:57Z</time></trkpt><trkpt lat="38.148262288743375" lon="13.263365411799956"><ele>604.0</ele><time>2026-03-22T13:37:58Z</time></trkpt><trkpt lat="38.148362392974896" lon="13.263495378109884"><ele>602.0</ele><time>2026-03-22T13:37:59Z</time></trkpt><trkpt lat="38.14847547514853" lon="13.263618688126432"><ele>600.0</ele><time>2026-03-22T13:38:00Z</time></trkpt><trkpt lat="38.14858466024934" lon="13.263743545209676"><ele>598.0</ele><time>2026-03-22T13:38:01Z</time></trkpt><trkpt lat="38.14869855672298" lon="13.263867604053887"><ele>597.5</ele><time>2026-03-22T13:38:02Z</time></trkpt><trkpt lat="38.1488181924605" lon="13.264001324746362"><ele>597.0</ele><time>2026-03-22T13:38:03Z</time></trkpt><trkpt lat="38.148922967350536" lon="13.26411165308738"><ele>596.5</ele><time>2026-03-22T13:38:04Z</time></trkpt><trkpt lat="38.149034035939835" lon="13.264207227985708"><ele>596.0</ele><time>2026-03-22T13:38:05Z</time></trkpt><trkpt lat="38.14916259305464" lon="13.264284108768107"><ele>596.0</ele><time>2026-03-22T13:38:06Z</time></trkpt><trkpt lat="38.149294336015465" lon="13.264341647398442"><ele>596.0</ele><time>2026-03-22T13:38:07Z</time></trkpt><trkpt lat="38.149440455320665" lon="13.264399097329301"><ele>596.0</ele><time>2026-03-22T13:38:08.001Z</time></trkpt><trkpt lat="38.14958570251505" lon="13.264463646079784"><ele>596.0</ele><time>2026-03-22T13:38:09.001Z</time></trkpt><trkpt lat="38.149717981376384" lon="13.264537805629923"><ele>596.0</ele><time>2026-03-22T13:38:10.001Z</time></trkpt><trkpt lat="38.14982414737755" lon="13.264610209861253"><ele>596.0</ele><time>2026-03-22T13:38:11.001Z</time></trkpt><trkpt lat="38.149927569025515" lon="13.264687208663076"><ele>596.0</ele><time>2026-03-22T13:38:12.001Z</time></trkpt><trkpt lat="38.149998215815835" lon="13.264774389176104"><ele>596.0</ele><time>2026-03-22T13:38:13.001Z</time></trkpt><trkpt lat="38.15006284460458" lon="13.264878279969691"><ele>596.0</ele><time>2026-03-22T13:38:14.001Z</time></trkpt><trkpt lat="38.1501381438086" lon="13.264953137367366"><ele>598.6666666666666</ele><time>2026-03-22T13:38:15.001Z</time></trkpt><trkpt lat="38.15020131644854" lon="13.265027647161661"><ele>601.3333333333333</ele><time>2026-03-22T13:38:16.001Z</time></trkpt><trkpt lat="38.15026383304939" lon="13.265060295994678"><ele>604.0</ele><time>2026-03-22T13:38:17.001Z</time></trkpt><trkpt lat="38.15036318013431" lon="13.265091785022028"><ele>606.6666666666666</ele><time>2026-03-22T13:38:18.001Z</time></trkpt><trkpt lat="38.150451265992075" lon="13.26506825774143"><ele>609.3333333333334</ele><time>2026-03-22T13:38:19.001Z</time></trkpt><trkpt lat="38.15051712281875" lon="13.26503122488567"><ele>612.0</ele><time>2026-03-22T13:38:20.001Z</time></trkpt><trkpt lat="38.150580828593135" lon="13.264960427986503"><ele>612.0</ele><time>2026-03-22T13:38:21.001Z</time></trkpt><trkpt lat="38.150650150572154" lon="13.264885062210517"><ele>612.0</ele><time>2026-03-22T13:38:22.001Z</time></trkpt><trkpt lat="38.150735479779186" lon="13.264852942797983"><ele>612.0</ele><time>2026-03-22T13:38:23.001Z</time></trkpt><trkpt lat="38.150818140328546" lon="13.264819087295077"><ele>612.0</ele><time>2026-03-22T13:38:24.001Z</time></trkpt><trkpt lat="38.15090928157161" lon="13.264805730567927"><ele>612.0</ele><time>2026-03-22T13:38:25.001Z</time></trkpt><trkpt lat="38.15098373331031" lon="13.264819678214563"><ele>612.0</ele><time>2026-03-22T13:38:26.001Z</time></trkpt><trkpt lat="38.15103516826034" lon="13.264869504482572"><ele>611.0</ele><time>2026-03-22T13:38:27.001Z</time></trkpt><trkpt lat="38.15110652018001" lon="13.264930778509239"><ele>610.0</ele><time>2026-03-22T13:38:28.001Z</time></trkpt><trkpt lat="38.151180175340876" lon="13.264984465916998"><ele>609.0</ele><time>2026-03-22T13:38:29.001Z</time></trkpt><trkpt lat="38.15126455811073" lon="13.265045099787377"><ele>608.0</ele><time>2026-03-22T13:38:30.001Z</time></trkpt><trkpt lat="38.151364276167236" lon="13.265107760798594"><ele>607.0</ele><time>2026-03-22T13:38:31.001Z</time></trkpt><trkpt lat="38.15146482961062" lon="13.26516084924412"><ele>606.8000000000001</ele><time>2026-03-22T13:38:32.001Z</time></trkpt><trkpt lat="38.15154611609295" lon="13.265202456313446"><ele>606.6</ele><time>2026-03-22T13:38:33.001Z</time></trkpt><trkpt lat="38.151668325771" lon="13.265271395027728"><ele>606.4000000000001</ele><time>2026-03-22T13:38:34.001Z</time></trkpt><trkpt lat="38.15176838085263" lon="13.265336446064367"><ele>606.2</ele><time>2026-03-22T13:38:35.001Z</time></trkpt><trkpt lat="38.15186353859294" lon="13.265411701519934"><ele>606.0</ele><time>2026-03-22T13:38:36.001Z</time></trkpt><trkpt lat="38.151961600539735" lon="13.265506284956798"><ele>606.0</ele><time>2026-03-22T13:38:37.001Z</time></trkpt><trkpt lat="38.1520535339913" lon="13.265595555800855"><ele>606.0</ele><time>2026-03-22T13:38:38.001Z</time></trkpt><trkpt lat="38.15213787790016" lon="13.265679699924233"><ele>606.0</ele><time>2026-03-22T13:38:39.001Z</time></trkpt><trkpt lat="38.152195815008696" lon="13.26574522681024"><ele>606.0</ele><time>2026-03-22T13:38:40.001Z</time></trkpt><trkpt lat="38.152255505833494" lon="13.265814147827847"><ele>606.0</ele><time>2026-03-22T13:38:41.001Z</time></trkpt><trkpt lat="38.15233750464204" lon="13.265905728520009"><ele>610.0</ele><time>2026-03-22T13:38:42.001Z</time></trkpt><trkpt lat="38.15240036368776" lon="13.265968795428895"><ele>614.0</ele><time>2026-03-22T13:38:43.001Z</time></trkpt><trkpt lat="38.15252475731719" lon="13.266071257844576"><ele>618.0</ele><time>2026-03-22T13:38:45.001Z</time></trkpt><trkpt lat="38.152607750515536" lon="13.266128623567534"><ele>622.0</ele><time>2026-03-22T13:38:46.001Z</time></trkpt><trkpt lat="38.15268790601747" lon="13.266179552764875"><ele>626.0</ele><time>2026-03-22T13:38:47.001Z</time></trkpt><trkpt lat="38.15284827686086" lon="13.266254993034165"><ele>626.0</ele><time>2026-03-22T13:38:48.001Z</time></trkpt><trkpt lat="38.152916326039936" lon="13.266268187403723"><ele>626.0</ele><time>2026-03-22T13:38:49.001Z</time></trkpt><trkpt lat="38.1530813961467" lon="13.266253352909947"><ele>626.0</ele><time>2026-03-22T13:38:50.001Z</time></trkpt><trkpt lat="38.15319927574909" lon="13.266253075380602"><ele>626.0</ele><time>2026-03-22T13:38:52.001Z</time></trkpt><trkpt lat="38.15327899499697" lon="13.266217828869017"><ele>626.0</ele><time>2026-03-22T13:38:54.001Z</time></trkpt><trkpt lat="38.15333455967823" lon="13.266156732225369"><ele>629.0</ele><time>2026-03-22T13:38:55.001Z</time></trkpt><trkpt lat="38.15335455812234" lon="13.265966190926369"><ele>632.0</ele><time>2026-03-22T13:38:57.001Z</time></trkpt><trkpt lat="38.15334282107174" lon="13.265832446707218"><ele>635.0</ele><time>2026-03-22T13:38:58.001Z</time></trkpt><trkpt lat="38.153319127485524" lon="13.265701276404032"><ele>638.0</ele><time>2026-03-22T13:38:59.001Z</time></trkpt><trkpt lat="38.153284211846156" lon="13.265540757323937"><ele>640.0</ele><time>2026-03-22T13:39:00.001Z</time></trkpt><trkpt lat="38.15322374154545" lon="13.26533692215756"><ele>642.0</ele><time>2026-03-22T13:39:01.001Z</time></trkpt><trkpt lat="38.153154046206964" lon="13.265125346256536"><ele>644.0</ele><time>2026-03-22T13:39:02.001Z</time></trkpt><trkpt lat="38.15310124419998" lon="13.264955460645869"><ele>638.3333333333333</ele><time>2026-03-22T13:39:03.001Z</time></trkpt><trkpt lat="38.15304657694959" lon="13.264772674833718"><ele>632.6666666666666</ele><time>2026-03-22T13:39:04.001Z</time></trkpt><trkpt lat="38.15298821262536" lon="13.26459457669636"><ele>627.0</ele><time>2026-03-22T13:39:05.001Z</time></trkpt><trkpt lat="38.15290904627482" lon="13.26442835362259"><ele>627.0</ele><time>2026-03-22T13:39:06.001Z</time></trkpt><trkpt lat="38.15286260147653" lon="13.26425564248243"><ele>627.0</ele><time>2026-03-22T13:39:07.002Z</time></trkpt><trkpt lat="38.15280194145533" lon="13.264113644451438"><ele>627.0</ele><time>2026-03-22T13:39:08.002Z</time></trkpt><trkpt lat="38.15276043602941" lon="13.263969511905833"><ele>627.0</ele><time>2026-03-22T13:39:09.002Z</time></trkpt><trkpt lat="38.15270360196451" lon="13.263830679438977"><ele>629.25</ele><time>2026-03-22T13:39:10.002Z</time></trkpt><trkpt lat="38.15267169833373" lon="13.263703682264502"><ele>631.5</ele><time>2026-03-22T13:39:11.002Z</time></trkpt><trkpt lat="38.152636523651374" lon="13.263548953676159"><ele>633.75</ele><time>2026-03-22T13:39:12.002Z</time></trkpt><trkpt lat="38.152613797395404" lon="13.26341376410337"><ele>636.0</ele><time>2026-03-22T13:39:13.002Z</time></trkpt><trkpt lat="38.152591244276046" lon="13.263273801866026"><ele>636.0</ele><time>2026-03-22T13:39:14.002Z</time></trkpt><trkpt lat="38.152598665099944" lon="13.263140949005932"><ele>636.0</ele><time>2026-03-22T13:39:15.002Z</time></trkpt><trkpt lat="38.15260580104875" lon="13.262968828833223"><ele>636.0</ele><time>2026-03-22T13:39:16.002Z</time></trkpt><trkpt lat="38.152618854993435" lon="13.262807208905949"><ele>636.0</ele><time>2026-03-22T13:39:17.002Z</time></trkpt><trkpt lat="38.1526265612929" lon="13.262616741250651"><ele>635.0</ele><time>2026-03-22T13:39:18.002Z</time></trkpt><trkpt lat="38.15265805701625" lon="13.262440800828614"><ele>634.0</ele><time>2026-03-22T13:39:19.002Z</time></trkpt><trkpt lat="38.152708746161345" lon="13.262285042498998"><ele>633.0</ele><time>2026-03-22T13:39:20.002Z</time></trkpt><trkpt lat="38.15276119385177" lon="13.26212231294391"><ele>632.0</ele><time>2026-03-22T13:39:21.002Z</time></trkpt><trkpt lat="38.15281240090079" lon="13.261963738156037"><ele>629.5</ele><time>2026-03-22T13:39:22.002Z</time></trkpt><trkpt lat="38.15289293578589" lon="13.261793347135807"><ele>627.0</ele><time>2026-03-22T13:39:23.002Z</time></trkpt><trkpt lat="38.15298365733854" lon="13.261652237863997"><ele>624.5</ele><time>2026-03-22T13:39:24.002Z</time></trkpt><trkpt lat="38.15309763165662" lon="13.261529193106764"><ele>622.0</ele><time>2026-03-22T13:39:25.002Z</time></trkpt><trkpt lat="38.15320285274263" lon="13.261405300874673"><ele>623.5</ele><time>2026-03-22T13:39:26.002Z</time></trkpt><trkpt lat="38.153296712306144" lon="13.261293370084417"><ele>625.0</ele><time>2026-03-22T13:39:27.002Z</time></trkpt><trkpt lat="38.15341149318305" lon="13.2611584926166"><ele>626.5</ele><time>2026-03-22T13:39:28.002Z</time></trkpt><trkpt lat="38.15351937081222" lon="13.2610146203807"><ele>628.0</ele><time>2026-03-22T13:39:29.002Z</time></trkpt><trkpt lat="38.15363797391034" lon="13.260889963990431"><ele>628.0</ele><time>2026-03-22T13:39:30.002Z</time></trkpt><trkpt lat="38.15377339579457" lon="13.26076317948402"><ele>628.0</ele><time>2026-03-22T13:39:31.002Z</time></trkpt><trkpt lat="38.15391130722409" lon="13.260620694294495"><ele>628.0</ele><time>2026-03-22T13:39:32.002Z</time></trkpt><trkpt lat="38.154016543147634" lon="13.260481693244907"><ele>631.3333333333334</ele><time>2026-03-22T13:39:33.002Z</time></trkpt><trkpt lat="38.15413918401792" lon="13.260340310520478"><ele>634.6666666666666</ele><time>2026-03-22T13:39:34.002Z</time></trkpt><trkpt lat="38.15421984361473" lon="13.260201152253435"><ele>638.0</ele><time>2026-03-22T13:39:35.002Z</time></trkpt><trkpt lat="38.1543180322971" lon="13.260054690292346"><ele>638.0</ele><time>2026-03-22T13:39:36.002Z</time></trkpt><trkpt lat="38.15441734149163" lon="13.259893633960946"><ele>638.0</ele><time>2026-03-22T13:39:37.002Z</time></trkpt><trkpt lat="38.15450865583847" lon="13.259739332118944"><ele>638.0</ele><time>2026-03-22T13:39:38.002Z</time></trkpt><trkpt lat="38.15459757918902" lon="13.259588200282192"><ele>633.0</ele><time>2026-03-22T13:39:39.002Z</time></trkpt><trkpt lat="38.15470550007764" lon="13.259425461543632"><ele>628.0</ele><time>2026-03-22T13:39:40.002Z</time></trkpt><trkpt lat="38.15477628387189" lon="13.259258722740999"><ele>623.0</ele><time>2026-03-22T13:39:41.002Z</time></trkpt><trkpt lat="38.154835968622095" lon="13.259098653211929"><ele>628.75</ele><time>2026-03-22T13:39:42.002Z</time></trkpt><trkpt lat="38.154894140833115" lon="13.258975683338896"><ele>634.5</ele><time>2026-03-22T13:39:43.002Z</time></trkpt><trkpt lat="38.15494688370752" lon="13.258865095235764"><ele>640.25</ele><time>2026-03-22T13:39:44.002Z</time></trkpt><trkpt lat="38.155006975961385" lon="13.258707709345092"><ele>646.0</ele><time>2026-03-22T13:39:45.002Z</time></trkpt><trkpt lat="38.15510429153831" lon="13.258556829628226"><ele>646.0</ele><time>2026-03-22T13:39:46.002Z</time></trkpt><trkpt lat="38.155186822752" lon="13.258405514558085"><ele>646.0</ele><time>2026-03-22T13:39:47.002Z</time></trkpt><trkpt lat="38.15526310690983" lon="13.258266162766988"><ele>646.0</ele><time>2026-03-22T13:39:48.002Z</time></trkpt><trkpt lat="38.15534798916026" lon="13.258114637463677"><ele>646.0</ele><time>2026-03-22T13:39:49.002Z</time></trkpt><trkpt lat="38.1554681674009" lon="13.257900104336594"><ele>648.3333333333334</ele><time>2026-03-22T13:39:50.001Z</time></trkpt><trkpt lat="38.15556810265309" lon="13.257720898570403"><ele>650.6666666666666</ele><time>2026-03-22T13:39:51.001Z</time></trkpt><trkpt lat="38.15565506372355" lon="13.25755849711048"><ele>653.0</ele><time>2026-03-22T13:39:52.001Z</time></trkpt><trkpt lat="38.15573540312968" lon="13.257402612199702"><ele>654.0</ele><time>2026-03-22T13:39:53.001Z</time></trkpt><trkpt lat="38.15580336529621" lon="13.257303967789529"><ele>655.0</ele><time>2026-03-22T13:39:54.001Z</time></trkpt><trkpt lat="38.15588339524759" lon="13.257193515343436"><ele>656.0</ele><time>2026-03-22T13:39:55.001Z</time></trkpt><trkpt lat="38.15597480184843" lon="13.257077954218047"><ele>657.0</ele><time>2026-03-22T13:39:56.001Z</time></trkpt><trkpt lat="38.15606229280814" lon="13.256976126776294"><ele>658.25</ele><time>2026-03-22T13:39:57.001Z</time></trkpt><trkpt lat="38.15614923606882" lon="13.256878568123156"><ele>659.5</ele><time>2026-03-22T13:39:58.001Z</time></trkpt><trkpt lat="38.15624079375692" lon="13.256781068952206"><ele>660.75</ele><time>2026-03-22T13:39:59.001Z</time></trkpt><trkpt lat="38.15634683583114" lon="13.256676024033453"><ele>662.0</ele><time>2026-03-22T13:40:00.001Z</time></trkpt><trkpt lat="38.156447407378366" lon="13.256578655358874"><ele>661.25</ele><time>2026-03-22T13:40:01.001Z</time></trkpt><trkpt lat="38.15654639538137" lon="13.256463132966376"><ele>660.5</ele><time>2026-03-22T13:40:02.001Z</time></trkpt><trkpt lat="38.156623620742664" lon="13.256405548904931"><ele>659.75</ele><time>2026-03-22T13:40:03.001Z</time></trkpt><trkpt lat="38.156712127057446" lon="13.256310012398828"><ele>659.0</ele><time>2026-03-22T13:40:04.001Z</time></trkpt><trkpt lat="38.15681398284973" lon="13.25620329226635"><ele>659.0</ele><time>2026-03-22T13:40:05.001Z</time></trkpt><trkpt lat="38.15689464477038" lon="13.256091302057833"><ele>659.0</ele><time>2026-03-22T13:40:06.001Z</time></trkpt><trkpt lat="38.15699151450726" lon="13.255996122932139"><ele>659.0</ele><time>2026-03-22T13:40:07.001Z</time></trkpt><trkpt lat="38.157074135753106" lon="13.255882559887265"><ele>659.0</ele><time>2026-03-22T13:40:08.001Z</time></trkpt><trkpt lat="38.15716934477254" lon="13.255780199358712"><ele>659.0</ele><time>2026-03-22T13:40:09.001Z</time></trkpt><trkpt lat="38.15725933923238" lon="13.25569995427964"><ele>659.0</ele><time>2026-03-22T13:40:10.001Z</time></trkpt><trkpt lat="38.157370539375485" lon="13.255646867672754"><ele>659.0</ele><time>2026-03-22T13:40:12.001Z</time></trkpt><trkpt lat="38.157457728093405" lon="13.25561594293796"><ele>659.0</ele><time>2026-03-22T13:40:13.001Z</time></trkpt><trkpt lat="38.15753614808197" lon="13.25559486935969"><ele>659.0</ele><time>2026-03-22T13:40:14.001Z</time></trkpt><trkpt lat="38.15759679018259" lon="13.255569390906317"><ele>658.0</ele><time>2026-03-22T13:40:15.001Z</time></trkpt><trkpt lat="38.157660576025435" lon="13.25555516827844"><ele>657.0</ele><time>2026-03-22T13:40:16.001Z</time></trkpt><trkpt lat="38.157741610935105" lon="13.255528913750569"><ele>656.0</ele><time>2026-03-22T13:40:17.001Z</time></trkpt><trkpt lat="38.157827333952575" lon="13.255509435425548"><ele>655.0</ele><time>2026-03-22T13:40:18.001Z</time></trkpt><trkpt lat="38.157925515204816" lon="13.255492372339283"><ele>654.0</ele><time>2026-03-22T13:40:19.001Z</time></trkpt><trkpt lat="38.15804651359865" lon="13.255473850839094"><ele>654.0</ele><time>2026-03-22T13:40:20.001Z</time></trkpt><trkpt lat="38.15815305804738" lon="13.255454555524581"><ele>654.0</ele><time>2026-03-22T13:40:21.001Z</time></trkpt><trkpt lat="38.15825392935589" lon="13.255457038883318"><ele>654.0</ele><time>2026-03-22T13:40:22.001Z</time></trkpt><trkpt lat="38.15834197899376" lon="13.255440823307879"><ele>654.0</ele><time>2026-03-22T13:40:23.001Z</time></trkpt><trkpt lat="38.15844827341611" lon="13.255421247773688"><ele>654.0</ele><time>2026-03-22T13:40:24.001Z</time></trkpt><trkpt lat="38.15857916264329" lon="13.255397142681595"><ele>652.75</ele><time>2026-03-22T13:40:25.001Z</time></trkpt><trkpt lat="38.15868991489202" lon="13.255376746212335"><ele>651.5</ele><time>2026-03-22T13:40:26.001Z</time></trkpt><trkpt lat="38.15881435182728" lon="13.255341891722745"><ele>650.25</ele><time>2026-03-22T13:40:27.001Z</time></trkpt><trkpt lat="38.15893510530653" lon="13.25531744807755"><ele>649.0</ele><time>2026-03-22T13:40:28.001Z</time></trkpt><trkpt lat="38.159032016384295" lon="13.255314420726942"><ele>647.0</ele><time>2026-03-22T13:40:29.001Z</time></trkpt><trkpt lat="38.159137487173226" lon="13.255280818133636"><ele>645.0</ele><time>2026-03-22T13:40:30.001Z</time></trkpt><trkpt lat="38.15923928194918" lon="13.255285725855055"><ele>643.0</ele><time>2026-03-22T13:40:31.001Z</time></trkpt><trkpt lat="38.15934422260955" lon="13.255256535714656"><ele>641.0</ele><time>2026-03-22T13:40:32.001Z</time></trkpt><trkpt lat="38.15948054484932" lon="13.255229992284644"><ele>641.0</ele><time>2026-03-22T13:40:33.001Z</time></trkpt><trkpt lat="38.1595922958202" lon="13.255220818489324"><ele>641.0</ele><time>2026-03-22T13:40:34.001Z</time></trkpt><trkpt lat="38.159710842370345" lon="13.255185231538894"><ele>641.0</ele><time>2026-03-22T13:40:35.001Z</time></trkpt><trkpt lat="38.159810483104344" lon="13.255142924965723"><ele>641.0</ele><time>2026-03-22T13:40:36.001Z</time></trkpt><trkpt lat="38.15989564430594" lon="13.255095148538565"><ele>641.0</ele><time>2026-03-22T13:40:37.001Z</time></trkpt><trkpt lat="38.159981862022335" lon="13.255033905897998"><ele>640.5</ele><time>2026-03-22T13:40:38.001Z</time></trkpt><trkpt lat="38.160096591636716" lon="13.254977336542346"><ele>640.0</ele><time>2026-03-22T13:40:39.001Z</time></trkpt><trkpt lat="38.16022981098565" lon="13.254892158254435"><ele>639.5</ele><time>2026-03-22T13:40:40.001Z</time></trkpt><trkpt lat="38.160332304347676" lon="13.254800543846375"><ele>639.0</ele><time>2026-03-22T13:40:41.001Z</time></trkpt><trkpt lat="38.16046936622711" lon="13.254730730819645"><ele>635.4</ele><time>2026-03-22T13:40:42.001Z</time></trkpt><trkpt lat="38.16056507493752" lon="13.254666731170452"><ele>631.8</ele><time>2026-03-22T13:40:43.001Z</time></trkpt><trkpt lat="38.160658730320534" lon="13.25459049813201"><ele>628.2</ele><time>2026-03-22T13:40:44.001Z</time></trkpt><trkpt lat="38.160745301434964" lon="13.254554679901492"><ele>624.6</ele><time>2026-03-22T13:40:45.001Z</time></trkpt><trkpt lat="38.16083339005756" lon="13.254503708439682"><ele>621.0</ele><time>2026-03-22T13:40:46.001Z</time></trkpt><trkpt lat="38.16095141801522" lon="13.254435874270103"><ele>621.0</ele><time>2026-03-22T13:40:47.001Z</time></trkpt><trkpt lat="38.161063650911544" lon="13.254371749735013"><ele>621.0</ele><time>2026-03-22T13:40:48.001Z</time></trkpt><trkpt lat="38.161170379318236" lon="13.254290927753207"><ele>621.0</ele><time>2026-03-22T13:40:49.001Z</time></trkpt><trkpt lat="38.16128722459077" lon="13.254216050010937"><ele>621.0</ele><time>2026-03-22T13:40:50.001Z</time></trkpt><trkpt lat="38.16140058240159" lon="13.254181225020869"><ele>621.0</ele><time>2026-03-22T13:40:51.001Z</time></trkpt><trkpt lat="38.16151051523908" lon="13.254146006347106"><ele>621.0</ele><time>2026-03-22T13:40:52.001Z</time></trkpt><trkpt lat="38.16163517905622" lon="13.25415822122861"><ele>621.0</ele><time>2026-03-22T13:40:53.001Z</time></trkpt><trkpt lat="38.16176016377818" lon="13.254128673723983"><ele>621.0</ele><time>2026-03-22T13:40:54.001Z</time></trkpt><trkpt lat="38.16186795949577" lon="13.254063558118423"><ele>624.5</ele><time>2026-03-22T13:40:55.001Z</time></trkpt><trkpt lat="38.16198355366994" lon="13.254002386376964"><ele>628.0</ele><time>2026-03-22T13:40:56.001Z</time></trkpt><trkpt lat="38.162129854432976" lon="13.253915331930536"><ele>631.5</ele><time>2026-03-22T13:40:57.001Z</time></trkpt><trkpt lat="38.16225964951105" lon="13.253846172022172"><ele>635.0</ele><time>2026-03-22T13:40:58.001Z</time></trkpt><trkpt lat="38.16239633203811" lon="13.253789785744836"><ele>624.3333333333333</ele><time>2026-03-22T13:40:59.001Z</time></trkpt><trkpt lat="38.16253667509677" lon="13.253744650979849"><ele>613.6666666666666</ele><time>2026-03-22T13:41:00.001Z</time></trkpt><trkpt lat="38.162678943746904" lon="13.253682369086373"><ele>603.0</ele><time>2026-03-22T13:41:01.001Z</time></trkpt><trkpt lat="38.16283505689965" lon="13.253660455203478"><ele>603.0</ele><time>2026-03-22T13:41:02.001Z</time></trkpt><trkpt lat="38.162973241886235" lon="13.253625288370957"><ele>603.0</ele><time>2026-03-22T13:41:03.001Z</time></trkpt><trkpt lat="38.16312092614377" lon="13.253591913981397"><ele>603.0</ele><time>2026-03-22T13:41:04.001Z</time></trkpt><trkpt lat="38.16327334984768" lon="13.253561854144726"><ele>603.0</ele><time>2026-03-22T13:41:05.001Z</time></trkpt><trkpt lat="38.16343244740828" lon="13.253541635667558"><ele>605.3333333333334</ele><time>2026-03-22T13:41:06.001Z</time></trkpt><trkpt lat="38.16360040696406" lon="13.25352209195789"><ele>607.6666666666667</ele><time>2026-03-22T13:41:07.002Z</time></trkpt><trkpt lat="38.16376951043961" lon="13.253500636580368"><ele>610.0</ele><time>2026-03-22T13:41:08.002Z</time></trkpt><trkpt lat="38.1639284584658" lon="13.253475426797213"><ele>613.0</ele><time>2026-03-22T13:41:09.002Z</time></trkpt><trkpt lat="38.16409769428473" lon="13.253438723508829"><ele>616.0</ele><time>2026-03-22T13:41:10.002Z</time></trkpt><trkpt lat="38.164260503304945" lon="13.253399304845296"><ele>619.0</ele><time>2026-03-22T13:41:11.002Z</time></trkpt><trkpt lat="38.16440641943944" lon="13.253355498689912"><ele>619.0</ele><time>2026-03-22T13:41:12.002Z</time></trkpt><trkpt lat="38.1645475601636" lon="13.25333613096062"><ele>619.0</ele><time>2026-03-22T13:41:13.002Z</time></trkpt><trkpt lat="38.164695431206916" lon="13.253268771417519"><ele>619.0</ele><time>2026-03-22T13:41:14.002Z</time></trkpt><trkpt lat="38.164853533852586" lon="13.253209220218022"><ele>621.75</ele><time>2026-03-22T13:41:15.002Z</time></trkpt><trkpt lat="38.164989149074785" lon="13.253125728724887"><ele>624.5</ele><time>2026-03-22T13:41:16.002Z</time></trkpt><trkpt lat="38.16512728402171" lon="13.253072030716593"><ele>627.25</ele><time>2026-03-22T13:41:17.002Z</time></trkpt><trkpt lat="38.16525462375754" lon="13.252991968512207"><ele>630.0</ele><time>2026-03-22T13:41:18.002Z</time></trkpt><trkpt lat="38.16534955337202" lon="13.252905243164701"><ele>625.25</ele><time>2026-03-22T13:41:19.002Z</time></trkpt><trkpt lat="38.16546107380963" lon="13.252827195421172"><ele>620.5</ele><time>2026-03-22T13:41:20.002Z</time></trkpt><trkpt lat="38.16554581417043" lon="13.252773180388026"><ele>615.75</ele><time>2026-03-22T13:41:21.002Z</time></trkpt><trkpt lat="38.16564124519476" lon="13.252688098911108"><ele>611.0</ele><time>2026-03-22T13:41:22.002Z</time></trkpt><trkpt lat="38.165736183097714" lon="13.252594468642007"><ele>611.0</ele><time>2026-03-22T13:41:23.002Z</time></trkpt><trkpt lat="38.16583679902741" lon="13.252474936538388"><ele>611.0</ele><time>2026-03-22T13:41:24.002Z</time></trkpt><trkpt lat="38.165917861461864" lon="13.252359989719181"><ele>611.0</ele><time>2026-03-22T13:41:25.002Z</time></trkpt><trkpt lat="38.16599049578107" lon="13.252212095076871"><ele>611.0</ele><time>2026-03-22T13:41:26.002Z</time></trkpt><trkpt lat="38.16605965046236" lon="13.252043891240573"><ele>605.0</ele><time>2026-03-22T13:41:27.002Z</time></trkpt><trkpt lat="38.16610797307382" lon="13.251918507835255"><ele>599.0</ele><time>2026-03-22T13:41:28.002Z</time></trkpt><trkpt lat="38.16615812626125" lon="13.251792755419826"><ele>593.0</ele><time>2026-03-22T13:41:29.002Z</time></trkpt><trkpt lat="38.16621105353971" lon="13.251657444870146"><ele>587.0</ele><time>2026-03-22T13:41:30.002Z</time></trkpt><trkpt lat="38.16626558312489" lon="13.251512215914353"><ele>583.2</ele><time>2026-03-22T13:41:31.002Z</time></trkpt><trkpt lat="38.16631485283056" lon="13.251383884652036"><ele>579.4000000000001</ele><time>2026-03-22T13:41:32.002Z</time></trkpt><trkpt lat="38.16637058143242" lon="13.251265830581138"><ele>575.5999999999999</ele><time>2026-03-22T13:41:33.002Z</time></trkpt><trkpt lat="38.16639580117225" lon="13.2511480081032"><ele>571.8</ele><time>2026-03-22T13:41:34.002Z</time></trkpt><trkpt lat="38.16643870475966" lon="13.251048025498811"><ele>568.0</ele><time>2026-03-22T13:41:35.002Z</time></trkpt><trkpt lat="38.16648190940929" lon="13.250970031119515"><ele>573.4</ele><time>2026-03-22T13:41:36.002Z</time></trkpt><trkpt lat="38.16654463333842" lon="13.25089203240999"><ele>578.8</ele><time>2026-03-22T13:41:37.002Z</time></trkpt><trkpt lat="38.16659969000613" lon="13.250835552966842"><ele>584.2</ele><time>2026-03-22T13:41:38.002Z</time></trkpt><trkpt lat="38.16669981826153" lon="13.250760892681381"><ele>589.6</ele><time>2026-03-22T13:41:39.002Z</time></trkpt><trkpt lat="38.166804238781474" lon="13.250702975180134"><ele>595.0</ele><time>2026-03-22T13:41:40.002Z</time></trkpt><trkpt lat="38.16690059280873" lon="13.250668954201029"><ele>595.0</ele><time>2026-03-22T13:41:41.002Z</time></trkpt><trkpt lat="38.16698841486995" lon="13.25067525893818"><ele>595.0</ele><time>2026-03-22T13:41:42.002Z</time></trkpt><trkpt lat="38.16708317673658" lon="13.250661553329486"><ele>595.0</ele><time>2026-03-22T13:41:43.002Z</time></trkpt><trkpt lat="38.167171889352126" lon="13.25067108529586"><ele>595.0</ele><time>2026-03-22T13:41:44.002Z</time></trkpt><trkpt lat="38.16726287999881" lon="13.25070509289294"><ele>595.0</ele><time>2026-03-22T13:41:45.002Z</time></trkpt><trkpt lat="38.16735807730819" lon="13.250730016625175"><ele>595.4</ele><time>2026-03-22T13:41:46.002Z</time></trkpt><trkpt lat="38.16745878105639" lon="13.250764184013951"><ele>595.8</ele><time>2026-03-22T13:41:47.002Z</time></trkpt><trkpt lat="38.16756569293239" lon="13.250815662529662"><ele>596.2</ele><time>2026-03-22T13:41:48.002Z</time></trkpt><trkpt lat="38.16766085114175" lon="13.250866425856316"><ele>596.6</ele><time>2026-03-22T13:41:49.002Z</time></trkpt><trkpt lat="38.167763275126774" lon="13.250924833731927"><ele>597.0</ele><time>2026-03-22T13:41:50.002Z</time></trkpt><trkpt lat="38.16787028939954" lon="13.25096887815906"><ele>597.0</ele><time>2026-03-22T13:41:51.002Z</time></trkpt><trkpt lat="38.16794753066779" lon="13.251031318039132"><ele>597.0</ele><time>2026-03-22T13:41:52.002Z</time></trkpt><trkpt lat="38.16805204336627" lon="13.251088543535529"><ele>597.0</ele><time>2026-03-22T13:41:53.002Z</time></trkpt><trkpt lat="38.168147388830896" lon="13.251167300706529"><ele>597.0</ele><time>2026-03-22T13:41:54.002Z</time></trkpt><trkpt lat="38.168243611420465" lon="13.25123099718509"><ele>597.0</ele><time>2026-03-22T13:41:55.002Z</time></trkpt><trkpt lat="38.16834505289673" lon="13.251299656976327"><ele>600.2</ele><time>2026-03-22T13:41:56.001Z</time></trkpt><trkpt lat="38.16844916173145" lon="13.251350064534119"><ele>603.4000000000001</ele><time>2026-03-22T13:41:57.001Z</time></trkpt><trkpt lat="38.168526743613626" lon="13.251415293069405"><ele>606.5999999999999</ele><time>2026-03-22T13:41:58.001Z</time></trkpt><trkpt lat="38.1686245769723" lon="13.251485476178743"><ele>609.8</ele><time>2026-03-22T13:41:59.001Z</time></trkpt><trkpt lat="38.16872867294055" lon="13.251534181728468"><ele>613.0</ele><time>2026-03-22T13:42:00.001Z</time></trkpt><trkpt lat="38.168798664928254" lon="13.251573071690865"><ele>613.0</ele><time>2026-03-22T13:42:01.001Z</time></trkpt><trkpt lat="38.168899432723734" lon="13.251602505862696"><ele>613.0</ele><time>2026-03-22T13:42:02.001Z</time></trkpt><trkpt lat="38.1690193895489" lon="13.251620499405869"><ele>613.0</ele><time>2026-03-22T13:42:03.001Z</time></trkpt><trkpt lat="38.16911280652748" lon="13.251630546259202"><ele>613.0</ele><time>2026-03-22T13:42:04.001Z</time></trkpt><trkpt lat="38.169247203625986" lon="13.251630592755205"><ele>610.1999999999999</ele><time>2026-03-22T13:42:05.001Z</time></trkpt><trkpt lat="38.16936053683644" lon="13.251622298348801"><ele>607.4</ele><time>2026-03-22T13:42:06.001Z</time></trkpt><trkpt lat="38.1694662398422" lon="13.251614220506822"><ele>604.5999999999999</ele><time>2026-03-22T13:42:07.001Z</time></trkpt><trkpt lat="38.16956616110432" lon="13.251601192400374"><ele>601.8</ele><time>2026-03-22T13:42:08.001Z</time></trkpt><trkpt lat="38.16968975593625" lon="13.251576287506293"><ele>599.0</ele><time>2026-03-22T13:42:09.001Z</time></trkpt><trkpt lat="38.16979231595649" lon="13.251578170386528"><ele>597.0</ele><time>2026-03-22T13:42:10.001Z</time></trkpt><trkpt lat="38.169882195126334" lon="13.251542201936521"><ele>595.0</ele><time>2026-03-22T13:42:11.001Z</time></trkpt><trkpt lat="38.16999499765003" lon="13.251526069037038"><ele>593.0</ele><time>2026-03-22T13:42:12.001Z</time></trkpt><trkpt lat="38.17008348142822" lon="13.251529912222281"><ele>591.0</ele><time>2026-03-22T13:42:13.001Z</time></trkpt><trkpt lat="38.17019262821831" lon="13.251518651404336"><ele>589.0</ele><time>2026-03-22T13:42:14.001Z</time></trkpt><trkpt lat="38.170311051432975" lon="13.251510130033115"><ele>589.0</ele><time>2026-03-22T13:42:15.001Z</time></trkpt><trkpt lat="38.17042040263591" lon="13.25150072320801"><ele>589.0</ele><time>2026-03-22T13:42:16.001Z</time></trkpt><trkpt lat="38.1705258835382" lon="13.251491594623229"><ele>589.0</ele><time>2026-03-22T13:42:17.001Z</time></trkpt><trkpt lat="38.17062889985149" lon="13.25148517407359"><ele>589.0</ele><time>2026-03-22T13:42:18.001Z</time></trkpt><trkpt lat="38.17075301106655" lon="13.251487746221946"><ele>589.0</ele><time>2026-03-22T13:42:19.001Z</time></trkpt><trkpt lat="38.170855383034315" lon="13.251502551354365"><ele>587.2</ele><time>2026-03-22T13:42:20.001Z</time></trkpt><trkpt lat="38.17096985695436" lon="13.251528391589643"><ele>585.4</ele><time>2026-03-22T13:42:21.001Z</time></trkpt><trkpt lat="38.17107724346464" lon="13.25156342070694"><ele>583.6</ele><time>2026-03-22T13:42:22.001Z</time></trkpt><trkpt lat="38.17117688207482" lon="13.251618511781906"><ele>581.8</ele><time>2026-03-22T13:42:23.001Z</time></trkpt><trkpt lat="38.1712853714264" lon="13.251660857164342"><ele>580.0</ele><time>2026-03-22T13:42:24.001Z</time></trkpt><trkpt lat="38.17140852882594" lon="13.251707926775838"><ele>580.0</ele><time>2026-03-22T13:42:25.001Z</time></trkpt><trkpt lat="38.17151351404785" lon="13.251744539125465"><ele>580.0</ele><time>2026-03-22T13:42:26.001Z</time></trkpt><trkpt lat="38.17160717255257" lon="13.251793797911024"><ele>580.0</ele><time>2026-03-22T13:42:27.001Z</time></trkpt><trkpt lat="38.17171554589225" lon="13.251856281499439"><ele>580.0</ele><time>2026-03-22T13:42:28.001Z</time></trkpt><trkpt lat="38.1718071670726" lon="13.251926004726034"><ele>580.0</ele><time>2026-03-22T13:42:29.001Z</time></trkpt><trkpt lat="38.17191564296747" lon="13.251983696894932"><ele>574.5</ele><time>2026-03-22T13:42:30.001Z</time></trkpt><trkpt lat="38.172010359974756" lon="13.252041646403205"><ele>569.0</ele><time>2026-03-22T13:42:31.001Z</time></trkpt><trkpt lat="38.17210552530556" lon="13.252107480635553"><ele>563.5</ele><time>2026-03-22T13:42:32.001Z</time></trkpt><trkpt lat="38.17222611329786" lon="13.252185279017569"><ele>558.0</ele><time>2026-03-22T13:42:33.001Z</time></trkpt><trkpt lat="38.172295659804995" lon="13.25228001105126"><ele>558.0</ele><time>2026-03-22T13:42:34.001Z</time></trkpt><trkpt lat="38.172397709843935" lon="13.252342353932317"><ele>558.0</ele><time>2026-03-22T13:42:35.001Z</time></trkpt><trkpt lat="38.172469957618326" lon="13.25240992338613"><ele>558.0</ele><time>2026-03-22T13:42:36.001Z</time></trkpt><trkpt lat="38.17252819680673" lon="13.252496392780177"><ele>558.0</ele><time>2026-03-22T13:42:37.001Z</time></trkpt><trkpt lat="38.17259740609687" lon="13.252568098985005"><ele>558.0</ele><time>2026-03-22T13:42:38.001Z</time></trkpt><trkpt lat="38.172676237677976" lon="13.252649087412333"><ele>558.0</ele><time>2026-03-22T13:42:39.001Z</time></trkpt><trkpt lat="38.172741470875756" lon="13.252689930625511"><ele>558.0</ele><time>2026-03-22T13:42:40.001Z</time></trkpt><trkpt lat="38.172797484622734" lon="13.252748353125053"><ele>558.0</ele><time>2026-03-22T13:42:41.001Z</time></trkpt><trkpt lat="38.17290393566121" lon="13.252855724313163"><ele>558.0</ele><time>2026-03-22T13:42:43.001Z</time></trkpt><trkpt lat="38.17296310623399" lon="13.252886523103383"><ele>558.0</ele><time>2026-03-22T13:42:44.001Z</time></trkpt><trkpt lat="38.17301965551864" lon="13.252924234085773"><ele>558.0</ele><time>2026-03-22T13:42:45.001Z</time></trkpt><trkpt lat="38.17314939485999" lon="13.252946958730389"><ele>553.1999999999999</ele><time>2026-03-22T13:42:47.001Z</time></trkpt><trkpt lat="38.17322115182416" lon="13.25296633954917"><ele>548.4</ele><time>2026-03-22T13:42:48.001Z</time></trkpt><trkpt lat="38.17332319792717" lon="13.252992830465649"><ele>543.5999999999999</ele><time>2026-03-22T13:42:49.001Z</time></trkpt><trkpt lat="38.17344592766758" lon="13.253030691277116"><ele>538.8</ele><time>2026-03-22T13:42:50.001Z</time></trkpt><trkpt lat="38.17356488659067" lon="13.253084497283945"><ele>534.0</ele><time>2026-03-22T13:42:51.001Z</time></trkpt><trkpt lat="38.173641974183504" lon="13.25312173095392"><ele>535.0</ele><time>2026-03-22T13:42:52.001Z</time></trkpt><trkpt lat="38.17371406515203" lon="13.253156552628592"><ele>536.0</ele><time>2026-03-22T13:42:53.001Z</time></trkpt><trkpt lat="38.17379707207857" lon="13.253196645297628"><ele>537.0</ele><time>2026-03-22T13:42:54.001Z</time></trkpt><trkpt lat="38.17390270169976" lon="13.253250065036157"><ele>538.0</ele><time>2026-03-22T13:42:55.001Z</time></trkpt><trkpt lat="38.17399131865587" lon="13.253297002361652"><ele>539.0</ele><time>2026-03-22T13:42:56.001Z</time></trkpt><trkpt lat="38.17408739086763" lon="13.253348534942713"><ele>539.0</ele><time>2026-03-22T13:42:57.001Z</time></trkpt><trkpt lat="38.17416417347677" lon="13.253412238240664"><ele>539.0</ele><time>2026-03-22T13:42:58.001Z</time></trkpt><trkpt lat="38.174252397266606" lon="13.25348781796945"><ele>539.0</ele><time>2026-03-22T13:42:59.001Z</time></trkpt><trkpt lat="38.17434845409992" lon="13.25360171959134"><ele>539.0</ele><time>2026-03-22T13:43:00.001Z</time></trkpt><trkpt lat="38.17441705711908" lon="13.253707367005875"><ele>539.0</ele><time>2026-03-22T13:43:01.001Z</time></trkpt><trkpt lat="38.17444521610776" lon="13.253786943005466"><ele>551.5</ele><time>2026-03-22T13:43:02.001Z</time></trkpt><trkpt lat="38.174536097693625" lon="13.253984664081337"><ele>564.0</ele><time>2026-03-22T13:43:04.001Z</time></trkpt><trkpt lat="38.17422230300082" lon="13.254609687095154"><ele>564.0</ele><time>2026-03-22T13:43:05.001Z</time></trkpt><trkpt lat="38.17423929793525" lon="13.254710366306332"><ele>564.0</ele><time>2026-03-22T13:43:06.001Z</time></trkpt><trkpt lat="38.174259168235984" lon="13.254847200462292"><ele>564.0</ele><time>2026-03-22T13:43:07.001Z</time></trkpt><trkpt lat="38.17427679054447" lon="13.254993001806605"><ele>564.0</ele><time>2026-03-22T13:43:08.001Z</time></trkpt><trkpt lat="38.174306117495995" lon="13.255138780893997"><ele>564.0</ele><time>2026-03-22T13:43:09.001Z</time></trkpt><trkpt lat="38.174328343842745" lon="13.255276874583377"><ele>566.6</ele><time>2026-03-22T13:43:10.001Z</time></trkpt><trkpt lat="38.17432965155228" lon="13.255416007390336"><ele>569.2</ele><time>2026-03-22T13:43:11.001Z</time></trkpt><trkpt lat="38.17431738075481" lon="13.255535852529011"><ele>571.8000000000001</ele><time>2026-03-22T13:43:12.001Z</time></trkpt><trkpt lat="38.17430663076527" lon="13.25565256005375"><ele>574.4</ele><time>2026-03-22T13:43:13.001Z</time></trkpt><trkpt lat="38.17429858456884" lon="13.25577804949371"><ele>577.0</ele><time>2026-03-22T13:43:14.001Z</time></trkpt><trkpt lat="38.174289131427436" lon="13.255861324555113"><ele>577.4285714285714</ele><time>2026-03-22T13:43:15.001Z</time></trkpt><trkpt lat="38.17428213107401" lon="13.255945042191046"><ele>577.8571428571429</ele><time>2026-03-22T13:43:17.001Z</time></trkpt><trkpt lat="38.174338647379145" lon="13.25598713085563"><ele>578.2857142857143</ele><time>2026-03-22T13:43:48.002Z</time></trkpt><trkpt lat="38.17440487393056" lon="13.256006555780509"><ele>578.7142857142858</ele><time>2026-03-22T13:43:52.002Z</time></trkpt><trkpt lat="38.174455060320994" lon="13.256058383475935"><ele>579.1428571428572</ele><time>2026-03-22T13:43:55.002Z</time></trkpt><trkpt lat="38.174516235486706" lon="13.256108009690026"><ele>579.5714285714286</ele><time>2026-03-22T13:43:58.002Z</time></trkpt><trkpt lat="38.174522033717345" lon="13.256204967294787"><ele>580.0</ele><time>2026-03-22T13:44:00.002Z</time></trkpt><trkpt lat="38.174583152693984" lon="13.256229293523196"><ele>580.0</ele><time>2026-03-22T13:44:02.001Z</time></trkpt><trkpt lat="38.17464699296836" lon="13.256322828634728"><ele>580.0</ele><time>2026-03-22T13:44:05.001Z</time></trkpt><trkpt lat="38.17472421355901" lon="13.256364178917796"><ele>580.0</ele><time>2026-03-22T13:44:07.001Z</time></trkpt><trkpt lat="38.1747873475471" lon="13.25641284498555"><ele>580.0</ele><time>2026-03-22T13:44:09.001Z</time></trkpt><trkpt lat="38.174845041261925" lon="13.256448860404229"><ele>580.0</ele><time>2026-03-22T13:44:11.001Z</time></trkpt><trkpt lat="38.17488958133319" lon="13.256539855721542"><ele>580.0</ele><time>2026-03-22T13:44:15.001Z</time></trkpt><trkpt lat="38.17491835330801" lon="13.256617887708536"><ele>575.3333333333334</ele><time>2026-03-22T13:44:17.001Z</time></trkpt><trkpt lat="38.17498551696429" lon="13.256661787227129"><ele>570.6666666666667</ele><time>2026-03-22T13:44:20.001Z</time></trkpt><trkpt lat="38.17506373766003" lon="13.256705286445053"><ele>566.0</ele><time>2026-03-22T13:44:21.001Z</time></trkpt><trkpt lat="38.17514275952541" lon="13.256749250733296"><ele>561.3333333333334</ele><time>2026-03-22T13:44:23.001Z</time></trkpt><trkpt lat="38.17519993486369" lon="13.256851934130909"><ele>556.6666666666666</ele><time>2026-03-22T13:44:26.001Z</time></trkpt><trkpt lat="38.17525419370319" lon="13.256938489961101"><ele>552.0</ele><time>2026-03-22T13:44:28.001Z</time></trkpt><trkpt lat="38.17532747806013" lon="13.257037536698363"><ele>552.0</ele><time>2026-03-22T13:44:30.001Z</time></trkpt><trkpt lat="38.17536336956461" lon="13.25711607206718"><ele>552.0</ele><time>2026-03-22T13:44:32.001Z</time></trkpt><trkpt lat="38.17538566439022" lon="13.257208887901278"><ele>552.0</ele><time>2026-03-22T13:44:34.001Z</time></trkpt><trkpt lat="38.1754405288483" lon="13.257314780719625"><ele>552.0</ele><time>2026-03-22T13:44:37.001Z</time></trkpt><trkpt lat="38.175458018268166" lon="13.257398830708016"><ele>552.0</ele><time>2026-03-22T13:44:40.001Z</time></trkpt><trkpt lat="38.17551105681618" lon="13.257474334933733"><ele>552.0</ele><time>2026-03-22T13:44:44.001Z</time></trkpt><trkpt lat="38.175652592679754" lon="13.257609168605578"><ele>550.6666666666666</ele><time>2026-03-22T13:44:47.001Z</time></trkpt><trkpt lat="38.175627652232315" lon="13.257697908800209"><ele>549.3333333333334</ele><time>2026-03-22T13:44:49.001Z</time></trkpt><trkpt lat="38.175601660971765" lon="13.257779043923115"><ele>548.0</ele><time>2026-03-22T13:44:52.001Z</time></trkpt><trkpt lat="38.17556787099992" lon="13.257870239103044"><ele>546.6666666666667</ele><time>2026-03-22T13:44:55.001Z</time></trkpt><trkpt lat="38.17553807325561" lon="13.257952742824164"><ele>545.3333333333334</ele><time>2026-03-22T13:44:57.001Z</time></trkpt><trkpt lat="38.17551398921408" lon="13.258029032769095"><ele>544.0</ele><time>2026-03-22T13:45:00.001Z</time></trkpt><trkpt lat="38.17546009741736" lon="13.25814660451317"><ele>541.1666666666667</ele><time>2026-03-22T13:46:50.001Z</time></trkpt><trkpt lat="38.17538541640083" lon="13.258276992785838"><ele>538.3333333333334</ele><time>2026-03-22T13:46:51.001Z</time></trkpt><trkpt lat="38.17531922645406" lon="13.258339085178841"><ele>535.5</ele><time>2026-03-22T13:46:52.001Z</time></trkpt><trkpt lat="38.17526736777431" lon="13.258386810622659"><ele>532.6666666666666</ele><time>2026-03-22T13:46:54.001Z</time></trkpt><trkpt lat="38.17522176768531" lon="13.258450207831153"><ele>529.8333333333333</ele><time>2026-03-22T13:46:55.001Z</time></trkpt><trkpt lat="38.175162895259454" lon="13.258529023490361"><ele>527.0</ele><time>2026-03-22T13:46:56.001Z</time></trkpt><trkpt lat="38.17510282398435" lon="13.258609444115185"><ele>527.0</ele><time>2026-03-22T13:46:57.001Z</time></trkpt><trkpt lat="38.175046091573314" lon="13.258685394824502"><ele>527.0</ele><time>2026-03-22T13:46:58.001Z</time></trkpt><trkpt lat="38.174988430745366" lon="13.258765317567867"><ele>527.0</ele><time>2026-03-22T13:46:59.001Z</time></trkpt><trkpt lat="38.17494714212223" lon="13.258844105421698"><ele>527.0</ele><time>2026-03-22T13:47:00.001Z</time></trkpt><trkpt lat="38.17488806264306" lon="13.258913444101442"><ele>527.0</ele><time>2026-03-22T13:47:01.001Z</time></trkpt><trkpt lat="38.17481459489108" lon="13.259045870258873"><ele>529.0</ele><time>2026-03-22T13:47:03.001Z</time></trkpt><trkpt lat="38.17469877763035" lon="13.259213328130963"><ele>531.0</ele><time>2026-03-22T13:47:05.001Z</time></trkpt><trkpt lat="38.17465055216491" lon="13.259303825584228"><ele>533.0</ele><time>2026-03-22T13:47:06.001Z</time></trkpt><trkpt lat="38.17460879253144" lon="13.259404943485656"><ele>535.0</ele><time>2026-03-22T13:47:07.001Z</time></trkpt><trkpt lat="38.17458141107146" lon="13.259504523928914"><ele>537.0</ele><time>2026-03-22T13:47:08.001Z</time></trkpt><trkpt lat="38.17456499763596" lon="13.25959733535075"><ele>537.0</ele><time>2026-03-22T13:47:09.001Z</time></trkpt><trkpt lat="38.17455668673528" lon="13.2596956466843"><ele>537.0</ele><time>2026-03-22T13:47:10.001Z</time></trkpt><trkpt lat="38.174553860424425" lon="13.259805095013204"><ele>537.0</ele><time>2026-03-22T13:47:11.001Z</time></trkpt><trkpt lat="38.17455332847096" lon="13.25989798107138"><ele>537.0</ele><time>2026-03-22T13:47:12.001Z</time></trkpt><trkpt lat="38.17455655676066" lon="13.260003707556068"><ele>537.0</ele><time>2026-03-22T13:47:13.001Z</time></trkpt><trkpt lat="38.17456417010006" lon="13.260166769715312"><ele>537.0</ele><time>2026-03-22T13:47:15.001Z</time></trkpt><trkpt lat="38.17457290676618" lon="13.26025930214882"><ele>536.0</ele><time>2026-03-22T13:47:16.001Z</time></trkpt><trkpt lat="38.174592985736105" lon="13.260398643015542"><ele>535.0</ele><time>2026-03-22T13:47:17.001Z</time></trkpt><trkpt lat="38.17462623735149" lon="13.260513899089924"><ele>534.0</ele><time>2026-03-22T13:47:18.001Z</time></trkpt><trkpt lat="38.1746922118126" lon="13.260382588926113"><ele>533.0</ele><time>2026-03-22T13:47:22.001Z</time></trkpt><trkpt lat="38.17474063518179" lon="13.260284079940643"><ele>532.0</ele><time>2026-03-22T13:47:23.001Z</time></trkpt><trkpt lat="38.17475293577181" lon="13.260148739528352"><ele>532.0</ele><time>2026-03-22T13:47:24.001Z</time></trkpt><trkpt lat="38.17480721975456" lon="13.260032396760582"><ele>532.0</ele><time>2026-03-22T13:47:25.001Z</time></trkpt><trkpt lat="38.17484737340776" lon="13.259944486675174"><ele>532.0</ele><time>2026-03-22T13:47:26.001Z</time></trkpt><trkpt lat="38.174898840884744" lon="13.25985421256116"><ele>532.0</ele><time>2026-03-22T13:47:27.001Z</time></trkpt><trkpt lat="38.17495781853672" lon="13.259780071723632"><ele>532.0</ele><time>2026-03-22T13:47:29.001Z</time></trkpt><trkpt lat="38.17500037549562" lon="13.259718414070418"><ele>532.0</ele><time>2026-03-22T13:47:30.001Z</time></trkpt><trkpt lat="38.175063884586244" lon="13.259629919691843"><ele>527.5</ele><time>2026-03-22T13:47:31.001Z</time></trkpt><trkpt lat="38.17513700503319" lon="13.259531410214338"><ele>523.0</ele><time>2026-03-22T13:47:32.001Z</time></trkpt><trkpt lat="38.17522114431374" lon="13.259421280907384"><ele>518.5</ele><time>2026-03-22T13:47:33.001Z</time></trkpt><trkpt lat="38.175298515373285" lon="13.259324678451247"><ele>514.0</ele><time>2026-03-22T13:47:34.001Z</time></trkpt><trkpt lat="38.17538666190492" lon="13.259219487962183"><ele>514.0</ele><time>2026-03-22T13:47:35.001Z</time></trkpt><trkpt lat="38.17547353485255" lon="13.259112772207745"><ele>514.0</ele><time>2026-03-22T13:47:36.001Z</time></trkpt><trkpt lat="38.17556830941303" lon="13.25901700265292"><ele>514.0</ele><time>2026-03-22T13:47:37.001Z</time></trkpt><trkpt lat="38.17564947639165" lon="13.258939247856794"><ele>514.0</ele><time>2026-03-22T13:47:38.001Z</time></trkpt><trkpt lat="38.1757378993353" lon="13.258835359717278"><ele>512.5</ele><time>2026-03-22T13:47:39.001Z</time></trkpt><trkpt lat="38.175834867063514" lon="13.258772058692026"><ele>511.0</ele><time>2026-03-22T13:47:40.001Z</time></trkpt><trkpt lat="38.17592054364083" lon="13.258696305713379"><ele>509.5</ele><time>2026-03-22T13:47:41.001Z</time></trkpt><trkpt lat="38.17600611589197" lon="13.25859377788498"><ele>508.0</ele><time>2026-03-22T13:47:42.001Z</time></trkpt><trkpt lat="38.176123336840895" lon="13.258485925657691"><ele>508.0</ele><time>2026-03-22T13:47:43.001Z</time></trkpt><trkpt lat="38.17622858883635" lon="13.258379377963907"><ele>508.0</ele><time>2026-03-22T13:47:44.001Z</time></trkpt><trkpt lat="38.1763227294169" lon="13.258285453334151"><ele>508.0</ele><time>2026-03-22T13:47:45.001Z</time></trkpt><trkpt lat="38.17639355605074" lon="13.258185714663224"><ele>508.0</ele><time>2026-03-22T13:47:46.001Z</time></trkpt><trkpt lat="38.17646817079019" lon="13.258088785505636"><ele>504.59999999999997</ele><time>2026-03-22T13:47:47.001Z</time></trkpt><trkpt lat="38.17655730396249" lon="13.257995016484438"><ele>501.19999999999993</ele><time>2026-03-22T13:47:48.001Z</time></trkpt><trkpt lat="38.17662449970565" lon="13.25788889376302"><ele>497.8</ele><time>2026-03-22T13:47:49.001Z</time></trkpt><trkpt lat="38.17668581084886" lon="13.257781545507974"><ele>494.4</ele><time>2026-03-22T13:47:50.001Z</time></trkpt><trkpt lat="38.17675363285207" lon="13.257670362180296"><ele>491.0</ele><time>2026-03-22T13:47:51.001Z</time></trkpt><trkpt lat="38.17678196614969" lon="13.257563463471545"><ele>491.0</ele><time>2026-03-22T13:47:52.001Z</time></trkpt><trkpt lat="38.176814407665454" lon="13.257460684955667"><ele>491.0</ele><time>2026-03-22T13:47:53.001Z</time></trkpt><trkpt lat="38.17685019699837" lon="13.257347040052009"><ele>491.0</ele><time>2026-03-22T13:47:54.001Z</time></trkpt><trkpt lat="38.176852930637736" lon="13.257212691162893"><ele>491.0</ele><time>2026-03-22T13:47:55.001Z</time></trkpt><trkpt lat="38.17688384728445" lon="13.257061324758771"><ele>491.0</ele><time>2026-03-22T13:47:56.001Z</time></trkpt><trkpt lat="38.17690363116731" lon="13.256895293557156"><ele>491.20000000000005</ele><time>2026-03-22T13:47:57.001Z</time></trkpt><trkpt lat="38.17692408559058" lon="13.256713073909776"><ele>491.40000000000003</ele><time>2026-03-22T13:47:58.001Z</time></trkpt><trkpt lat="38.17693842678346" lon="13.256592705385598"><ele>491.6</ele><time>2026-03-22T13:47:59.001Z</time></trkpt><trkpt lat="38.17695472930968" lon="13.256485541721622"><ele>491.8</ele><time>2026-03-22T13:48:00.001Z</time></trkpt><trkpt lat="38.17700129003873" lon="13.256345590469781"><ele>492.0</ele><time>2026-03-22T13:48:02.001Z</time></trkpt><trkpt lat="38.17708222813292" lon="13.256278181586943"><ele>492.0</ele><time>2026-03-22T13:48:04.001Z</time></trkpt><trkpt lat="38.17715192695136" lon="13.256336092186299"><ele>492.00000000000006</ele><time>2026-03-22T13:48:05.001Z</time></trkpt><trkpt lat="38.17715798653298" lon="13.256434086107243"><ele>492.00000000000006</ele><time>2026-03-22T13:48:06.002Z</time></trkpt><trkpt lat="38.17719425712967" lon="13.256518924059957"><ele>492.0</ele><time>2026-03-22T13:48:07.002Z</time></trkpt><trkpt lat="38.177262726494085" lon="13.256636242315155"><ele>492.0</ele><time>2026-03-22T13:48:08.002Z</time></trkpt><trkpt lat="38.1773166973414" lon="13.256769186186238"><ele>489.20000000000005</ele><time>2026-03-22T13:48:09.002Z</time></trkpt><trkpt lat="38.17735297348212" lon="13.256890157894627"><ele>486.40000000000003</ele><time>2026-03-22T13:48:10.002Z</time></trkpt><trkpt lat="38.177401304838725" lon="13.25701800262061"><ele>483.59999999999997</ele><time>2026-03-22T13:48:11.002Z</time></trkpt><trkpt lat="38.1774448386088" lon="13.257143345918184"><ele>480.79999999999995</ele><time>2026-03-22T13:48:12.002Z</time></trkpt><trkpt lat="38.17749096181836" lon="13.257290085845405"><ele>478.0</ele><time>2026-03-22T13:48:13.002Z</time></trkpt><trkpt lat="38.1775217886203" lon="13.257417451222478"><ele>477.0</ele><time>2026-03-22T13:48:14Z</time></trkpt><trkpt lat="38.177528130719644" lon="13.2575428439517"><ele>475.99999999999994</ele><time>2026-03-22T13:48:15Z</time></trkpt><trkpt lat="38.17757986706624" lon="13.257658459439643"><ele>474.99999999999994</ele><time>2026-03-22T13:48:16Z</time></trkpt><trkpt lat="38.17762396163406" lon="13.257799579767891"><ele>474.0</ele><time>2026-03-22T13:48:17Z</time></trkpt><trkpt lat="38.17767286105277" lon="13.25794031803962"><ele>473.0</ele><time>2026-03-22T13:48:18Z</time></trkpt><trkpt lat="38.17774744159848" lon="13.258059878328215"><ele>472.0</ele><time>2026-03-22T13:48:19Z</time></trkpt><trkpt lat="38.17782018771067" lon="13.258187225424331"><ele>471.0</ele><time>2026-03-22T13:48:20Z</time></trkpt><trkpt lat="38.17791026574289" lon="13.258295808571674"><ele>470.0</ele><time>2026-03-22T13:48:21Z</time></trkpt><trkpt lat="38.17799380409353" lon="13.258427027936817"><ele>469.0</ele><time>2026-03-22T13:48:22Z</time></trkpt><trkpt lat="38.17809378047596" lon="13.25852793142695"><ele>469.0</ele><time>2026-03-22T13:48:23Z</time></trkpt><trkpt lat="38.17817638773047" lon="13.258658443149733"><ele>469.0</ele><time>2026-03-22T13:48:24Z</time></trkpt><trkpt lat="38.17826446200975" lon="13.258745401109817"><ele>469.0</ele><time>2026-03-22T13:48:25Z</time></trkpt><trkpt lat="38.17835684514025" lon="13.258856883255072"><ele>469.0</ele><time>2026-03-22T13:48:26Z</time></trkpt><trkpt lat="38.17844460100314" lon="13.258953630971945"><ele>467.0</ele><time>2026-03-22T13:48:27Z</time></trkpt><trkpt lat="38.1785358904388" lon="13.259023083019118"><ele>465.0</ele><time>2026-03-22T13:48:28Z</time></trkpt><trkpt lat="38.178626492497685" lon="13.259110171955676"><ele>463.0</ele><time>2026-03-22T13:48:29Z</time></trkpt><trkpt lat="38.17873805898841" lon="13.259209529465805"><ele>461.0</ele><time>2026-03-22T13:48:30Z</time></trkpt><trkpt lat="38.178857810936385" lon="13.259317520313381"><ele>461.0</ele><time>2026-03-22T13:48:31Z</time></trkpt><trkpt lat="38.17894678816594" lon="13.259429378349639"><ele>461.0</ele><time>2026-03-22T13:48:32Z</time></trkpt><trkpt lat="38.17905302733988" lon="13.25950998191616"><ele>461.0</ele><time>2026-03-22T13:48:33Z</time></trkpt><trkpt lat="38.17915854088909" lon="13.25961030398833"><ele>461.0</ele><time>2026-03-22T13:48:34Z</time></trkpt><trkpt lat="38.17926526975737" lon="13.259697707805838"><ele>456.75</ele><time>2026-03-22T13:48:35Z</time></trkpt><trkpt lat="38.179371648756025" lon="13.259791584309717"><ele>452.5</ele><time>2026-03-22T13:48:36Z</time></trkpt><trkpt lat="38.179475587025145" lon="13.2598651518407"><ele>448.25</ele><time>2026-03-22T13:48:37Z</time></trkpt><trkpt lat="38.17957960217915" lon="13.259895115011648"><ele>444.0</ele><time>2026-03-22T13:48:38Z</time></trkpt><trkpt lat="38.179687387261666" lon="13.259948359167645"><ele>444.0</ele><time>2026-03-22T13:48:39Z</time></trkpt><trkpt lat="38.17979694057072" lon="13.260031186972272"><ele>444.0</ele><time>2026-03-22T13:48:40Z</time></trkpt><trkpt lat="38.17991503059123" lon="13.260120891512056"><ele>444.0</ele><time>2026-03-22T13:48:41Z</time></trkpt><trkpt lat="38.18003103672576" lon="13.260183694972266"><ele>444.0</ele><time>2026-03-22T13:48:42Z</time></trkpt><trkpt lat="38.18017024139692" lon="13.260190109844514"><ele>443.8333333333333</ele><time>2026-03-22T13:48:43Z</time></trkpt><trkpt lat="38.18023612550166" lon="13.260234024067115"><ele>443.66666666666663</ele><time>2026-03-22T13:48:44Z</time></trkpt><trkpt lat="38.180303561054" lon="13.260238199048048"><ele>443.5</ele><time>2026-03-22T13:48:45Z</time></trkpt><trkpt lat="38.18036763802444" lon="13.26026783999228"><ele>443.3333333333333</ele><time>2026-03-22T13:48:46Z</time></trkpt><trkpt lat="38.180370134440984" lon="13.260351534381636"><ele>443.16666666666663</ele><time>2026-03-22T13:48:49Z</time></trkpt><trkpt lat="38.180302652932156" lon="13.260331360924708"><ele>443.0</ele><time>2026-03-22T13:48:50Z</time></trkpt><trkpt lat="38.18014309391518" lon="13.260358062030436"><ele>443.0</ele><time>2026-03-22T13:48:52Z</time></trkpt><trkpt lat="38.180049961569964" lon="13.260382715928626"><ele>442.99999999999994</ele><time>2026-03-22T13:48:53Z</time></trkpt><trkpt lat="38.179940793007056" lon="13.260367602359297"><ele>442.99999999999994</ele><time>2026-03-22T13:48:54Z</time></trkpt><trkpt lat="38.179828383338986" lon="13.260390900646126"><ele>443.0</ele><time>2026-03-22T13:48:55Z</time></trkpt><trkpt lat="38.179714802556106" lon="13.260412094600717"><ele>443.0</ele><time>2026-03-22T13:48:56Z</time></trkpt><trkpt lat="38.17959987997306" lon="13.260422589716741"><ele>443.2</ele><time>2026-03-22T13:48:57Z</time></trkpt><trkpt lat="38.17947187602368" lon="13.260442561847709"><ele>443.4</ele><time>2026-03-22T13:48:58Z</time></trkpt><trkpt lat="38.179399576525704" lon="13.260448658151986"><ele>443.59999999999997</ele><time>2026-03-22T13:48:59Z</time></trkpt><trkpt lat="38.17930560777684" lon="13.260491226058395"><ele>443.79999999999995</ele><time>2026-03-22T13:49:00Z</time></trkpt><trkpt lat="38.179220183432136" lon="13.26056722557502"><ele>444.0</ele><time>2026-03-22T13:49:01Z</time></trkpt><trkpt lat="38.17915371511285" lon="13.26065884970381"><ele>444.2</ele><time>2026-03-22T13:49:02Z</time></trkpt><trkpt lat="38.17910375347196" lon="13.260745026694776"><ele>444.4</ele><time>2026-03-22T13:49:03Z</time></trkpt><trkpt lat="38.17906820614284" lon="13.260845398801305"><ele>444.6</ele><time>2026-03-22T13:49:04Z</time></trkpt><trkpt lat="38.17903136536314" lon="13.260957838602785"><ele>444.8</ele><time>2026-03-22T13:49:05Z</time></trkpt><trkpt lat="38.17898951365316" lon="13.261092654812218"><ele>445.0</ele><time>2026-03-22T13:49:06Z</time></trkpt><trkpt lat="38.17895360672347" lon="13.261216951866492"><ele>445.00000000000006</ele><time>2026-03-22T13:49:07.001Z</time></trkpt><trkpt lat="38.17892187740095" lon="13.26132298266774"><ele>445.0</ele><time>2026-03-22T13:49:08.001Z</time></trkpt><trkpt lat="38.17888273785816" lon="13.2614334149492"><ele>445.0</ele><time>2026-03-22T13:49:09.001Z</time></trkpt><trkpt lat="38.17884822851788" lon="13.261518165622467"><ele>445.0</ele><time>2026-03-22T13:49:10.001Z</time></trkpt><trkpt lat="38.17881296364695" lon="13.261603996497351"><ele>445.00000000000006</ele><time>2026-03-22T13:49:11.001Z</time></trkpt><trkpt lat="38.17878619526971" lon="13.261687773360942"><ele>445.0</ele><time>2026-03-22T13:49:12.001Z</time></trkpt><trkpt lat="38.17877677060611" lon="13.261779641952764"><ele>444.6</ele><time>2026-03-22T13:49:13.001Z</time></trkpt><trkpt lat="38.1787904336354" lon="13.261873880166977"><ele>444.2</ele><time>2026-03-22T13:49:14.001Z</time></trkpt><trkpt lat="38.17881675935739" lon="13.261961367517625"><ele>443.79999999999995</ele><time>2026-03-22T13:49:15.001Z</time></trkpt><trkpt lat="38.17888124173531" lon="13.262081325139842"><ele>443.4</ele><time>2026-03-22T13:49:16.001Z</time></trkpt><trkpt lat="38.178916967106815" lon="13.262149505882446"><ele>443.0</ele><time>2026-03-22T13:49:17.001Z</time></trkpt><trkpt lat="38.179039801604056" lon="13.26230646468182"><ele>440.59999999999997</ele><time>2026-03-22T13:49:19.001Z</time></trkpt><trkpt lat="38.17911300316497" lon="13.262383186849556"><ele>438.19999999999993</ele><time>2026-03-22T13:49:20.001Z</time></trkpt><trkpt lat="38.179163071993855" lon="13.262493924413498"><ele>435.8</ele><time>2026-03-22T13:49:21.001Z</time></trkpt><trkpt lat="38.179209868947645" lon="13.262576276067197"><ele>433.4</ele><time>2026-03-22T13:49:22.001Z</time></trkpt><trkpt lat="38.17927454052638" lon="13.262694590716501"><ele>431.0</ele><time>2026-03-22T13:49:24.001Z</time></trkpt><trkpt lat="38.17933160211986" lon="13.26279898301914"><ele>431.0</ele><time>2026-03-22T13:49:25.001Z</time></trkpt><trkpt lat="38.17940276603115" lon="13.262888963641135"><ele>431.0</ele><time>2026-03-22T13:49:26.001Z</time></trkpt><trkpt lat="38.17944827737623" lon="13.262966364556299"><ele>431.0</ele><time>2026-03-22T13:49:27.001Z</time></trkpt><trkpt lat="38.17951160421822" lon="13.26305802739103"><ele>431.0</ele><time>2026-03-22T13:49:28.001Z</time></trkpt><trkpt lat="38.17956701003477" lon="13.263161820138897"><ele>431.0</ele><time>2026-03-22T13:49:29.001Z</time></trkpt><trkpt lat="38.17962956108387" lon="13.263255467435663"><ele>432.0</ele><time>2026-03-22T13:49:30.001Z</time></trkpt><trkpt lat="38.17969390498991" lon="13.263357225843425"><ele>433.0</ele><time>2026-03-22T13:49:31.001Z</time></trkpt><trkpt lat="38.17976779819772" lon="13.263455952514489"><ele>434.0</ele><time>2026-03-22T13:49:32.001Z</time></trkpt><trkpt lat="38.17982477638092" lon="13.263553924237488"><ele>435.0</ele><time>2026-03-22T13:49:33.001Z</time></trkpt><trkpt lat="38.179922809840726" lon="13.26369541408015"><ele>433.25</ele><time>2026-03-22T13:49:35.001Z</time></trkpt><trkpt lat="38.18002404342951" lon="13.263810024124878"><ele>431.5</ele><time>2026-03-22T13:49:36.001Z</time></trkpt><trkpt lat="38.18009355931429" lon="13.263917222202082"><ele>429.75</ele><time>2026-03-22T13:49:37.001Z</time></trkpt><trkpt lat="38.18015971547867" lon="13.263991626119997"><ele>428.0</ele><time>2026-03-22T13:49:38.001Z</time></trkpt><trkpt lat="38.18029749479885" lon="13.264112795943317"><ele>428.0</ele><time>2026-03-22T13:49:40.001Z</time></trkpt><trkpt lat="38.18040585506976" lon="13.264165975026572"><ele>428.0</ele><time>2026-03-22T13:49:41.001Z</time></trkpt><trkpt lat="38.18053605517555" lon="13.264262884465515"><ele>428.0</ele><time>2026-03-22T13:49:42.001Z</time></trkpt><trkpt lat="38.18063564941607" lon="13.264318950344126"><ele>428.0</ele><time>2026-03-22T13:49:43.001Z</time></trkpt><trkpt lat="38.18075008361966" lon="13.264391107040302"><ele>425.0</ele><time>2026-03-22T13:49:44.001Z</time></trkpt><trkpt lat="38.18084439076106" lon="13.264473200056722"><ele>422.0</ele><time>2026-03-22T13:49:45.001Z</time></trkpt><trkpt lat="38.1809395412238" lon="13.264557697308613"><ele>419.0</ele><time>2026-03-22T13:49:46.001Z</time></trkpt><trkpt lat="38.1810487966629" lon="13.264632803003565"><ele>416.0</ele><time>2026-03-22T13:49:47.001Z</time></trkpt><trkpt lat="38.18117664462289" lon="13.264696149573119"><ele>416.0</ele><time>2026-03-22T13:49:48.001Z</time></trkpt><trkpt lat="38.1812831043678" lon="13.264741294313398"><ele>416.0</ele><time>2026-03-22T13:49:49.001Z</time></trkpt><trkpt lat="38.181400972195554" lon="13.264794706371307"><ele>416.0</ele><time>2026-03-22T13:49:50.001Z</time></trkpt><trkpt lat="38.18150905898014" lon="13.264850944700093"><ele>416.0</ele><time>2026-03-22T13:49:51.001Z</time></trkpt><trkpt lat="38.181625611230935" lon="13.264912267289048"><ele>417.0</ele><time>2026-03-22T13:49:52.001Z</time></trkpt><trkpt lat="38.18174351763871" lon="13.264977964437612"><ele>418.0</ele><time>2026-03-22T13:49:53.001Z</time></trkpt><trkpt lat="38.18181789362808" lon="13.265019996864089"><ele>419.0</ele><time>2026-03-22T13:49:54.001Z</time></trkpt><trkpt lat="38.18192584944272" lon="13.265077850668646"><ele>420.0</ele><time>2026-03-22T13:49:55.001Z</time></trkpt><trkpt lat="38.18207002658546" lon="13.265173700486866"><ele>420.0</ele><time>2026-03-22T13:49:56.001Z</time></trkpt><trkpt lat="38.18219831543279" lon="13.265250233927514"><ele>420.0</ele><time>2026-03-22T13:49:57.001Z</time></trkpt><trkpt lat="38.18231191304059" lon="13.265301984188373"><ele>420.0</ele><time>2026-03-22T13:49:58.001Z</time></trkpt><trkpt lat="38.18243143672943" lon="13.2653242061468"><ele>420.0</ele><time>2026-03-22T13:49:59.001Z</time></trkpt><trkpt lat="38.182550886135175" lon="13.2653934334866"><ele>416.75</ele><time>2026-03-22T13:50:00.001Z</time></trkpt><trkpt lat="38.18266916677276" lon="13.265443858003557"><ele>413.5</ele><time>2026-03-22T13:50:01.001Z</time></trkpt><trkpt lat="38.1827981653039" lon="13.265553008191663"><ele>410.25</ele><time>2026-03-22T13:50:02.001Z</time></trkpt><trkpt lat="38.18290739896266" lon="13.265637376200727"><ele>407.0</ele><time>2026-03-22T13:50:03.001Z</time></trkpt><trkpt lat="38.18298520716977" lon="13.265701033196402"><ele>409.25</ele><time>2026-03-22T13:50:04.001Z</time></trkpt><trkpt lat="38.18310427135265" lon="13.265797725785479"><ele>411.5</ele><time>2026-03-22T13:50:05.001Z</time></trkpt><trkpt lat="38.18323455147755" lon="13.26589592655109"><ele>413.75</ele><time>2026-03-22T13:50:06.001Z</time></trkpt><trkpt lat="38.183355105753876" lon="13.265962864588476"><ele>416.0</ele><time>2026-03-22T13:50:07.001Z</time></trkpt><trkpt lat="38.18347745727803" lon="13.26602437902132"><ele>416.0</ele><time>2026-03-22T13:50:08.001Z</time></trkpt><trkpt lat="38.18358745985593" lon="13.266095792249791"><ele>416.0</ele><time>2026-03-22T13:50:09.001Z</time></trkpt><trkpt lat="38.18370754099488" lon="13.266187142097154"><ele>416.0</ele><time>2026-03-22T13:50:10.001Z</time></trkpt><trkpt lat="38.1838157562643" lon="13.266256841341514"><ele>416.0</ele><time>2026-03-22T13:50:11.001Z</time></trkpt><trkpt lat="38.18393095133045" lon="13.26632913484937"><ele>419.25</ele><time>2026-03-22T13:50:12.001Z</time></trkpt><trkpt lat="38.18406361498026" lon="13.266417314970846"><ele>422.5</ele><time>2026-03-22T13:50:13.001Z</time></trkpt><trkpt lat="38.184162281408106" lon="13.266491279654067"><ele>425.75</ele><time>2026-03-22T13:50:14.001Z</time></trkpt><trkpt lat="38.184272614068966" lon="13.266561863839074"><ele>429.0</ele><time>2026-03-22T13:50:15.001Z</time></trkpt><trkpt lat="38.18438197019546" lon="13.26665261618083"><ele>429.0</ele><time>2026-03-22T13:50:16.001Z</time></trkpt><trkpt lat="38.18447627301768" lon="13.266780270391768"><ele>429.0</ele><time>2026-03-22T13:50:17.001Z</time></trkpt><trkpt lat="38.18458284150722" lon="13.266906564638502"><ele>429.0</ele><time>2026-03-22T13:50:18.001Z</time></trkpt><trkpt lat="38.184684194273466" lon="13.267017126880186"><ele>429.0</ele><time>2026-03-22T13:50:19.001Z</time></trkpt><trkpt lat="38.18480012015823" lon="13.267119190572789"><ele>427.5</ele><time>2026-03-22T13:50:20Z</time></trkpt><trkpt lat="38.184892906535914" lon="13.26723890813638"><ele>426.0</ele><time>2026-03-22T13:50:21Z</time></trkpt><trkpt lat="38.1850113390573" lon="13.267353087122672"><ele>424.5</ele><time>2026-03-22T13:50:22Z</time></trkpt><trkpt lat="38.18512042025369" lon="13.267424897219874"><ele>423.0</ele><time>2026-03-22T13:50:23Z</time></trkpt><trkpt lat="38.18520268084802" lon="13.26752528085783"><ele>423.0</ele><time>2026-03-22T13:50:24Z</time></trkpt><trkpt lat="38.18528052964321" lon="13.267621427802677"><ele>423.0</ele><time>2026-03-22T13:50:25Z</time></trkpt><trkpt lat="38.18534485662992" lon="13.267760414771187"><ele>423.0</ele><time>2026-03-22T13:50:27Z</time></trkpt><trkpt lat="38.18530623382246" lon="13.26792575092996"><ele>423.0</ele><time>2026-03-22T13:50:29Z</time></trkpt><trkpt lat="38.18531037362348" lon="13.268025610019285"><ele>423.0</ele><time>2026-03-22T13:50:30Z</time></trkpt><trkpt lat="38.18537646760734" lon="13.268121333861242"><ele>428.79999999999995</ele><time>2026-03-22T13:50:31Z</time></trkpt><trkpt lat="38.1854090654081" lon="13.268247520690577"><ele>434.6</ele><time>2026-03-22T13:50:32Z</time></trkpt><trkpt lat="38.185459378915496" lon="13.268364482129922"><ele>440.40000000000003</ele><time>2026-03-22T13:50:33Z</time></trkpt><trkpt lat="38.185498231550966" lon="13.268437798599763"><ele>446.20000000000005</ele><time>2026-03-22T13:50:34Z</time></trkpt><trkpt lat="38.18557064459484" lon="13.268514257830024"><ele>452.0</ele><time>2026-03-22T13:50:35Z</time></trkpt><trkpt lat="38.185646408332396" lon="13.268624719635003"><ele>445.8333333333333</ele><time>2026-03-22T13:50:36Z</time></trkpt><trkpt lat="38.18572649724279" lon="13.26870236734548"><ele>439.66666666666663</ele><time>2026-03-22T13:50:37Z</time></trkpt><trkpt lat="38.18578728253009" lon="13.268762339809754"><ele>433.5</ele><time>2026-03-22T13:50:38Z</time></trkpt><trkpt lat="38.1858503439232" lon="13.268812620556947"><ele>427.33333333333337</ele><time>2026-03-22T13:50:39Z</time></trkpt><trkpt lat="38.18595884989276" lon="13.268877715651545"><ele>421.1666666666667</ele><time>2026-03-22T13:50:41Z</time></trkpt><trkpt lat="38.18600215145285" lon="13.268941323120513"><ele>415.0</ele><time>2026-03-22T13:50:43Z</time></trkpt><trkpt lat="38.185922331519144" lon="13.269063036479999"><ele>415.0</ele><time>2026-03-22T13:50:45Z</time></trkpt><trkpt lat="38.18587061917902" lon="13.269171999128533"><ele>415.0</ele><time>2026-03-22T13:50:46Z</time></trkpt><trkpt lat="38.18581691250008" lon="13.269281005941027"><ele>415.0</ele><time>2026-03-22T13:50:47Z</time></trkpt><trkpt lat="38.185785448876395" lon="13.269371241270271"><ele>415.0</ele><time>2026-03-22T13:50:48Z</time></trkpt><trkpt lat="38.18570682642127" lon="13.269464492961868"><ele>415.0</ele><time>2026-03-22T13:50:49Z</time></trkpt><trkpt lat="38.185634633679626" lon="13.269572286863024"><ele>419.2</ele><time>2026-03-22T13:50:50Z</time></trkpt><trkpt lat="38.18556382479972" lon="13.26967062277954"><ele>423.4</ele><time>2026-03-22T13:50:51Z</time></trkpt><trkpt lat="38.185488944900925" lon="13.269773546795237"><ele>427.6</ele><time>2026-03-22T13:50:52Z</time></trkpt><trkpt lat="38.185407581455365" lon="13.26988170293915"><ele>431.8</ele><time>2026-03-22T13:50:53Z</time></trkpt><trkpt lat="38.185335651763914" lon="13.269975830698726"><ele>436.0</ele><time>2026-03-22T13:50:54Z</time></trkpt><trkpt lat="38.185261998896536" lon="13.270070095486988"><ele>436.0</ele><time>2026-03-22T13:50:55Z</time></trkpt><trkpt lat="38.18519376202563" lon="13.270179935208482"><ele>436.0</ele><time>2026-03-22T13:50:56Z</time></trkpt><trkpt lat="38.18510054172799" lon="13.270261999467564"><ele>436.0</ele><time>2026-03-22T13:50:57Z</time></trkpt><trkpt lat="38.185028302302435" lon="13.270370289404815"><ele>436.0</ele><time>2026-03-22T13:50:58Z</time></trkpt><trkpt lat="38.18495303006163" lon="13.270465565657885"><ele>436.0</ele><time>2026-03-22T13:50:59Z</time></trkpt><trkpt lat="38.18487532616933" lon="13.270570944438402"><ele>438.8</ele><time>2026-03-22T13:51:00Z</time></trkpt><trkpt lat="38.18480855820598" lon="13.270671023816467"><ele>441.6</ele><time>2026-03-22T13:51:01Z</time></trkpt><trkpt lat="38.18473417387522" lon="13.270773750708576"><ele>444.4</ele><time>2026-03-22T13:51:02Z</time></trkpt><trkpt lat="38.18466384593484" lon="13.270877991777368"><ele>447.2</ele><time>2026-03-22T13:51:03Z</time></trkpt><trkpt lat="38.18459487510912" lon="13.27097628447298"><ele>450.0</ele><time>2026-03-22T13:51:04Z</time></trkpt><trkpt lat="38.184529853211544" lon="13.27107611008952"><ele>450.0</ele><time>2026-03-22T13:51:05.001Z</time></trkpt><trkpt lat="38.18446168177471" lon="13.271180240857577"><ele>450.0</ele><time>2026-03-22T13:51:06.001Z</time></trkpt><trkpt lat="38.184403188729846" lon="13.271284401848565"><ele>450.0</ele><time>2026-03-22T13:51:07.001Z</time></trkpt><trkpt lat="38.184344720551096" lon="13.271400821054925"><ele>450.0</ele><time>2026-03-22T13:51:08.001Z</time></trkpt><trkpt lat="38.18429418933495" lon="13.271489807296696"><ele>450.0</ele><time>2026-03-22T13:51:09.001Z</time></trkpt><trkpt lat="38.184257398039406" lon="13.271581657427827"><ele>446.3333333333333</ele><time>2026-03-22T13:51:10.001Z</time></trkpt><trkpt lat="38.184230865432696" lon="13.27165942435171"><ele>442.66666666666663</ele><time>2026-03-22T13:51:11.001Z</time></trkpt><trkpt lat="38.184216489530485" lon="13.271795980282707"><ele>439.0</ele><time>2026-03-22T13:51:12.001Z</time></trkpt><trkpt lat="38.184186455259045" lon="13.27191232187295"><ele>435.3333333333333</ele><time>2026-03-22T13:51:13.001Z</time></trkpt><trkpt lat="38.184201524228776" lon="13.272009273610454"><ele>431.66666666666663</ele><time>2026-03-22T13:51:14.001Z</time></trkpt><trkpt lat="38.18419181184365" lon="13.272121561400944"><ele>428.0</ele><time>2026-03-22T13:51:15.001Z</time></trkpt><trkpt lat="38.18415199638718" lon="13.272272400106885"><ele>425.0</ele><time>2026-03-22T13:51:17.001Z</time></trkpt><trkpt lat="38.18411348143804" lon="13.27237099726306"><ele>421.99999999999994</ele><time>2026-03-22T13:51:18.001Z</time></trkpt><trkpt lat="38.184072577324045" lon="13.272488479940874"><ele>419.0</ele><time>2026-03-22T13:51:19.001Z</time></trkpt><trkpt lat="38.184047576603554" lon="13.272597741192566"><ele>416.0</ele><time>2026-03-22T13:51:20.001Z</time></trkpt><trkpt lat="38.18403626941347" lon="13.272720177253284"><ele>413.0</ele><time>2026-03-22T13:51:21.001Z</time></trkpt><trkpt lat="38.184017845557996" lon="13.272863550304386"><ele>416.0</ele><time>2026-03-22T13:51:23.001Z</time></trkpt><trkpt lat="38.18399721581288" lon="13.273008283949238"><ele>419.0</ele><time>2026-03-22T13:51:25.001Z</time></trkpt><trkpt lat="38.183943978432715" lon="13.273078951804035"><ele>421.99999999999994</ele><time>2026-03-22T13:51:26.001Z</time></trkpt><trkpt lat="38.18388921265082" lon="13.273183967976003"><ele>425.0</ele><time>2026-03-22T13:51:27.001Z</time></trkpt><trkpt lat="38.183817640781626" lon="13.273262126668246"><ele>428.0</ele><time>2026-03-22T13:51:28.001Z</time></trkpt><trkpt lat="38.18372003788705" lon="13.273369308902348"><ele>427.99999999999994</ele><time>2026-03-22T13:51:30.001Z</time></trkpt><trkpt lat="38.18363590967394" lon="13.273492246081862"><ele>428.0</ele><time>2026-03-22T13:51:32.001Z</time></trkpt><trkpt lat="38.183567210415205" lon="13.273550766070798"><ele>428.0</ele><time>2026-03-22T13:51:33.001Z</time></trkpt><trkpt lat="38.18350954643922" lon="13.273622492962442"><ele>428.0</ele><time>2026-03-22T13:51:34.001Z</time></trkpt><trkpt lat="38.18345442178616" lon="13.273691061273936"><ele>427.99999999999994</ele><time>2026-03-22T13:51:35.001Z</time></trkpt><trkpt lat="38.183402912622" lon="13.273753124269051"><ele>428.0</ele><time>2026-03-22T13:51:36.001Z</time></trkpt><trkpt lat="38.18335476399419" lon="13.273810793686804"><ele>428.0</ele><time>2026-03-22T13:51:37.001Z</time></trkpt><trkpt lat="38.18326765787579" lon="13.273909511302952"><ele>427.99999999999994</ele><time>2026-03-22T13:51:39.001Z</time></trkpt><trkpt lat="38.18321268668859" lon="13.273967227150864"><ele>427.99999999999994</ele><time>2026-03-22T13:51:40.001Z</time></trkpt><trkpt lat="38.183140058467494" lon="13.274042744205905"><ele>428.0</ele><time>2026-03-22T13:51:41.001Z</time></trkpt><trkpt lat="38.18305643095504" lon="13.2741297774441"><ele>428.0</ele><time>2026-03-22T13:51:42.001Z</time></trkpt><trkpt lat="38.182974731719995" lon="13.27421687635401"><ele>426.5</ele><time>2026-03-22T13:51:43.001Z</time></trkpt><trkpt lat="38.182907730930026" lon="13.274320173617195"><ele>425.0</ele><time>2026-03-22T13:51:44.001Z</time></trkpt><trkpt lat="38.18282741812309" lon="13.274413303109945"><ele>423.5</ele><time>2026-03-22T13:51:45.001Z</time></trkpt><trkpt lat="38.18274488687388" lon="13.27451321372096"><ele>422.0</ele><time>2026-03-22T13:51:46.001Z</time></trkpt><trkpt lat="38.18266156019834" lon="13.274635843224548"><ele>422.0</ele><time>2026-03-22T13:51:47.001Z</time></trkpt><trkpt lat="38.18258066862294" lon="13.274759403832533"><ele>422.0</ele><time>2026-03-22T13:51:48.001Z</time></trkpt><trkpt lat="38.18249119069535" lon="13.274864224795381"><ele>422.0</ele><time>2026-03-22T13:51:49.001Z</time></trkpt><trkpt lat="38.18242391589" lon="13.274964191258283"><ele>422.0</ele><time>2026-03-22T13:51:50.001Z</time></trkpt><trkpt lat="38.1823707194543" lon="13.275074268641918"><ele>422.6</ele><time>2026-03-22T13:51:51.001Z</time></trkpt><trkpt lat="38.18230005717827" lon="13.275167038561555"><ele>423.20000000000005</ele><time>2026-03-22T13:51:52.001Z</time></trkpt><trkpt lat="38.182229158635856" lon="13.275267068173324"><ele>423.8</ele><time>2026-03-22T13:51:53.001Z</time></trkpt><trkpt lat="38.182158533069206" lon="13.275367641316855"><ele>424.4</ele><time>2026-03-22T13:51:54.001Z</time></trkpt><trkpt lat="38.18208148999591" lon="13.275468927992971"><ele>425.0</ele><time>2026-03-22T13:51:55.001Z</time></trkpt><trkpt lat="38.18200632547019" lon="13.275574787477725"><ele>419.4</ele><time>2026-03-22T13:51:56.001Z</time></trkpt><trkpt lat="38.18193539103729" lon="13.27567171929216"><ele>413.8</ele><time>2026-03-22T13:51:57.001Z</time></trkpt><trkpt lat="38.18185729311517" lon="13.27577552951488"><ele>408.20000000000005</ele><time>2026-03-22T13:51:58.001Z</time></trkpt><trkpt lat="38.181786016324025" lon="13.275875875004541"><ele>402.6</ele><time>2026-03-22T13:51:59.001Z</time></trkpt><trkpt lat="38.18170246069503" lon="13.27597405598626"><ele>397.0</ele><time>2026-03-22T13:52:00.001Z</time></trkpt><trkpt lat="38.18163644297575" lon="13.27606596185265"><ele>397.0</ele><time>2026-03-22T13:52:01.001Z</time></trkpt><trkpt lat="38.18157072436169" lon="13.276160406900397"><ele>397.0</ele><time>2026-03-22T13:52:02.001Z</time></trkpt><trkpt lat="38.18149992860522" lon="13.276262490112943"><ele>397.0</ele><time>2026-03-22T13:52:03.001Z</time></trkpt><trkpt lat="38.18144681898566" lon="13.2763667561828"><ele>397.0</ele><time>2026-03-22T13:52:04.001Z</time></trkpt><trkpt lat="38.181393658838715" lon="13.276457152165598"><ele>397.0</ele><time>2026-03-22T13:52:05.001Z</time></trkpt><trkpt lat="38.18131714075986" lon="13.276566902798736"><ele>398.40000000000003</ele><time>2026-03-22T13:52:06.001Z</time></trkpt><trkpt lat="38.18125985493629" lon="13.27666874565126"><ele>399.8</ele><time>2026-03-22T13:52:07.001Z</time></trkpt><trkpt lat="38.18120104821557" lon="13.276797402578115"><ele>401.2</ele><time>2026-03-22T13:52:08.001Z</time></trkpt><trkpt lat="38.18114792205298" lon="13.276908171682162"><ele>402.6</ele><time>2026-03-22T13:52:09.001Z</time></trkpt><trkpt lat="38.18111338696579" lon="13.277036585749865"><ele>404.0</ele><time>2026-03-22T13:52:10.001Z</time></trkpt><trkpt lat="38.181070409928644" lon="13.277161616164372"><ele>401.4</ele><time>2026-03-22T13:52:11.001Z</time></trkpt><trkpt lat="38.18102493330425" lon="13.277280137812271"><ele>398.79999999999995</ele><time>2026-03-22T13:52:12.001Z</time></trkpt><trkpt lat="38.180975068365754" lon="13.277396168766222"><ele>396.20000000000005</ele><time>2026-03-22T13:52:13.001Z</time></trkpt><trkpt lat="38.180956205922406" lon="13.27751029318679"><ele>393.6</ele><time>2026-03-22T13:52:14.001Z</time></trkpt><trkpt lat="38.18094963828346" lon="13.277632886610022"><ele>391.0</ele><time>2026-03-22T13:52:15.001Z</time></trkpt><trkpt lat="38.18094897549001" lon="13.277742766727984"><ele>391.0</ele><time>2026-03-22T13:52:16.001Z</time></trkpt><trkpt lat="38.180955916262945" lon="13.277832681528123"><ele>391.0</ele><time>2026-03-22T13:52:17.001Z</time></trkpt><trkpt lat="38.180974500544025" lon="13.277956174758241"><ele>391.0</ele><time>2026-03-22T13:52:19.001Z</time></trkpt><trkpt lat="38.18101761227168" lon="13.27785907889541"><ele>391.0</ele><time>2026-03-22T13:52:22.001Z</time></trkpt><trkpt lat="38.18097838786172" lon="13.278001559272097"><ele>391.0</ele><time>2026-03-22T13:54:45.001Z</time></trkpt><trkpt lat="38.18104018982556" lon="13.27794960263673"><ele>391.00000000000006</ele><time>2026-03-22T13:55:07.001Z</time></trkpt><trkpt lat="38.181047162690426" lon="13.277869816209472"><ele>391.0</ele><time>2026-03-22T13:55:08.001Z</time></trkpt><trkpt lat="38.18104368982716" lon="13.27777055493932"><ele>391.0</ele><time>2026-03-22T13:55:09.001Z</time></trkpt><trkpt lat="38.181057529742496" lon="13.277678586876668"><ele>391.0</ele><time>2026-03-22T13:55:10.001Z</time></trkpt><trkpt lat="38.18109167698171" lon="13.277580531104677"><ele>391.00000000000006</ele><time>2026-03-22T13:55:11.001Z</time></trkpt><trkpt lat="38.18117655631562" lon="13.277514285598237"><ele>391.0</ele><time>2026-03-22T13:55:12.001Z</time></trkpt><trkpt lat="38.181222460598065" lon="13.277424187584565"><ele>391.0</ele><time>2026-03-22T13:55:13.001Z</time></trkpt><trkpt lat="38.18126907407397" lon="13.277299469656985"><ele>391.0</ele><time>2026-03-22T13:55:14.001Z</time></trkpt><trkpt lat="38.181335031189846" lon="13.277203253423583"><ele>391.0</ele><time>2026-03-22T13:55:15.001Z</time></trkpt><trkpt lat="38.18139778355792" lon="13.277119187151866"><ele>391.0</ele><time>2026-03-22T13:55:16.001Z</time></trkpt><trkpt lat="38.18146806107743" lon="13.27704855448569"><ele>391.0</ele><time>2026-03-22T13:55:17.001Z</time></trkpt><trkpt lat="38.18156936270081" lon="13.27696969209848"><ele>387.6</ele><time>2026-03-22T13:55:18.001Z</time></trkpt><trkpt lat="38.181650569481306" lon="13.276890994306623"><ele>384.20000000000005</ele><time>2026-03-22T13:55:19.001Z</time></trkpt><trkpt lat="38.18173872718179" lon="13.276801510928408"><ele>380.79999999999995</ele><time>2026-03-22T13:55:20.001Z</time></trkpt><trkpt lat="38.18181641471847" lon="13.276718641703185"><ele>377.4</ele><time>2026-03-22T13:55:21.001Z</time></trkpt><trkpt lat="38.181887499677124" lon="13.276635823657855"><ele>374.0</ele><time>2026-03-22T13:55:22.001Z</time></trkpt><trkpt lat="38.181972237583" lon="13.276565726152706"><ele>374.0</ele><time>2026-03-22T13:55:23.001Z</time></trkpt><trkpt lat="38.182063798323036" lon="13.276496005280643"><ele>374.0</ele><time>2026-03-22T13:55:24.001Z</time></trkpt><trkpt lat="38.1821586099557" lon="13.276418557209869"><ele>374.0</ele><time>2026-03-22T13:55:25.001Z</time></trkpt><trkpt lat="38.18224930125701" lon="13.276331554333446"><ele>374.0</ele><time>2026-03-22T13:55:26.001Z</time></trkpt><trkpt lat="38.18236004734791" lon="13.276243119154156"><ele>374.0</ele><time>2026-03-22T13:55:27.001Z</time></trkpt><trkpt lat="38.182457258126064" lon="13.276181202858794"><ele>374.0</ele><time>2026-03-22T13:55:28.001Z</time></trkpt><trkpt lat="38.18255939837496" lon="13.276106877940279"><ele>374.0</ele><time>2026-03-22T13:55:29.001Z</time></trkpt><trkpt lat="38.182669882965726" lon="13.276025489311433"><ele>374.0</ele><time>2026-03-22T13:55:30.001Z</time></trkpt><trkpt lat="38.18278804342271" lon="13.275942202044376"><ele>374.0</ele><time>2026-03-22T13:55:31.001Z</time></trkpt><trkpt lat="38.18289720558267" lon="13.275860222570449"><ele>374.0</ele><time>2026-03-22T13:55:32.001Z</time></trkpt><trkpt lat="38.1830078431571" lon="13.275786547635951"><ele>374.0</ele><time>2026-03-22T13:55:33.001Z</time></trkpt><trkpt lat="38.18311302384245" lon="13.275737846319855"><ele>374.0</ele><time>2026-03-22T13:55:34.001Z</time></trkpt><trkpt lat="38.183216027060666" lon="13.275690512646685"><ele>373.75</ele><time>2026-03-22T13:55:35.001Z</time></trkpt><trkpt lat="38.18332186618538" lon="13.275637623924602"><ele>373.5</ele><time>2026-03-22T13:55:36.001Z</time></trkpt><trkpt lat="38.183432920728166" lon="13.27556549070687"><ele>373.25</ele><time>2026-03-22T13:55:37.001Z</time></trkpt><trkpt lat="38.183540983901885" lon="13.275515014790832"><ele>373.0</ele><time>2026-03-22T13:55:38.001Z</time></trkpt><trkpt lat="38.18365030334318" lon="13.275465970157201"><ele>373.0</ele><time>2026-03-22T13:55:39.001Z</time></trkpt><trkpt lat="38.183765418779885" lon="13.275414921444588"><ele>373.0</ele><time>2026-03-22T13:55:40.001Z</time></trkpt><trkpt lat="38.18387526376426" lon="13.27533862466046"><ele>373.0</ele><time>2026-03-22T13:55:41.001Z</time></trkpt><trkpt lat="38.18398869707212" lon="13.27528746621909"><ele>373.0</ele><time>2026-03-22T13:55:42.001Z</time></trkpt><trkpt lat="38.18408976645166" lon="13.275229351653392"><ele>369.5</ele><time>2026-03-22T13:55:43.001Z</time></trkpt><trkpt lat="38.18418895730941" lon="13.275185749134831"><ele>366.0</ele><time>2026-03-22T13:55:44.001Z</time></trkpt><trkpt lat="38.184268807684845" lon="13.275153571765996"><ele>362.5</ele><time>2026-03-22T13:55:45.001Z</time></trkpt><trkpt lat="38.184368451743666" lon="13.275110976049787"><ele>359.0</ele><time>2026-03-22T13:55:47.001Z</time></trkpt><trkpt lat="38.18444786435468" lon="13.275118914487336"><ele>355.5</ele><time>2026-03-22T13:55:49.001Z</time></trkpt><trkpt lat="38.18442701699886" lon="13.275196703417015"><ele>352.0</ele><time>2026-03-22T13:55:50.001Z</time></trkpt><trkpt lat="38.184344140262105" lon="13.27516783884927"><ele>352.0</ele><time>2026-03-22T13:55:51.001Z</time></trkpt><trkpt lat="38.184270860732134" lon="13.275234358416656"><ele>352.0</ele><time>2026-03-22T13:55:53.001Z</time></trkpt><trkpt lat="38.184197478030796" lon="13.275311495039897"><ele>352.0</ele><time>2026-03-22T13:55:54.001Z</time></trkpt><trkpt lat="38.184119032211086" lon="13.275389223128132"><ele>352.0</ele><time>2026-03-22T13:55:55.001Z</time></trkpt><trkpt lat="38.184043841179005" lon="13.275460045661688"><ele>352.0</ele><time>2026-03-22T13:55:56.001Z</time></trkpt><trkpt lat="38.18395249982428" lon="13.275545719879062"><ele>351.25</ele><time>2026-03-22T13:55:57.001Z</time></trkpt><trkpt lat="38.1838480034012" lon="13.275645172711787"><ele>350.5</ele><time>2026-03-22T13:55:58.001Z</time></trkpt><trkpt lat="38.18375263435125" lon="13.275740246008567"><ele>349.75</ele><time>2026-03-22T13:55:59.001Z</time></trkpt><trkpt lat="38.18366730128033" lon="13.275832143465538"><ele>349.0</ele><time>2026-03-22T13:56:00.001Z</time></trkpt><trkpt lat="38.18358323253921" lon="13.275935828950622"><ele>349.0</ele><time>2026-03-22T13:56:01.001Z</time></trkpt><trkpt lat="38.18351462503859" lon="13.276028845937486"><ele>349.0</ele><time>2026-03-22T13:56:02.001Z</time></trkpt><trkpt lat="38.183423600830004" lon="13.276162705256558"><ele>349.0</ele><time>2026-03-22T13:56:03.001Z</time></trkpt><trkpt lat="38.1833412261298" lon="13.276287969306187"><ele>349.0</ele><time>2026-03-22T13:56:04.001Z</time></trkpt><trkpt lat="38.18326409947655" lon="13.276405075277733"><ele>349.0</ele><time>2026-03-22T13:56:05.001Z</time></trkpt><trkpt lat="38.18318361796146" lon="13.276517983386354"><ele>349.0</ele><time>2026-03-22T13:56:06.001Z</time></trkpt><trkpt lat="38.183097716360514" lon="13.27663849683514"><ele>349.0</ele><time>2026-03-22T13:56:07.001Z</time></trkpt><trkpt lat="38.18301325220929" lon="13.276758229656625"><ele>349.0</ele><time>2026-03-22T13:56:08.001Z</time></trkpt><trkpt lat="38.18293568286085" lon="13.276873174193309"><ele>349.0</ele><time>2026-03-22T13:56:09.001Z</time></trkpt><trkpt lat="38.18285710292268" lon="13.276992998349394"><ele>349.0</ele><time>2026-03-22T13:56:10.001Z</time></trkpt><trkpt lat="38.182781934654535" lon="13.277111219550466"><ele>349.0</ele><time>2026-03-22T13:56:11.001Z</time></trkpt><trkpt lat="38.18271612031323" lon="13.277217814983404"><ele>349.0</ele><time>2026-03-22T13:56:12.001Z</time></trkpt><trkpt lat="38.18264645009985" lon="13.277335979296655"><ele>346.2</ele><time>2026-03-22T13:56:13.001Z</time></trkpt><trkpt lat="38.18256785130532" lon="13.277473615450118"><ele>343.4</ele><time>2026-03-22T13:56:14.001Z</time></trkpt><trkpt lat="38.18250951738925" lon="13.277581280745851"><ele>340.6</ele><time>2026-03-22T13:56:15.001Z</time></trkpt><trkpt lat="38.18245770429735" lon="13.27768217196555"><ele>337.8</ele><time>2026-03-22T13:56:16.001Z</time></trkpt><trkpt lat="38.182411193829076" lon="13.277774178023112"><ele>335.0</ele><time>2026-03-22T13:56:17.001Z</time></trkpt><trkpt lat="38.18237281138017" lon="13.277850105322845"><ele>335.0</ele><time>2026-03-22T13:56:18.001Z</time></trkpt><trkpt lat="38.18230829323071" lon="13.277984758291149"><ele>335.0</ele><time>2026-03-22T13:56:19.001Z</time></trkpt><trkpt lat="38.18229006472489" lon="13.278071208998762"><ele>335.0</ele><time>2026-03-22T13:56:21.001Z</time></trkpt><trkpt lat="38.182337174831815" lon="13.278127699022692"><ele>335.0</ele><time>2026-03-22T13:56:22.001Z</time></trkpt><trkpt lat="38.1824054724" lon="13.278067258657485"><ele>335.0</ele><time>2026-03-22T13:56:25.001Z</time></trkpt><trkpt lat="38.18245915254956" lon="13.278007081943658"><ele>335.0</ele><time>2026-03-22T13:56:28.001Z</time></trkpt><trkpt lat="38.182540771786485" lon="13.277933578666481"><ele>335.0</ele><time>2026-03-22T13:56:42Z</time></trkpt><trkpt lat="38.18264361178796" lon="13.277894986537465"><ele>335.0</ele><time>2026-03-22T13:56:43Z</time></trkpt><trkpt lat="38.18269714047637" lon="13.277821238708716"><ele>335.0</ele><time>2026-03-22T13:56:44Z</time></trkpt><trkpt lat="38.182782021108984" lon="13.277766651823114"><ele>335.0</ele><time>2026-03-22T13:56:45Z</time></trkpt><trkpt lat="38.18287612630979" lon="13.27771578601117"><ele>335.0</ele><time>2026-03-22T13:56:46Z</time></trkpt><trkpt lat="38.18298713366919" lon="13.277630537893522"><ele>335.0</ele><time>2026-03-22T13:56:47Z</time></trkpt><trkpt lat="38.18308320478002" lon="13.27753678536461"><ele>335.0</ele><time>2026-03-22T13:56:48Z</time></trkpt><trkpt lat="38.18318077061798" lon="13.277488183505747"><ele>335.0</ele><time>2026-03-22T13:56:49Z</time></trkpt><trkpt lat="38.18327408786605" lon="13.2774158792261"><ele>335.0</ele><time>2026-03-22T13:56:50Z</time></trkpt><trkpt lat="38.18335748830368" lon="13.2773279854531"><ele>335.0</ele><time>2026-03-22T13:56:51Z</time></trkpt><trkpt lat="38.183444593452066" lon="13.27726544840211"><ele>333.6</ele><time>2026-03-22T13:56:52Z</time></trkpt><trkpt lat="38.18353086705437" lon="13.277203231871397"><ele>332.2</ele><time>2026-03-22T13:56:53Z</time></trkpt><trkpt lat="38.18361248351213" lon="13.277144818765391"><ele>330.79999999999995</ele><time>2026-03-22T13:56:54Z</time></trkpt><trkpt lat="38.18369374093299" lon="13.277091502248238"><ele>329.4</ele><time>2026-03-22T13:56:55Z</time></trkpt><trkpt lat="38.18376573648385" lon="13.277048116543561"><ele>328.0</ele><time>2026-03-22T13:56:56Z</time></trkpt><trkpt lat="38.183859009296576" lon="13.277011385993907"><ele>328.0</ele><time>2026-03-22T13:56:57Z</time></trkpt><trkpt lat="38.18394088931186" lon="13.276941185439625"><ele>328.0</ele><time>2026-03-22T13:56:58Z</time></trkpt><trkpt lat="38.18401731460619" lon="13.276898998957313"><ele>328.0</ele><time>2026-03-22T13:56:59Z</time></trkpt><trkpt lat="38.184095703232025" lon="13.276871319229567"><ele>328.0</ele><time>2026-03-22T13:57:00Z</time></trkpt><trkpt lat="38.18415565148157" lon="13.276827339756908"><ele>328.0</ele><time>2026-03-22T13:57:01Z</time></trkpt><trkpt lat="38.18423491129417" lon="13.276800764539695"><ele>328.0</ele><time>2026-03-22T13:57:02Z</time></trkpt><trkpt lat="38.18431439186799" lon="13.276744922746365"><ele>328.0</ele><time>2026-03-22T13:57:04Z</time></trkpt><trkpt lat="38.18426268308727" lon="13.276870779614615"><ele>328.0</ele><time>2026-03-22T13:57:08Z</time></trkpt><trkpt lat="38.18419112618424" lon="13.27693994182341"><ele>328.0</ele><time>2026-03-22T13:57:09Z</time></trkpt><trkpt lat="38.18411661909342" lon="13.277020489998227"><ele>328.0</ele><time>2026-03-22T13:57:10Z</time></trkpt><trkpt lat="38.1840581682678" lon="13.27708367994719"><ele>328.0</ele><time>2026-03-22T13:57:11Z</time></trkpt><trkpt lat="38.183983050241544" lon="13.277165830884313"><ele>328.0</ele><time>2026-03-22T13:57:12Z</time></trkpt><trkpt lat="38.183912029634044" lon="13.277251442683127"><ele>328.0</ele><time>2026-03-22T13:57:13Z</time></trkpt><trkpt lat="38.18383676342207" lon="13.277346847256739"><ele>328.0</ele><time>2026-03-22T13:57:14Z</time></trkpt><trkpt lat="38.18374753135573" lon="13.277465247604622"><ele>328.0</ele><time>2026-03-22T13:57:15Z</time></trkpt><trkpt lat="38.18366534400494" lon="13.27758199084446"><ele>324.2</ele><time>2026-03-22T13:57:16Z</time></trkpt><trkpt lat="38.1835937378726" lon="13.27768914760821"><ele>320.4</ele><time>2026-03-22T13:57:17Z</time></trkpt><trkpt lat="38.18352599798657" lon="13.277805068883211"><ele>316.59999999999997</ele><time>2026-03-22T13:57:18Z</time></trkpt><trkpt lat="38.18347423348206" lon="13.277899337196715"><ele>312.79999999999995</ele><time>2026-03-22T13:57:19Z</time></trkpt><trkpt lat="38.18346054491389" lon="13.277986340007711"><ele>309.0</ele><time>2026-03-22T13:57:21Z</time></trkpt><trkpt lat="38.18357055165356" lon="13.278009502413454"><ele>309.0</ele><time>2026-03-22T13:57:24Z</time></trkpt><trkpt lat="38.18361847661259" lon="13.277949165494903"><ele>309.0</ele><time>2026-03-22T13:57:25Z</time></trkpt><trkpt lat="38.183666295908104" lon="13.277867647631684"><ele>309.0</ele><time>2026-03-22T13:57:26Z</time></trkpt><trkpt lat="38.18378909457751" lon="13.277754163467991"><ele>309.0</ele><time>2026-03-22T13:57:27Z</time></trkpt><trkpt lat="38.18391588250735" lon="13.277654137016595"><ele>309.0</ele><time>2026-03-22T13:57:28Z</time></trkpt><trkpt lat="38.18401103186395" lon="13.27755272835529"><ele>303.4</ele><time>2026-03-22T13:57:29Z</time></trkpt><trkpt lat="38.18410620309071" lon="13.277505604083458"><ele>297.79999999999995</ele><time>2026-03-22T13:57:30Z</time></trkpt><trkpt lat="38.18420646529245" lon="13.277445382686922"><ele>292.20000000000005</ele><time>2026-03-22T13:57:31Z</time></trkpt><trkpt lat="38.184300409597284" lon="13.277400411944196"><ele>286.6</ele><time>2026-03-22T13:57:32Z</time></trkpt><trkpt lat="38.1844119117668" lon="13.277350420065806"><ele>281.0</ele><time>2026-03-22T13:57:33Z</time></trkpt><trkpt lat="38.18452837590173" lon="13.277294001536118"><ele>282.8</ele><time>2026-03-22T13:57:34Z</time></trkpt><trkpt lat="38.18463008774859" lon="13.277247607932834"><ele>284.6</ele><time>2026-03-22T13:57:35Z</time></trkpt><trkpt lat="38.18473029224283" lon="13.277209451266737"><ele>286.4</ele><time>2026-03-22T13:57:36Z</time></trkpt><trkpt lat="38.184840613356066" lon="13.277177201795004"><ele>288.2</ele><time>2026-03-22T13:57:37Z</time></trkpt><trkpt lat="38.18493948526794" lon="13.27714567418774"><ele>290.0</ele><time>2026-03-22T13:57:38.001Z</time></trkpt><trkpt lat="38.185043344821125" lon="13.277098643036082"><ele>290.0</ele><time>2026-03-22T13:57:39.001Z</time></trkpt><trkpt lat="38.185136977050234" lon="13.277069387742184"><ele>290.0</ele><time>2026-03-22T13:57:40.001Z</time></trkpt><trkpt lat="38.185240897665985" lon="13.277050129067684"><ele>290.0</ele><time>2026-03-22T13:57:41.001Z</time></trkpt><trkpt lat="38.18534114113503" lon="13.277003283869384"><ele>290.0</ele><time>2026-03-22T13:57:42.001Z</time></trkpt><trkpt lat="38.18545028115943" lon="13.276976895781756"><ele>290.0</ele><time>2026-03-22T13:57:43.001Z</time></trkpt><trkpt lat="38.18554810644331" lon="13.276927825131589"><ele>290.0</ele><time>2026-03-22T13:57:44.001Z</time></trkpt><trkpt lat="38.18565744258932" lon="13.276880344285278"><ele>290.0</ele><time>2026-03-22T13:57:45.001Z</time></trkpt><trkpt lat="38.18575787773454" lon="13.276847852887478"><ele>290.0</ele><time>2026-03-22T13:57:46.001Z</time></trkpt><trkpt lat="38.18582654023402" lon="13.276818620753536"><ele>290.0</ele><time>2026-03-22T13:57:47.001Z</time></trkpt><trkpt lat="38.185885105486484" lon="13.276779404590297"><ele>290.0</ele><time>2026-03-22T13:57:48.001Z</time></trkpt><trkpt lat="38.185970131631855" lon="13.276734357072995"><ele>290.0</ele><time>2026-03-22T13:57:50.001Z</time></trkpt><trkpt lat="38.18591125418747" lon="13.276833785884364"><ele>290.0</ele><time>2026-03-22T13:57:54.001Z</time></trkpt><trkpt lat="38.185837859410576" lon="13.27690817669188"><ele>290.0</ele><time>2026-03-22T13:57:55.001Z</time></trkpt><trkpt lat="38.18576349956337" lon="13.276990820677844"><ele>290.0</ele><time>2026-03-22T13:57:56.001Z</time></trkpt><trkpt lat="38.185680656542274" lon="13.277074820512057"><ele>290.0</ele><time>2026-03-22T13:57:57.001Z</time></trkpt><trkpt lat="38.18559264036496" lon="13.277162773886891"><ele>290.0</ele><time>2026-03-22T13:57:58.001Z</time></trkpt><trkpt lat="38.18549619882005" lon="13.277259146681311"><ele>290.0</ele><time>2026-03-22T13:57:59.001Z</time></trkpt><trkpt lat="38.18540571813991" lon="13.277350079899623"><ele>290.0</ele><time>2026-03-22T13:58:00.001Z</time></trkpt><trkpt lat="38.18530130072741" lon="13.277456415058666"><ele>290.0</ele><time>2026-03-22T13:58:01.001Z</time></trkpt><trkpt lat="38.185215811147586" lon="13.277543474760353"><ele>284.5</ele><time>2026-03-22T13:58:02.001Z</time></trkpt><trkpt lat="38.18513425854675" lon="13.277626525204324"><ele>279.0</ele><time>2026-03-22T13:58:03.001Z</time></trkpt><trkpt lat="38.18503824825909" lon="13.277725559727148"><ele>273.5</ele><time>2026-03-22T13:58:04.001Z</time></trkpt><trkpt lat="38.18493887182726" lon="13.27783088663843"><ele>268.0</ele><time>2026-03-22T13:58:05.001Z</time></trkpt><trkpt lat="38.1848530118205" lon="13.277924334928334"><ele>266.25</ele><time>2026-03-22T13:58:06.001Z</time></trkpt><trkpt lat="38.184765223664485" lon="13.278019881917038"><ele>264.5</ele><time>2026-03-22T13:58:07.001Z</time></trkpt><trkpt lat="38.184662971843615" lon="13.278131486139761"><ele>262.75</ele><time>2026-03-22T13:58:08.001Z</time></trkpt><trkpt lat="38.184592247661776" lon="13.278210893081349"><ele>261.0</ele><time>2026-03-22T13:58:09.001Z</time></trkpt><trkpt lat="38.18451203490064" lon="13.278300953297933"><ele>261.0</ele><time>2026-03-22T13:58:10.001Z</time></trkpt><trkpt lat="38.18445351360811" lon="13.278368221588844"><ele>261.0</ele><time>2026-03-22T13:58:11.001Z</time></trkpt><trkpt lat="38.184377996129896" lon="13.278460462103167"><ele>261.0</ele><time>2026-03-22T13:58:12.001Z</time></trkpt><trkpt lat="38.18432464248967" lon="13.278535363661875"><ele>261.0</ele><time>2026-03-22T13:58:14.001Z</time></trkpt><trkpt lat="38.18428099312416" lon="13.278607439476808"><ele>261.0</ele><time>2026-03-22T13:58:16.001Z</time></trkpt><trkpt lat="38.18431633482253" lon="13.278728599203998"><ele>261.0</ele><time>2026-03-22T13:58:18.001Z</time></trkpt><trkpt lat="38.18440235724589" lon="13.278724494978563"><ele>261.0</ele><time>2026-03-22T13:58:19.001Z</time></trkpt><trkpt lat="38.18446567704155" lon="13.278631387845392"><ele>261.0</ele><time>2026-03-22T13:58:20.001Z</time></trkpt><trkpt lat="38.1845507514639" lon="13.278600607726071"><ele>261.0</ele><time>2026-03-22T13:58:21.001Z</time></trkpt><trkpt lat="38.18463824645163" lon="13.278560300041141"><ele>261.0</ele><time>2026-03-22T13:58:22.001Z</time></trkpt><trkpt lat="38.18471770646855" lon="13.278544667433891"><ele>261.0</ele><time>2026-03-22T13:58:23.001Z</time></trkpt><trkpt lat="38.184804129569336" lon="13.278522572765896"><ele>261.0</ele><time>2026-03-22T13:58:24.001Z</time></trkpt><trkpt lat="38.18489463316088" lon="13.278505300339521"><ele>258.8333333333333</ele><time>2026-03-22T13:58:25.001Z</time></trkpt><trkpt lat="38.184979319451536" lon="13.278484134776367"><ele>256.6666666666667</ele><time>2026-03-22T13:58:26.001Z</time></trkpt><trkpt lat="38.18507621874189" lon="13.278488022159406"><ele>254.5</ele><time>2026-03-22T13:58:27.001Z</time></trkpt><trkpt lat="38.185163135565695" lon="13.278461336337484"><ele>252.33333333333334</ele><time>2026-03-22T13:58:28.001Z</time></trkpt><trkpt lat="38.1852399485052" lon="13.278446956718746"><ele>250.16666666666669</ele><time>2026-03-22T13:58:29.001Z</time></trkpt><trkpt lat="38.18530528761464" lon="13.278434725038025"><ele>248.0</ele><time>2026-03-22T13:58:30.001Z</time></trkpt><trkpt lat="38.18540039346524" lon="13.278416920928755"><ele>248.00000000000003</ele><time>2026-03-22T13:58:31.001Z</time></trkpt><trkpt lat="38.18548078416752" lon="13.278401871541758"><ele>248.0</ele><time>2026-03-22T13:58:32.001Z</time></trkpt><trkpt lat="38.18556690011205" lon="13.278385750381371"><ele>248.0</ele><time>2026-03-22T13:58:33.001Z</time></trkpt><trkpt lat="38.18568665667535" lon="13.278363331586442"><ele>248.0</ele><time>2026-03-22T13:58:35.001Z</time></trkpt><trkpt lat="38.18577904309004" lon="13.278347336751377"><ele>248.00000000000003</ele><time>2026-03-22T13:58:36.001Z</time></trkpt><trkpt lat="38.1858454209633" lon="13.278336984914091"><ele>248.0</ele><time>2026-03-22T13:58:37.001Z</time></trkpt><trkpt lat="38.18597948030933" lon="13.27832561839408"><ele>245.2</ele><time>2026-03-22T13:58:39.001Z</time></trkpt><trkpt lat="38.18610316265591" lon="13.278332564418697"><ele>242.4</ele><time>2026-03-22T13:58:41.001Z</time></trkpt><trkpt lat="38.18608649425723" lon="13.278417167774856"><ele>239.59999999999997</ele><time>2026-03-22T13:58:45Z</time></trkpt><trkpt lat="38.186023825170636" lon="13.278424984275903"><ele>236.79999999999998</ele><time>2026-03-22T13:58:46Z</time></trkpt><trkpt lat="38.1859077059953" lon="13.278525110466674"><ele>234.0</ele><time>2026-03-22T13:58:48Z</time></trkpt><trkpt lat="38.185837554391036" lon="13.27860297897049"><ele>234.0</ele><time>2026-03-22T13:58:49Z</time></trkpt><trkpt lat="38.18576070303302" lon="13.278681176843746"><ele>233.99999999999997</ele><time>2026-03-22T13:58:50Z</time></trkpt><trkpt lat="38.18569099414388" lon="13.278747492832698"><ele>233.99999999999997</ele><time>2026-03-22T13:58:51Z</time></trkpt><trkpt lat="38.18559954833492" lon="13.278829177802422"><ele>234.0</ele><time>2026-03-22T13:58:53Z</time></trkpt><trkpt lat="38.18551900273081" lon="13.278894406983055"><ele>234.0</ele><time>2026-03-22T13:58:54Z</time></trkpt><trkpt lat="38.18545892351923" lon="13.278939045488062"><ele>232.5</ele><time>2026-03-22T13:58:55Z</time></trkpt><trkpt lat="38.185371620141034" lon="13.279002864451273"><ele>231.0</ele><time>2026-03-22T13:58:56Z</time></trkpt><trkpt lat="38.18530661336583" lon="13.279048806408083"><ele>229.5</ele><time>2026-03-22T13:58:57Z</time></trkpt><trkpt lat="38.18524367000066" lon="13.279092925527472"><ele>228.0</ele><time>2026-03-22T13:58:58Z</time></trkpt><trkpt lat="38.18517882167712" lon="13.279158482897047"><ele>226.5</ele><time>2026-03-22T13:58:59Z</time></trkpt><trkpt lat="38.1850917741643" lon="13.279207778372424"><ele>225.0</ele><time>2026-03-22T13:59:00Z</time></trkpt><trkpt lat="38.184994057772684" lon="13.279271082212148"><ele>225.0</ele><time>2026-03-22T13:59:01Z</time></trkpt><trkpt lat="38.18490623458818" lon="13.279347054423864"><ele>225.0</ele><time>2026-03-22T13:59:02Z</time></trkpt><trkpt lat="38.18481015288189" lon="13.279423027677002"><ele>225.0</ele><time>2026-03-22T13:59:03Z</time></trkpt><trkpt lat="38.1847421437423" lon="13.279487971018057"><ele>225.0</ele><time>2026-03-22T13:59:04Z</time></trkpt><trkpt lat="38.18464842249084" lon="13.27955947621147"><ele>225.0</ele><time>2026-03-22T13:59:05Z</time></trkpt><trkpt lat="38.18456471652806" lon="13.279619126633534"><ele>224.0</ele><time>2026-03-22T13:59:06Z</time></trkpt><trkpt lat="38.184478777136164" lon="13.279663303436218"><ele>223.0</ele><time>2026-03-22T13:59:07Z</time></trkpt><trkpt lat="38.18440289779063" lon="13.279691099481898"><ele>222.0</ele><time>2026-03-22T13:59:08Z</time></trkpt><trkpt lat="38.184328907248826" lon="13.279718466530996"><ele>221.0</ele><time>2026-03-22T13:59:09Z</time></trkpt><trkpt lat="38.18425362962026" lon="13.279748081049865"><ele>220.0</ele><time>2026-03-22T13:59:10Z</time></trkpt><trkpt lat="38.18418753316594" lon="13.27977968173798"><ele>219.0</ele><time>2026-03-22T13:59:11Z</time></trkpt><trkpt lat="38.18409671363745" lon="13.279854466348349"><ele>219.0</ele><time>2026-03-22T13:59:13Z</time></trkpt><trkpt lat="38.1840814434025" lon="13.279983954535133"><ele>218.99999999999997</ele><time>2026-03-22T13:59:15Z</time></trkpt><trkpt lat="38.18409282056819" lon="13.280072422658478"><ele>218.99999999999997</ele><time>2026-03-22T13:59:16Z</time></trkpt><trkpt lat="38.18413688934713" lon="13.280165438766186"><ele>219.0</ele><time>2026-03-22T13:59:17Z</time></trkpt><trkpt lat="38.184178053545175" lon="13.280274805258646"><ele>219.0</ele><time>2026-03-22T13:59:18Z</time></trkpt><trkpt lat="38.18423830742223" lon="13.280396260876934"><ele>219.0</ele><time>2026-03-22T13:59:19Z</time></trkpt><trkpt lat="38.18430489200147" lon="13.280517889582786"><ele>218.99999999999997</ele><time>2026-03-22T13:59:20Z</time></trkpt><trkpt lat="38.184333345042845" lon="13.28063121131914"><ele>218.99999999999997</ele><time>2026-03-22T13:59:21Z</time></trkpt><trkpt lat="38.184393729361084" lon="13.280733883899943"><ele>219.0</ele><time>2026-03-22T13:59:22Z</time></trkpt><trkpt lat="38.184435564422486" lon="13.280845669083513"><ele>219.0</ele><time>2026-03-22T13:59:23Z</time></trkpt><trkpt lat="38.18447498182782" lon="13.28098821563452"><ele>218.0</ele><time>2026-03-22T13:59:24Z</time></trkpt><trkpt lat="38.18450734038993" lon="13.281094313495325"><ele>216.99999999999997</ele><time>2026-03-22T13:59:25Z</time></trkpt><trkpt lat="38.1845340125112" lon="13.281213262572006"><ele>215.99999999999997</ele><time>2026-03-22T13:59:26Z</time></trkpt><trkpt lat="38.18455307094349" lon="13.281320283673308"><ele>215.0</ele><time>2026-03-22T13:59:27Z</time></trkpt><trkpt lat="38.184577948526346" lon="13.281457540664048"><ele>214.0</ele><time>2026-03-22T13:59:28Z</time></trkpt><trkpt lat="38.184575672357106" lon="13.281562585947661"><ele>213.6</ele><time>2026-03-22T13:59:29Z</time></trkpt><trkpt lat="38.184596335141954" lon="13.281680698966348"><ele>213.2</ele><time>2026-03-22T13:59:30Z</time></trkpt><trkpt lat="38.18458454763153" lon="13.281826431603797"><ele>212.79999999999998</ele><time>2026-03-22T13:59:31Z</time></trkpt><trkpt lat="38.18458080656949" lon="13.281963258616942"><ele>212.39999999999998</ele><time>2026-03-22T13:59:32Z</time></trkpt><trkpt lat="38.18457580630882" lon="13.282117898156555"><ele>212.0</ele><time>2026-03-22T13:59:33Z</time></trkpt><trkpt lat="38.184571535634284" lon="13.282234750407632"><ele>210.39999999999998</ele><time>2026-03-22T13:59:34Z</time></trkpt><trkpt lat="38.184566824485294" lon="13.28235813699375"><ele>208.79999999999998</ele><time>2026-03-22T13:59:35Z</time></trkpt><trkpt lat="38.18455615196928" lon="13.28247875915691"><ele>207.2</ele><time>2026-03-22T13:59:36Z</time></trkpt><trkpt lat="38.18454358028746" lon="13.28261480742979"><ele>205.6</ele><time>2026-03-22T13:59:37Z</time></trkpt><trkpt lat="38.18454513889342" lon="13.28277685775673"><ele>204.0</ele><time>2026-03-22T13:59:38Z</time></trkpt><trkpt lat="38.18452254273632" lon="13.282974534164607"><ele>202.6</ele><time>2026-03-22T13:59:39Z</time></trkpt><trkpt lat="38.18448893035718" lon="13.283146292730692"><ele>201.2</ele><time>2026-03-22T13:59:40Z</time></trkpt><trkpt lat="38.184484681089124" lon="13.283291749256996"><ele>199.79999999999998</ele><time>2026-03-22T13:59:41Z</time></trkpt><trkpt lat="38.18447661068873" lon="13.283420706876825"><ele>198.39999999999998</ele><time>2026-03-22T13:59:42Z</time></trkpt><trkpt lat="38.1844710824991" lon="13.283528918993824"><ele>197.0</ele><time>2026-03-22T13:59:43Z</time></trkpt><trkpt lat="38.184452437203376" lon="13.283607501030238"><ele>197.0</ele><time>2026-03-22T13:59:44Z</time></trkpt><trkpt lat="38.18444284209458" lon="13.28373211585059"><ele>197.0</ele><time>2026-03-22T13:59:45Z</time></trkpt><trkpt lat="38.18443245308818" lon="13.28387219850425"><ele>197.0</ele><time>2026-03-22T13:59:46Z</time></trkpt><trkpt lat="38.18442467700908" lon="13.283979499399182"><ele>197.0</ele><time>2026-03-22T13:59:47Z</time></trkpt><trkpt lat="38.184417869209405" lon="13.284073439154747"><ele>197.0</ele><time>2026-03-22T13:59:48Z</time></trkpt><trkpt lat="38.184419280350895" lon="13.284189207009613"><ele>195.39999999999998</ele><time>2026-03-22T13:59:49Z</time></trkpt><trkpt lat="38.18441060582365" lon="13.284302319773145"><ele>193.79999999999998</ele><time>2026-03-22T13:59:50Z</time></trkpt><trkpt lat="38.18440691892053" lon="13.284420632639403"><ele>192.2</ele><time>2026-03-22T13:59:51.001Z</time></trkpt><trkpt lat="38.18439946302166" lon="13.284505662935498"><ele>190.6</ele><time>2026-03-22T13:59:52.001Z</time></trkpt><trkpt lat="38.18439511907753" lon="13.284628198157979"><ele>189.0</ele><time>2026-03-22T13:59:53.001Z</time></trkpt><trkpt lat="38.184372050244626" lon="13.28476872666602"><ele>185.6</ele><time>2026-03-22T13:59:54.001Z</time></trkpt><trkpt lat="38.18436123810497" lon="13.284894645828224"><ele>182.2</ele><time>2026-03-22T13:59:55.001Z</time></trkpt><trkpt lat="38.184350831651855" lon="13.285008353188479"><ele>178.79999999999998</ele><time>2026-03-22T13:59:56.001Z</time></trkpt><trkpt lat="38.18433832992443" lon="13.285125679371362"><ele>175.39999999999998</ele><time>2026-03-22T13:59:57.001Z</time></trkpt><trkpt lat="38.18433614222048" lon="13.285265705630056"><ele>172.0</ele><time>2026-03-22T13:59:58.001Z</time></trkpt><trkpt lat="38.1842957927036" lon="13.285388275073778"><ele>172.0</ele><time>2026-03-22T13:59:59.001Z</time></trkpt><trkpt lat="38.1842709314331" lon="13.285493231887665"><ele>172.0</ele><time>2026-03-22T14:00:00.001Z</time></trkpt><trkpt lat="38.184252442366514" lon="13.285587768032284"><ele>172.0</ele><time>2026-03-22T14:00:01.001Z</time></trkpt><trkpt lat="38.18423322321288" lon="13.285704454617182"><ele>172.0</ele><time>2026-03-22T14:00:02.001Z</time></trkpt><trkpt lat="38.18421655329457" lon="13.285805663355974"><ele>172.0</ele><time>2026-03-22T14:00:04.001Z</time></trkpt><trkpt lat="38.18428272889742" lon="13.285831530001209"><ele>172.0</ele><time>2026-03-22T14:00:06.001Z</time></trkpt><trkpt lat="38.184355765586666" lon="13.285784975276425"><ele>172.0</ele><time>2026-03-22T14:00:09.001Z</time></trkpt><trkpt lat="38.18441060677298" lon="13.285689538106197"><ele>172.0</ele><time>2026-03-22T14:00:10.001Z</time></trkpt><trkpt lat="38.184452919239696" lon="13.28562416440933"><ele>172.0</ele><time>2026-03-22T14:00:11.001Z</time></trkpt><trkpt lat="38.18449377546579" lon="13.285525144889034"><ele>172.0</ele><time>2026-03-22T14:00:12.001Z</time></trkpt><trkpt lat="38.184525817009145" lon="13.285406894759715"><ele>172.0</ele><time>2026-03-22T14:00:13.001Z</time></trkpt><trkpt lat="38.18453437005362" lon="13.285278867713833"><ele>172.0</ele><time>2026-03-22T14:00:14.001Z</time></trkpt><trkpt lat="38.18456320159121" lon="13.28516710987571"><ele>172.00000000000003</ele><time>2026-03-22T14:00:15.001Z</time></trkpt><trkpt lat="38.18459547052733" lon="13.28506187417245"><ele>172.0</ele><time>2026-03-22T14:00:16.001Z</time></trkpt><trkpt lat="38.18461067815824" lon="13.284966966338823"><ele>172.0</ele><time>2026-03-22T14:00:17.001Z</time></trkpt><trkpt lat="38.18462489756915" lon="13.284886827489172"><ele>172.0</ele><time>2026-03-22T14:00:18.001Z</time></trkpt><trkpt lat="38.184643309192644" lon="13.284805348623102"><ele>172.0</ele><time>2026-03-22T14:00:19.001Z</time></trkpt><trkpt lat="38.18468532386105" lon="13.284710425947772"><ele>172.00000000000003</ele><time>2026-03-22T14:00:21.001Z</time></trkpt><trkpt lat="38.18474917825042" lon="13.284731583202007"><ele>172.0</ele><time>2026-03-22T14:00:23.001Z</time></trkpt><trkpt lat="38.18475911564498" lon="13.284833023720797"><ele>172.0</ele><time>2026-03-22T14:00:25.001Z</time></trkpt><trkpt lat="38.1846995605722" lon="13.284922311733972"><ele>172.0</ele><time>2026-03-22T14:00:26.001Z</time></trkpt><trkpt lat="38.1847023752927" lon="13.285038046266092"><ele>172.0</ele><time>2026-03-22T14:00:27.001Z</time></trkpt><trkpt lat="38.1846977289796" lon="13.285128681334044"><ele>172.0</ele><time>2026-03-22T14:00:28.001Z</time></trkpt><trkpt lat="38.18470296120755" lon="13.285216520309813"><ele>172.0</ele><time>2026-03-22T14:00:29.001Z</time></trkpt><trkpt lat="38.184691091533274" lon="13.285321487307172"><ele>172.0</ele><time>2026-03-22T14:00:30.001Z</time></trkpt><trkpt lat="38.184696823976374" lon="13.285455659066706"><ele>172.0</ele><time>2026-03-22T14:00:32.001Z</time></trkpt><trkpt lat="38.18470169194872" lon="13.285585564889484"><ele>172.0</ele><time>2026-03-22T14:00:34.001Z</time></trkpt><trkpt lat="38.18470272186269" lon="13.285709746508001"><ele>172.0</ele><time>2026-03-22T14:00:36.001Z</time></trkpt><trkpt lat="38.18470891502615" lon="13.285792674730237"><ele>172.0</ele><time>2026-03-22T14:00:37.001Z</time></trkpt><trkpt lat="38.184702575087904" lon="13.285880388711796"><ele>172.0</ele><time>2026-03-22T14:00:38.001Z</time></trkpt><trkpt lat="38.18466401474745" lon="13.285998450667746"><ele>172.0</ele><time>2026-03-22T14:00:39.001Z</time></trkpt><trkpt lat="38.18464200853751" lon="13.28607877181788"><ele>169.66666666666669</ele><time>2026-03-22T14:00:40.001Z</time></trkpt><trkpt lat="38.18461278533354" lon="13.286169652321016"><ele>167.33333333333334</ele><time>2026-03-22T14:00:41.001Z</time></trkpt><trkpt lat="38.18457741918953" lon="13.28625772948533"><ele>165.0</ele><time>2026-03-22T14:00:42.001Z</time></trkpt><trkpt lat="38.18452983518301" lon="13.286357719444776"><ele>162.66666666666666</ele><time>2026-03-22T14:00:43.001Z</time></trkpt><trkpt lat="38.18448575401412" lon="13.28641663229556"><ele>160.33333333333331</ele><time>2026-03-22T14:00:44.001Z</time></trkpt><trkpt lat="38.184433757663946" lon="13.286482730878571"><ele>158.0</ele><time>2026-03-22T14:00:45.001Z</time></trkpt><trkpt lat="38.184367980957035" lon="13.286558824722384"><ele>157.4</ele><time>2026-03-22T14:00:46.001Z</time></trkpt><trkpt lat="38.18430869991901" lon="13.286645855072916"><ele>156.8</ele><time>2026-03-22T14:00:47.001Z</time></trkpt><trkpt lat="38.18422379041791" lon="13.286726511532787"><ele>156.2</ele><time>2026-03-22T14:00:48.001Z</time></trkpt><trkpt lat="38.184148132500596" lon="13.286765434948657"><ele>155.6</ele><time>2026-03-22T14:00:49.001Z</time></trkpt><trkpt lat="38.18407027383201" lon="13.286834390143568"><ele>155.0</ele><time>2026-03-22T14:00:50Z</time></trkpt><trkpt lat="38.18400529962078" lon="13.286895050961089"><ele>155.0</ele><time>2026-03-22T14:00:51Z</time></trkpt><trkpt lat="38.18393062846465" lon="13.28696735762697"><ele>155.0</ele><time>2026-03-22T14:00:52Z</time></trkpt><trkpt lat="38.18386867387865" lon="13.287027730853174"><ele>155.0</ele><time>2026-03-22T14:00:53Z</time></trkpt><trkpt lat="38.18381212510228" lon="13.287082220570028"><ele>155.0</ele><time>2026-03-22T14:00:54Z</time></trkpt><trkpt lat="38.18375550875314" lon="13.287136193171017"><ele>155.0</ele><time>2026-03-22T14:00:55Z</time></trkpt><trkpt lat="38.183713096850944" lon="13.287201672034904"><ele>155.0</ele><time>2026-03-22T14:00:56Z</time></trkpt><trkpt lat="38.18364980630536" lon="13.287238934876594"><ele>148.25</ele><time>2026-03-22T14:00:58Z</time></trkpt><trkpt lat="38.18376167930215" lon="13.28749924114744"><ele>141.5</ele><time>2026-03-22T14:01:42Z</time></trkpt><trkpt lat="38.1837684815423" lon="13.287588993063363"><ele>134.75</ele><time>2026-03-22T14:01:44Z</time></trkpt><trkpt lat="38.18374861737754" lon="13.287684826751262"><ele>128.0</ele><time>2026-03-22T14:01:46Z</time></trkpt><trkpt lat="38.18368472447147" lon="13.287717873366821"><ele>128.0</ele><time>2026-03-22T14:01:48Z</time></trkpt><trkpt lat="38.18363479875952" lon="13.287767406929662"><ele>127.99999999999999</ele><time>2026-03-22T14:01:50Z</time></trkpt><trkpt lat="38.183596927483805" lon="13.287834435772247"><ele>128.0</ele><time>2026-03-22T14:01:54Z</time></trkpt><trkpt lat="38.183519563616336" lon="13.287896306891652"><ele>128.0</ele><time>2026-03-22T14:02:20.001Z</time></trkpt><trkpt lat="38.18348521661812" lon="13.287985399541533"><ele>127.99999999999999</ele><time>2026-03-22T14:02:22.001Z</time></trkpt><trkpt lat="38.18349751944242" lon="13.28807737428702"><ele>128.0</ele><time>2026-03-22T14:02:24.001Z</time></trkpt><trkpt lat="38.18350600494368" lon="13.288158014428241"><ele>128.0</ele><time>2026-03-22T14:02:26.001Z</time></trkpt><trkpt lat="38.183555704888086" lon="13.2882106716308"><ele>128.0</ele><time>2026-03-22T14:02:28.001Z</time></trkpt><trkpt lat="38.18365702274577" lon="13.288240600457907"><ele>128.0</ele><time>2026-03-22T14:02:30.001Z</time></trkpt><trkpt lat="38.183784053894975" lon="13.288224591201176"><ele>128.0</ele><time>2026-03-22T14:02:32.001Z</time></trkpt><trkpt lat="38.18384392043425" lon="13.288160757906576"><ele>128.0</ele><time>2026-03-22T14:02:33.001Z</time></trkpt><trkpt lat="38.183917331757876" lon="13.288099974195083"><ele>128.0</ele><time>2026-03-22T14:02:34.001Z</time></trkpt><trkpt lat="38.18397888750738" lon="13.288039370343759"><ele>126.0</ele><time>2026-03-22T14:02:35.001Z</time></trkpt><trkpt lat="38.18404348350279" lon="13.287965896340442"><ele>124.00000000000001</ele><time>2026-03-22T14:02:36.001Z</time></trkpt><trkpt lat="38.18412144616023" lon="13.287895046481879"><ele>122.00000000000001</ele><time>2026-03-22T14:02:37.001Z</time></trkpt><trkpt lat="38.184223725736956" lon="13.287814164558226"><ele>120.0</ele><time>2026-03-22T14:02:38.001Z</time></trkpt><trkpt lat="38.18430269231303" lon="13.287756425892633"><ele>118.0</ele><time>2026-03-22T14:02:39.001Z</time></trkpt><trkpt lat="38.18437448961378" lon="13.287693867418879"><ele>118.0</ele><time>2026-03-22T14:02:40.001Z</time></trkpt><trkpt lat="38.184448217301124" lon="13.287630566803074"><ele>118.00000000000001</ele><time>2026-03-22T14:02:41.001Z</time></trkpt><trkpt lat="38.184527304633484" lon="13.287561499154178"><ele>118.00000000000001</ele><time>2026-03-22T14:02:42.001Z</time></trkpt><trkpt lat="38.18460067899109" lon="13.287493324112017"><ele>118.0</ele><time>2026-03-22T14:02:43.001Z</time></trkpt><trkpt lat="38.18467861685353" lon="13.287413456270604"><ele>118.0</ele><time>2026-03-22T14:02:44.001Z</time></trkpt><trkpt lat="38.18475737015212" lon="13.287345713750655"><ele>118.0</ele><time>2026-03-22T14:02:45.001Z</time></trkpt><trkpt lat="38.18482074705607" lon="13.287298550346796"><ele>118.00000000000001</ele><time>2026-03-22T14:02:46.001Z</time></trkpt><trkpt lat="38.184909599752324" lon="13.287230837039319"><ele>118.00000000000001</ele><time>2026-03-22T14:02:47.001Z</time></trkpt><trkpt lat="38.184987716832985" lon="13.287148827294219"><ele>118.0</ele><time>2026-03-22T14:02:48.001Z</time></trkpt><trkpt lat="38.1850590625073" lon="13.28704936307183"><ele>118.0</ele><time>2026-03-22T14:02:49.001Z</time></trkpt><trkpt lat="38.18512693456409" lon="13.286936030785444"><ele>117.60000000000001</ele><time>2026-03-22T14:02:50.001Z</time></trkpt><trkpt lat="38.18518650130932" lon="13.28682485961438"><ele>117.20000000000002</ele><time>2026-03-22T14:02:51.001Z</time></trkpt><trkpt lat="38.18524553748653" lon="13.286713455434011"><ele>116.8</ele><time>2026-03-22T14:02:52.001Z</time></trkpt><trkpt lat="38.185304434792315" lon="13.286597444842231"><ele>116.4</ele><time>2026-03-22T14:02:53.001Z</time></trkpt><trkpt lat="38.18536071827772" lon="13.286473736347073"><ele>116.0</ele><time>2026-03-22T14:02:54.001Z</time></trkpt><trkpt lat="38.18541781765889" lon="13.286346399817548"><ele>119.25</ele><time>2026-03-22T14:02:55.001Z</time></trkpt><trkpt lat="38.18547053356175" lon="13.286221486551247"><ele>122.5</ele><time>2026-03-22T14:02:56Z</time></trkpt><trkpt lat="38.18552102140761" lon="13.28608454791918"><ele>125.75</ele><time>2026-03-22T14:02:57Z</time></trkpt><trkpt lat="38.1855614683883" lon="13.285945368860471"><ele>129.0</ele><time>2026-03-22T14:02:58Z</time></trkpt><trkpt lat="38.185583116291426" lon="13.285801686757349"><ele>129.0</ele><time>2026-03-22T14:02:59Z</time></trkpt><trkpt lat="38.18559477127967" lon="13.28565735526419"><ele>129.0</ele><time>2026-03-22T14:03:00Z</time></trkpt><trkpt lat="38.185609896324735" lon="13.285518752158458"><ele>129.0</ele><time>2026-03-22T14:03:01Z</time></trkpt><trkpt lat="38.18563523184644" lon="13.285391382836817"><ele>129.0</ele><time>2026-03-22T14:03:02Z</time></trkpt><trkpt lat="38.18566073174684" lon="13.285265139276634"><ele>129.0</ele><time>2026-03-22T14:03:03Z</time></trkpt><trkpt lat="38.18568743098458" lon="13.285142358208338"><ele>123.80000000000001</ele><time>2026-03-22T14:03:04Z</time></trkpt><trkpt lat="38.185707380522885" lon="13.285025280893343"><ele>118.60000000000001</ele><time>2026-03-22T14:03:05Z</time></trkpt><trkpt lat="38.18574231737689" lon="13.284917371390042"><ele>113.4</ele><time>2026-03-22T14:03:06Z</time></trkpt><trkpt lat="38.18578473978225" lon="13.284814982228113"><ele>108.2</ele><time>2026-03-22T14:03:07Z</time></trkpt><trkpt lat="38.18583878636532" lon="13.284721257092166"><ele>103.0</ele><time>2026-03-22T14:03:08Z</time></trkpt><trkpt lat="38.18590392230208" lon="13.284627795036698"><ele>103.0</ele><time>2026-03-22T14:03:09Z</time></trkpt><trkpt lat="38.18596512072128" lon="13.28452092811417"><ele>103.0</ele><time>2026-03-22T14:03:10Z</time></trkpt><trkpt lat="38.186025360223255" lon="13.284413810467443"><ele>103.0</ele><time>2026-03-22T14:03:11Z</time></trkpt><trkpt lat="38.18609090382304" lon="13.28431344757881"><ele>103.0</ele><time>2026-03-22T14:03:12Z</time></trkpt><trkpt lat="38.186154249815274" lon="13.284220438069013"><ele>103.0</ele><time>2026-03-22T14:03:13Z</time></trkpt><trkpt lat="38.18622422384391" lon="13.284143354313889"><ele>103.00000000000001</ele><time>2026-03-22T14:03:14Z</time></trkpt><trkpt lat="38.186303351420605" lon="13.284074109579938"><ele>103.0</ele><time>2026-03-22T14:03:15Z</time></trkpt><trkpt lat="38.18637419397469" lon="13.28400077415831"><ele>103.0</ele><time>2026-03-22T14:03:16Z</time></trkpt><trkpt lat="38.18644536434799" lon="13.283935108742947"><ele>103.0</ele><time>2026-03-22T14:03:17Z</time></trkpt><trkpt lat="38.18651159461579" lon="13.283881285476827"><ele>103.00000000000001</ele><time>2026-03-22T14:03:18Z</time></trkpt><trkpt lat="38.18657963383015" lon="13.28384861069613"><ele>103.0</ele><time>2026-03-22T14:03:19Z</time></trkpt><trkpt lat="38.18669398228049" lon="13.283875673359477"><ele>98.60000000000001</ele><time>2026-03-22T14:03:21Z</time></trkpt><trkpt lat="38.18674385710383" lon="13.283971851049104"><ele>94.2</ele><time>2026-03-22T14:03:22Z</time></trkpt><trkpt lat="38.186799931925265" lon="13.284054389354965"><ele>89.8</ele><time>2026-03-22T14:03:23Z</time></trkpt><trkpt lat="38.186860160200894" lon="13.284160381968894"><ele>85.4</ele><time>2026-03-22T14:03:24Z</time></trkpt><trkpt lat="38.1869288852561" lon="13.28427209610661"><ele>81.0</ele><time>2026-03-22T14:03:25Z</time></trkpt><trkpt lat="38.1870071556693" lon="13.284371865503463"><ele>81.0</ele><time>2026-03-22T14:03:26Z</time></trkpt><trkpt lat="38.187078622281085" lon="13.284464574946194"><ele>81.0</ele><time>2026-03-22T14:03:27Z</time></trkpt><trkpt lat="38.18714739465805" lon="13.284556297788528"><ele>81.0</ele><time>2026-03-22T14:03:28Z</time></trkpt><trkpt lat="38.18719391550146" lon="13.284637258670504"><ele>81.0</ele><time>2026-03-22T14:03:29Z</time></trkpt><trkpt lat="38.187238433668995" lon="13.284705083096096"><ele>81.0</ele><time>2026-03-22T14:03:30Z</time></trkpt><trkpt lat="38.18719488454895" lon="13.284827511198456"><ele>79.25</ele><time>2026-03-22T14:03:33Z</time></trkpt><trkpt lat="38.18713735291335" lon="13.28493451717613"><ele>77.5</ele><time>2026-03-22T14:03:34Z</time></trkpt><trkpt lat="38.18706415627721" lon="13.285081250482556"><ele>75.75</ele><time>2026-03-22T14:03:35Z</time></trkpt><trkpt lat="38.186992252630155" lon="13.28523374086907"><ele>74.0</ele><time>2026-03-22T14:03:36Z</time></trkpt><trkpt lat="38.186925363888065" lon="13.285393565335623"><ele>74.0</ele><time>2026-03-22T14:03:37Z</time></trkpt><trkpt lat="38.18686133366414" lon="13.285553939595353"><ele>74.0</ele><time>2026-03-22T14:03:38Z</time></trkpt><trkpt lat="38.18680218365487" lon="13.285708827052506"><ele>74.0</ele><time>2026-03-22T14:03:39Z</time></trkpt><trkpt lat="38.18674034028993" lon="13.285862152503183"><ele>74.0</ele><time>2026-03-22T14:03:40Z</time></trkpt><trkpt lat="38.1866673698652" lon="13.286018597099561"><ele>75.5</ele><time>2026-03-22T14:03:41Z</time></trkpt><trkpt lat="38.1865993155388" lon="13.286158647291048"><ele>77.0</ele><time>2026-03-22T14:03:42Z</time></trkpt><trkpt lat="38.18653505766114" lon="13.286290826456048"><ele>78.5</ele><time>2026-03-22T14:03:43Z</time></trkpt><trkpt lat="38.1864754469702" lon="13.286410047759718"><ele>80.0</ele><time>2026-03-22T14:03:44Z</time></trkpt><trkpt lat="38.186426921871046" lon="13.286514298855147"><ele>80.0</ele><time>2026-03-22T14:03:45Z</time></trkpt><trkpt lat="38.186416462599844" lon="13.28663087588733"><ele>80.0</ele><time>2026-03-22T14:03:46Z</time></trkpt><trkpt lat="38.18637187693125" lon="13.28672799124711"><ele>80.0</ele><time>2026-03-22T14:03:48Z</time></trkpt><trkpt lat="38.18654204394029" lon="13.286788754172878"><ele>80.0</ele><time>2026-03-22T14:03:49Z</time></trkpt><trkpt lat="38.18662299306613" lon="13.28682954765996"><ele>80.0</ele><time>2026-03-22T14:03:50Z</time></trkpt><trkpt lat="38.186725344129954" lon="13.286885060377081"><ele>73.66666666666667</ele><time>2026-03-22T14:03:51Z</time></trkpt><trkpt lat="38.18680275871375" lon="13.286924561309922"><ele>67.33333333333333</ele><time>2026-03-22T14:03:52Z</time></trkpt><trkpt lat="38.18692182119415" lon="13.286985312815034"><ele>61.0</ele><time>2026-03-22T14:03:54Z</time></trkpt><trkpt lat="38.18688030499193" lon="13.28732433949971"><ele>59.5</ele><time>2026-03-22T14:03:56Z</time></trkpt><trkpt lat="38.186818413532905" lon="13.287446647774331"><ele>58.0</ele><time>2026-03-22T14:03:57Z</time></trkpt><trkpt lat="38.18673732048516" lon="13.287594077332809"><ele>56.5</ele><time>2026-03-22T14:03:58Z</time></trkpt><trkpt lat="38.186631369151904" lon="13.287767117292013"><ele>55.0</ele><time>2026-03-22T14:03:59Z</time></trkpt><trkpt lat="38.18653141421898" lon="13.287922049458189"><ele>56.8</ele><time>2026-03-22T14:04:00Z</time></trkpt><trkpt lat="38.1864550943215" lon="13.28804979530145"><ele>58.6</ele><time>2026-03-22T14:04:01Z</time></trkpt><trkpt lat="38.186382996179" lon="13.288166418458236"><ele>60.400000000000006</ele><time>2026-03-22T14:04:02Z</time></trkpt><trkpt lat="38.186321409645956" lon="13.28827187233454"><ele>62.2</ele><time>2026-03-22T14:04:03Z</time></trkpt><trkpt lat="38.18626822326015" lon="13.28837176077828"><ele>64.0</ele><time>2026-03-22T14:04:04Z</time></trkpt><trkpt lat="38.186228961183105" lon="13.288441139078596"><ele>63.99999999999999</ele><time>2026-03-22T14:04:05Z</time></trkpt><trkpt lat="38.1862175096966" lon="13.288536266818964"><ele>64.0</ele><time>2026-03-22T14:04:07.001Z</time></trkpt><trkpt lat="38.18628481005054" lon="13.288595595851419"><ele>64.0</ele><time>2026-03-22T14:04:09.001Z</time></trkpt><trkpt lat="38.1863581196066" lon="13.28863799070424"><ele>64.0</ele><time>2026-03-22T14:04:10.001Z</time></trkpt><trkpt lat="38.18643123139653" lon="13.288719724255788"><ele>63.99999999999999</ele><time>2026-03-22T14:04:11.001Z</time></trkpt><trkpt lat="38.18648035586876" lon="13.288824468874372"><ele>64.0</ele><time>2026-03-22T14:04:12.001Z</time></trkpt><trkpt lat="38.186515792018994" lon="13.288924118269483"><ele>61.0</ele><time>2026-03-22T14:04:13.001Z</time></trkpt><trkpt lat="38.1865593925338" lon="13.289026391517952"><ele>58.00000000000001</ele><time>2026-03-22T14:04:14.001Z</time></trkpt><trkpt lat="38.186606932795755" lon="13.289124181590976"><ele>55.0</ele><time>2026-03-22T14:04:15.001Z</time></trkpt><trkpt lat="38.1866658031207" lon="13.289221120113238"><ele>52.0</ele><time>2026-03-22T14:04:16.001Z</time></trkpt><trkpt lat="38.18670809951947" lon="13.289331576620832"><ele>49.0</ele><time>2026-03-22T14:04:17.001Z</time></trkpt><trkpt lat="38.186760242843015" lon="13.289429627554188"><ele>49.0</ele><time>2026-03-22T14:04:18.001Z</time></trkpt><trkpt lat="38.18680970977412" lon="13.289522645811127"><ele>49.0</ele><time>2026-03-22T14:04:19.001Z</time></trkpt><trkpt lat="38.18686929348798" lon="13.289634687721776"><ele>49.0</ele><time>2026-03-22T14:04:21.001Z</time></trkpt><trkpt lat="38.18701296462324" lon="13.289604790080947"><ele>49.0</ele><time>2026-03-22T14:04:24.001Z</time></trkpt><trkpt lat="38.18711880419561" lon="13.28953788846769"><ele>49.0</ele><time>2026-03-22T14:04:25.001Z</time></trkpt><trkpt lat="38.18722590832288" lon="13.289447734014052"><ele>49.0</ele><time>2026-03-22T14:04:26.001Z</time></trkpt><trkpt lat="38.18735512645225" lon="13.289340119453195"><ele>49.0</ele><time>2026-03-22T14:04:27.001Z</time></trkpt><trkpt lat="38.18749486475513" lon="13.289219922237923"><ele>49.33333333333333</ele><time>2026-03-22T14:04:28.001Z</time></trkpt><trkpt lat="38.18764863534743" lon="13.28907642959493"><ele>49.66666666666667</ele><time>2026-03-22T14:04:29.001Z</time></trkpt><trkpt lat="38.18778000187716" lon="13.2889722738904"><ele>50.0</ele><time>2026-03-22T14:04:30.001Z</time></trkpt><trkpt lat="38.1878755778886" lon="13.288911689566493"><ele>50.0</ele><time>2026-03-22T14:04:31.001Z</time></trkpt><trkpt lat="38.187952737822734" lon="13.288870413579938"><ele>50.0</ele><time>2026-03-22T14:04:32.001Z</time></trkpt><trkpt lat="38.18802635788503" lon="13.288848633502035"><ele>50.0</ele><time>2026-03-22T14:04:34.001Z</time></trkpt><trkpt lat="38.18807756939473" lon="13.28893724077666"><ele>50.0</ele><time>2026-03-22T14:04:35.001Z</time></trkpt><trkpt lat="38.18815941065903" lon="13.289015967760758"><ele>50.0</ele><time>2026-03-22T14:04:36.001Z</time></trkpt><trkpt lat="38.18824773794287" lon="13.289134881135507"><ele>49.75</ele><time>2026-03-22T14:04:37.001Z</time></trkpt><trkpt lat="38.18835599638017" lon="13.289275011411517"><ele>49.5</ele><time>2026-03-22T14:04:38.001Z</time></trkpt><trkpt lat="38.18846271760308" lon="13.289391900625445"><ele>49.25</ele><time>2026-03-22T14:04:39.001Z</time></trkpt><trkpt lat="38.188568134411575" lon="13.28951224781256"><ele>49.0</ele><time>2026-03-22T14:04:40.001Z</time></trkpt><trkpt lat="38.18868253694869" lon="13.289642891677774"><ele>48.0</ele><time>2026-03-22T14:04:41.001Z</time></trkpt><trkpt lat="38.18879157350045" lon="13.289768647072947"><ele>47.0</ele><time>2026-03-22T14:04:42.001Z</time></trkpt><trkpt lat="38.188927384447986" lon="13.28989763760721"><ele>46.0</ele><time>2026-03-22T14:04:43.001Z</time></trkpt><trkpt lat="38.18905469657773" lon="13.29000459129534"><ele>45.0</ele><time>2026-03-22T14:04:44.001Z</time></trkpt><trkpt lat="38.18918849008931" lon="13.290130427510132"><ele>44.0</ele><time>2026-03-22T14:04:45.001Z</time></trkpt><trkpt lat="38.18930617931881" lon="13.290268841203329"><ele>43.0</ele><time>2026-03-22T14:04:46.001Z</time></trkpt><trkpt lat="38.189397863139654" lon="13.290378448599176"><ele>43.0</ele><time>2026-03-22T14:04:47.001Z</time></trkpt><trkpt lat="38.18950120928927" lon="13.290513926059946"><ele>43.0</ele><time>2026-03-22T14:04:48.001Z</time></trkpt><trkpt lat="38.189577792207345" lon="13.290658055578447"><ele>43.0</ele><time>2026-03-22T14:04:49.001Z</time></trkpt><trkpt lat="38.189646756638766" lon="13.29083193669359"><ele>43.0</ele><time>2026-03-22T14:04:50.001Z</time></trkpt><trkpt lat="38.189657218930726" lon="13.290990860355322"><ele>43.25</ele><time>2026-03-22T14:04:51.001Z</time></trkpt><trkpt lat="38.18966080630949" lon="13.291140676696372"><ele>43.5</ele><time>2026-03-22T14:04:52.001Z</time></trkpt><trkpt lat="38.18963124335651" lon="13.291271625512575"><ele>43.75</ele><time>2026-03-22T14:04:53.001Z</time></trkpt><trkpt lat="38.189585054592996" lon="13.291392239403752"><ele>44.0</ele><time>2026-03-22T14:04:54.001Z</time></trkpt><trkpt lat="38.18952213748488" lon="13.291532459433508"><ele>44.0</ele><time>2026-03-22T14:04:55.001Z</time></trkpt><trkpt lat="38.18945049679023" lon="13.291687475742153"><ele>44.0</ele><time>2026-03-22T14:04:56.001Z</time></trkpt><trkpt lat="38.18937985076355" lon="13.29185746361814"><ele>44.0</ele><time>2026-03-22T14:04:57.001Z</time></trkpt><trkpt lat="38.189330032460525" lon="13.292026888097325"><ele>44.0</ele><time>2026-03-22T14:04:58.001Z</time></trkpt><trkpt lat="38.18930789517277" lon="13.29222282099173"><ele>42.666666666666664</ele><time>2026-03-22T14:04:59.001Z</time></trkpt><trkpt lat="38.18931011741247" lon="13.292422229368032"><ele>41.333333333333336</ele><time>2026-03-22T14:05:00.001Z</time></trkpt><trkpt lat="38.189299444861106" lon="13.29263801378146"><ele>40.0</ele><time>2026-03-22T14:05:01.001Z</time></trkpt><trkpt lat="38.18927347500485" lon="13.292854855937401"><ele>40.0</ele><time>2026-03-22T14:05:02Z</time></trkpt><trkpt lat="38.18925461354215" lon="13.293065071259537"><ele>40.0</ele><time>2026-03-22T14:05:03Z</time></trkpt><trkpt lat="38.189233754631125" lon="13.293284847350613"><ele>40.0</ele><time>2026-03-22T14:05:04Z</time></trkpt><trkpt lat="38.18921302520929" lon="13.293500053905612"><ele>40.333333333333336</ele><time>2026-03-22T14:05:05Z</time></trkpt><trkpt lat="38.18918959107999" lon="13.293730882276899"><ele>40.666666666666664</ele><time>2026-03-22T14:05:06Z</time></trkpt><trkpt lat="38.18916815976233" lon="13.29394198274409"><ele>41.0</ele><time>2026-03-22T14:05:07Z</time></trkpt><trkpt lat="38.18915325263531" lon="13.294101684638143"><ele>40.25</ele><time>2026-03-22T14:05:08Z</time></trkpt><trkpt lat="38.18913780790068" lon="13.29427079466852"><ele>39.5</ele><time>2026-03-22T14:05:09Z</time></trkpt><trkpt lat="38.1891234341511" lon="13.294410362128197"><ele>38.75</ele><time>2026-03-22T14:05:10Z</time></trkpt><trkpt lat="38.189100817013816" lon="13.294557677129228"><ele>38.0</ele><time>2026-03-22T14:05:11Z</time></trkpt><trkpt lat="38.18907340144615" lon="13.29473134648183"><ele>38.0</ele><time>2026-03-22T14:05:12Z</time></trkpt><trkpt lat="38.18907519031728" lon="13.294894758041478"><ele>38.0</ele><time>2026-03-22T14:05:13Z</time></trkpt><trkpt lat="38.18906151823112" lon="13.295070868364846"><ele>38.0</ele><time>2026-03-22T14:05:14Z</time></trkpt><trkpt lat="38.18902203567233" lon="13.295253681436398"><ele>38.0</ele><time>2026-03-22T14:05:15Z</time></trkpt><trkpt lat="38.18897510751525" lon="13.295447128247252"><ele>36.666666666666664</ele><time>2026-03-22T14:05:16Z</time></trkpt><trkpt lat="38.18891795268773" lon="13.29565511865869"><ele>35.333333333333336</ele><time>2026-03-22T14:05:17Z</time></trkpt><trkpt lat="38.18887358262254" lon="13.295894479789924"><ele>34.0</ele><time>2026-03-22T14:05:18Z</time></trkpt><trkpt lat="38.18885638578205" lon="13.296135693596728"><ele>34.0</ele><time>2026-03-22T14:05:19Z</time></trkpt><trkpt lat="38.188854339567854" lon="13.296373853166468"><ele>34.0</ele><time>2026-03-22T14:05:20Z</time></trkpt><trkpt lat="38.18885928940758" lon="13.29662117947726"><ele>34.0</ele><time>2026-03-22T14:05:21Z</time></trkpt><trkpt lat="38.188874480710744" lon="13.296884213985033"><ele>34.0</ele><time>2026-03-22T14:05:22Z</time></trkpt><trkpt lat="38.18888735060016" lon="13.29715178158755"><ele>34.0</ele><time>2026-03-22T14:05:23Z</time></trkpt><trkpt lat="38.18889203648576" lon="13.297412886699995"><ele>34.0</ele><time>2026-03-22T14:05:24Z</time></trkpt><trkpt lat="38.18889172503059" lon="13.297672250627292"><ele>34.0</ele><time>2026-03-22T14:05:25Z</time></trkpt><trkpt lat="38.188897371623284" lon="13.297929282422734"><ele>34.0</ele><time>2026-03-22T14:05:26Z</time></trkpt><trkpt lat="38.188903394928275" lon="13.298162009142874"><ele>34.0</ele><time>2026-03-22T14:05:27Z</time></trkpt><trkpt lat="38.18889530688438" lon="13.29836656004995"><ele>33.5</ele><time>2026-03-22T14:05:28Z</time></trkpt><trkpt lat="38.188873448734746" lon="13.298529963663155"><ele>33.0</ele><time>2026-03-22T14:05:29Z</time></trkpt><trkpt lat="38.18883187303516" lon="13.29868930397639"><ele>32.5</ele><time>2026-03-22T14:05:30Z</time></trkpt><trkpt lat="38.18877217076074" lon="13.298857817201299"><ele>32.0</ele><time>2026-03-22T14:05:31Z</time></trkpt><trkpt lat="38.188695100090534" lon="13.29902687636767"><ele>31.666666666666664</ele><time>2026-03-22T14:05:32Z</time></trkpt><trkpt lat="38.18861474543625" lon="13.299187352123095"><ele>31.333333333333336</ele><time>2026-03-22T14:05:33Z</time></trkpt><trkpt lat="38.188528635836974" lon="13.299357949457152"><ele>31.0</ele><time>2026-03-22T14:05:34Z</time></trkpt><trkpt lat="38.18842599146161" lon="13.299505692329983"><ele>31.0</ele><time>2026-03-22T14:05:35Z</time></trkpt><trkpt lat="38.18832182532317" lon="13.299647283146669"><ele>31.0</ele><time>2026-03-22T14:05:36Z</time></trkpt><trkpt lat="38.18824055397099" lon="13.299790721791668"><ele>31.0</ele><time>2026-03-22T14:05:37Z</time></trkpt><trkpt lat="38.188188065584946" lon="13.299916473967421"><ele>31.0</ele><time>2026-03-22T14:05:38Z</time></trkpt><trkpt lat="38.188165853525206" lon="13.30004275778877"><ele>30.6</ele><time>2026-03-22T14:05:39Z</time></trkpt><trkpt lat="38.18820674158644" lon="13.300174388407216"><ele>30.200000000000003</ele><time>2026-03-22T14:05:40Z</time></trkpt><trkpt lat="38.188271990288264" lon="13.300265301302991"><ele>29.799999999999997</ele><time>2026-03-22T14:05:41Z</time></trkpt><trkpt lat="38.18834225254623" lon="13.300363300346604"><ele>29.4</ele><time>2026-03-22T14:05:42Z</time></trkpt><trkpt lat="38.18844250453465" lon="13.300446253342052"><ele>29.0</ele><time>2026-03-22T14:05:43Z</time></trkpt><trkpt lat="38.18855308015916" lon="13.300508744753598"><ele>29.0</ele><time>2026-03-22T14:05:44Z</time></trkpt><trkpt lat="38.18866226722575" lon="13.300560520573919"><ele>29.0</ele><time>2026-03-22T14:05:45Z</time></trkpt><trkpt lat="38.18876916771936" lon="13.300575499909026"><ele>29.0</ele><time>2026-03-22T14:05:46Z</time></trkpt><trkpt lat="38.18885910873569" lon="13.300549840314494"><ele>29.0</ele><time>2026-03-22T14:05:47Z</time></trkpt><trkpt lat="38.188905983746345" lon="13.300476329673137"><ele>29.0</ele><time>2026-03-22T14:05:48Z</time></trkpt><trkpt lat="38.1889786379157" lon="13.300357367807615"><ele>29.0</ele><time>2026-03-22T14:05:49Z</time></trkpt><trkpt lat="38.189035194216146" lon="13.30022892178548"><ele>29.0</ele><time>2026-03-22T14:05:50Z</time></trkpt><trkpt lat="38.18905116800068" lon="13.300046430307006"><ele>29.0</ele><time>2026-03-22T14:05:51Z</time></trkpt><trkpt lat="38.18908686308743" lon="13.299849836717263"><ele>29.0</ele><time>2026-03-22T14:05:52Z</time></trkpt><trkpt lat="38.18916799488457" lon="13.29964178922034"><ele>29.0</ele><time>2026-03-22T14:05:53Z</time></trkpt><trkpt lat="38.18926533281921" lon="13.2994107809371"><ele>29.0</ele><time>2026-03-22T14:05:54Z</time></trkpt><trkpt lat="38.189348919225466" lon="13.299237264877148"><ele>29.0</ele><time>2026-03-22T14:05:55Z</time></trkpt><trkpt lat="38.189446775025466" lon="13.29908204519559"><ele>29.0</ele><time>2026-03-22T14:05:56Z</time></trkpt><trkpt lat="38.18952285357515" lon="13.298979417704999"><ele>29.0</ele><time>2026-03-22T14:05:57Z</time></trkpt><trkpt lat="38.189590147560004" lon="13.298922784015948"><ele>29.0</ele><time>2026-03-22T14:05:58Z</time></trkpt><trkpt lat="38.18967059755517" lon="13.298967885119678"><ele>29.0</ele><time>2026-03-22T14:06:00Z</time></trkpt><trkpt lat="38.18973038139921" lon="13.299034580941562"><ele>29.0</ele><time>2026-03-22T14:06:02Z</time></trkpt><trkpt lat="38.18977725868437" lon="13.299134606376294"><ele>29.0</ele><time>2026-03-22T14:06:03Z</time></trkpt><trkpt lat="38.18979676554938" lon="13.299243602895057"><ele>29.0</ele><time>2026-03-22T14:06:04Z</time></trkpt><trkpt lat="38.189830579886795" lon="13.299325249574482"><ele>29.0</ele><time>2026-03-22T14:06:05Z</time></trkpt><trkpt lat="38.18989331490899" lon="13.299427694436117"><ele>29.0</ele><time>2026-03-22T14:06:06.001Z</time></trkpt><trkpt lat="38.189941441738405" lon="13.299566452046674"><ele>29.0</ele><time>2026-03-22T14:06:07.001Z</time></trkpt><trkpt lat="38.190028301741116" lon="13.2997343622789"><ele>28.5</ele><time>2026-03-22T14:06:08.001Z</time></trkpt><trkpt lat="38.190109281557966" lon="13.299867860548737"><ele>28.0</ele><time>2026-03-22T14:06:09.001Z</time></trkpt><trkpt lat="38.190201861253115" lon="13.300017671347511"><ele>27.5</ele><time>2026-03-22T14:06:10.001Z</time></trkpt><trkpt lat="38.190321682679205" lon="13.300129595901492"><ele>27.0</ele><time>2026-03-22T14:06:11.001Z</time></trkpt><trkpt lat="38.19045084655588" lon="13.300252111975817"><ele>27.0</ele><time>2026-03-22T14:06:12.001Z</time></trkpt><trkpt lat="38.19059862865481" lon="13.300374385600218"><ele>27.0</ele><time>2026-03-22T14:06:13.001Z</time></trkpt><trkpt lat="38.19074266058528" lon="13.300477817494539"><ele>27.0</ele><time>2026-03-22T14:06:14.001Z</time></trkpt><trkpt lat="38.19089458131143" lon="13.30060585624854"><ele>26.333333333333336</ele><time>2026-03-22T14:06:15.001Z</time></trkpt><trkpt lat="38.1910423507253" lon="13.300724010867015"><ele>25.666666666666668</ele><time>2026-03-22T14:06:16.001Z</time></trkpt><trkpt lat="38.19119673342612" lon="13.30086109727485"><ele>25.0</ele><time>2026-03-22T14:06:17.001Z</time></trkpt><trkpt lat="38.19136167439975" lon="13.300964355520216"><ele>24.333333333333336</ele><time>2026-03-22T14:06:18.001Z</time></trkpt><trkpt lat="38.19152065310203" lon="13.30105997804569"><ele>23.666666666666668</ele><time>2026-03-22T14:06:19.001Z</time></trkpt><trkpt lat="38.19166281153043" lon="13.301193111369697"><ele>23.0</ele><time>2026-03-22T14:06:20.001Z</time></trkpt><trkpt lat="38.191807939705384" lon="13.301299664686603"><ele>23.0</ele><time>2026-03-22T14:06:21.001Z</time></trkpt><trkpt lat="38.1919475821037" lon="13.301406926044303"><ele>23.0</ele><time>2026-03-22T14:06:22.001Z</time></trkpt><trkpt lat="38.19208808534714" lon="13.301520412604818"><ele>23.0</ele><time>2026-03-22T14:06:23.001Z</time></trkpt><trkpt lat="38.192223414519574" lon="13.301633743069079"><ele>22.666666666666668</ele><time>2026-03-22T14:06:24.001Z</time></trkpt><trkpt lat="38.19234511955761" lon="13.30174798872542"><ele>22.333333333333332</ele><time>2026-03-22T14:06:25.001Z</time></trkpt><trkpt lat="38.19247479282" lon="13.301886545784948"><ele>22.0</ele><time>2026-03-22T14:06:26.001Z</time></trkpt><trkpt lat="38.1925959551827" lon="13.302015965513803"><ele>22.0</ele><time>2026-03-22T14:06:27.001Z</time></trkpt><trkpt lat="38.19272029568792" lon="13.302142813608354"><ele>22.0</ele><time>2026-03-22T14:06:28.001Z</time></trkpt><trkpt lat="38.192853476138396" lon="13.302272545906073"><ele>22.0</ele><time>2026-03-22T14:06:29.001Z</time></trkpt><trkpt lat="38.19296925398494" lon="13.302409013703375"><ele>21.666666666666664</ele><time>2026-03-22T14:06:30.001Z</time></trkpt><trkpt lat="38.1931066981331" lon="13.302555777819784"><ele>21.333333333333332</ele><time>2026-03-22T14:06:31.001Z</time></trkpt><trkpt lat="38.19321606579612" lon="13.302690856928182"><ele>21.0</ele><time>2026-03-22T14:06:32.001Z</time></trkpt><trkpt lat="38.193332935542585" lon="13.302832526713066"><ele>21.0</ele><time>2026-03-22T14:06:33.001Z</time></trkpt><trkpt lat="38.19343416980726" lon="13.302999760664608"><ele>21.0</ele><time>2026-03-22T14:06:34.001Z</time></trkpt><trkpt lat="38.19354063223333" lon="13.303155172665974"><ele>21.0</ele><time>2026-03-22T14:06:35.001Z</time></trkpt><trkpt lat="38.19363185201046" lon="13.303296469626966"><ele>20.666666666666668</ele><time>2026-03-22T14:06:36.001Z</time></trkpt><trkpt lat="38.193728845868414" lon="13.303452227570155"><ele>20.333333333333336</ele><time>2026-03-22T14:06:37.001Z</time></trkpt><trkpt lat="38.1938212710346" lon="13.303608100912045"><ele>20.0</ele><time>2026-03-22T14:06:38.001Z</time></trkpt><trkpt lat="38.19391767051592" lon="13.303758409966175"><ele>20.0</ele><time>2026-03-22T14:06:39.001Z</time></trkpt><trkpt lat="38.19401405251356" lon="13.303930180717387"><ele>20.0</ele><time>2026-03-22T14:06:40.001Z</time></trkpt><trkpt lat="38.194108604200856" lon="13.304085425000663"><ele>20.0</ele><time>2026-03-22T14:06:41.001Z</time></trkpt><trkpt lat="38.19419997392555" lon="13.304236937932325"><ele>20.0</ele><time>2026-03-22T14:06:42.001Z</time></trkpt><trkpt lat="38.19428666514278" lon="13.30438761509417"><ele>20.0</ele><time>2026-03-22T14:06:43.001Z</time></trkpt><trkpt lat="38.19437288059971" lon="13.304554343161833"><ele>20.0</ele><time>2026-03-22T14:06:44.001Z</time></trkpt><trkpt lat="38.194454037327645" lon="13.304747898845296"><ele>19.666666666666668</ele><time>2026-03-22T14:06:45.001Z</time></trkpt><trkpt lat="38.194552113289696" lon="13.304920264909645"><ele>19.333333333333332</ele><time>2026-03-22T14:06:46.001Z</time></trkpt><trkpt lat="38.19468123527351" lon="13.305115029517395"><ele>19.0</ele><time>2026-03-22T14:06:47.001Z</time></trkpt><trkpt lat="38.194796749215115" lon="13.305363763228643"><ele>18.666666666666664</ele><time>2026-03-22T14:06:48.001Z</time></trkpt><trkpt lat="38.194901920332626" lon="13.305588349498164"><ele>18.333333333333332</ele><time>2026-03-22T14:06:49.001Z</time></trkpt><trkpt lat="38.194987892912366" lon="13.3058013182795"><ele>18.0</ele><time>2026-03-22T14:06:50.001Z</time></trkpt><trkpt lat="38.195086997717816" lon="13.305996754773005"><ele>18.0</ele><time>2026-03-22T14:06:51.001Z</time></trkpt><trkpt lat="38.195169215083276" lon="13.306158704221659"><ele>18.0</ele><time>2026-03-22T14:06:52.001Z</time></trkpt><trkpt lat="38.19524501101318" lon="13.306305956140315"><ele>18.0</ele><time>2026-03-22T14:06:53.001Z</time></trkpt><trkpt lat="38.19532901604378" lon="13.306469616639268"><ele>18.0</ele><time>2026-03-22T14:06:54.001Z</time></trkpt><trkpt lat="38.19541842615491" lon="13.306643807474764"><ele>18.0</ele><time>2026-03-22T14:06:55.001Z</time></trkpt><trkpt lat="38.19551105643824" lon="13.30681463631571"><ele>18.0</ele><time>2026-03-22T14:06:56.001Z</time></trkpt><trkpt lat="38.19557028655938" lon="13.30697050073395"><ele>18.0</ele><time>2026-03-22T14:06:57.001Z</time></trkpt><trkpt lat="38.19563495277602" lon="13.30712985898965"><ele>18.0</ele><time>2026-03-22T14:06:58.001Z</time></trkpt><trkpt lat="38.19569445537729" lon="13.307301104431932"><ele>18.25</ele><time>2026-03-22T14:06:59.001Z</time></trkpt><trkpt lat="38.195752869652885" lon="13.3074687391114"><ele>18.5</ele><time>2026-03-22T14:07:00.001Z</time></trkpt><trkpt lat="38.19581543571452" lon="13.30764612456309"><ele>18.75</ele><time>2026-03-22T14:07:01.001Z</time></trkpt><trkpt lat="38.1958737769285" lon="13.307811851537947"><ele>19.0</ele><time>2026-03-22T14:07:02.001Z</time></trkpt><trkpt lat="38.19593513879971" lon="13.3079683951913"><ele>19.0</ele><time>2026-03-22T14:07:03.001Z</time></trkpt><trkpt lat="38.196014944565896" lon="13.30812365729075"><ele>19.0</ele><time>2026-03-22T14:07:04.001Z</time></trkpt><trkpt lat="38.1960711141575" lon="13.308311764667588"><ele>19.0</ele><time>2026-03-22T14:07:05.001Z</time></trkpt><trkpt lat="38.19613920698602" lon="13.308484484708593"><ele>19.0</ele><time>2026-03-22T14:07:06.001Z</time></trkpt><trkpt lat="38.19620767718227" lon="13.308659804488336"><ele>19.0</ele><time>2026-03-22T14:07:07.001Z</time></trkpt><trkpt lat="38.19628009957815" lon="13.308847148497359"><ele>19.0</ele><time>2026-03-22T14:07:08Z</time></trkpt><trkpt lat="38.19635293614428" lon="13.309038145034657"><ele>18.75</ele><time>2026-03-22T14:07:09Z</time></trkpt><trkpt lat="38.1964305539087" lon="13.309252647285717"><ele>18.5</ele><time>2026-03-22T14:07:10Z</time></trkpt><trkpt lat="38.19648118292535" lon="13.30940998835423"><ele>18.25</ele><time>2026-03-22T14:07:11Z</time></trkpt><trkpt lat="38.19652443262975" lon="13.309558114653203"><ele>18.0</ele><time>2026-03-22T14:07:12Z</time></trkpt><trkpt lat="38.19655908582757" lon="13.309689786401908"><ele>18.0</ele><time>2026-03-22T14:07:13Z</time></trkpt><trkpt lat="38.19658922364363" lon="13.309813584520326"><ele>18.0</ele><time>2026-03-22T14:07:14Z</time></trkpt><trkpt lat="38.19660215555375" lon="13.309925698566854"><ele>18.0</ele><time>2026-03-22T14:07:15Z</time></trkpt><trkpt lat="38.1966032699248" lon="13.310027727831075"><ele>18.0</ele><time>2026-03-22T14:07:16Z</time></trkpt><trkpt lat="38.19658774966739" lon="13.310121010814308"><ele>18.0</ele><time>2026-03-22T14:07:17Z</time></trkpt><trkpt lat="38.1965399351808" lon="13.310220745365774"><ele>18.0</ele><time>2026-03-22T14:07:18Z</time></trkpt><trkpt lat="38.196502926230615" lon="13.310291197451356"><ele>18.0</ele><time>2026-03-22T14:07:19Z</time></trkpt><trkpt lat="38.19645723690468" lon="13.310408884178134"><ele>18.0</ele><time>2026-03-22T14:07:22Z</time></trkpt><trkpt lat="38.19641070679988" lon="13.310528622906405"><ele>18.0</ele><time>2026-03-22T14:07:24Z</time></trkpt><trkpt lat="38.19638091138348" lon="13.310603773897899"><ele>18.0</ele><time>2026-03-22T14:07:25Z</time></trkpt><trkpt lat="38.19634811707701" lon="13.310686597505967"><ele>18.0</ele><time>2026-03-22T14:07:26Z</time></trkpt><trkpt lat="38.196292750280136" lon="13.310834523150694"><ele>18.0</ele><time>2026-03-22T14:07:28Z</time></trkpt><trkpt lat="38.19624716062964" lon="13.310961659695119"><ele>18.0</ele><time>2026-03-22T14:07:30Z</time></trkpt><trkpt lat="38.19620676819081" lon="13.311083023529987"><ele>18.0</ele><time>2026-03-22T14:07:32Z</time></trkpt><trkpt lat="38.19618140994467" lon="13.311169093046072"><ele>18.0</ele><time>2026-03-22T14:07:36Z</time></trkpt><trkpt lat="38.196161425568185" lon="13.31125026446155"><ele>18.0</ele><time>2026-03-22T14:07:38Z</time></trkpt><trkpt lat="38.19614028851458" lon="13.311334906652409"><ele>18.0</ele><time>2026-03-22T14:07:39Z</time></trkpt><trkpt lat="38.196149633391194" lon="13.31144132937131"><ele>18.25</ele><time>2026-03-22T14:07:40Z</time></trkpt><trkpt lat="38.196209419263425" lon="13.311579394826413"><ele>18.5</ele><time>2026-03-22T14:07:41Z</time></trkpt><trkpt lat="38.19625516830839" lon="13.311709726312102"><ele>18.75</ele><time>2026-03-22T14:07:42Z</time></trkpt><trkpt lat="38.196305051527695" lon="13.311854685438393"><ele>19.0</ele><time>2026-03-22T14:07:43Z</time></trkpt><trkpt lat="38.19635858941276" lon="13.312010044773643"><ele>19.0</ele><time>2026-03-22T14:07:44Z</time></trkpt><trkpt lat="38.196405834834685" lon="13.312146718249574"><ele>19.0</ele><time>2026-03-22T14:07:45Z</time></trkpt><trkpt lat="38.19646107841704" lon="13.312306529195235"><ele>19.0</ele><time>2026-03-22T14:07:46Z</time></trkpt><trkpt lat="38.196515225646934" lon="13.312463168436464"><ele>19.0</ele><time>2026-03-22T14:07:47Z</time></trkpt><trkpt lat="38.196573899866166" lon="13.312633066971703"><ele>18.5</ele><time>2026-03-22T14:07:48Z</time></trkpt><trkpt lat="38.19663555662789" lon="13.312812218686883"><ele>18.0</ele><time>2026-03-22T14:07:49Z</time></trkpt><trkpt lat="38.196693478552795" lon="13.312980518439696"><ele>17.5</ele><time>2026-03-22T14:07:50Z</time></trkpt><trkpt lat="38.19674926899865" lon="13.313142806633543"><ele>17.0</ele><time>2026-03-22T14:07:51Z</time></trkpt><trkpt lat="38.1967949986658" lon="13.313280599837155"><ele>16.6</ele><time>2026-03-22T14:07:52Z</time></trkpt><trkpt lat="38.196841078755284" lon="13.313418247726371"><ele>16.2</ele><time>2026-03-22T14:07:53Z</time></trkpt><trkpt lat="38.19688322434774" lon="13.313544189141655"><ele>15.8</ele><time>2026-03-22T14:07:54Z</time></trkpt><trkpt lat="38.1969190884899" lon="13.313651360295669"><ele>15.4</ele><time>2026-03-22T14:07:55Z</time></trkpt><trkpt lat="38.1969512076884" lon="13.313747340585902"><ele>15.0</ele><time>2026-03-22T14:07:56Z</time></trkpt><trkpt lat="38.19698032458561" lon="13.313834349136668"><ele>14.4</ele><time>2026-03-22T14:07:57Z</time></trkpt><trkpt lat="38.19702063628713" lon="13.31395481026164"><ele>13.8</ele><time>2026-03-22T14:07:59Z</time></trkpt><trkpt lat="38.19704243842615" lon="13.314055464150684"><ele>13.2</ele><time>2026-03-22T14:08:02Z</time></trkpt><trkpt lat="38.19688842751491" lon="13.314111756761351"><ele>12.6</ele><time>2026-03-22T14:08:04Z</time></trkpt><trkpt lat="38.196828900024066" lon="13.314168830406917"><ele>12.0</ele><time>2026-03-22T14:08:05Z</time></trkpt><trkpt lat="38.19677053777965" lon="13.314224775224128"><ele>12.0</ele><time>2026-03-22T14:08:06Z</time></trkpt><trkpt lat="38.196715324662364" lon="13.31427659421608"><ele>12.0</ele><time>2026-03-22T14:08:07.001Z</time></trkpt><trkpt lat="38.19664769001713" lon="13.314344823696498"><ele>12.0</ele><time>2026-03-22T14:08:08.001Z</time></trkpt><trkpt lat="38.19658667081751" lon="13.3144130575569"><ele>12.0</ele><time>2026-03-22T14:08:09.001Z</time></trkpt><trkpt lat="38.19652296667324" lon="13.314479068486888"><ele>12.0</ele><time>2026-03-22T14:08:10.001Z</time></trkpt><trkpt lat="38.19646436099271" lon="13.31453300567837"><ele>12.0</ele><time>2026-03-22T14:08:11.001Z</time></trkpt><trkpt lat="38.19640621352356" lon="13.31458371091774"><ele>12.5</ele><time>2026-03-22T14:08:12.001Z</time></trkpt><trkpt lat="38.196332538289845" lon="13.314649160272372"><ele>13.0</ele><time>2026-03-22T14:08:14.001Z</time></trkpt><trkpt lat="38.19638483272192" lon="13.314791202034147"><ele>13.5</ele><time>2026-03-22T14:08:16.001Z</time></trkpt><trkpt lat="38.19647654269215" lon="13.314911807893262"><ele>14.0</ele><time>2026-03-22T14:08:18.001Z</time></trkpt><trkpt lat="38.19653349835078" lon="13.31502615845527"><ele>14.0</ele><time>2026-03-22T14:08:19.001Z</time></trkpt><trkpt lat="38.196607350284516" lon="13.315170168580634"><ele>14.0</ele><time>2026-03-22T14:08:20.001Z</time></trkpt><trkpt lat="38.196680681980766" lon="13.315299258760737"><ele>14.0</ele><time>2026-03-22T14:08:21.001Z</time></trkpt><trkpt lat="38.19675264861341" lon="13.315428762046844"><ele>14.0</ele><time>2026-03-22T14:08:22.001Z</time></trkpt><trkpt lat="38.196831230711005" lon="13.315569480439377"><ele>13.799999999999999</ele><time>2026-03-22T14:08:23.001Z</time></trkpt><trkpt lat="38.19691405648216" lon="13.315719848994807"><ele>13.599999999999998</ele><time>2026-03-22T14:08:24.001Z</time></trkpt><trkpt lat="38.19697151343913" lon="13.315838377216165"><ele>13.4</ele><time>2026-03-22T14:08:25.001Z</time></trkpt><trkpt lat="38.19701595235033" lon="13.315930656482363"><ele>13.2</ele><time>2026-03-22T14:08:26.001Z</time></trkpt><trkpt lat="38.19706294203024" lon="13.316006165957765"><ele>13.0</ele><time>2026-03-22T14:08:27.001Z</time></trkpt><trkpt lat="38.19707236621127" lon="13.316090120283905"><ele>13.0</ele><time>2026-03-22T14:08:30.001Z</time></trkpt><trkpt lat="38.19693196791103" lon="13.316164824692427"><ele>13.0</ele><time>2026-03-22T14:08:31.001Z</time></trkpt><trkpt lat="38.196831461057215" lon="13.316249756383787"><ele>13.0</ele><time>2026-03-22T14:08:32.001Z</time></trkpt><trkpt lat="38.19672200142136" lon="13.316317504428072"><ele>13.0</ele><time>2026-03-22T14:08:33.001Z</time></trkpt><trkpt lat="38.196645687482565" lon="13.316409791576977"><ele>13.25</ele><time>2026-03-22T14:08:34.001Z</time></trkpt><trkpt lat="38.19655085821015" lon="13.31646221723005"><ele>13.5</ele><time>2026-03-22T14:08:35.001Z</time></trkpt><trkpt lat="38.196452552739785" lon="13.316539712146735"><ele>13.75</ele><time>2026-03-22T14:08:36.001Z</time></trkpt><trkpt lat="38.19633637272932" lon="13.316629594042311"><ele>14.0</ele><time>2026-03-22T14:08:37.001Z</time></trkpt><trkpt lat="38.19621630801297" lon="13.316715119687847"><ele>14.25</ele><time>2026-03-22T14:08:38.001Z</time></trkpt><trkpt lat="38.19609596014565" lon="13.316797222653257"><ele>14.5</ele><time>2026-03-22T14:08:39.001Z</time></trkpt><trkpt lat="38.19596234068668" lon="13.316893437030469"><ele>14.75</ele><time>2026-03-22T14:08:40.001Z</time></trkpt><trkpt lat="38.195855223255336" lon="13.316991057134961"><ele>15.0</ele><time>2026-03-22T14:08:41.001Z</time></trkpt><trkpt lat="38.19574821029242" lon="13.317098772369468"><ele>15.5</ele><time>2026-03-22T14:08:42.001Z</time></trkpt><trkpt lat="38.195644295789215" lon="13.31719925491932"><ele>16.0</ele><time>2026-03-22T14:08:43.001Z</time></trkpt><trkpt lat="38.195541938987745" lon="13.317293587364112"><ele>16.5</ele><time>2026-03-22T14:08:44.001Z</time></trkpt><trkpt lat="38.195403053714536" lon="13.317358890840477"><ele>17.0</ele><time>2026-03-22T14:08:45.001Z</time></trkpt><trkpt lat="38.19527223824826" lon="13.317484469573678"><ele>17.0</ele><time>2026-03-22T14:08:46.001Z</time></trkpt><trkpt lat="38.19513841295198" lon="13.317622804090504"><ele>17.0</ele><time>2026-03-22T14:08:47.001Z</time></trkpt><trkpt lat="38.19498922831245" lon="13.31778149305241"><ele>17.0</ele><time>2026-03-22T14:08:48.001Z</time></trkpt><trkpt lat="38.194830279021566" lon="13.317953983201381"><ele>16.333333333333336</ele><time>2026-03-22T14:08:49.001Z</time></trkpt><trkpt lat="38.19467620330239" lon="13.318126033279293"><ele>15.666666666666668</ele><time>2026-03-22T14:08:50.001Z</time></trkpt><trkpt lat="38.19453050444919" lon="13.318292209948504"><ele>15.0</ele><time>2026-03-22T14:08:51.001Z</time></trkpt><trkpt lat="38.194388487823076" lon="13.318454186776902"><ele>15.0</ele><time>2026-03-22T14:08:52.001Z</time></trkpt><trkpt lat="38.194272375952316" lon="13.31858661780338"><ele>15.0</ele><time>2026-03-22T14:08:53.001Z</time></trkpt><trkpt lat="38.19416327028502" lon="13.318711058108082"><ele>15.0</ele><time>2026-03-22T14:08:54.001Z</time></trkpt><trkpt lat="38.19407709490535" lon="13.318831587322814"><ele>15.0</ele><time>2026-03-22T14:08:55.001Z</time></trkpt><trkpt lat="38.19400218432716" lon="13.318918062248526"><ele>15.0</ele><time>2026-03-22T14:08:56.001Z</time></trkpt><trkpt lat="38.193940086366425" lon="13.31897019082582"><ele>15.0</ele><time>2026-03-22T14:08:57.001Z</time></trkpt><trkpt lat="38.193879157540636" lon="13.319044831530865"><ele>15.0</ele><time>2026-03-22T14:08:59.001Z</time></trkpt><trkpt lat="38.19398755165561" lon="13.319249980063377"><ele>15.0</ele><time>2026-03-22T14:09:00.001Z</time></trkpt><trkpt lat="38.19405166750583" lon="13.319367866245848"><ele>15.0</ele><time>2026-03-22T14:09:01.001Z</time></trkpt><trkpt lat="38.19412689010539" lon="13.319515254596384"><ele>15.0</ele><time>2026-03-22T14:09:02.001Z</time></trkpt><trkpt lat="38.1942063152273" lon="13.319707266946965"><ele>15.0</ele><time>2026-03-22T14:09:03.001Z</time></trkpt><trkpt lat="38.19427578760505" lon="13.319898510246265"><ele>14.666666666666668</ele><time>2026-03-22T14:09:04.001Z</time></trkpt><trkpt lat="38.19438252786304" lon="13.320135161820085"><ele>14.333333333333334</ele><time>2026-03-22T14:09:05.001Z</time></trkpt><trkpt lat="38.19449911527785" lon="13.320361971975005"><ele>14.0</ele><time>2026-03-22T14:09:06.001Z</time></trkpt><trkpt lat="38.19460604644909" lon="13.3205824470312"><ele>14.0</ele><time>2026-03-22T14:09:07.001Z</time></trkpt><trkpt lat="38.194684773813286" lon="13.32076052809921"><ele>14.0</ele><time>2026-03-22T14:09:08.001Z</time></trkpt><trkpt lat="38.194762109682294" lon="13.320927441193897"><ele>14.0</ele><time>2026-03-22T14:09:09.001Z</time></trkpt><trkpt lat="38.194829277599354" lon="13.321085978749311"><ele>14.166666666666668</ele><time>2026-03-22T14:09:10.001Z</time></trkpt><trkpt lat="38.19487708438478" lon="13.321196219143264"><ele>14.333333333333334</ele><time>2026-03-22T14:09:11.001Z</time></trkpt><trkpt lat="38.19490877425707" lon="13.321280728652221"><ele>14.5</ele><time>2026-03-22T14:09:12.001Z</time></trkpt><trkpt lat="38.19490816207116" lon="13.32136235479109"><ele>14.666666666666668</ele><time>2026-03-22T14:09:17Z</time></trkpt><trkpt lat="38.1949333547589" lon="13.321481262697201"><ele>14.833333333333334</ele><time>2026-03-22T14:09:19Z</time></trkpt><trkpt lat="38.194968413650194" lon="13.321563426720576"><ele>15.0</ele><time>2026-03-22T14:09:20Z</time></trkpt><trkpt lat="38.19503472831954" lon="13.321670235218237"><ele>14.6</ele><time>2026-03-22T14:09:21Z</time></trkpt><trkpt lat="38.19508693896817" lon="13.321792178014208"><ele>14.2</ele><time>2026-03-22T14:09:22Z</time></trkpt><trkpt lat="38.19511290225639" lon="13.321917900439635"><ele>13.8</ele><time>2026-03-22T14:09:23Z</time></trkpt><trkpt lat="38.19516063423197" lon="13.322044559775014"><ele>13.4</ele><time>2026-03-22T14:09:24Z</time></trkpt><trkpt lat="38.19519687994213" lon="13.322137448644177"><ele>13.0</ele><time>2026-03-22T14:09:25Z</time></trkpt><trkpt lat="38.19522651387418" lon="13.322208329592364"><ele>13.0</ele><time>2026-03-22T14:09:26Z</time></trkpt><trkpt lat="38.19525177657673" lon="13.322286790917916"><ele>13.0</ele><time>2026-03-22T14:09:29Z</time></trkpt><trkpt lat="38.19536072260222" lon="13.322182849589813"><ele>13.0</ele><time>2026-03-22T14:09:30Z</time></trkpt><trkpt lat="38.19542511954545" lon="13.322152739525874"><ele>13.0</ele><time>2026-03-22T14:09:31Z</time></trkpt><trkpt lat="38.19551299847166" lon="13.322410723888508"><ele>13.2</ele><time>2026-03-22T14:09:34Z</time></trkpt><trkpt lat="38.195557981977515" lon="13.322521688800872"><ele>13.4</ele><time>2026-03-22T14:09:35Z</time></trkpt><trkpt lat="38.195615277993575" lon="13.322616907614279"><ele>13.599999999999998</ele><time>2026-03-22T14:09:36Z</time></trkpt><trkpt lat="38.19565039230317" lon="13.322747845957135"><ele>13.799999999999999</ele><time>2026-03-22T14:09:37Z</time></trkpt><trkpt lat="38.19571921402198" lon="13.322877261119022"><ele>14.0</ele><time>2026-03-22T14:09:38Z</time></trkpt><trkpt lat="38.19577204164601" lon="13.323005552439588"><ele>13.5</ele><time>2026-03-22T14:09:39Z</time></trkpt><trkpt lat="38.19582489914208" lon="13.323146713852612"><ele>13.0</ele><time>2026-03-22T14:09:40Z</time></trkpt><trkpt lat="38.195881982302886" lon="13.323294929386206"><ele>12.5</ele><time>2026-03-22T14:09:41Z</time></trkpt><trkpt lat="38.19592285488497" lon="13.323439063436723"><ele>12.0</ele><time>2026-03-22T14:09:42Z</time></trkpt><trkpt lat="38.19597366070081" lon="13.323593365011504"><ele>12.0</ele><time>2026-03-22T14:09:43Z</time></trkpt><trkpt lat="38.19601949085981" lon="13.323766326992464"><ele>12.0</ele><time>2026-03-22T14:09:44Z</time></trkpt><trkpt lat="38.196074203209605" lon="13.323930590574275"><ele>12.0</ele><time>2026-03-22T14:09:45Z</time></trkpt><trkpt lat="38.196140814713665" lon="13.324104139918065"><ele>12.0</ele><time>2026-03-22T14:09:46Z</time></trkpt><trkpt lat="38.19621603583081" lon="13.324271084565384"><ele>12.0</ele><time>2026-03-22T14:09:47Z</time></trkpt><trkpt lat="38.196269889690114" lon="13.324465089009932"><ele>12.0</ele><time>2026-03-22T14:09:48Z</time></trkpt><trkpt lat="38.196333728833096" lon="13.324604196985096"><ele>12.0</ele><time>2026-03-22T14:09:49Z</time></trkpt><trkpt lat="38.1963789058536" lon="13.324743061002547"><ele>12.0</ele><time>2026-03-22T14:09:50Z</time></trkpt><trkpt lat="38.19640672431804" lon="13.324869205884674"><ele>11.8</ele><time>2026-03-22T14:09:51Z</time></trkpt><trkpt lat="38.196445785902334" lon="13.324983390307693"><ele>11.6</ele><time>2026-03-22T14:09:52Z</time></trkpt><trkpt lat="38.19648472613346" lon="13.325096176821932"><ele>11.4</ele><time>2026-03-22T14:09:53Z</time></trkpt><trkpt lat="38.19651504791256" lon="13.32518400086518"><ele>11.200000000000001</ele><time>2026-03-22T14:09:54Z</time></trkpt><trkpt lat="38.196542085085866" lon="13.325262309857282"><ele>11.0</ele><time>2026-03-22T14:09:57Z</time></trkpt><trkpt lat="38.196645381323876" lon="13.325141952512755"><ele>10.4</ele><time>2026-03-22T14:09:58Z</time></trkpt><trkpt lat="38.19670718653833" lon="13.325116528911149"><ele>9.8</ele><time>2026-03-22T14:09:59Z</time></trkpt><trkpt lat="38.19678545641541" lon="13.325084332549435"><ele>9.200000000000001</ele><time>2026-03-22T14:10:00Z</time></trkpt><trkpt lat="38.19687418273901" lon="13.325072116182982"><ele>8.600000000000001</ele><time>2026-03-22T14:10:02Z</time></trkpt><trkpt lat="38.19677664885174" lon="13.324902786803055"><ele>8.0</ele><time>2026-03-22T14:10:38.001Z</time></trkpt><trkpt lat="38.19668172879982" lon="13.324935862530655"><ele>8.0</ele><time>2026-03-22T14:11:05.001Z</time></trkpt><trkpt lat="38.19666261799989" lon="13.325023337973313"><ele>8.0</ele><time>2026-03-22T14:11:12.001Z</time></trkpt><trkpt lat="38.196519585362026" lon="13.324831249204768"><ele>8.0</ele><time>2026-03-22T14:11:20.001Z</time></trkpt><trkpt lat="38.19667231368567" lon="13.325003890212482"><ele>8.0</ele><time>2026-03-22T14:11:24.001Z</time></trkpt></trkseg></trk></gpx>